GFSGL_prec_precacc_024.txt.gz
Total_Precipitation_Accumulation
0.00 0.00 0.00 0.00 0.00 0.00 0.00 0.00 0.00 0.00 0.00 0.00 0.00 0.00 0.00 0.00 0.00 0.00 0.00 0.00 0.00 0.00 0.02 0.04 0.06 0.08 0.09 0.08 0.09 0.10 0.11 0.19 0.24 0.04 0.04 0.05 0.06 0.03 0.04 0.07 0.06 0.05 0.05
0.00 0.00 0.00 0.00 0.00 0.00 0.00 0.00 0.00 0.00 0.00 0.00 0.00 0.00 0.00 0.00 0.00 0.00 0.00 0.00 0.00 0.00 0.00 0.01 0.02 0.03 0.05 0.09 0.11 0.10 0.12 0.14 0.24 0.14 0.02 0.03 0.03 0.03 0.03 0.06 0.07 0.10 0.09
0.00 0.00 0.00 0.00 0.00 0.00 0.00 0.00 0.00 0.00 0.00 0.00 0.00 0.00 0.00 0.00 0.00 0.00 0.00 0.00 0.00 0.00 0.00 0.00 0.00 0.00 0.00 0.02 0.06 0.09 0.12 0.16 0.23 0.28 0.13 0.07 0.07 0.06 0.06 0.08 0.11 0.11 0.12
0.00 0.00 0.00 0.00 0.00 0.00 0.00 0.00 0.00 0.00 0.00 0.00 0.00 0.00 0.00 0.00 0.00 0.00 0.00 0.00 0.00 0.00 0.00 0.00 0.00 0.00 0.00 0.00 0.03 0.09 0.15 0.18 0.20 0.22 0.17 0.10 0.09 0.08 0.12 0.12 0.12 0.11 0.13
0.00 0.00 0.00 0.00 0.00 0.00 0.00 0.00 0.00 0.00 0.00 0.00 0.00 0.00 0.00 0.00 0.00 0.00 0.00 0.00 0.00 0.00 0.00 0.00 0.00 0.00 0.00 0.01 0.05 0.07 0.16 0.19 0.23 0.27 0.25 0.24 0.28 0.30 0.26 0.26 0.37 0.37 0.38
0.00 0.00 0.00 0.00 0.00 0.00 0.00 0.00 0.00 0.00 0.00 0.00 0.00 0.00 0.00 0.00 0.00 0.00 0.00 0.00 0.00 0.00 0.00 0.00 0.00 0.00 0.00 0.02 0.05 0.08 0.11 0.19 0.21 0.29 0.35 0.44 0.39 0.40 0.42 0.49 0.55 0.63 0.62
0.00 0.00 0.00 0.00 0.00 0.00 0.00 0.00 0.00 0.00 0.00 0.00 0.00 0.00 0.00 0.00 0.00 0.00 0.00 0.00 0.00 0.00 0.00 0.00 0.00 0.00 0.02 0.02 0.02 0.04 0.08 0.14 0.18 0.17 0.21 0.25 0.34 0.28 0.31 0.40 0.46 0.50 0.45
0.00 0.00 0.00 0.00 0.00 0.00 0.00 0.00 0.00 0.00 0.00 0.00 0.00 0.00 0.00 0.00 0.00 0.00 0.00 0.00 0.00 0.00 0.00 0.00 0.00 0.01 0.02 0.03 0.05 0.11 0.08 0.04 0.03 0.06 0.08 0.09 0.19 0.30 0.48 0.61 0.69 0.81 0.66
0.00 0.00 0.00 0.00 0.00 0.00 0.00 0.00 0.00 0.00 0.00 0.00 0.00 0.00 0.00 0.00 0.00 0.00 0.00 0.00 0.00 0.00 0.00 0.00 0.02 0.01 0.01 0.06 0.14 0.14 0.03 0.01 0.02 0.05 0.10 0.14 0.18 0.20 0.27 0.48 0.68 0.69 0.68
0.00 0.00 0.00 0.00 0.00 0.00 0.00 0.00 0.00 0.00 0.00 0.00 0.00 0.00 0.00 0.00 0.00 0.00 0.00 0.00 0.00 0.00 0.02 0.02 0.01 0.01 0.04 0.17 0.10 0.03 0.07 0.03 0.04 0.04 0.02 0.02 0.04 0.11 0.23 0.29 0.54 0.94 0.78
0.00 0.00 0.00 0.00 0.00 0.00 0.00 0.00 0.00 0.00 0.00 0.00 0.00 0.00 0.00 0.00 0.00 0.00 0.00 0.01 0.01 0.07 0.07 0.02 0.00 0.05 0.16 0.08 0.02 0.03 0.07 0.07 0.07 0.04 0.02 0.02 0.04 0.07 0.14 0.24 0.52 1.04 1.14
0.00 0.00 0.00 0.00 0.00 0.00 0.00 0.00 0.00 0.00 0.00 0.00 0.00 0.00 0.00 0.00 0.00 0.00 0.01 0.02 0.05 0.06 0.05 0.03 0.07 0.14 0.04 0.01 0.02 0.03 0.05 0.06 0.03 0.02 0.04 0.05 0.08 0.15 0.23 0.31 0.40 0.54 0.66
0.00 0.00 0.00 0.00 0.00 0.00 0.00 0.00 0.00 0.00 0.00 0.00 0.00 0.00 0.00 0.00 0.00 0.00 0.00 0.06 0.08 0.05 0.04 0.12 0.12 0.02 0.01 0.01 0.02 0.03 0.03 0.02 0.05 0.12 0.16 0.17 0.21 0.32 0.35 0.37 0.46 0.47 0.49
0.00 0.00 0.00 0.00 0.00 0.00 0.00 0.00 0.00 0.00 0.00 0.00 0.00 0.00 0.00 0.00 0.00 0.00 0.02 0.05 0.04 0.07 0.16 0.13 0.02 0.01 0.02 0.02 0.01 0.02 0.02 0.06 0.12 0.24 0.29 0.21 0.28 0.38 0.38 0.50 0.66 0.62 0.76
0.00 0.00 0.00 0.00 0.00 0.00 0.00 0.00 0.00 0.00 0.00 0.00 0.00 0.01 0.01 0.01 0.01 0.04 0.06 0.05 0.09 0.16 0.06 0.01 0.00 0.01 0.01 0.01 0.00 0.01 0.02 0.06 0.14 0.17 0.26 0.27 0.33 0.44 0.50 0.65 0.82 0.89 0.87
0.00 0.00 0.00 0.00 0.00 0.00 0.00 0.00 0.00 0.00 0.00 0.00 0.00 0.01 0.01 0.02 0.04 0.05 0.03 0.10 0.15 0.05 0.01 0.01 0.02 0.03 0.02 0.02 0.03 0.03 0.03 0.07 0.13 0.24 0.26 0.28 0.39 0.52 0.63 0.82 1.01 0.94 0.74
0.00 0.00 0.00 0.00 0.00 0.00 0.00 0.00 0.00 0.00 0.00 0.00 0.00 0.01 0.01 0.02 0.02 0.01 0.08 0.14 0.03 0.01 0.01 0.04 0.03 0.03 0.03 0.04 0.06 0.10 0.13 0.12 0.28 0.40 0.46 0.48 0.52 0.62 0.77 0.89 0.90 0.74 0.58
0.00 0.00 0.00 0.00 0.00 0.00 0.00 0.00 0.00 0.00 0.00 0.00 0.00 0.00 0.01 0.01 0.01 0.04 0.08 0.03 0.00 0.01 0.05 0.05 0.03 0.03 0.04 0.08 0.13 0.21 0.25 0.26 0.40 0.48 0.55 0.54 0.56 0.73 0.85 0.84 0.73 0.54 0.37
0.00 0.00 0.00 0.00 0.00 0.00 0.00 0.00 0.00 0.00 0.00 0.00 0.00 0.00 0.00 0.00 0.03 0.07 0.02 0.01 0.02 0.04 0.05 0.03 0.03 0.03 0.05 0.11 0.17 0.24 0.31 0.48 0.62 0.69 0.65 0.64 0.66 0.79 0.78 0.67 0.48 0.29 0.12
0.00 0.00 0.00 0.00 0.00 0.00 0.00 0.00 0.00 0.00 0.00 0.01 0.01 0.00 0.00 0.03 0.11 0.01 0.00 0.01 0.04 0.05 0.03 0.03 0.03 0.03 0.07 0.12 0.19 0.26 0.38 0.46 0.52 0.54 0.60 0.62 0.68 0.71 0.56 0.35 0.17 0.10 0.08
0.00 0.00 0.00 0.00 0.00 0.00 0.00 0.00 0.00 0.01 0.02 0.01 0.00 0.00 0.04 0.05 0.03 0.01 0.01 0.03 0.03 0.03 0.03 0.04 0.04 0.05 0.08 0.13 0.20 0.29 0.46 0.52 0.53 0.62 0.64 0.60 0.55 0.39 0.16 0.07 0.06 0.07 0.08
0.00 0.00 0.00 0.00 0.00 0.00 0.00 0.00 0.01 0.01 0.01 0.01 0.01 0.01 0.03 0.01 0.01 0.02 0.03 0.02 0.01 0.02 0.02 0.04 0.05 0.06 0.13 0.27 0.40 0.48 0.50 0.56 0.59 0.61 0.57 0.44 0.28 0.10 0.04 0.03 0.02 0.03 0.04
0.00 0.00 0.00 0.00 0.00 0.01 0.01 0.01 0.01 0.01 0.01 0.01 0.02 0.02 0.01 0.01 0.02 0.03 0.02 0.01 0.01 0.02 0.01 0.02 0.05 0.07 0.07 0.19 0.40 0.66 0.73 0.61 0.60 0.59 0.41 0.25 0.11 0.04 0.05 0.05 0.03 0.03 0.04
0.00 0.00 0.00 0.00 0.01 0.01 0.01 0.01 0.00 0.01 0.02 0.02 0.01 0.01 0.01 0.02 0.02 0.01 0.01 0.01 0.01 0.01 0.00 0.01 0.05 0.09 0.14 0.24 0.43 0.57 0.65 0.64 0.58 0.37 0.24 0.16 0.05 0.04 0.05 0.05 0.04 0.03 0.03
0.00 0.00 0.00 0.00 0.00 0.00 0.01 0.01 0.01 0.01 0.00 0.01 0.01 0.02 0.02 0.02 0.01 0.01 0.01 0.01 0.01 0.01 0.00 0.01 0.04 0.12 0.18 0.32 0.49 0.57 0.61 0.55 0.36 0.19 0.13 0.05 0.06 0.05 0.06 0.05 0.04 0.02 0.02
0.00 0.00 0.00 0.00 0.00 0.00 0.00 0.00 0.00 0.00 0.01 0.02 0.02 0.02 0.02 0.02 0.02 0.02 0.02 0.01 0.01 0.01 0.00 0.01 0.04 0.10 0.17 0.34 0.48 0.58 0.54 0.41 0.20 0.10 0.05 0.04 0.04 0.03 0.03 0.03 0.04 0.02 0.02

GFSGL_prec_precacc_027.txt.gz
Total_Precipitation_Accumulation
0.00 0.00 0.00 0.00 0.00 0.00 0.00 0.00 0.00 0.00 0.00 0.00 0.00 0.00 0.00 0.00 0.00 0.00 0.00 0.00 0.00 0.00 0.02 0.04 0.06 0.08 0.09 0.08 0.09 0.10 0.11 0.19 0.24 0.04 0.04 0.05 0.06 0.03 0.04 0.07 0.06 0.05 0.05
0.00 0.00 0.00 0.00 0.00 0.00 0.00 0.00 0.00 0.00 0.00 0.00 0.00 0.00 0.00 0.00 0.00 0.00 0.00 0.00 0.00 0.00 0.00 0.01 0.02 0.03 0.05 0.09 0.11 0.10 0.12 0.14 0.24 0.14 0.02 0.03 0.03 0.03 0.03 0.06 0.07 0.10 0.09
0.00 0.00 0.00 0.00 0.00 0.00 0.00 0.00 0.00 0.00 0.00 0.00 0.00 0.00 0.00 0.00 0.00 0.00 0.00 0.00 0.00 0.00 0.00 0.00 0.00 0.00 0.00 0.02 0.06 0.09 0.12 0.16 0.23 0.28 0.13 0.07 0.07 0.06 0.06 0.08 0.11 0.12 0.12
0.00 0.00 0.00 0.00 0.00 0.00 0.00 0.00 0.00 0.00 0.00 0.00 0.00 0.00 0.00 0.00 0.00 0.00 0.00 0.00 0.00 0.00 0.00 0.00 0.00 0.00 0.00 0.00 0.03 0.09 0.15 0.18 0.20 0.23 0.19 0.13 0.10 0.09 0.13 0.13 0.12 0.11 0.13
0.00 0.00 0.00 0.00 0.00 0.00 0.00 0.00 0.00 0.00 0.00 0.00 0.00 0.00 0.00 0.00 0.00 0.00 0.00 0.00 0.00 0.00 0.00 0.00 0.00 0.00 0.00 0.01 0.05 0.07 0.16 0.19 0.26 0.33 0.29 0.27 0.30 0.31 0.26 0.26 0.37 0.37 0.38
0.00 0.00 0.00 0.00 0.00 0.00 0.00 0.00 0.00 0.00 0.00 0.00 0.00 0.00 0.00 0.00 0.00 0.00 0.00 0.00 0.00 0.00 0.00 0.00 0.00 0.00 0.00 0.02 0.05 0.08 0.11 0.21 0.23 0.34 0.41 0.45 0.39 0.40 0.42 0.49 0.56 0.64 0.64
0.00 0.00 0.00 0.00 0.00 0.00 0.00 0.00 0.00 0.00 0.00 0.00 0.00 0.00 0.00 0.00 0.00 0.00 0.00 0.00 0.00 0.00 0.00 0.00 0.00 0.00 0.02 0.02 0.02 0.05 0.09 0.19 0.24 0.20 0.22 0.25 0.34 0.28 0.33 0.45 0.49 0.52 0.47
0.00 0.00 0.00 0.00 0.00 0.00 0.00 0.00 0.00 0.00 0.00 0.00 0.00 0.00 0.00 0.00 0.00 0.00 0.00 0.00 0.00 0.00 0.00 0.00 0.00 0.01 0.02 0.03 0.05 0.12 0.10 0.06 0.03 0.06 0.08 0.09 0.19 0.31 0.49 0.62 0.70 0.81 0.66
0.00 0.00 0.00 0.00 0.00 0.00 0.00 0.00 0.00 0.00 0.00 0.00 0.00 0.00 0.00 0.00 0.00 0.00 0.00 0.00 0.00 0.00 0.00 0.00 0.03 0.02 0.01 0.07 0.16 0.20 0.05 0.01 0.02 0.05 0.11 0.15 0.19 0.20 0.27 0.49 0.72 0.72 0.70
0.00 0.00 0.00 0.00 0.00 0.00 0.00 0.00 0.00 0.00 0.00 0.00 0.00 0.00 0.00 0.00 0.00 0.00 0.00 0.00 0.00 0.00 0.02 0.02 0.01 0.02 0.04 0.20 0.13 0.04 0.08 0.03 0.04 0.05 0.02 0.02 0.04 0.11 0.23 0.29 0.57 1.01 0.81
0.00 0.00 0.00 0.00 0.00 0.00 0.00 0.00 0.00 0.00 0.00 0.00 0.00 0.00 0.00 0.00 0.00 0.00 0.00 0.02 0.02 0.08 0.07 0.02 0.00 0.05 0.19 0.11 0.03 0.03 0.07 0.08 0.07 0.04 0.02 0.02 0.04 0.07 0.14 0.24 0.53 1.12 1.23
0.00 0.00 0.00 0.00 0.00 0.00 0.00 0.00 0.00 0.00 0.00 0.00 0.00 0.00 0.00 0.00 0.00 0.00 0.01 0.03 0.06 0.07 0.05 0.03 0.08 0.17 0.05 0.02 0.02 0.03 0.05 0.06 0.03 0.02 0.04 0.05 0.08 0.15 0.24 0.32 0.41 0.56 0.70
0.00 0.00 0.00 0.00 0.00 0.00 0.00 0.00 0.00 0.00 0.00 0.00 0.00 0.00 0.00 0.00 0.00 0.00 0.00 0.07 0.08 0.06 0.04 0.14 0.14 0.02 0.01 0.01 0.02 0.03 0.03 0.02 0.06 0.14 0.17 0.18 0.22 0.34 0.36 0.38 0.46 0.48 0.50
0.00 0.00 0.00 0.00 0.00 0.00 0.00 0.00 0.00 0.00 0.00 0.00 0.00 0.00 0.00 0.00 0.00 0.00 0.02 0.05 0.04 0.08 0.17 0.15 0.02 0.01 0.02 0.02 0.01 0.02 0.02 0.06 0.15 0.27 0.31 0.22 0.30 0.40 0.40 0.52 0.69 0.63 0.77
0.00 0.00 0.00 0.00 0.00 0.00 0.00 0.00 0.00 0.00 0.00 0.00 0.00 0.01 0.01 0.01 0.01 0.05 0.07 0.05 0.09 0.16 0.07 0.01 0.00 0.01 0.01 0.01 0.00 0.01 0.02 0.06 0.16 0.19 0.29 0.30 0.34 0.46 0.51 0.66 0.85 0.92 0.89
0.00 0.00 0.00 0.00 0.00 0.00 0.00 0.00 0.00 0.00 0.00 0.00 0.00 0.01 0.01 0.02 0.04 0.05 0.03 0.11 0.15 0.05 0.01 0.01 0.02 0.03 0.02 0.02 0.03 0.04 0.04 0.08 0.15 0.26 0.28 0.30 0.42 0.54 0.65 0.83 1.02 0.97 0.78
0.00 0.00 0.00 0.00 0.00 0.00 0.00 0.00 0.00 0.00 0.00 0.00 0.00 0.01 0.01 0.02 0.02 0.01 0.09 0.14 0.03 0.01 0.01 0.04 0.04 0.03 0.03 0.04 0.06 0.11 0.14 0.13 0.30 0.42 0.49 0.51 0.54 0.63 0.78 0.90 0.92 0.76 0.60
0.00 0.00 0.00 0.00 0.00 0.00 0.00 0.00 0.00 0.00 0.00 0.00 0.00 0.00 0.01 0.01 0.01 0.04 0.09 0.03 0.00 0.01 0.05 0.05 0.03 0.03 0.04 0.10 0.15 0.23 0.27 0.27 0.41 0.50 0.57 0.55 0.58 0.75 0.87 0.87 0.76 0.56 0.40
0.00 0.00 0.00 0.00 0.00 0.00 0.00 0.00 0.00 0.00 0.00 0.00 0.00 0.00 0.00 0.00 0.03 0.07 0.02 0.01 0.02 0.05 0.05 0.03 0.03 0.03 0.07 0.13 0.18 0.25 0.33 0.50 0.64 0.71 0.67 0.66 0.67 0.81 0.80 0.68 0.50 0.31 0.15
0.00 0.00 0.00 0.00 0.00 0.00 0.00 0.00 0.00 0.00 0.00 0.01 0.01 0.00 0.00 0.03 0.11 0.01 0.00 0.01 0.04 0.05 0.03 0.03 0.03 0.04 0.08 0.14 0.21 0.27 0.39 0.46 0.52 0.56 0.61 0.63 0.69 0.73 0.60 0.36 0.18 0.11 0.09
0.00 0.00 0.00 0.00 0.00 0.00 0.00 0.00 0.00 0.01 0.02 0.01 0.00 0.00 0.04 0.05 0.03 0.01 0.01 0.03 0.03 0.03 0.03 0.04 0.04 0.06 0.09 0.14 0.20 0.30 0.47 0.52 0.54 0.64 0.65 0.61 0.57 0.42 0.18 0.08 0.07 0.09 0.09
0.00 0.00 0.00 0.00 0.00 0.00 0.00 0.00 0.01 0.01 0.01 0.01 0.01 0.01 0.03 0.01 0.01 0.02 0.03 0.02 0.01 0.02 0.02 0.05 0.06 0.06 0.14 0.30 0.43 0.50 0.51 0.57 0.61 0.63 0.58 0.46 0.31 0.13 0.05 0.04 0.04 0.05 0.06
0.00 0.00 0.00 0.00 0.00 0.01 0.01 0.01 0.01 0.01 0.01 0.01 0.02 0.02 0.01 0.01 0.02 0.03 0.02 0.01 0.01 0.02 0.01 0.02 0.06 0.09 0.07 0.20 0.42 0.71 0.78 0.65 0.63 0.61 0.45 0.28 0.14 0.06 0.06 0.06 0.05 0.04 0.05
0.00 0.00 0.00 0.00 0.01 0.01 0.01 0.01 0.00 0.01 0.02 0.02 0.01 0.01 0.01 0.02 0.02 0.01 0.01 0.01 0.01 0.01 0.00 0.01 0.06 0.10 0.15 0.26 0.46 0.61 0.70 0.69 0.64 0.46 0.31 0.21 0.06 0.05 0.06 0.06 0.04 0.04 0.05
0.00 0.00 0.00 0.00 0.00 0.00 0.01 0.01 0.01 0.01 0.00 0.01 0.01 0.02 0.02 0.02 0.01 0.01 0.01 0.01 0.01 0.01 0.00 0.01 0.05 0.13 0.21 0.36 0.52 0.60 0.63 0.59 0.44 0.25 0.16 0.08 0.06 0.06 0.07 0.06 0.04 0.03 0.03
0.00 0.00 0.00 0.00 0.00 0.00 0.00 0.00 0.00 0.00 0.01 0.02 0.02 0.02 0.02 0.02 0.02 0.02 0.02 0.01 0.01 0.01 0.00 0.01 0.05 0.12 0.19 0.37 0.51 0.60 0.58 0.48 0.25 0.12 0.06 0.04 0.04 0.04 0.04 0.04 0.04 0.03 0.02

GFSGL_prec_precacc_030.txt.gz
Total_Precipitation_Accumulation
0.00 0.00 0.00 0.00 0.00 0.00 0.00 0.00 0.00 0.00 0.00 0.00 0.00 0.00 0.00 0.00 0.00 0.00 0.00 0.00 0.00 0.00 0.02 0.04 0.06 0.08 0.09 0.08 0.09 0.10 0.11 0.19 0.24 0.04 0.04 0.05 0.06 0.03 0.04 0.07 0.06 0.05 0.05
0.00 0.00 0.00 0.00 0.00 0.00 0.00 0.00 0.00 0.00 0.00 0.00 0.00 0.00 0.00 0.00 0.00 0.00 0.00 0.00 0.00 0.00 0.00 0.01 0.02 0.03 0.05 0.09 0.11 0.10 0.12 0.14 0.24 0.14 0.02 0.03 0.03 0.03 0.03 0.06 0.07 0.10 0.09
0.00 0.00 0.00 0.00 0.00 0.00 0.00 0.00 0.00 0.00 0.00 0.00 0.00 0.00 0.00 0.00 0.00 0.00 0.00 0.00 0.00 0.00 0.00 0.00 0.00 0.00 0.00 0.02 0.06 0.09 0.12 0.16 0.23 0.29 0.14 0.07 0.07 0.06 0.06 0.08 0.11 0.12 0.12
0.00 0.00 0.00 0.00 0.00 0.00 0.00 0.00 0.00 0.00 0.00 0.00 0.00 0.00 0.00 0.00 0.00 0.00 0.00 0.00 0.00 0.00 0.00 0.00 0.00 0.00 0.00 0.00 0.03 0.09 0.15 0.18 0.20 0.23 0.21 0.15 0.10 0.10 0.14 0.14 0.12 0.11 0.13
0.00 0.00 0.00 0.00 0.00 0.00 0.00 0.00 0.00 0.00 0.00 0.00 0.00 0.00 0.00 0.00 0.00 0.00 0.00 0.00 0.00 0.00 0.00 0.00 0.00 0.00 0.00 0.01 0.06 0.08 0.16 0.20 0.29 0.37 0.31 0.30 0.34 0.32 0.26 0.26 0.37 0.37 0.38
0.00 0.00 0.00 0.00 0.00 0.00 0.00 0.00 0.00 0.00 0.00 0.00 0.00 0.00 0.00 0.00 0.00 0.00 0.00 0.00 0.00 0.00 0.00 0.00 0.00 0.00 0.00 0.02 0.05 0.08 0.12 0.22 0.25 0.41 0.51 0.49 0.39 0.40 0.42 0.49 0.59 0.70 0.66
0.00 0.00 0.00 0.00 0.00 0.00 0.00 0.00 0.00 0.00 0.00 0.00 0.00 0.00 0.00 0.00 0.00 0.00 0.00 0.00 0.00 0.00 0.00 0.00 0.00 0.00 0.02 0.02 0.02 0.06 0.10 0.22 0.31 0.24 0.22 0.25 0.34 0.29 0.38 0.51 0.53 0.53 0.47
0.00 0.00 0.00 0.00 0.00 0.00 0.00 0.00 0.00 0.00 0.00 0.00 0.00 0.00 0.00 0.00 0.00 0.00 0.00 0.00 0.00 0.00 0.00 0.00 0.00 0.01 0.02 0.04 0.05 0.14 0.17 0.11 0.03 0.06 0.08 0.10 0.21 0.33 0.51 0.62 0.70 0.82 0.67
0.00 0.00 0.00 0.00 0.00 0.00 0.00 0.00 0.00 0.00 0.00 0.00 0.00 0.00 0.00 0.00 0.00 0.00 0.00 0.00 0.00 0.00 0.00 0.00 0.03 0.02 0.01 0.07 0.19 0.26 0.06 0.01 0.02 0.05 0.13 0.16 0.19 0.20 0.27 0.52 0.76 0.75 0.71
0.00 0.00 0.00 0.00 0.00 0.00 0.00 0.00 0.00 0.00 0.00 0.00 0.00 0.00 0.00 0.00 0.00 0.00 0.00 0.00 0.00 0.00 0.02 0.02 0.02 0.02 0.05 0.25 0.15 0.04 0.08 0.04 0.06 0.06 0.02 0.02 0.04 0.11 0.23 0.30 0.61 1.09 0.84
0.00 0.00 0.00 0.00 0.00 0.00 0.00 0.00 0.00 0.00 0.00 0.00 0.00 0.00 0.00 0.00 0.00 0.00 0.00 0.02 0.02 0.09 0.08 0.02 0.00 0.06 0.23 0.12 0.03 0.03 0.07 0.08 0.08 0.04 0.02 0.02 0.04 0.07 0.14 0.24 0.55 1.19 1.32
0.00 0.00 0.00 0.00 0.00 0.00 0.00 0.00 0.00 0.00 0.00 0.00 0.00 0.00 0.00 0.00 0.00 0.00 0.01 0.03 0.06 0.08 0.05 0.03 0.08 0.19 0.06 0.02 0.02 0.04 0.06 0.07 0.03 0.02 0.04 0.05 0.08 0.16 0.24 0.32 0.42 0.58 0.74
0.00 0.00 0.00 0.00 0.00 0.00 0.00 0.00 0.00 0.00 0.00 0.00 0.00 0.00 0.00 0.00 0.00 0.00 0.00 0.07 0.09 0.07 0.05 0.15 0.15 0.02 0.01 0.01 0.02 0.03 0.03 0.02 0.07 0.15 0.18 0.18 0.22 0.34 0.37 0.39 0.46 0.48 0.51
0.00 0.00 0.00 0.00 0.00 0.00 0.00 0.00 0.00 0.00 0.00 0.00 0.00 0.00 0.00 0.00 0.00 0.00 0.03 0.05 0.04 0.08 0.17 0.15 0.02 0.01 0.02 0.02 0.01 0.02 0.02 0.07 0.17 0.30 0.32 0.22 0.30 0.41 0.41 0.54 0.71 0.63 0.79
0.00 0.00 0.00 0.00 0.00 0.00 0.00 0.00 0.00 0.00 0.00 0.00 0.00 0.01 0.01 0.01 0.01 0.05 0.07 0.05 0.09 0.17 0.07 0.01 0.00 0.01 0.01 0.01 0.00 0.01 0.02 0.06 0.16 0.19 0.30 0.31 0.35 0.46 0.52 0.67 0.88 0.94 0.92
0.00 0.00 0.00 0.00 0.00 0.00 0.00 0.00 0.00 0.00 0.00 0.00 0.00 0.01 0.01 0.02 0.04 0.05 0.03 0.12 0.16 0.06 0.01 0.01 0.02 0.03 0.02 0.02 0.03 0.04 0.04 0.08 0.15 0.27 0.28 0.31 0.43 0.55 0.66 0.83 1.04 1.00 0.83
0.00 0.00 0.00 0.00 0.00 0.00 0.00 0.00 0.00 0.00 0.00 0.00 0.00 0.01 0.01 0.02 0.02 0.01 0.09 0.15 0.03 0.01 0.01 0.04 0.04 0.03 0.03 0.04 0.07 0.12 0.15 0.14 0.30 0.43 0.50 0.53 0.56 0.64 0.79 0.91 0.93 0.78 0.61
0.00 0.00 0.00 0.00 0.00 0.00 0.00 0.00 0.00 0.00 0.00 0.00 0.00 0.00 0.01 0.01 0.01 0.04 0.09 0.03 0.00 0.01 0.05 0.05 0.03 0.03 0.04 0.10 0.15 0.23 0.27 0.28 0.41 0.51 0.58 0.57 0.60 0.77 0.88 0.88 0.77 0.59 0.43
0.00 0.00 0.00 0.00 0.00 0.00 0.00 0.00 0.00 0.00 0.00 0.00 0.00 0.00 0.00 0.00 0.04 0.07 0.02 0.01 0.02 0.05 0.05 0.03 0.03 0.04 0.07 0.13 0.19 0.26 0.34 0.51 0.65 0.73 0.68 0.67 0.69 0.84 0.81 0.70 0.52 0.32 0.17
0.00 0.00 0.00 0.00 0.00 0.00 0.00 0.00 0.00 0.00 0.00 0.01 0.01 0.00 0.00 0.03 0.11 0.01 0.00 0.01 0.04 0.05 0.03 0.03 0.03 0.04 0.09 0.15 0.21 0.28 0.40 0.47 0.53 0.56 0.62 0.64 0.70 0.75 0.62 0.39 0.20 0.13 0.10
0.00 0.00 0.00 0.00 0.00 0.00 0.00 0.00 0.00 0.01 0.02 0.01 0.00 0.00 0.04 0.05 0.03 0.01 0.01 0.03 0.03 0.03 0.04 0.05 0.04 0.06 0.10 0.14 0.21 0.31 0.48 0.53 0.55 0.66 0.67 0.62 0.58 0.44 0.21 0.12 0.09 0.11 0.11
0.00 0.00 0.00 0.00 0.00 0.00 0.00 0.00 0.01 0.01 0.01 0.01 0.01 0.01 0.03 0.01 0.01 0.02 0.03 0.02 0.01 0.02 0.03 0.05 0.06 0.07 0.16 0.32 0.46 0.53 0.52 0.57 0.62 0.64 0.59 0.46 0.32 0.14 0.08 0.06 0.04 0.06 0.08
0.00 0.00 0.00 0.00 0.00 0.01 0.01 0.01 0.01 0.01 0.01 0.01 0.02 0.02 0.01 0.01 0.02 0.03 0.02 0.01 0.01 0.02 0.01 0.02 0.07 0.10 0.08 0.22 0.44 0.75 0.83 0.68 0.66 0.63 0.47 0.31 0.17 0.08 0.08 0.08 0.05 0.06 0.06
0.00 0.00 0.00 0.00 0.01 0.01 0.01 0.01 0.00 0.01 0.02 0.02 0.01 0.01 0.01 0.02 0.02 0.01 0.01 0.01 0.02 0.01 0.00 0.01 0.07 0.12 0.17 0.27 0.49 0.65 0.76 0.75 0.69 0.53 0.40 0.29 0.10 0.06 0.08 0.07 0.05 0.07 0.05
0.00 0.00 0.00 0.00 0.00 0.00 0.01 0.01 0.01 0.01 0.00 0.01 0.01 0.02 0.02 0.02 0.01 0.01 0.01 0.02 0.02 0.01 0.00 0.01 0.06 0.16 0.24 0.39 0.56 0.63 0.67 0.63 0.50 0.31 0.19 0.09 0.07 0.07 0.08 0.07 0.05 0.03 0.03
0.00 0.00 0.00 0.00 0.00 0.00 0.00 0.00 0.00 0.01 0.02 0.02 0.02 0.02 0.02 0.02 0.02 0.02 0.02 0.02 0.02 0.01 0.00 0.01 0.06 0.13 0.22 0.39 0.53 0.64 0.62 0.54 0.30 0.13 0.07 0.04 0.04 0.04 0.04 0.04 0.05 0.03 0.03

GFSGL_prec_precacc_033.txt.gz
Total_Precipitation_Accumulation
0.00 0.00 0.00 0.00 0.00 0.00 0.00 0.00 0.00 0.00 0.00 0.00 0.00 0.00 0.00 0.00 0.00 0.00 0.00 0.00 0.00 0.00 0.02 0.04 0.06 0.08 0.09 0.08 0.09 0.10 0.11 0.19 0.24 0.04 0.04 0.05 0.06 0.03 0.04 0.07 0.06 0.05 0.05
0.00 0.00 0.00 0.00 0.00 0.00 0.00 0.00 0.00 0.00 0.00 0.00 0.00 0.00 0.00 0.00 0.00 0.00 0.00 0.00 0.00 0.00 0.00 0.01 0.02 0.03 0.05 0.09 0.11 0.10 0.12 0.14 0.24 0.15 0.02 0.03 0.03 0.03 0.03 0.06 0.07 0.11 0.11
0.00 0.00 0.00 0.00 0.00 0.00 0.00 0.00 0.00 0.00 0.00 0.00 0.00 0.00 0.00 0.00 0.00 0.00 0.00 0.00 0.00 0.00 0.00 0.00 0.00 0.00 0.00 0.02 0.06 0.09 0.12 0.16 0.23 0.29 0.14 0.07 0.07 0.06 0.07 0.09 0.11 0.12 0.12
0.00 0.00 0.00 0.00 0.00 0.00 0.00 0.00 0.00 0.00 0.00 0.00 0.00 0.00 0.00 0.00 0.00 0.00 0.00 0.00 0.00 0.00 0.00 0.00 0.00 0.00 0.00 0.00 0.03 0.09 0.15 0.18 0.20 0.23 0.22 0.15 0.10 0.12 0.17 0.14 0.12 0.11 0.13
0.00 0.00 0.00 0.00 0.00 0.00 0.00 0.00 0.00 0.00 0.00 0.00 0.00 0.00 0.00 0.00 0.00 0.00 0.00 0.00 0.00 0.00 0.00 0.00 0.00 0.00 0.00 0.01 0.06 0.08 0.16 0.20 0.31 0.39 0.33 0.35 0.39 0.33 0.26 0.26 0.37 0.37 0.39
0.00 0.00 0.00 0.00 0.00 0.00 0.00 0.00 0.00 0.00 0.00 0.00 0.00 0.00 0.00 0.00 0.00 0.00 0.00 0.00 0.00 0.00 0.00 0.00 0.00 0.00 0.00 0.02 0.05 0.09 0.12 0.23 0.29 0.50 0.58 0.51 0.39 0.40 0.42 0.50 0.61 0.72 0.67
0.00 0.00 0.00 0.00 0.00 0.00 0.00 0.00 0.00 0.00 0.00 0.00 0.00 0.00 0.00 0.00 0.00 0.00 0.00 0.00 0.00 0.00 0.00 0.00 0.00 0.00 0.02 0.02 0.02 0.06 0.11 0.27 0.35 0.25 0.22 0.25 0.34 0.30 0.43 0.55 0.54 0.54 0.48
0.00 0.00 0.00 0.00 0.00 0.00 0.00 0.00 0.00 0.00 0.00 0.00 0.00 0.00 0.00 0.00 0.00 0.00 0.00 0.00 0.00 0.00 0.00 0.00 0.00 0.01 0.02 0.04 0.07 0.18 0.20 0.12 0.03 0.06 0.08 0.10 0.21 0.35 0.52 0.63 0.72 0.84 0.67
0.00 0.00 0.00 0.00 0.00 0.00 0.00 0.00 0.00 0.00 0.00 0.00 0.00 0.00 0.00 0.00 0.00 0.00 0.00 0.00 0.00 0.00 0.00 0.00 0.03 0.02 0.02 0.09 0.21 0.27 0.06 0.01 0.02 0.05 0.14 0.16 0.19 0.20 0.27 0.57 0.79 0.77 0.72
0.00 0.00 0.00 0.00 0.00 0.00 0.00 0.00 0.00 0.00 0.00 0.00 0.00 0.00 0.00 0.00 0.00 0.00 0.00 0.00 0.00 0.00 0.02 0.02 0.02 0.02 0.06 0.27 0.15 0.04 0.08 0.04 0.09 0.07 0.02 0.02 0.04 0.11 0.23 0.32 0.66 1.15 0.87
0.00 0.00 0.00 0.00 0.00 0.00 0.00 0.00 0.00 0.00 0.00 0.00 0.00 0.00 0.00 0.00 0.00 0.00 0.00 0.02 0.02 0.09 0.08 0.02 0.00 0.07 0.24 0.12 0.03 0.03 0.07 0.09 0.09 0.04 0.02 0.02 0.04 0.07 0.14 0.24 0.57 1.27 1.41
0.00 0.00 0.00 0.00 0.00 0.00 0.00 0.00 0.00 0.00 0.00 0.00 0.00 0.00 0.00 0.00 0.00 0.00 0.01 0.03 0.07 0.08 0.05 0.03 0.08 0.20 0.06 0.02 0.02 0.04 0.06 0.07 0.03 0.02 0.04 0.05 0.08 0.16 0.24 0.32 0.43 0.60 0.78
0.00 0.00 0.00 0.00 0.00 0.00 0.00 0.00 0.00 0.00 0.00 0.00 0.00 0.00 0.00 0.00 0.00 0.00 0.00 0.07 0.09 0.07 0.05 0.16 0.15 0.02 0.01 0.01 0.02 0.03 0.03 0.02 0.07 0.16 0.18 0.18 0.22 0.34 0.37 0.39 0.46 0.48 0.52
0.00 0.00 0.00 0.00 0.00 0.00 0.00 0.00 0.00 0.00 0.00 0.00 0.00 0.00 0.00 0.00 0.00 0.00 0.03 0.05 0.04 0.09 0.17 0.15 0.02 0.01 0.02 0.02 0.01 0.02 0.02 0.07 0.17 0.31 0.33 0.22 0.30 0.41 0.41 0.54 0.72 0.64 0.81
0.00 0.00 0.00 0.00 0.00 0.00 0.00 0.00 0.00 0.00 0.00 0.00 0.00 0.01 0.01 0.01 0.01 0.05 0.07 0.06 0.10 0.17 0.07 0.01 0.00 0.01 0.01 0.01 0.00 0.01 0.02 0.06 0.16 0.19 0.30 0.31 0.35 0.46 0.52 0.67 0.89 0.96 0.93
0.00 0.00 0.00 0.00 0.00 0.00 0.00 0.00 0.00 0.00 0.00 0.00 0.00 0.01 0.01 0.02 0.04 0.05 0.04 0.12 0.16 0.06 0.01 0.01 0.02 0.03 0.02 0.02 0.03 0.04 0.04 0.08 0.15 0.27 0.29 0.31 0.44 0.56 0.67 0.84 1.04 1.02 0.86
0.00 0.00 0.00 0.00 0.00 0.00 0.00 0.00 0.00 0.00 0.00 0.00 0.00 0.01 0.01 0.02 0.02 0.01 0.09 0.15 0.03 0.01 0.01 0.04 0.04 0.03 0.03 0.05 0.07 0.12 0.15 0.14 0.31 0.43 0.50 0.54 0.58 0.65 0.79 0.91 0.93 0.79 0.62
0.00 0.00 0.00 0.00 0.00 0.00 0.00 0.00 0.00 0.00 0.00 0.00 0.00 0.00 0.01 0.01 0.01 0.05 0.09 0.03 0.00 0.01 0.05 0.05 0.04 0.04 0.04 0.11 0.16 0.24 0.28 0.28 0.41 0.51 0.59 0.57 0.61 0.78 0.89 0.89 0.78 0.61 0.46
0.00 0.00 0.00 0.00 0.00 0.00 0.00 0.00 0.00 0.00 0.00 0.00 0.00 0.00 0.00 0.00 0.04 0.07 0.02 0.01 0.02 0.05 0.05 0.03 0.03 0.04 0.08 0.14 0.19 0.26 0.34 0.52 0.67 0.75 0.69 0.68 0.70 0.86 0.82 0.70 0.52 0.33 0.19
0.00 0.00 0.00 0.00 0.00 0.00 0.00 0.00 0.00 0.00 0.00 0.01 0.01 0.00 0.00 0.03 0.11 0.01 0.00 0.01 0.04 0.05 0.03 0.04 0.03 0.04 0.09 0.15 0.22 0.28 0.41 0.47 0.54 0.57 0.62 0.65 0.72 0.77 0.64 0.40 0.22 0.15 0.12
0.00 0.00 0.00 0.00 0.00 0.00 0.00 0.00 0.00 0.01 0.02 0.01 0.00 0.00 0.04 0.05 0.03 0.01 0.01 0.03 0.03 0.04 0.04 0.05 0.05 0.07 0.10 0.15 0.22 0.31 0.48 0.54 0.56 0.68 0.68 0.64 0.61 0.46 0.21 0.12 0.11 0.13 0.13
0.00 0.00 0.00 0.00 0.00 0.00 0.00 0.00 0.01 0.01 0.01 0.01 0.01 0.01 0.03 0.01 0.01 0.02 0.03 0.02 0.01 0.02 0.03 0.06 0.07 0.07 0.17 0.35 0.49 0.55 0.53 0.58 0.62 0.66 0.60 0.47 0.33 0.15 0.08 0.07 0.06 0.07 0.09
0.00 0.00 0.00 0.00 0.00 0.01 0.01 0.01 0.01 0.01 0.01 0.01 0.02 0.02 0.01 0.01 0.02 0.03 0.02 0.01 0.01 0.02 0.01 0.02 0.07 0.11 0.09 0.24 0.48 0.80 0.88 0.71 0.68 0.66 0.49 0.32 0.19 0.11 0.12 0.10 0.07 0.07 0.06
0.00 0.00 0.00 0.00 0.01 0.01 0.01 0.01 0.00 0.01 0.02 0.02 0.01 0.01 0.01 0.02 0.02 0.01 0.01 0.01 0.02 0.01 0.00 0.02 0.08 0.13 0.19 0.29 0.51 0.68 0.81 0.81 0.75 0.59 0.48 0.36 0.14 0.09 0.09 0.09 0.06 0.08 0.06
0.00 0.00 0.00 0.00 0.00 0.00 0.01 0.01 0.01 0.01 0.00 0.01 0.01 0.02 0.02 0.02 0.01 0.02 0.01 0.02 0.02 0.01 0.00 0.01 0.07 0.18 0.26 0.42 0.59 0.67 0.71 0.66 0.55 0.34 0.21 0.11 0.08 0.08 0.09 0.08 0.05 0.04 0.04
0.00 0.00 0.00 0.00 0.00 0.00 0.00 0.00 0.00 0.01 0.02 0.02 0.03 0.02 0.02 0.03 0.02 0.02 0.02 0.02 0.02 0.01 0.00 0.01 0.07 0.16 0.24 0.40 0.56 0.67 0.65 0.58 0.32 0.14 0.08 0.05 0.04 0.04 0.05 0.05 0.05 0.03 0.03

GFSGL_prec_precacc_036.txt.gz
Total_Precipitation_Accumulation
0.00 0.00 0.00 0.00 0.00 0.00 0.00 0.00 0.00 0.00 0.00 0.00 0.00 0.00 0.00 0.00 0.00 0.00 0.00 0.00 0.00 0.00 0.02 0.04 0.06 0.08 0.09 0.08 0.09 0.10 0.11 0.19 0.24 0.04 0.04 0.05 0.06 0.03 0.04 0.07 0.06 0.05 0.05
0.00 0.00 0.00 0.00 0.00 0.00 0.00 0.00 0.00 0.00 0.00 0.00 0.00 0.00 0.00 0.00 0.00 0.00 0.00 0.00 0.00 0.00 0.00 0.01 0.02 0.03 0.05 0.09 0.11 0.10 0.12 0.14 0.24 0.15 0.02 0.03 0.03 0.03 0.03 0.06 0.07 0.11 0.11
0.00 0.00 0.00 0.00 0.00 0.00 0.00 0.00 0.00 0.00 0.00 0.00 0.00 0.00 0.00 0.00 0.00 0.00 0.00 0.00 0.00 0.00 0.00 0.00 0.00 0.00 0.00 0.02 0.06 0.09 0.12 0.16 0.23 0.30 0.14 0.07 0.07 0.06 0.07 0.09 0.11 0.12 0.12
0.00 0.00 0.00 0.00 0.00 0.00 0.00 0.00 0.00 0.00 0.00 0.00 0.00 0.00 0.00 0.00 0.00 0.00 0.00 0.00 0.00 0.00 0.00 0.00 0.00 0.00 0.00 0.00 0.03 0.09 0.15 0.18 0.20 0.23 0.22 0.16 0.13 0.13 0.17 0.14 0.12 0.11 0.13
0.00 0.00 0.00 0.00 0.00 0.00 0.00 0.00 0.00 0.00 0.00 0.00 0.00 0.00 0.00 0.00 0.00 0.00 0.00 0.00 0.00 0.00 0.00 0.00 0.00 0.00 0.00 0.01 0.06 0.08 0.16 0.20 0.31 0.42 0.39 0.39 0.39 0.33 0.26 0.26 0.37 0.38 0.39
0.00 0.00 0.00 0.00 0.00 0.00 0.00 0.00 0.00 0.00 0.00 0.00 0.00 0.00 0.00 0.00 0.00 0.00 0.00 0.00 0.00 0.00 0.00 0.00 0.00 0.00 0.00 0.02 0.06 0.09 0.13 0.26 0.36 0.54 0.59 0.51 0.39 0.40 0.42 0.50 0.63 0.74 0.68
0.00 0.00 0.00 0.00 0.00 0.00 0.00 0.00 0.00 0.00 0.00 0.00 0.00 0.00 0.00 0.00 0.00 0.00 0.00 0.00 0.00 0.00 0.00 0.00 0.00 0.00 0.02 0.02 0.02 0.07 0.15 0.29 0.36 0.25 0.22 0.25 0.34 0.31 0.47 0.58 0.55 0.55 0.49
0.00 0.00 0.00 0.00 0.00 0.00 0.00 0.00 0.00 0.00 0.00 0.00 0.00 0.00 0.00 0.00 0.00 0.00 0.00 0.00 0.00 0.00 0.00 0.00 0.00 0.01 0.02 0.04 0.08 0.23 0.22 0.12 0.03 0.06 0.08 0.10 0.23 0.37 0.52 0.64 0.73 0.86 0.68
0.00 0.00 0.00 0.00 0.00 0.00 0.00 0.00 0.00 0.00 0.00 0.00 0.00 0.00 0.00 0.00 0.00 0.00 0.00 0.00 0.00 0.00 0.00 0.00 0.03 0.03 0.02 0.10 0.23 0.28 0.06 0.01 0.02 0.05 0.14 0.16 0.19 0.20 0.28 0.60 0.82 0.79 0.73
0.00 0.00 0.00 0.00 0.00 0.00 0.00 0.00 0.00 0.00 0.00 0.00 0.00 0.00 0.00 0.00 0.00 0.00 0.00 0.00 0.00 0.00 0.02 0.02 0.02 0.02 0.06 0.29 0.16 0.04 0.08 0.04 0.11 0.08 0.03 0.02 0.04 0.11 0.23 0.32 0.69 1.21 0.89
0.00 0.00 0.00 0.00 0.00 0.00 0.00 0.00 0.00 0.00 0.00 0.00 0.00 0.00 0.00 0.00 0.00 0.00 0.00 0.02 0.02 0.09 0.08 0.02 0.00 0.08 0.25 0.13 0.03 0.03 0.07 0.10 0.10 0.04 0.02 0.02 0.04 0.07 0.14 0.24 0.58 1.32 1.49
0.00 0.00 0.00 0.00 0.00 0.00 0.00 0.00 0.00 0.00 0.00 0.00 0.00 0.00 0.00 0.00 0.00 0.00 0.01 0.03 0.07 0.08 0.05 0.03 0.08 0.20 0.06 0.02 0.02 0.04 0.07 0.07 0.03 0.02 0.04 0.05 0.08 0.16 0.24 0.32 0.43 0.60 0.80
0.00 0.00 0.00 0.00 0.00 0.00 0.00 0.00 0.00 0.00 0.00 0.00 0.00 0.00 0.00 0.00 0.00 0.00 0.00 0.07 0.09 0.07 0.05 0.16 0.15 0.02 0.01 0.01 0.02 0.04 0.04 0.02 0.07 0.16 0.18 0.18 0.22 0.34 0.37 0.39 0.47 0.48 0.52
0.00 0.00 0.00 0.00 0.00 0.00 0.00 0.00 0.00 0.00 0.00 0.00 0.00 0.00 0.00 0.00 0.00 0.00 0.03 0.05 0.04 0.09 0.17 0.16 0.02 0.01 0.02 0.02 0.01 0.02 0.02 0.07 0.18 0.31 0.33 0.22 0.30 0.41 0.41 0.54 0.72 0.64 0.81
0.00 0.00 0.00 0.00 0.00 0.00 0.00 0.00 0.00 0.00 0.00 0.00 0.00 0.01 0.01 0.01 0.01 0.05 0.07 0.06 0.10 0.17 0.07 0.01 0.00 0.01 0.01 0.01 0.00 0.01 0.02 0.06 0.16 0.19 0.30 0.31 0.35 0.46 0.52 0.67 0.89 0.97 0.93
0.00 0.00 0.00 0.00 0.00 0.00 0.00 0.00 0.00 0.00 0.00 0.00 0.00 0.01 0.01 0.02 0.04 0.05 0.04 0.12 0.16 0.06 0.01 0.01 0.02 0.03 0.02 0.02 0.03 0.04 0.04 0.08 0.16 0.28 0.29 0.31 0.45 0.57 0.68 0.84 1.04 1.02 0.87
0.00 0.00 0.00 0.00 0.00 0.00 0.00 0.00 0.00 0.00 0.00 0.00 0.00 0.01 0.01 0.02 0.02 0.02 0.10 0.15 0.03 0.01 0.01 0.04 0.04 0.03 0.03 0.05 0.07 0.12 0.15 0.14 0.31 0.44 0.51 0.55 0.60 0.66 0.79 0.92 0.93 0.79 0.62
0.00 0.00 0.00 0.00 0.00 0.00 0.00 0.00 0.00 0.00 0.00 0.00 0.00 0.00 0.01 0.01 0.01 0.05 0.09 0.03 0.00 0.01 0.05 0.05 0.04 0.04 0.05 0.11 0.16 0.25 0.29 0.28 0.41 0.52 0.61 0.58 0.62 0.80 0.90 0.89 0.78 0.62 0.47
0.00 0.00 0.00 0.00 0.00 0.00 0.00 0.00 0.00 0.00 0.00 0.00 0.00 0.00 0.00 0.00 0.04 0.07 0.02 0.01 0.02 0.05 0.05 0.03 0.03 0.04 0.08 0.15 0.20 0.27 0.35 0.53 0.69 0.78 0.70 0.69 0.71 0.87 0.83 0.70 0.53 0.34 0.20
0.00 0.00 0.00 0.00 0.00 0.00 0.00 0.00 0.00 0.00 0.00 0.01 0.01 0.00 0.00 0.03 0.11 0.01 0.00 0.01 0.04 0.05 0.03 0.04 0.03 0.04 0.10 0.16 0.23 0.29 0.41 0.47 0.55 0.58 0.63 0.66 0.73 0.78 0.66 0.41 0.23 0.17 0.13
0.00 0.00 0.00 0.00 0.00 0.00 0.00 0.00 0.00 0.01 0.02 0.01 0.00 0.00 0.04 0.05 0.03 0.01 0.01 0.03 0.03 0.04 0.04 0.05 0.05 0.07 0.11 0.16 0.23 0.32 0.49 0.55 0.58 0.70 0.70 0.65 0.62 0.47 0.22 0.13 0.12 0.15 0.15
0.00 0.00 0.00 0.00 0.00 0.00 0.00 0.00 0.01 0.01 0.01 0.01 0.01 0.01 0.03 0.01 0.01 0.02 0.03 0.02 0.01 0.02 0.03 0.06 0.07 0.08 0.19 0.38 0.52 0.57 0.53 0.59 0.63 0.68 0.62 0.48 0.35 0.16 0.09 0.08 0.07 0.09 0.10
0.00 0.00 0.00 0.00 0.00 0.01 0.01 0.01 0.01 0.01 0.01 0.01 0.02 0.02 0.01 0.01 0.02 0.03 0.02 0.01 0.02 0.02 0.01 0.03 0.08 0.11 0.09 0.25 0.50 0.85 0.92 0.73 0.71 0.68 0.51 0.34 0.21 0.14 0.14 0.13 0.08 0.08 0.07
0.00 0.00 0.00 0.00 0.01 0.01 0.01 0.01 0.00 0.01 0.02 0.02 0.01 0.01 0.01 0.02 0.02 0.01 0.01 0.02 0.02 0.01 0.00 0.02 0.09 0.15 0.19 0.30 0.53 0.72 0.87 0.86 0.80 0.65 0.55 0.44 0.18 0.11 0.10 0.10 0.07 0.09 0.07
0.00 0.00 0.00 0.00 0.00 0.00 0.01 0.01 0.01 0.01 0.00 0.01 0.01 0.02 0.02 0.02 0.01 0.02 0.01 0.02 0.02 0.02 0.00 0.01 0.08 0.19 0.28 0.44 0.62 0.70 0.73 0.69 0.61 0.36 0.23 0.14 0.10 0.09 0.10 0.10 0.06 0.04 0.04
0.00 0.00 0.00 0.00 0.00 0.00 0.00 0.00 0.00 0.01 0.02 0.02 0.03 0.03 0.02 0.03 0.02 0.02 0.02 0.02 0.02 0.01 0.01 0.02 0.07 0.17 0.25 0.42 0.59 0.69 0.67 0.60 0.35 0.14 0.08 0.06 0.06 0.05 0.05 0.06 0.05 0.03 0.03

GFSGL_prec_precacc_039.txt.gz
Total_Precipitation_Accumulation
0.00 0.00 0.00 0.00 0.00 0.00 0.00 0.00 0.00 0.00 0.00 0.00 0.00 0.00 0.00 0.00 0.00 0.00 0.00 0.00 0.00 0.00 0.02 0.04 0.06 0.08 0.09 0.08 0.09 0.10 0.11 0.19 0.24 0.04 0.04 0.05 0.06 0.03 0.04 0.07 0.06 0.05 0.05
0.00 0.00 0.00 0.00 0.00 0.00 0.00 0.00 0.00 0.00 0.00 0.00 0.00 0.00 0.00 0.00 0.00 0.00 0.00 0.00 0.00 0.00 0.00 0.01 0.02 0.03 0.05 0.09 0.11 0.10 0.12 0.14 0.24 0.16 0.02 0.03 0.03 0.03 0.03 0.06 0.07 0.11 0.11
0.00 0.00 0.00 0.00 0.00 0.00 0.00 0.00 0.00 0.00 0.00 0.00 0.00 0.00 0.00 0.00 0.00 0.00 0.00 0.00 0.00 0.00 0.00 0.00 0.00 0.00 0.00 0.02 0.06 0.09 0.12 0.16 0.24 0.31 0.14 0.07 0.07 0.06 0.07 0.09 0.11 0.12 0.12
0.00 0.00 0.00 0.00 0.00 0.00 0.00 0.00 0.00 0.00 0.00 0.00 0.00 0.00 0.00 0.00 0.00 0.00 0.00 0.00 0.00 0.00 0.00 0.00 0.00 0.00 0.00 0.00 0.03 0.09 0.16 0.18 0.20 0.23 0.24 0.20 0.14 0.13 0.17 0.14 0.12 0.11 0.13
0.00 0.00 0.00 0.00 0.00 0.00 0.00 0.00 0.00 0.00 0.00 0.00 0.00 0.00 0.00 0.00 0.00 0.00 0.00 0.00 0.00 0.00 0.00 0.00 0.00 0.00 0.00 0.01 0.06 0.08 0.16 0.21 0.32 0.48 0.45 0.39 0.39 0.33 0.26 0.26 0.37 0.38 0.39
0.00 0.00 0.00 0.00 0.00 0.00 0.00 0.00 0.00 0.00 0.00 0.00 0.00 0.00 0.00 0.00 0.00 0.00 0.00 0.00 0.00 0.00 0.00 0.00 0.00 0.00 0.00 0.02 0.06 0.10 0.13 0.28 0.42 0.56 0.59 0.52 0.39 0.40 0.42 0.51 0.65 0.75 0.69
0.00 0.00 0.00 0.00 0.00 0.00 0.00 0.00 0.00 0.00 0.00 0.00 0.00 0.00 0.00 0.00 0.00 0.00 0.00 0.00 0.00 0.00 0.00 0.00 0.00 0.00 0.02 0.02 0.02 0.07 0.16 0.31 0.37 0.25 0.22 0.25 0.34 0.31 0.50 0.60 0.55 0.56 0.49
0.00 0.00 0.00 0.00 0.00 0.00 0.00 0.00 0.00 0.00 0.00 0.00 0.00 0.00 0.00 0.00 0.00 0.00 0.00 0.00 0.00 0.00 0.00 0.00 0.00 0.01 0.02 0.04 0.08 0.27 0.24 0.12 0.03 0.06 0.08 0.10 0.24 0.39 0.53 0.64 0.74 0.87 0.68
0.00 0.00 0.00 0.00 0.00 0.00 0.00 0.00 0.00 0.00 0.00 0.00 0.00 0.00 0.00 0.00 0.00 0.00 0.00 0.00 0.00 0.00 0.00 0.00 0.03 0.03 0.02 0.11 0.25 0.29 0.06 0.01 0.02 0.05 0.15 0.17 0.19 0.20 0.28 0.61 0.83 0.80 0.74
0.00 0.00 0.00 0.00 0.00 0.00 0.00 0.00 0.00 0.00 0.00 0.00 0.00 0.00 0.00 0.00 0.00 0.00 0.00 0.00 0.00 0.00 0.02 0.02 0.02 0.03 0.07 0.31 0.16 0.04 0.08 0.04 0.13 0.10 0.03 0.02 0.04 0.11 0.23 0.32 0.70 1.25 0.91
0.00 0.00 0.00 0.00 0.00 0.00 0.00 0.00 0.00 0.00 0.00 0.00 0.00 0.00 0.00 0.00 0.00 0.00 0.00 0.02 0.02 0.09 0.08 0.02 0.00 0.08 0.26 0.13 0.04 0.03 0.08 0.10 0.11 0.04 0.02 0.02 0.04 0.07 0.14 0.24 0.58 1.37 1.55
0.00 0.00 0.00 0.00 0.00 0.00 0.00 0.00 0.00 0.00 0.00 0.00 0.00 0.00 0.00 0.00 0.00 0.00 0.01 0.03 0.07 0.08 0.05 0.03 0.08 0.21 0.06 0.02 0.02 0.04 0.07 0.08 0.03 0.02 0.04 0.05 0.08 0.16 0.24 0.32 0.43 0.60 0.82
0.00 0.00 0.00 0.00 0.00 0.00 0.00 0.00 0.00 0.00 0.00 0.00 0.00 0.00 0.00 0.00 0.00 0.00 0.00 0.07 0.09 0.08 0.06 0.16 0.15 0.02 0.01 0.01 0.02 0.04 0.04 0.02 0.07 0.16 0.18 0.18 0.22 0.34 0.37 0.39 0.47 0.48 0.52
0.00 0.00 0.00 0.00 0.00 0.00 0.00 0.00 0.00 0.00 0.00 0.00 0.00 0.00 0.00 0.00 0.00 0.00 0.03 0.05 0.04 0.09 0.17 0.16 0.02 0.01 0.02 0.02 0.01 0.02 0.02 0.07 0.18 0.32 0.34 0.22 0.30 0.41 0.41 0.54 0.73 0.64 0.82
0.00 0.00 0.00 0.00 0.00 0.00 0.00 0.00 0.00 0.00 0.00 0.00 0.00 0.01 0.01 0.01 0.01 0.05 0.07 0.06 0.10 0.17 0.07 0.01 0.00 0.01 0.01 0.01 0.00 0.01 0.02 0.06 0.16 0.20 0.31 0.31 0.36 0.46 0.52 0.67 0.89 0.97 0.94
0.00 0.00 0.00 0.00 0.00 0.00 0.00 0.00 0.00 0.00 0.00 0.00 0.00 0.01 0.01 0.02 0.04 0.05 0.04 0.13 0.16 0.06 0.01 0.01 0.02 0.03 0.02 0.02 0.03 0.04 0.04 0.08 0.16 0.28 0.29 0.31 0.45 0.57 0.68 0.84 1.04 1.03 0.88
0.00 0.00 0.00 0.00 0.00 0.00 0.00 0.00 0.00 0.00 0.00 0.00 0.00 0.01 0.01 0.02 0.02 0.02 0.10 0.15 0.03 0.01 0.01 0.04 0.04 0.03 0.03 0.05 0.07 0.13 0.16 0.14 0.31 0.45 0.52 0.56 0.61 0.67 0.80 0.92 0.94 0.80 0.62
0.00 0.00 0.00 0.00 0.00 0.00 0.00 0.00 0.00 0.00 0.00 0.00 0.00 0.00 0.01 0.01 0.01 0.05 0.09 0.03 0.00 0.01 0.05 0.05 0.04 0.04 0.05 0.11 0.17 0.25 0.29 0.28 0.42 0.52 0.62 0.60 0.64 0.81 0.91 0.90 0.79 0.63 0.49
0.00 0.00 0.00 0.00 0.00 0.00 0.00 0.00 0.00 0.00 0.00 0.00 0.00 0.00 0.00 0.00 0.04 0.07 0.02 0.01 0.02 0.05 0.05 0.03 0.03 0.04 0.08 0.15 0.20 0.27 0.36 0.55 0.71 0.80 0.71 0.71 0.73 0.90 0.84 0.71 0.54 0.34 0.21
0.00 0.00 0.00 0.00 0.00 0.00 0.00 0.00 0.00 0.00 0.00 0.01 0.01 0.00 0.00 0.03 0.11 0.01 0.00 0.01 0.04 0.05 0.03 0.04 0.03 0.05 0.10 0.17 0.23 0.30 0.42 0.48 0.57 0.59 0.64 0.68 0.74 0.79 0.68 0.43 0.24 0.18 0.14
0.00 0.00 0.00 0.00 0.00 0.00 0.00 0.00 0.00 0.01 0.02 0.01 0.00 0.00 0.04 0.05 0.03 0.01 0.01 0.03 0.03 0.04 0.04 0.05 0.05 0.07 0.11 0.16 0.23 0.32 0.49 0.55 0.59 0.72 0.71 0.67 0.64 0.49 0.23 0.14 0.13 0.16 0.16
0.00 0.00 0.00 0.00 0.00 0.00 0.00 0.00 0.01 0.01 0.01 0.01 0.01 0.01 0.03 0.01 0.01 0.02 0.03 0.02 0.01 0.02 0.03 0.06 0.08 0.08 0.21 0.40 0.54 0.59 0.54 0.59 0.64 0.70 0.62 0.49 0.36 0.17 0.10 0.09 0.08 0.10 0.11
0.00 0.00 0.00 0.00 0.00 0.01 0.01 0.01 0.01 0.01 0.01 0.01 0.02 0.02 0.01 0.01 0.02 0.03 0.02 0.01 0.02 0.02 0.01 0.03 0.09 0.12 0.09 0.27 0.53 0.89 0.96 0.75 0.73 0.69 0.52 0.35 0.23 0.16 0.16 0.16 0.11 0.09 0.08
0.00 0.00 0.00 0.00 0.01 0.01 0.01 0.01 0.00 0.01 0.02 0.02 0.01 0.01 0.01 0.02 0.02 0.01 0.01 0.02 0.02 0.01 0.00 0.02 0.09 0.16 0.20 0.31 0.55 0.74 0.90 0.89 0.84 0.70 0.61 0.52 0.24 0.14 0.11 0.11 0.08 0.09 0.07
0.00 0.00 0.00 0.00 0.00 0.00 0.01 0.01 0.01 0.01 0.00 0.01 0.01 0.02 0.02 0.02 0.01 0.02 0.01 0.02 0.02 0.02 0.00 0.02 0.09 0.21 0.29 0.45 0.64 0.72 0.75 0.71 0.64 0.40 0.25 0.16 0.13 0.12 0.11 0.12 0.06 0.04 0.04
0.00 0.00 0.00 0.00 0.00 0.00 0.00 0.00 0.00 0.01 0.02 0.02 0.03 0.03 0.02 0.03 0.03 0.02 0.03 0.02 0.02 0.01 0.01 0.02 0.08 0.18 0.26 0.43 0.59 0.71 0.68 0.61 0.36 0.16 0.09 0.07 0.08 0.08 0.06 0.07 0.05 0.03 0.03

GFSGL_prec_precacc_042.txt.gz
Total_Precipitation_Accumulation
0.00 0.00 0.00 0.00 0.00 0.00 0.00 0.00 0.00 0.00 0.00 0.00 0.00 0.00 0.00 0.00 0.00 0.00 0.00 0.00 0.00 0.00 0.02 0.04 0.06 0.08 0.09 0.08 0.09 0.10 0.11 0.19 0.24 0.04 0.04 0.05 0.06 0.03 0.04 0.07 0.06 0.05 0.05
0.00 0.00 0.00 0.00 0.00 0.00 0.00 0.00 0.00 0.00 0.00 0.00 0.00 0.00 0.00 0.00 0.00 0.00 0.00 0.00 0.00 0.00 0.00 0.01 0.02 0.03 0.05 0.09 0.11 0.10 0.12 0.14 0.24 0.16 0.02 0.03 0.03 0.03 0.03 0.06 0.08 0.11 0.11
0.00 0.00 0.00 0.00 0.00 0.00 0.00 0.00 0.00 0.00 0.00 0.00 0.00 0.00 0.00 0.00 0.00 0.00 0.00 0.00 0.00 0.00 0.00 0.00 0.00 0.00 0.00 0.02 0.06 0.09 0.12 0.16 0.24 0.31 0.14 0.07 0.07 0.06 0.07 0.09 0.11 0.12 0.12
0.00 0.00 0.00 0.00 0.00 0.00 0.00 0.00 0.00 0.00 0.00 0.00 0.00 0.00 0.00 0.00 0.00 0.00 0.00 0.00 0.00 0.00 0.00 0.00 0.00 0.00 0.00 0.00 0.03 0.09 0.16 0.19 0.21 0.24 0.25 0.21 0.15 0.13 0.17 0.14 0.12 0.11 0.13
0.00 0.00 0.00 0.00 0.00 0.00 0.00 0.00 0.00 0.00 0.00 0.00 0.00 0.00 0.00 0.00 0.00 0.00 0.00 0.00 0.00 0.00 0.00 0.00 0.00 0.00 0.00 0.01 0.06 0.08 0.16 0.21 0.33 0.50 0.49 0.42 0.40 0.33 0.26 0.26 0.37 0.38 0.39
0.00 0.00 0.00 0.00 0.00 0.00 0.00 0.00 0.00 0.00 0.00 0.00 0.00 0.00 0.00 0.00 0.00 0.00 0.00 0.00 0.00 0.00 0.00 0.00 0.00 0.00 0.00 0.02 0.06 0.10 0.14 0.29 0.46 0.60 0.61 0.52 0.39 0.40 0.42 0.51 0.66 0.76 0.70
0.00 0.00 0.00 0.00 0.00 0.00 0.00 0.00 0.00 0.00 0.00 0.00 0.00 0.00 0.00 0.00 0.00 0.00 0.00 0.00 0.00 0.00 0.00 0.00 0.00 0.00 0.02 0.02 0.02 0.08 0.17 0.33 0.38 0.26 0.22 0.25 0.34 0.31 0.52 0.62 0.56 0.56 0.50
0.00 0.00 0.00 0.00 0.00 0.00 0.00 0.00 0.00 0.00 0.00 0.00 0.00 0.00 0.00 0.00 0.00 0.00 0.00 0.00 0.00 0.00 0.00 0.00 0.00 0.01 0.02 0.04 0.09 0.28 0.25 0.12 0.03 0.06 0.08 0.11 0.24 0.40 0.54 0.65 0.75 0.87 0.68
0.00 0.00 0.00 0.00 0.00 0.00 0.00 0.00 0.00 0.00 0.00 0.00 0.00 0.00 0.00 0.00 0.00 0.00 0.00 0.00 0.00 0.00 0.00 0.00 0.03 0.03 0.02 0.11 0.26 0.31 0.06 0.01 0.02 0.05 0.15 0.17 0.19 0.20 0.28 0.62 0.84 0.81 0.75
0.00 0.00 0.00 0.00 0.00 0.00 0.00 0.00 0.00 0.00 0.00 0.00 0.00 0.00 0.00 0.00 0.00 0.00 0.00 0.00 0.00 0.00 0.02 0.02 0.02 0.03 0.07 0.31 0.17 0.04 0.08 0.04 0.14 0.10 0.03 0.02 0.04 0.11 0.23 0.32 0.71 1.28 0.92
0.00 0.00 0.00 0.00 0.00 0.00 0.00 0.00 0.00 0.00 0.00 0.00 0.00 0.00 0.00 0.00 0.00 0.00 0.00 0.02 0.02 0.09 0.08 0.02 0.00 0.08 0.27 0.14 0.04 0.03 0.08 0.11 0.11 0.04 0.02 0.02 0.04 0.07 0.14 0.24 0.58 1.40 1.59
0.00 0.00 0.00 0.00 0.00 0.00 0.00 0.00 0.00 0.00 0.00 0.00 0.00 0.00 0.00 0.00 0.00 0.00 0.01 0.03 0.07 0.08 0.05 0.03 0.08 0.21 0.06 0.02 0.02 0.04 0.08 0.08 0.03 0.02 0.04 0.05 0.08 0.16 0.24 0.32 0.43 0.61 0.83
0.00 0.00 0.00 0.00 0.00 0.00 0.00 0.00 0.00 0.00 0.00 0.00 0.00 0.00 0.00 0.00 0.00 0.00 0.00 0.07 0.09 0.08 0.06 0.16 0.15 0.02 0.01 0.01 0.02 0.04 0.04 0.02 0.07 0.17 0.19 0.19 0.22 0.34 0.37 0.39 0.47 0.48 0.52
0.00 0.00 0.00 0.00 0.00 0.00 0.00 0.00 0.00 0.00 0.00 0.00 0.00 0.00 0.00 0.00 0.00 0.00 0.03 0.05 0.04 0.09 0.18 0.16 0.02 0.01 0.02 0.02 0.01 0.02 0.02 0.07 0.18 0.32 0.34 0.23 0.30 0.41 0.41 0.55 0.73 0.64 0.82
0.00 0.00 0.00 0.00 0.00 0.00 0.00 0.00 0.00 0.00 0.00 0.00 0.00 0.01 0.01 0.01 0.01 0.05 0.07 0.06 0.10 0.18 0.07 0.01 0.00 0.01 0.01 0.01 0.00 0.01 0.02 0.06 0.16 0.20 0.31 0.32 0.36 0.47 0.52 0.67 0.90 0.98 0.95
0.00 0.00 0.00 0.00 0.00 0.00 0.00 0.00 0.00 0.00 0.00 0.00 0.00 0.01 0.01 0.02 0.04 0.05 0.04 0.13 0.16 0.07 0.01 0.01 0.02 0.03 0.02 0.02 0.03 0.04 0.04 0.08 0.16 0.29 0.30 0.32 0.46 0.57 0.69 0.84 1.04 1.03 0.89
0.00 0.00 0.00 0.00 0.00 0.00 0.00 0.00 0.00 0.00 0.00 0.00 0.00 0.01 0.01 0.02 0.02 0.02 0.10 0.15 0.03 0.01 0.01 0.04 0.04 0.03 0.03 0.05 0.07 0.13 0.16 0.14 0.32 0.46 0.53 0.56 0.62 0.68 0.80 0.92 0.94 0.80 0.63
0.00 0.00 0.00 0.00 0.00 0.00 0.00 0.00 0.00 0.00 0.00 0.00 0.00 0.00 0.01 0.01 0.01 0.05 0.09 0.03 0.00 0.01 0.05 0.05 0.04 0.04 0.05 0.11 0.17 0.26 0.30 0.29 0.42 0.53 0.63 0.61 0.65 0.83 0.92 0.91 0.79 0.64 0.50
0.00 0.00 0.00 0.00 0.00 0.00 0.00 0.00 0.00 0.00 0.00 0.00 0.00 0.00 0.00 0.00 0.04 0.07 0.02 0.01 0.02 0.05 0.05 0.03 0.03 0.04 0.08 0.15 0.21 0.28 0.36 0.56 0.74 0.82 0.72 0.72 0.74 0.92 0.85 0.71 0.54 0.35 0.22
0.00 0.00 0.00 0.00 0.00 0.00 0.00 0.00 0.00 0.00 0.00 0.01 0.01 0.00 0.00 0.03 0.11 0.01 0.00 0.01 0.04 0.05 0.03 0.04 0.04 0.05 0.10 0.17 0.24 0.30 0.43 0.48 0.58 0.60 0.65 0.69 0.77 0.82 0.71 0.44 0.25 0.20 0.14
0.00 0.00 0.00 0.00 0.00 0.00 0.00 0.00 0.00 0.01 0.02 0.01 0.00 0.00 0.04 0.05 0.03 0.01 0.01 0.03 0.03 0.04 0.04 0.05 0.05 0.08 0.11 0.17 0.24 0.33 0.50 0.56 0.60 0.74 0.72 0.69 0.66 0.52 0.25 0.16 0.15 0.16 0.17
0.00 0.00 0.00 0.00 0.00 0.00 0.00 0.00 0.01 0.01 0.01 0.01 0.01 0.01 0.03 0.01 0.01 0.02 0.03 0.02 0.01 0.02 0.03 0.06 0.08 0.09 0.22 0.42 0.56 0.60 0.55 0.60 0.65 0.71 0.64 0.51 0.39 0.19 0.11 0.09 0.09 0.11 0.12
0.00 0.00 0.00 0.00 0.00 0.01 0.01 0.01 0.01 0.01 0.01 0.01 0.02 0.02 0.01 0.01 0.02 0.03 0.02 0.01 0.02 0.02 0.01 0.03 0.10 0.12 0.10 0.28 0.56 0.93 0.99 0.77 0.74 0.72 0.55 0.38 0.24 0.18 0.20 0.19 0.13 0.09 0.08
0.00 0.00 0.00 0.00 0.01 0.01 0.01 0.01 0.00 0.01 0.02 0.02 0.01 0.01 0.01 0.02 0.02 0.01 0.01 0.02 0.02 0.01 0.00 0.03 0.10 0.17 0.22 0.31 0.56 0.77 0.94 0.93 0.87 0.75 0.70 0.62 0.30 0.18 0.14 0.13 0.08 0.09 0.07
0.00 0.00 0.00 0.00 0.00 0.00 0.01 0.01 0.01 0.01 0.00 0.01 0.01 0.02 0.02 0.02 0.01 0.02 0.01 0.02 0.02 0.02 0.01 0.02 0.10 0.22 0.30 0.47 0.65 0.74 0.77 0.74 0.69 0.45 0.28 0.18 0.17 0.16 0.14 0.14 0.06 0.04 0.04
0.00 0.00 0.00 0.00 0.00 0.00 0.00 0.00 0.00 0.01 0.02 0.02 0.03 0.03 0.02 0.03 0.03 0.02 0.03 0.02 0.02 0.01 0.01 0.02 0.08 0.19 0.28 0.44 0.59 0.71 0.70 0.63 0.38 0.16 0.09 0.09 0.11 0.11 0.08 0.07 0.05 0.03 0.03

GFSGL_prec_precacc_045.txt.gz
Total_Precipitation_Accumulation
0.00 0.00 0.00 0.00 0.00 0.00 0.00 0.00 0.00 0.00 0.00 0.00 0.00 0.00 0.00 0.00 0.00 0.00 0.00 0.00 0.00 0.00 0.02 0.04 0.06 0.08 0.09 0.08 0.09 0.10 0.11 0.19 0.24 0.04 0.04 0.05 0.06 0.03 0.04 0.07 0.06 0.05 0.05
0.00 0.00 0.00 0.00 0.00 0.00 0.00 0.00 0.00 0.00 0.00 0.00 0.00 0.00 0.00 0.00 0.00 0.00 0.00 0.00 0.00 0.00 0.00 0.01 0.02 0.03 0.05 0.09 0.11 0.10 0.12 0.14 0.24 0.16 0.02 0.03 0.03 0.03 0.03 0.06 0.08 0.11 0.11
0.00 0.00 0.00 0.00 0.00 0.00 0.00 0.00 0.00 0.00 0.00 0.00 0.00 0.00 0.00 0.00 0.00 0.00 0.00 0.00 0.00 0.00 0.00 0.00 0.00 0.00 0.00 0.02 0.06 0.09 0.12 0.16 0.24 0.31 0.14 0.07 0.07 0.06 0.07 0.09 0.11 0.12 0.12
0.00 0.00 0.00 0.00 0.00 0.00 0.00 0.00 0.00 0.00 0.00 0.00 0.00 0.00 0.00 0.00 0.00 0.00 0.00 0.00 0.00 0.00 0.00 0.00 0.00 0.00 0.00 0.00 0.03 0.09 0.16 0.19 0.21 0.24 0.25 0.21 0.15 0.13 0.17 0.14 0.12 0.11 0.13
0.00 0.00 0.00 0.00 0.00 0.00 0.00 0.00 0.00 0.00 0.00 0.00 0.00 0.00 0.00 0.00 0.00 0.00 0.00 0.00 0.00 0.00 0.00 0.00 0.00 0.00 0.00 0.01 0.06 0.08 0.16 0.21 0.33 0.50 0.50 0.43 0.40 0.33 0.26 0.26 0.37 0.38 0.39
0.00 0.00 0.00 0.00 0.00 0.00 0.00 0.00 0.00 0.00 0.00 0.00 0.00 0.00 0.00 0.00 0.00 0.00 0.00 0.00 0.00 0.00 0.00 0.00 0.00 0.00 0.00 0.02 0.06 0.10 0.14 0.30 0.48 0.63 0.63 0.53 0.39 0.40 0.42 0.51 0.66 0.77 0.70
0.00 0.00 0.00 0.00 0.00 0.00 0.00 0.00 0.00 0.00 0.00 0.00 0.00 0.00 0.00 0.00 0.00 0.00 0.00 0.00 0.00 0.00 0.00 0.00 0.00 0.00 0.02 0.02 0.02 0.08 0.18 0.34 0.40 0.27 0.23 0.25 0.34 0.31 0.52 0.63 0.57 0.57 0.51
0.00 0.00 0.00 0.00 0.00 0.00 0.00 0.00 0.00 0.00 0.00 0.00 0.00 0.00 0.00 0.00 0.00 0.00 0.00 0.00 0.00 0.00 0.00 0.00 0.00 0.01 0.02 0.04 0.09 0.29 0.26 0.13 0.04 0.06 0.08 0.11 0.24 0.40 0.56 0.67 0.75 0.87 0.68
0.01 0.00 0.00 0.00 0.00 0.00 0.00 0.00 0.00 0.00 0.00 0.00 0.00 0.00 0.00 0.00 0.00 0.00 0.00 0.00 0.00 0.00 0.00 0.00 0.03 0.03 0.02 0.11 0.27 0.32 0.07 0.01 0.02 0.05 0.15 0.17 0.19 0.21 0.28 0.62 0.85 0.82 0.75
0.01 0.00 0.00 0.00 0.00 0.00 0.00 0.00 0.00 0.00 0.00 0.00 0.00 0.00 0.00 0.00 0.00 0.00 0.00 0.00 0.00 0.00 0.02 0.02 0.02 0.03 0.07 0.32 0.18 0.05 0.08 0.04 0.14 0.11 0.03 0.02 0.04 0.11 0.23 0.32 0.71 1.31 0.92
0.00 0.00 0.00 0.00 0.00 0.00 0.00 0.00 0.00 0.00 0.00 0.00 0.00 0.00 0.00 0.00 0.00 0.00 0.00 0.02 0.02 0.09 0.08 0.02 0.00 0.08 0.27 0.14 0.04 0.03 0.08 0.11 0.12 0.05 0.02 0.02 0.04 0.07 0.14 0.24 0.58 1.42 1.63
0.00 0.00 0.00 0.00 0.00 0.00 0.00 0.00 0.00 0.00 0.00 0.00 0.00 0.00 0.00 0.00 0.00 0.00 0.01 0.03 0.07 0.08 0.05 0.03 0.08 0.21 0.07 0.02 0.02 0.04 0.08 0.08 0.03 0.02 0.04 0.05 0.08 0.16 0.24 0.33 0.43 0.61 0.83
0.00 0.00 0.00 0.00 0.00 0.00 0.00 0.00 0.00 0.00 0.00 0.00 0.00 0.00 0.00 0.00 0.00 0.00 0.00 0.07 0.09 0.08 0.06 0.16 0.16 0.02 0.01 0.01 0.02 0.04 0.04 0.02 0.07 0.17 0.19 0.19 0.23 0.35 0.38 0.40 0.47 0.48 0.52
0.00 0.00 0.00 0.00 0.00 0.00 0.00 0.00 0.00 0.00 0.00 0.00 0.00 0.00 0.00 0.00 0.00 0.00 0.03 0.05 0.04 0.09 0.18 0.16 0.02 0.01 0.02 0.02 0.01 0.02 0.02 0.07 0.18 0.33 0.35 0.23 0.30 0.41 0.42 0.55 0.74 0.65 0.83
0.00 0.00 0.00 0.00 0.00 0.00 0.00 0.00 0.00 0.00 0.00 0.00 0.00 0.01 0.01 0.01 0.01 0.05 0.07 0.06 0.11 0.18 0.08 0.01 0.00 0.01 0.01 0.01 0.00 0.01 0.02 0.06 0.16 0.20 0.32 0.32 0.36 0.47 0.53 0.67 0.90 0.99 0.96
0.00 0.00 0.00 0.00 0.00 0.00 0.00 0.00 0.00 0.00 0.00 0.00 0.00 0.01 0.01 0.02 0.04 0.05 0.04 0.13 0.17 0.07 0.01 0.01 0.02 0.03 0.02 0.02 0.03 0.04 0.04 0.08 0.16 0.29 0.30 0.32 0.46 0.58 0.69 0.84 1.05 1.04 0.90
0.00 0.00 0.00 0.00 0.00 0.00 0.00 0.00 0.00 0.00 0.00 0.00 0.00 0.01 0.01 0.02 0.02 0.02 0.10 0.15 0.03 0.01 0.01 0.04 0.04 0.03 0.03 0.05 0.07 0.13 0.16 0.14 0.32 0.46 0.53 0.57 0.63 0.69 0.80 0.93 0.94 0.81 0.63
0.00 0.00 0.00 0.00 0.00 0.00 0.00 0.00 0.00 0.00 0.00 0.00 0.00 0.00 0.01 0.01 0.01 0.05 0.09 0.03 0.00 0.01 0.05 0.05 0.04 0.04 0.05 0.11 0.17 0.26 0.30 0.29 0.43 0.53 0.64 0.62 0.66 0.85 0.92 0.92 0.80 0.65 0.51
0.00 0.00 0.00 0.00 0.00 0.00 0.00 0.00 0.00 0.00 0.00 0.00 0.00 0.00 0.00 0.00 0.04 0.07 0.02 0.01 0.02 0.05 0.05 0.03 0.03 0.04 0.08 0.16 0.21 0.28 0.37 0.57 0.75 0.84 0.73 0.73 0.76 0.95 0.87 0.72 0.54 0.35 0.23
0.00 0.00 0.00 0.00 0.00 0.00 0.00 0.00 0.00 0.00 0.00 0.01 0.01 0.00 0.00 0.03 0.11 0.01 0.00 0.01 0.04 0.05 0.03 0.04 0.04 0.05 0.11 0.18 0.25 0.31 0.43 0.49 0.59 0.61 0.66 0.71 0.79 0.84 0.73 0.46 0.25 0.21 0.15
0.00 0.00 0.00 0.00 0.00 0.00 0.00 0.00 0.00 0.01 0.02 0.01 0.00 0.00 0.04 0.05 0.03 0.01 0.01 0.03 0.03 0.04 0.04 0.05 0.05 0.08 0.12 0.17 0.25 0.34 0.51 0.57 0.61 0.75 0.74 0.72 0.70 0.54 0.26 0.18 0.15 0.17 0.19
0.00 0.00 0.00 0.00 0.00 0.00 0.00 0.00 0.01 0.01 0.01 0.01 0.01 0.01 0.03 0.01 0.01 0.02 0.03 0.02 0.01 0.02 0.03 0.06 0.08 0.09 0.23 0.44 0.58 0.62 0.56 0.61 0.66 0.73 0.66 0.55 0.42 0.21 0.13 0.11 0.10 0.14 0.13
0.00 0.00 0.00 0.00 0.00 0.01 0.01 0.01 0.01 0.01 0.01 0.01 0.02 0.02 0.01 0.01 0.02 0.03 0.02 0.01 0.02 0.02 0.01 0.03 0.10 0.13 0.10 0.30 0.59 0.97 1.02 0.79 0.77 0.76 0.60 0.41 0.27 0.21 0.24 0.22 0.15 0.11 0.08
0.00 0.00 0.00 0.00 0.01 0.01 0.01 0.01 0.00 0.01 0.02 0.02 0.01 0.01 0.01 0.02 0.02 0.01 0.01 0.02 0.02 0.02 0.01 0.03 0.11 0.18 0.23 0.33 0.58 0.78 0.98 0.98 0.92 0.81 0.80 0.73 0.40 0.25 0.17 0.14 0.09 0.09 0.07
0.00 0.00 0.00 0.00 0.00 0.00 0.01 0.01 0.01 0.01 0.00 0.01 0.01 0.02 0.02 0.02 0.01 0.02 0.01 0.02 0.02 0.02 0.01 0.02 0.11 0.23 0.32 0.48 0.67 0.75 0.80 0.77 0.73 0.48 0.30 0.20 0.20 0.18 0.16 0.14 0.06 0.04 0.04
0.00 0.00 0.00 0.00 0.00 0.00 0.00 0.00 0.00 0.01 0.02 0.02 0.03 0.03 0.02 0.03 0.03 0.02 0.03 0.03 0.03 0.02 0.01 0.02 0.08 0.21 0.30 0.45 0.60 0.73 0.72 0.66 0.40 0.16 0.09 0.09 0.11 0.12 0.09 0.07 0.05 0.03 0.03

GFSGL_prec_precacc_048.txt.gz
Total_Precipitation_Accumulation
0.00 0.00 0.00 0.00 0.00 0.00 0.00 0.00 0.00 0.00 0.00 0.00 0.00 0.00 0.00 0.00 0.00 0.00 0.00 0.00 0.00 0.00 0.02 0.04 0.06 0.08 0.09 0.08 0.09 0.10 0.11 0.19 0.24 0.04 0.04 0.05 0.06 0.03 0.04 0.07 0.06 0.05 0.05
0.00 0.00 0.00 0.00 0.00 0.00 0.00 0.00 0.00 0.00 0.00 0.00 0.00 0.00 0.00 0.00 0.00 0.00 0.00 0.00 0.00 0.00 0.00 0.01 0.02 0.03 0.05 0.09 0.11 0.10 0.12 0.14 0.24 0.16 0.02 0.03 0.03 0.03 0.03 0.06 0.08 0.11 0.11
0.00 0.00 0.00 0.00 0.00 0.00 0.00 0.00 0.00 0.00 0.00 0.00 0.00 0.00 0.00 0.00 0.00 0.00 0.00 0.00 0.00 0.00 0.00 0.00 0.00 0.00 0.00 0.02 0.06 0.09 0.12 0.16 0.24 0.31 0.14 0.07 0.07 0.06 0.07 0.09 0.11 0.12 0.12
0.00 0.00 0.00 0.00 0.00 0.00 0.00 0.00 0.00 0.00 0.00 0.00 0.00 0.00 0.00 0.00 0.00 0.00 0.00 0.00 0.00 0.00 0.00 0.00 0.00 0.00 0.00 0.00 0.03 0.09 0.16 0.19 0.21 0.24 0.25 0.21 0.15 0.14 0.18 0.14 0.12 0.11 0.13
0.00 0.00 0.00 0.00 0.00 0.00 0.00 0.00 0.00 0.00 0.00 0.00 0.00 0.00 0.00 0.00 0.00 0.00 0.00 0.00 0.00 0.00 0.00 0.00 0.00 0.00 0.00 0.01 0.06 0.08 0.16 0.21 0.33 0.51 0.50 0.44 0.41 0.33 0.26 0.26 0.37 0.38 0.39
0.01 0.02 0.01 0.00 0.00 0.00 0.00 0.00 0.00 0.00 0.00 0.00 0.00 0.00 0.00 0.00 0.00 0.00 0.00 0.00 0.00 0.00 0.00 0.00 0.00 0.00 0.00 0.02 0.06 0.10 0.14 0.30 0.48 0.64 0.64 0.54 0.39 0.40 0.42 0.51 0.66 0.78 0.71
0.02 0.02 0.01 0.00 0.00 0.00 0.00 0.00 0.00 0.00 0.00 0.00 0.00 0.00 0.00 0.00 0.00 0.00 0.00 0.00 0.00 0.00 0.00 0.00 0.00 0.00 0.02 0.02 0.02 0.08 0.18 0.34 0.40 0.28 0.24 0.25 0.34 0.31 0.52 0.63 0.58 0.58 0.51
0.01 0.01 0.00 0.00 0.00 0.00 0.00 0.00 0.00 0.00 0.00 0.00 0.00 0.00 0.00 0.00 0.00 0.00 0.00 0.00 0.00 0.00 0.00 0.00 0.00 0.01 0.02 0.04 0.09 0.29 0.26 0.13 0.04 0.06 0.08 0.11 0.24 0.40 0.57 0.72 0.77 0.87 0.68
0.01 0.01 0.02 0.01 0.00 0.00 0.00 0.00 0.00 0.00 0.00 0.00 0.00 0.00 0.00 0.00 0.00 0.00 0.00 0.00 0.00 0.00 0.00 0.00 0.03 0.03 0.02 0.11 0.27 0.32 0.07 0.01 0.02 0.05 0.15 0.17 0.19 0.21 0.28 0.62 0.85 0.82 0.75
0.06 0.05 0.04 0.02 0.01 0.00 0.00 0.00 0.00 0.00 0.00 0.00 0.00 0.00 0.00 0.00 0.00 0.00 0.00 0.00 0.00 0.00 0.02 0.02 0.02 0.03 0.07 0.32 0.18 0.05 0.08 0.04 0.14 0.11 0.03 0.02 0.04 0.11 0.23 0.32 0.72 1.35 0.94
0.14 0.15 0.07 0.01 0.00 0.00 0.00 0.00 0.00 0.00 0.00 0.00 0.00 0.00 0.00 0.00 0.00 0.00 0.00 0.02 0.02 0.09 0.08 0.02 0.00 0.08 0.27 0.14 0.04 0.03 0.08 0.11 0.12 0.05 0.02 0.02 0.04 0.07 0.14 0.24 0.58 1.45 1.67
0.02 0.00 0.00 0.00 0.00 0.00 0.00 0.00 0.00 0.00 0.00 0.00 0.00 0.00 0.00 0.00 0.00 0.00 0.01 0.03 0.07 0.08 0.05 0.03 0.08 0.21 0.07 0.02 0.02 0.04 0.08 0.08 0.03 0.02 0.04 0.05 0.08 0.16 0.24 0.33 0.43 0.61 0.84
0.00 0.00 0.00 0.00 0.00 0.00 0.00 0.00 0.00 0.00 0.00 0.00 0.00 0.00 0.00 0.00 0.00 0.00 0.00 0.07 0.09 0.08 0.06 0.16 0.16 0.03 0.01 0.01 0.02 0.04 0.04 0.02 0.07 0.17 0.19 0.19 0.23 0.35 0.38 0.40 0.47 0.48 0.52
0.00 0.00 0.00 0.00 0.00 0.00 0.00 0.00 0.00 0.00 0.00 0.00 0.00 0.00 0.00 0.00 0.00 0.00 0.03 0.05 0.04 0.09 0.18 0.16 0.02 0.01 0.02 0.02 0.01 0.02 0.02 0.07 0.18 0.33 0.35 0.23 0.30 0.41 0.42 0.55 0.74 0.65 0.84
0.00 0.00 0.00 0.00 0.00 0.00 0.00 0.00 0.00 0.00 0.00 0.00 0.00 0.01 0.01 0.01 0.01 0.05 0.07 0.06 0.11 0.18 0.08 0.01 0.00 0.01 0.01 0.01 0.00 0.01 0.02 0.06 0.17 0.20 0.32 0.33 0.36 0.47 0.53 0.68 0.91 1.01 0.98
0.00 0.00 0.00 0.00 0.00 0.00 0.00 0.00 0.00 0.00 0.00 0.00 0.00 0.01 0.01 0.02 0.04 0.05 0.04 0.13 0.17 0.07 0.01 0.01 0.02 0.03 0.02 0.02 0.03 0.04 0.04 0.08 0.16 0.30 0.31 0.33 0.47 0.59 0.70 0.85 1.05 1.05 0.91
0.00 0.00 0.00 0.00 0.00 0.00 0.00 0.00 0.00 0.00 0.00 0.00 0.00 0.01 0.01 0.02 0.02 0.02 0.10 0.15 0.03 0.01 0.01 0.04 0.04 0.03 0.03 0.05 0.07 0.13 0.16 0.14 0.32 0.47 0.54 0.57 0.64 0.70 0.81 0.93 0.94 0.81 0.64
0.00 0.00 0.00 0.00 0.00 0.00 0.00 0.00 0.00 0.00 0.00 0.00 0.00 0.00 0.01 0.01 0.01 0.05 0.09 0.03 0.00 0.01 0.05 0.05 0.04 0.04 0.05 0.11 0.17 0.26 0.30 0.29 0.43 0.54 0.65 0.63 0.67 0.87 0.93 0.92 0.80 0.67 0.53
0.00 0.00 0.00 0.00 0.00 0.00 0.00 0.00 0.00 0.00 0.00 0.00 0.00 0.00 0.00 0.00 0.04 0.07 0.02 0.01 0.02 0.05 0.05 0.03 0.03 0.04 0.08 0.16 0.21 0.29 0.37 0.58 0.77 0.86 0.75 0.75 0.77 0.98 0.88 0.72 0.55 0.36 0.23
0.00 0.00 0.00 0.00 0.00 0.00 0.00 0.00 0.00 0.00 0.00 0.01 0.01 0.00 0.00 0.03 0.11 0.01 0.00 0.01 0.04 0.05 0.03 0.04 0.04 0.05 0.11 0.18 0.26 0.31 0.44 0.49 0.60 0.62 0.68 0.74 0.81 0.86 0.75 0.47 0.26 0.23 0.16
0.00 0.00 0.00 0.00 0.00 0.00 0.00 0.00 0.00 0.01 0.02 0.01 0.00 0.00 0.04 0.05 0.03 0.01 0.01 0.03 0.03 0.04 0.04 0.05 0.05 0.08 0.12 0.18 0.27 0.35 0.51 0.57 0.62 0.78 0.76 0.75 0.74 0.58 0.28 0.19 0.16 0.18 0.20
0.00 0.00 0.00 0.00 0.00 0.00 0.00 0.00 0.01 0.01 0.01 0.01 0.01 0.01 0.03 0.01 0.01 0.02 0.03 0.02 0.01 0.02 0.03 0.07 0.08 0.09 0.25 0.46 0.60 0.64 0.56 0.61 0.67 0.76 0.69 0.58 0.46 0.23 0.14 0.11 0.11 0.16 0.16
0.00 0.00 0.00 0.00 0.00 0.01 0.01 0.01 0.01 0.01 0.01 0.01 0.02 0.02 0.01 0.01 0.02 0.03 0.02 0.01 0.02 0.02 0.01 0.04 0.11 0.14 0.11 0.31 0.61 1.00 1.06 0.81 0.80 0.79 0.64 0.45 0.30 0.24 0.27 0.26 0.18 0.13 0.09
0.00 0.00 0.00 0.00 0.01 0.01 0.01 0.01 0.00 0.01 0.02 0.02 0.01 0.01 0.01 0.02 0.02 0.01 0.01 0.02 0.02 0.02 0.01 0.04 0.12 0.20 0.24 0.33 0.58 0.79 1.01 1.03 0.98 0.88 0.88 0.79 0.44 0.28 0.19 0.16 0.10 0.10 0.08
0.00 0.00 0.00 0.00 0.00 0.00 0.01 0.01 0.01 0.01 0.00 0.01 0.01 0.02 0.02 0.02 0.01 0.02 0.01 0.02 0.02 0.02 0.01 0.03 0.12 0.25 0.33 0.50 0.67 0.76 0.82 0.78 0.76 0.52 0.30 0.21 0.20 0.19 0.16 0.16 0.07 0.05 0.05
0.00 0.00 0.00 0.00 0.00 0.00 0.00 0.00 0.00 0.01 0.02 0.02 0.03 0.03 0.02 0.03 0.03 0.02 0.03 0.03 0.03 0.02 0.01 0.02 0.09 0.22 0.31 0.46 0.60 0.73 0.73 0.67 0.43 0.17 0.09 0.09 0.12 0.12 0.09 0.08 0.05 0.04 0.04

GFSGL_prec_precacc_051.txt.gz
Total_Precipitation_Accumulation
0.00 0.00 0.01 0.01 0.01 0.01 0.01 0.00 0.00 0.00 0.00 0.01 0.01 0.00 0.00 0.00 0.00 0.00 0.00 0.00 0.00 0.00 0.02 0.04 0.06 0.08 0.09 0.08 0.09 0.10 0.11 0.19 0.24 0.04 0.04 0.05 0.06 0.03 0.04 0.07 0.06 0.05 0.05
0.00 0.00 0.01 0.00 0.00 0.00 0.01 0.00 0.00 0.01 0.00 0.00 0.00 0.00 0.00 0.00 0.00 0.00 0.00 0.00 0.00 0.00 0.00 0.01 0.02 0.03 0.05 0.09 0.11 0.10 0.12 0.14 0.24 0.16 0.02 0.03 0.03 0.03 0.03 0.06 0.08 0.11 0.11
0.00 0.00 0.00 0.00 0.00 0.00 0.00 0.00 0.01 0.00 0.01 0.00 0.00 0.00 0.00 0.00 0.00 0.00 0.00 0.00 0.00 0.00 0.00 0.00 0.00 0.00 0.00 0.02 0.06 0.09 0.12 0.16 0.24 0.31 0.14 0.07 0.07 0.06 0.07 0.09 0.11 0.12 0.12
0.00 0.00 0.00 0.00 0.01 0.00 0.00 0.00 0.01 0.01 0.01 0.00 0.00 0.00 0.00 0.00 0.00 0.00 0.00 0.00 0.00 0.00 0.00 0.00 0.00 0.00 0.00 0.00 0.03 0.09 0.16 0.19 0.21 0.24 0.25 0.21 0.15 0.14 0.18 0.14 0.12 0.11 0.13
0.01 0.01 0.01 0.01 0.00 0.00 0.00 0.00 0.00 0.00 0.01 0.00 0.00 0.00 0.01 0.00 0.00 0.00 0.00 0.00 0.00 0.00 0.00 0.00 0.00 0.00 0.00 0.01 0.06 0.08 0.16 0.21 0.33 0.51 0.50 0.44 0.41 0.33 0.26 0.26 0.37 0.38 0.39
0.02 0.02 0.02 0.00 0.00 0.00 0.00 0.00 0.00 0.00 0.00 0.00 0.00 0.00 0.00 0.00 0.00 0.00 0.00 0.00 0.00 0.00 0.00 0.00 0.00 0.00 0.00 0.02 0.06 0.10 0.14 0.30 0.48 0.64 0.65 0.55 0.40 0.40 0.42 0.51 0.66 0.78 0.72
0.02 0.02 0.01 0.00 0.01 0.02 0.02 0.01 0.00 0.00 0.00 0.01 0.00 0.00 0.00 0.00 0.00 0.00 0.00 0.00 0.00 0.00 0.00 0.00 0.00 0.00 0.02 0.02 0.02 0.08 0.18 0.34 0.40 0.28 0.24 0.25 0.34 0.31 0.52 0.64 0.60 0.60 0.52
0.02 0.02 0.02 0.05 0.07 0.04 0.01 0.00 0.00 0.00 0.01 0.01 0.00 0.00 0.00 0.00 0.00 0.00 0.00 0.00 0.00 0.00 0.00 0.00 0.00 0.01 0.02 0.04 0.09 0.29 0.26 0.13 0.04 0.06 0.08 0.11 0.24 0.40 0.57 0.76 0.79 0.88 0.68
0.04 0.04 0.06 0.07 0.03 0.01 0.01 0.01 0.00 0.00 0.00 0.00 0.00 0.00 0.00 0.00 0.00 0.00 0.00 0.00 0.00 0.00 0.00 0.00 0.03 0.03 0.02 0.11 0.27 0.32 0.07 0.01 0.02 0.05 0.15 0.17 0.20 0.21 0.28 0.62 0.85 0.82 0.75
0.24 0.17 0.11 0.07 0.08 0.12 0.09 0.04 0.02 0.00 0.00 0.00 0.00 0.00 0.00 0.00 0.00 0.00 0.00 0.00 0.00 0.00 0.02 0.02 0.02 0.03 0.07 0.32 0.18 0.05 0.08 0.04 0.14 0.11 0.03 0.02 0.04 0.11 0.23 0.32 0.72 1.37 0.95
0.33 0.29 0.30 0.34 0.21 0.11 0.05 0.01 0.00 0.00 0.00 0.00 0.00 0.00 0.00 0.00 0.00 0.00 0.00 0.02 0.02 0.09 0.08 0.02 0.00 0.08 0.27 0.15 0.05 0.03 0.08 0.11 0.12 0.05 0.02 0.02 0.04 0.07 0.14 0.24 0.58 1.46 1.70
0.35 0.22 0.17 0.08 0.02 0.00 0.00 0.00 0.00 0.00 0.00 0.00 0.00 0.00 0.00 0.00 0.00 0.00 0.01 0.03 0.07 0.08 0.05 0.03 0.08 0.22 0.07 0.02 0.02 0.04 0.08 0.08 0.03 0.02 0.04 0.05 0.08 0.16 0.24 0.33 0.43 0.61 0.84
0.05 0.01 0.00 0.00 0.00 0.00 0.00 0.00 0.00 0.00 0.00 0.00 0.00 0.00 0.00 0.00 0.00 0.00 0.00 0.07 0.09 0.08 0.06 0.16 0.16 0.03 0.01 0.01 0.02 0.04 0.04 0.02 0.07 0.17 0.19 0.19 0.23 0.35 0.38 0.40 0.47 0.48 0.52
0.00 0.00 0.00 0.00 0.00 0.00 0.00 0.00 0.00 0.00 0.00 0.00 0.00 0.00 0.00 0.00 0.00 0.00 0.03 0.05 0.04 0.09 0.18 0.16 0.02 0.01 0.02 0.02 0.01 0.02 0.02 0.07 0.18 0.33 0.35 0.23 0.30 0.41 0.42 0.55 0.74 0.65 0.84
0.00 0.00 0.00 0.00 0.00 0.00 0.00 0.00 0.00 0.00 0.00 0.00 0.00 0.01 0.01 0.01 0.01 0.05 0.07 0.06 0.11 0.18 0.08 0.01 0.00 0.01 0.01 0.01 0.00 0.01 0.02 0.06 0.17 0.20 0.32 0.33 0.37 0.47 0.53 0.68 0.91 1.02 0.99
0.00 0.00 0.00 0.00 0.00 0.00 0.00 0.00 0.00 0.00 0.00 0.00 0.00 0.01 0.01 0.02 0.04 0.05 0.04 0.13 0.17 0.07 0.01 0.01 0.02 0.03 0.02 0.02 0.03 0.04 0.04 0.08 0.16 0.30 0.31 0.33 0.48 0.59 0.70 0.85 1.05 1.06 0.92
0.00 0.00 0.00 0.00 0.00 0.00 0.00 0.00 0.00 0.00 0.00 0.00 0.00 0.01 0.01 0.02 0.02 0.02 0.10 0.15 0.03 0.01 0.01 0.04 0.04 0.03 0.03 0.05 0.07 0.13 0.16 0.14 0.32 0.47 0.55 0.58 0.65 0.71 0.81 0.93 0.95 0.82 0.64
0.00 0.00 0.00 0.00 0.00 0.00 0.00 0.00 0.00 0.00 0.00 0.00 0.00 0.00 0.01 0.01 0.01 0.05 0.09 0.03 0.00 0.01 0.05 0.05 0.04 0.04 0.05 0.11 0.17 0.26 0.31 0.29 0.43 0.54 0.66 0.65 0.70 0.90 0.94 0.93 0.81 0.68 0.55
0.00 0.00 0.00 0.00 0.00 0.00 0.00 0.00 0.00 0.00 0.00 0.00 0.00 0.00 0.00 0.00 0.04 0.07 0.02 0.01 0.02 0.05 0.05 0.03 0.03 0.04 0.08 0.16 0.22 0.29 0.37 0.58 0.78 0.88 0.76 0.77 0.79 1.01 0.90 0.72 0.56 0.37 0.25
0.00 0.00 0.00 0.00 0.00 0.00 0.00 0.00 0.00 0.00 0.00 0.01 0.01 0.00 0.00 0.03 0.11 0.01 0.00 0.01 0.04 0.05 0.03 0.04 0.04 0.05 0.11 0.18 0.26 0.32 0.45 0.49 0.60 0.63 0.69 0.76 0.84 0.89 0.78 0.49 0.28 0.25 0.16
0.00 0.00 0.00 0.00 0.00 0.00 0.00 0.00 0.00 0.01 0.02 0.01 0.00 0.00 0.04 0.05 0.03 0.01 0.01 0.03 0.03 0.04 0.04 0.05 0.05 0.08 0.12 0.18 0.27 0.35 0.52 0.57 0.63 0.79 0.78 0.78 0.77 0.61 0.30 0.20 0.17 0.19 0.21
0.00 0.00 0.00 0.00 0.00 0.00 0.00 0.00 0.01 0.01 0.01 0.01 0.01 0.01 0.03 0.01 0.01 0.02 0.03 0.02 0.01 0.02 0.03 0.07 0.09 0.10 0.26 0.47 0.62 0.65 0.57 0.62 0.67 0.78 0.71 0.59 0.47 0.24 0.15 0.12 0.12 0.18 0.18
0.00 0.00 0.00 0.00 0.00 0.01 0.01 0.01 0.01 0.01 0.01 0.01 0.02 0.02 0.01 0.01 0.02 0.03 0.02 0.01 0.02 0.02 0.01 0.04 0.12 0.14 0.11 0.32 0.62 1.02 1.09 0.83 0.83 0.82 0.69 0.50 0.35 0.28 0.31 0.29 0.20 0.15 0.10
0.00 0.00 0.00 0.00 0.01 0.01 0.01 0.01 0.00 0.01 0.02 0.02 0.01 0.01 0.01 0.02 0.02 0.01 0.01 0.02 0.02 0.02 0.01 0.04 0.13 0.21 0.25 0.34 0.59 0.80 1.05 1.07 1.03 0.97 0.98 0.87 0.47 0.30 0.20 0.18 0.12 0.12 0.09
0.00 0.00 0.00 0.00 0.00 0.00 0.01 0.01 0.01 0.01 0.00 0.01 0.01 0.02 0.02 0.02 0.01 0.02 0.01 0.02 0.02 0.02 0.01 0.03 0.12 0.25 0.34 0.51 0.67 0.77 0.84 0.80 0.81 0.58 0.33 0.23 0.22 0.19 0.17 0.17 0.08 0.06 0.05
0.00 0.00 0.00 0.00 0.00 0.00 0.00 0.00 0.00 0.01 0.02 0.02 0.03 0.03 0.02 0.03 0.03 0.02 0.03 0.03 0.03 0.02 0.01 0.02 0.09 0.22 0.31 0.46 0.60 0.74 0.74 0.68 0.47 0.19 0.10 0.10 0.13 0.13 0.11 0.08 0.06 0.04 0.04

GFSGL_prec_precacc_054.txt.gz
Total_Precipitation_Accumulation
0.00 0.00 0.02 0.03 0.04 0.05 0.06 0.05 0.02 0.01 0.01 0.01 0.01 0.01 0.01 0.01 0.00 0.00 0.00 0.00 0.00 0.00 0.02 0.04 0.06 0.08 0.09 0.08 0.09 0.10 0.11 0.19 0.24 0.04 0.04 0.05 0.06 0.03 0.04 0.07 0.06 0.05 0.05
0.00 0.01 0.03 0.03 0.03 0.04 0.05 0.04 0.02 0.02 0.01 0.00 0.00 0.01 0.00 0.00 0.00 0.00 0.00 0.00 0.00 0.00 0.00 0.01 0.02 0.03 0.05 0.09 0.11 0.10 0.12 0.14 0.24 0.16 0.02 0.03 0.03 0.03 0.03 0.06 0.08 0.11 0.11
0.01 0.01 0.02 0.02 0.02 0.03 0.02 0.02 0.01 0.01 0.01 0.01 0.01 0.00 0.00 0.00 0.00 0.00 0.00 0.00 0.00 0.00 0.00 0.00 0.00 0.00 0.00 0.02 0.06 0.09 0.12 0.16 0.24 0.31 0.14 0.07 0.07 0.06 0.07 0.09 0.11 0.12 0.12
0.02 0.01 0.02 0.02 0.01 0.01 0.00 0.01 0.01 0.02 0.01 0.01 0.01 0.01 0.00 0.01 0.02 0.02 0.02 0.02 0.02 0.01 0.00 0.00 0.00 0.00 0.00 0.00 0.03 0.09 0.16 0.19 0.21 0.24 0.25 0.21 0.15 0.14 0.18 0.14 0.12 0.11 0.13
0.05 0.03 0.02 0.02 0.01 0.01 0.01 0.01 0.01 0.01 0.01 0.02 0.01 0.01 0.02 0.03 0.04 0.05 0.04 0.03 0.01 0.00 0.00 0.00 0.00 0.00 0.00 0.01 0.06 0.08 0.16 0.21 0.33 0.51 0.50 0.44 0.41 0.33 0.26 0.26 0.37 0.38 0.39
0.10 0.06 0.03 0.01 0.01 0.01 0.01 0.01 0.01 0.02 0.03 0.04 0.08 0.08 0.02 0.01 0.01 0.01 0.00 0.00 0.00 0.00 0.00 0.00 0.00 0.00 0.00 0.02 0.06 0.10 0.14 0.30 0.48 0.64 0.65 0.55 0.40 0.40 0.42 0.51 0.66 0.78 0.72
0.08 0.06 0.04 0.01 0.01 0.02 0.03 0.04 0.05 0.03 0.04 0.07 0.04 0.02 0.02 0.01 0.00 0.00 0.00 0.00 0.00 0.00 0.00 0.00 0.00 0.00 0.02 0.02 0.02 0.08 0.18 0.34 0.40 0.29 0.24 0.25 0.34 0.31 0.52 0.65 0.61 0.62 0.53
0.06 0.08 0.03 0.05 0.10 0.10 0.13 0.11 0.10 0.14 0.05 0.04 0.04 0.03 0.02 0.01 0.00 0.00 0.00 0.00 0.00 0.00 0.00 0.00 0.00 0.01 0.02 0.04 0.09 0.29 0.26 0.13 0.04 0.06 0.08 0.11 0.24 0.40 0.58 0.78 0.80 0.88 0.68
0.07 0.05 0.10 0.21 0.22 0.16 0.14 0.19 0.07 0.05 0.03 0.02 0.01 0.01 0.00 0.00 0.00 0.00 0.00 0.00 0.00 0.00 0.00 0.00 0.03 0.03 0.02 0.11 0.27 0.32 0.07 0.01 0.02 0.05 0.15 0.18 0.20 0.21 0.28 0.62 0.85 0.83 0.76
0.31 0.29 0.27 0.44 0.31 0.31 0.19 0.11 0.13 0.13 0.08 0.03 0.01 0.01 0.00 0.00 0.00 0.00 0.00 0.00 0.00 0.00 0.02 0.02 0.02 0.03 0.07 0.32 0.18 0.05 0.08 0.04 0.14 0.11 0.03 0.02 0.04 0.11 0.23 0.32 0.72 1.38 0.96
0.54 0.52 0.53 0.59 0.39 0.31 0.29 0.20 0.11 0.05 0.02 0.01 0.00 0.00 0.00 0.00 0.00 0.00 0.00 0.02 0.02 0.09 0.08 0.02 0.00 0.08 0.28 0.15 0.05 0.03 0.08 0.11 0.12 0.05 0.02 0.02 0.04 0.07 0.14 0.24 0.58 1.47 1.72
0.54 0.39 0.32 0.19 0.15 0.10 0.08 0.05 0.02 0.01 0.00 0.00 0.00 0.00 0.00 0.00 0.00 0.00 0.01 0.03 0.07 0.08 0.05 0.03 0.08 0.22 0.07 0.02 0.02 0.04 0.08 0.08 0.03 0.02 0.04 0.05 0.08 0.16 0.24 0.33 0.43 0.61 0.84
0.13 0.06 0.04 0.02 0.01 0.00 0.00 0.00 0.00 0.00 0.00 0.00 0.00 0.00 0.00 0.00 0.00 0.00 0.00 0.07 0.09 0.08 0.06 0.17 0.16 0.03 0.01 0.01 0.02 0.04 0.04 0.02 0.07 0.17 0.19 0.19 0.23 0.35 0.38 0.40 0.47 0.48 0.52
0.01 0.01 0.00 0.00 0.00 0.00 0.00 0.00 0.00 0.00 0.00 0.00 0.00 0.00 0.00 0.00 0.00 0.00 0.03 0.05 0.04 0.09 0.18 0.16 0.02 0.01 0.02 0.02 0.01 0.02 0.02 0.07 0.18 0.33 0.35 0.23 0.30 0.41 0.42 0.55 0.75 0.65 0.85
0.00 0.00 0.00 0.00 0.00 0.00 0.00 0.00 0.00 0.00 0.00 0.00 0.00 0.01 0.01 0.01 0.01 0.05 0.07 0.06 0.11 0.18 0.08 0.01 0.00 0.01 0.01 0.01 0.00 0.01 0.02 0.06 0.17 0.20 0.33 0.34 0.37 0.47 0.53 0.68 0.91 1.02 1.00
0.00 0.00 0.00 0.00 0.00 0.00 0.00 0.00 0.00 0.00 0.00 0.00 0.00 0.01 0.01 0.02 0.04 0.05 0.04 0.13 0.17 0.07 0.01 0.01 0.02 0.03 0.02 0.02 0.03 0.04 0.04 0.08 0.16 0.30 0.31 0.33 0.48 0.59 0.71 0.85 1.05 1.07 0.92
0.00 0.00 0.00 0.00 0.00 0.00 0.00 0.00 0.00 0.00 0.00 0.00 0.00 0.01 0.01 0.02 0.02 0.02 0.10 0.15 0.03 0.01 0.01 0.04 0.04 0.03 0.03 0.05 0.07 0.13 0.16 0.14 0.32 0.48 0.55 0.58 0.65 0.72 0.81 0.94 0.95 0.83 0.65
0.00 0.00 0.00 0.00 0.00 0.00 0.00 0.00 0.00 0.00 0.00 0.00 0.00 0.00 0.01 0.01 0.01 0.05 0.09 0.03 0.00 0.01 0.05 0.05 0.04 0.04 0.05 0.11 0.17 0.27 0.31 0.29 0.43 0.54 0.66 0.66 0.71 0.91 0.94 0.93 0.82 0.69 0.56
0.00 0.00 0.00 0.00 0.00 0.00 0.00 0.00 0.00 0.00 0.00 0.00 0.00 0.00 0.00 0.00 0.04 0.07 0.02 0.01 0.02 0.05 0.05 0.03 0.03 0.04 0.09 0.16 0.22 0.29 0.38 0.59 0.78 0.89 0.77 0.78 0.80 1.04 0.91 0.73 0.57 0.37 0.25
0.00 0.00 0.00 0.00 0.00 0.00 0.00 0.00 0.00 0.00 0.00 0.01 0.01 0.00 0.00 0.03 0.11 0.01 0.00 0.01 0.04 0.05 0.03 0.04 0.04 0.05 0.11 0.19 0.26 0.32 0.45 0.49 0.61 0.63 0.70 0.77 0.86 0.91 0.80 0.51 0.29 0.26 0.17
0.00 0.00 0.00 0.00 0.00 0.00 0.00 0.00 0.00 0.01 0.02 0.01 0.00 0.00 0.04 0.05 0.03 0.01 0.01 0.03 0.03 0.04 0.04 0.05 0.05 0.08 0.13 0.19 0.28 0.36 0.52 0.58 0.63 0.81 0.79 0.78 0.78 0.63 0.31 0.21 0.18 0.20 0.23
0.00 0.00 0.00 0.00 0.00 0.00 0.00 0.00 0.01 0.01 0.01 0.01 0.01 0.01 0.03 0.01 0.01 0.02 0.03 0.02 0.01 0.02 0.03 0.07 0.09 0.10 0.27 0.48 0.63 0.66 0.57 0.62 0.68 0.80 0.72 0.59 0.47 0.25 0.16 0.14 0.14 0.19 0.20
0.00 0.00 0.00 0.00 0.00 0.01 0.01 0.01 0.01 0.01 0.01 0.01 0.02 0.02 0.01 0.01 0.02 0.03 0.02 0.01 0.02 0.02 0.01 0.04 0.13 0.14 0.11 0.33 0.63 1.04 1.11 0.84 0.85 0.85 0.71 0.55 0.40 0.31 0.32 0.31 0.21 0.16 0.12
0.00 0.00 0.00 0.00 0.01 0.01 0.01 0.01 0.00 0.01 0.02 0.02 0.01 0.01 0.01 0.02 0.02 0.01 0.01 0.02 0.02 0.02 0.01 0.04 0.14 0.22 0.25 0.35 0.59 0.80 1.07 1.10 1.08 1.03 1.07 0.93 0.50 0.31 0.21 0.18 0.12 0.12 0.10
0.00 0.00 0.00 0.00 0.00 0.00 0.01 0.01 0.01 0.01 0.00 0.01 0.01 0.02 0.02 0.02 0.01 0.02 0.01 0.02 0.02 0.02 0.01 0.03 0.12 0.26 0.35 0.51 0.67 0.77 0.84 0.82 0.84 0.63 0.35 0.25 0.23 0.20 0.17 0.18 0.09 0.07 0.06
0.00 0.00 0.00 0.00 0.00 0.00 0.00 0.00 0.00 0.01 0.02 0.02 0.03 0.03 0.02 0.03 0.03 0.02 0.03 0.03 0.03 0.02 0.01 0.02 0.09 0.23 0.32 0.47 0.60 0.74 0.75 0.70 0.50 0.21 0.10 0.11 0.14 0.14 0.12 0.10 0.06 0.04 0.04

GFSGL_prec_precacc_057.txt.gz
Total_Precipitation_Accumulation
0.00 0.00 0.02 0.03 0.04 0.05 0.06 0.06 0.04 0.03 0.03 0.02 0.02 0.01 0.01 0.01 0.00 0.00 0.00 0.00 0.00 0.01 0.03 0.05 0.06 0.08 0.09 0.08 0.09 0.10 0.11 0.19 0.24 0.04 0.04 0.05 0.06 0.03 0.04 0.07 0.06 0.05 0.05
0.00 0.01 0.03 0.03 0.03 0.04 0.06 0.06 0.05 0.05 0.02 0.02 0.01 0.01 0.01 0.00 0.00 0.00 0.00 0.01 0.01 0.01 0.00 0.01 0.02 0.03 0.05 0.09 0.11 0.10 0.12 0.14 0.24 0.16 0.02 0.03 0.03 0.03 0.03 0.06 0.08 0.11 0.11
0.01 0.01 0.02 0.03 0.04 0.05 0.04 0.04 0.03 0.02 0.01 0.02 0.01 0.01 0.00 0.00 0.00 0.00 0.00 0.00 0.00 0.01 0.01 0.01 0.01 0.00 0.00 0.02 0.06 0.09 0.12 0.16 0.24 0.31 0.14 0.07 0.07 0.06 0.07 0.09 0.11 0.12 0.12
0.03 0.03 0.04 0.04 0.04 0.04 0.05 0.04 0.02 0.02 0.01 0.01 0.01 0.01 0.01 0.01 0.02 0.02 0.02 0.03 0.04 0.03 0.01 0.01 0.00 0.00 0.00 0.00 0.03 0.09 0.16 0.19 0.21 0.24 0.25 0.21 0.15 0.14 0.18 0.14 0.12 0.11 0.13
0.07 0.05 0.05 0.05 0.04 0.03 0.02 0.02 0.01 0.01 0.01 0.02 0.01 0.01 0.03 0.06 0.09 0.11 0.11 0.09 0.07 0.02 0.00 0.00 0.00 0.00 0.00 0.01 0.06 0.08 0.16 0.21 0.33 0.51 0.50 0.44 0.41 0.33 0.26 0.26 0.37 0.38 0.39
0.11 0.06 0.04 0.02 0.01 0.01 0.01 0.01 0.01 0.02 0.03 0.04 0.09 0.15 0.15 0.12 0.12 0.11 0.05 0.01 0.01 0.00 0.00 0.00 0.00 0.00 0.00 0.02 0.06 0.10 0.14 0.30 0.48 0.64 0.65 0.55 0.40 0.40 0.42 0.51 0.66 0.78 0.73
0.08 0.06 0.05 0.02 0.02 0.03 0.03 0.05 0.06 0.05 0.07 0.12 0.16 0.15 0.14 0.13 0.09 0.04 0.02 0.01 0.02 0.01 0.00 0.00 0.00 0.00 0.02 0.02 0.02 0.08 0.18 0.34 0.40 0.29 0.24 0.25 0.34 0.31 0.52 0.65 0.62 0.62 0.53
0.10 0.15 0.16 0.14 0.16 0.14 0.16 0.14 0.17 0.23 0.16 0.16 0.18 0.19 0.15 0.07 0.03 0.01 0.01 0.01 0.00 0.00 0.00 0.00 0.00 0.01 0.02 0.04 0.09 0.29 0.26 0.13 0.04 0.06 0.08 0.11 0.24 0.40 0.59 0.81 0.81 0.88 0.68
0.22 0.24 0.33 0.28 0.24 0.21 0.24 0.32 0.24 0.25 0.30 0.26 0.16 0.07 0.02 0.01 0.00 0.00 0.00 0.00 0.00 0.00 0.00 0.00 0.03 0.03 0.02 0.11 0.27 0.32 0.07 0.01 0.02 0.05 0.15 0.18 0.20 0.21 0.28 0.62 0.85 0.83 0.76
0.32 0.30 0.28 0.47 0.39 0.45 0.37 0.31 0.34 0.37 0.27 0.13 0.07 0.05 0.03 0.02 0.00 0.00 0.00 0.00 0.00 0.00 0.02 0.02 0.02 0.03 0.07 0.32 0.18 0.05 0.08 0.04 0.14 0.11 0.03 0.02 0.04 0.11 0.23 0.32 0.72 1.39 0.97
0.57 0.59 0.64 0.76 0.62 0.53 0.56 0.43 0.23 0.12 0.07 0.05 0.03 0.02 0.01 0.00 0.00 0.00 0.00 0.02 0.02 0.09 0.08 0.02 0.00 0.08 0.28 0.15 0.05 0.03 0.08 0.11 0.12 0.05 0.02 0.02 0.04 0.07 0.14 0.24 0.58 1.47 1.74
0.66 0.54 0.46 0.35 0.24 0.14 0.11 0.08 0.04 0.03 0.02 0.01 0.00 0.00 0.00 0.00 0.00 0.00 0.01 0.03 0.07 0.08 0.05 0.03 0.08 0.22 0.07 0.02 0.02 0.04 0.08 0.08 0.03 0.02 0.04 0.05 0.08 0.16 0.24 0.33 0.43 0.61 0.85
0.15 0.09 0.08 0.04 0.02 0.01 0.00 0.00 0.00 0.00 0.00 0.00 0.00 0.00 0.00 0.00 0.00 0.00 0.00 0.07 0.09 0.08 0.06 0.17 0.16 0.03 0.01 0.01 0.02 0.04 0.04 0.02 0.07 0.17 0.19 0.19 0.23 0.35 0.38 0.40 0.47 0.48 0.52
0.01 0.01 0.00 0.00 0.00 0.00 0.00 0.00 0.00 0.00 0.00 0.00 0.00 0.00 0.00 0.00 0.00 0.00 0.03 0.05 0.04 0.09 0.18 0.16 0.02 0.01 0.02 0.02 0.01 0.02 0.02 0.07 0.18 0.33 0.35 0.23 0.30 0.41 0.42 0.55 0.75 0.65 0.86
0.00 0.00 0.00 0.00 0.00 0.00 0.00 0.00 0.00 0.00 0.00 0.00 0.00 0.01 0.01 0.01 0.01 0.05 0.07 0.06 0.11 0.18 0.08 0.01 0.00 0.01 0.01 0.01 0.00 0.01 0.02 0.06 0.17 0.20 0.33 0.34 0.37 0.47 0.53 0.68 0.91 1.03 1.01
0.00 0.00 0.00 0.00 0.00 0.00 0.00 0.00 0.00 0.00 0.00 0.00 0.00 0.01 0.01 0.02 0.04 0.05 0.04 0.13 0.17 0.07 0.01 0.01 0.02 0.03 0.02 0.02 0.03 0.04 0.04 0.08 0.16 0.30 0.31 0.33 0.48 0.60 0.71 0.85 1.06 1.08 0.93
0.00 0.00 0.00 0.00 0.00 0.00 0.00 0.00 0.00 0.00 0.00 0.00 0.00 0.01 0.01 0.02 0.02 0.02 0.10 0.15 0.03 0.01 0.01 0.04 0.04 0.03 0.03 0.05 0.07 0.13 0.16 0.14 0.32 0.48 0.55 0.58 0.66 0.73 0.82 0.94 0.95 0.83 0.65
0.00 0.00 0.00 0.00 0.00 0.00 0.00 0.00 0.00 0.00 0.00 0.00 0.00 0.00 0.01 0.01 0.01 0.05 0.09 0.03 0.00 0.01 0.05 0.05 0.04 0.04 0.05 0.12 0.18 0.27 0.31 0.29 0.43 0.54 0.67 0.67 0.72 0.93 0.95 0.94 0.82 0.70 0.58
0.00 0.00 0.00 0.00 0.00 0.00 0.00 0.00 0.00 0.00 0.00 0.00 0.00 0.00 0.00 0.00 0.04 0.07 0.02 0.01 0.02 0.05 0.05 0.03 0.03 0.04 0.09 0.16 0.22 0.29 0.38 0.59 0.78 0.90 0.77 0.78 0.81 1.05 0.92 0.73 0.57 0.38 0.27
0.00 0.00 0.00 0.00 0.00 0.00 0.00 0.00 0.00 0.00 0.00 0.01 0.01 0.00 0.00 0.03 0.11 0.01 0.00 0.01 0.04 0.05 0.03 0.04 0.04 0.05 0.11 0.19 0.27 0.32 0.45 0.49 0.61 0.64 0.71 0.78 0.86 0.92 0.81 0.52 0.30 0.28 0.18
0.00 0.00 0.00 0.00 0.00 0.00 0.00 0.00 0.00 0.01 0.02 0.01 0.00 0.00 0.04 0.05 0.03 0.01 0.01 0.03 0.03 0.04 0.04 0.05 0.06 0.09 0.13 0.19 0.28 0.36 0.52 0.58 0.63 0.82 0.79 0.78 0.78 0.64 0.31 0.22 0.19 0.21 0.25
0.00 0.00 0.00 0.00 0.00 0.00 0.00 0.00 0.01 0.01 0.01 0.01 0.01 0.01 0.03 0.01 0.01 0.02 0.03 0.02 0.01 0.02 0.03 0.07 0.09 0.10 0.27 0.48 0.63 0.67 0.58 0.62 0.68 0.82 0.72 0.59 0.48 0.27 0.18 0.16 0.15 0.20 0.20
0.00 0.00 0.00 0.00 0.00 0.01 0.01 0.01 0.01 0.01 0.01 0.01 0.02 0.02 0.01 0.01 0.02 0.03 0.02 0.01 0.02 0.02 0.01 0.05 0.13 0.15 0.11 0.33 0.64 1.05 1.12 0.85 0.87 0.86 0.73 0.58 0.43 0.35 0.36 0.33 0.23 0.17 0.13
0.00 0.00 0.00 0.00 0.01 0.01 0.01 0.01 0.00 0.01 0.02 0.02 0.01 0.01 0.01 0.02 0.02 0.01 0.01 0.02 0.02 0.02 0.01 0.04 0.14 0.22 0.26 0.35 0.60 0.81 1.07 1.12 1.10 1.06 1.13 0.98 0.53 0.33 0.23 0.20 0.13 0.14 0.12
0.00 0.00 0.00 0.00 0.00 0.00 0.01 0.01 0.01 0.01 0.00 0.01 0.01 0.02 0.02 0.02 0.01 0.02 0.01 0.02 0.02 0.02 0.01 0.03 0.12 0.26 0.35 0.52 0.68 0.77 0.85 0.83 0.85 0.65 0.38 0.26 0.25 0.21 0.19 0.20 0.11 0.08 0.06
0.00 0.00 0.00 0.00 0.00 0.00 0.00 0.00 0.00 0.01 0.02 0.02 0.03 0.03 0.02 0.03 0.03 0.02 0.03 0.03 0.03 0.02 0.01 0.02 0.09 0.23 0.32 0.47 0.60 0.74 0.75 0.70 0.51 0.24 0.11 0.11 0.15 0.16 0.13 0.12 0.08 0.05 0.05

GFSGL_prec_precacc_060.txt.gz
Total_Precipitation_Accumulation
0.00 0.00 0.02 0.03 0.04 0.05 0.06 0.06 0.04 0.03 0.04 0.03 0.03 0.03 0.03 0.02 0.00 0.00 0.00 0.00 0.01 0.01 0.03 0.05 0.07 0.10 0.11 0.10 0.11 0.11 0.11 0.19 0.24 0.04 0.04 0.05 0.06 0.03 0.04 0.07 0.06 0.05 0.05
0.00 0.01 0.03 0.03 0.03 0.04 0.06 0.06 0.05 0.05 0.03 0.02 0.01 0.01 0.01 0.00 0.00 0.00 0.00 0.01 0.01 0.01 0.01 0.02 0.03 0.05 0.08 0.10 0.11 0.10 0.13 0.15 0.24 0.16 0.02 0.03 0.03 0.03 0.03 0.06 0.08 0.11 0.11
0.01 0.01 0.02 0.03 0.04 0.05 0.04 0.04 0.03 0.02 0.02 0.02 0.02 0.01 0.00 0.00 0.00 0.00 0.00 0.00 0.01 0.01 0.02 0.03 0.03 0.03 0.03 0.03 0.06 0.10 0.12 0.16 0.24 0.31 0.14 0.07 0.07 0.06 0.07 0.09 0.11 0.12 0.12
0.03 0.03 0.04 0.05 0.05 0.04 0.05 0.04 0.03 0.03 0.02 0.01 0.01 0.01 0.01 0.01 0.03 0.03 0.04 0.04 0.06 0.07 0.06 0.05 0.05 0.03 0.03 0.02 0.03 0.09 0.16 0.19 0.21 0.24 0.25 0.21 0.15 0.14 0.18 0.14 0.12 0.11 0.13
0.07 0.05 0.05 0.05 0.05 0.04 0.04 0.04 0.04 0.03 0.03 0.02 0.01 0.01 0.03 0.07 0.10 0.13 0.15 0.14 0.13 0.13 0.11 0.10 0.07 0.04 0.02 0.01 0.06 0.08 0.16 0.21 0.33 0.51 0.50 0.44 0.41 0.33 0.26 0.26 0.37 0.38 0.39
0.11 0.06 0.04 0.02 0.04 0.04 0.05 0.05 0.05 0.09 0.05 0.05 0.09 0.15 0.15 0.14 0.18 0.15 0.13 0.13 0.12 0.09 0.07 0.04 0.02 0.01 0.01 0.02 0.06 0.10 0.14 0.30 0.48 0.64 0.65 0.55 0.40 0.40 0.42 0.51 0.66 0.78 0.73
0.08 0.06 0.05 0.03 0.04 0.06 0.07 0.12 0.10 0.06 0.08 0.15 0.18 0.17 0.17 0.18 0.22 0.17 0.12 0.09 0.07 0.06 0.04 0.02 0.01 0.00 0.02 0.02 0.02 0.08 0.18 0.34 0.40 0.29 0.24 0.25 0.34 0.31 0.52 0.65 0.62 0.63 0.54
0.10 0.15 0.16 0.14 0.17 0.19 0.27 0.21 0.19 0.25 0.19 0.20 0.24 0.28 0.30 0.27 0.18 0.08 0.05 0.04 0.03 0.02 0.01 0.00 0.00 0.01 0.02 0.04 0.09 0.29 0.26 0.13 0.04 0.06 0.08 0.11 0.24 0.40 0.59 0.83 0.82 0.88 0.68
0.22 0.25 0.36 0.31 0.28 0.25 0.31 0.38 0.30 0.40 0.46 0.42 0.35 0.21 0.10 0.06 0.04 0.03 0.03 0.02 0.01 0.00 0.00 0.00 0.03 0.03 0.02 0.11 0.27 0.32 0.07 0.01 0.02 0.05 0.15 0.18 0.20 0.21 0.28 0.62 0.85 0.83 0.76
0.32 0.31 0.30 0.48 0.40 0.47 0.42 0.45 0.57 0.48 0.44 0.23 0.14 0.09 0.07 0.05 0.03 0.01 0.01 0.01 0.00 0.00 0.02 0.02 0.02 0.03 0.07 0.32 0.19 0.05 0.08 0.04 0.14 0.11 0.03 0.02 0.04 0.11 0.23 0.32 0.72 1.39 0.98
0.57 0.60 0.64 0.77 0.66 0.59 0.64 0.53 0.38 0.24 0.15 0.09 0.06 0.04 0.03 0.01 0.00 0.00 0.00 0.02 0.02 0.09 0.08 0.02 0.00 0.08 0.28 0.15 0.05 0.03 0.08 0.11 0.12 0.05 0.02 0.02 0.04 0.07 0.14 0.24 0.58 1.47 1.75
0.67 0.57 0.54 0.47 0.39 0.29 0.24 0.16 0.09 0.07 0.05 0.03 0.01 0.00 0.00 0.00 0.00 0.00 0.01 0.03 0.07 0.08 0.05 0.03 0.08 0.22 0.07 0.02 0.02 0.04 0.08 0.08 0.03 0.02 0.04 0.05 0.08 0.16 0.24 0.33 0.43 0.61 0.85
0.16 0.12 0.13 0.08 0.05 0.02 0.00 0.00 0.00 0.00 0.00 0.00 0.00 0.00 0.00 0.00 0.00 0.00 0.00 0.07 0.09 0.08 0.06 0.17 0.16 0.03 0.01 0.01 0.02 0.04 0.04 0.02 0.07 0.17 0.19 0.19 0.23 0.35 0.38 0.40 0.47 0.48 0.52
0.01 0.01 0.00 0.00 0.00 0.00 0.00 0.00 0.00 0.00 0.00 0.00 0.00 0.00 0.00 0.00 0.00 0.00 0.03 0.05 0.04 0.09 0.18 0.16 0.02 0.01 0.02 0.02 0.01 0.02 0.02 0.07 0.18 0.33 0.35 0.23 0.30 0.41 0.42 0.55 0.75 0.65 0.86
0.00 0.00 0.00 0.00 0.00 0.00 0.00 0.00 0.00 0.00 0.00 0.00 0.00 0.01 0.01 0.01 0.01 0.05 0.07 0.06 0.11 0.18 0.08 0.01 0.00 0.01 0.01 0.01 0.00 0.01 0.02 0.06 0.17 0.20 0.33 0.34 0.37 0.47 0.53 0.68 0.91 1.04 1.02
0.00 0.00 0.00 0.00 0.00 0.00 0.00 0.00 0.00 0.00 0.00 0.00 0.00 0.01 0.01 0.02 0.04 0.05 0.04 0.13 0.17 0.07 0.01 0.01 0.02 0.03 0.02 0.02 0.03 0.04 0.04 0.08 0.16 0.30 0.32 0.34 0.49 0.60 0.71 0.85 1.06 1.09 0.94
0.00 0.00 0.00 0.00 0.00 0.00 0.00 0.00 0.00 0.00 0.00 0.00 0.00 0.01 0.01 0.02 0.02 0.02 0.10 0.15 0.03 0.01 0.01 0.04 0.04 0.03 0.03 0.05 0.08 0.13 0.16 0.14 0.32 0.48 0.55 0.59 0.67 0.73 0.82 0.94 0.96 0.83 0.66
0.00 0.00 0.00 0.00 0.00 0.00 0.00 0.00 0.00 0.00 0.00 0.00 0.00 0.00 0.01 0.01 0.01 0.05 0.09 0.03 0.00 0.01 0.05 0.05 0.04 0.04 0.05 0.12 0.18 0.27 0.31 0.29 0.43 0.54 0.67 0.67 0.73 0.94 0.96 0.94 0.82 0.71 0.60
0.00 0.00 0.00 0.00 0.00 0.00 0.00 0.00 0.00 0.00 0.00 0.00 0.00 0.00 0.00 0.00 0.04 0.07 0.02 0.01 0.02 0.05 0.05 0.03 0.03 0.04 0.09 0.16 0.22 0.30 0.38 0.59 0.79 0.90 0.78 0.79 0.81 1.06 0.93 0.73 0.58 0.38 0.28
0.00 0.00 0.00 0.00 0.00 0.00 0.00 0.00 0.00 0.00 0.00 0.01 0.01 0.00 0.00 0.03 0.11 0.01 0.00 0.01 0.04 0.05 0.03 0.04 0.04 0.05 0.12 0.20 0.27 0.32 0.45 0.50 0.61 0.64 0.71 0.78 0.87 0.93 0.82 0.53 0.30 0.29 0.19
0.00 0.00 0.00 0.00 0.00 0.00 0.00 0.00 0.00 0.01 0.02 0.01 0.00 0.00 0.04 0.05 0.03 0.01 0.01 0.03 0.03 0.04 0.04 0.05 0.06 0.09 0.13 0.19 0.29 0.36 0.53 0.58 0.63 0.82 0.80 0.79 0.79 0.64 0.32 0.23 0.20 0.22 0.26
0.00 0.00 0.00 0.00 0.00 0.00 0.00 0.00 0.01 0.01 0.01 0.01 0.01 0.01 0.03 0.01 0.01 0.02 0.03 0.02 0.01 0.02 0.03 0.07 0.09 0.11 0.28 0.49 0.64 0.67 0.58 0.62 0.69 0.82 0.73 0.60 0.48 0.27 0.21 0.19 0.16 0.20 0.21
0.00 0.00 0.00 0.00 0.00 0.01 0.01 0.01 0.01 0.01 0.01 0.01 0.02 0.02 0.01 0.01 0.02 0.03 0.02 0.01 0.02 0.02 0.01 0.05 0.13 0.15 0.12 0.33 0.64 1.06 1.13 0.86 0.88 0.87 0.74 0.59 0.44 0.38 0.38 0.35 0.24 0.19 0.14
0.00 0.00 0.00 0.00 0.01 0.01 0.01 0.01 0.00 0.01 0.02 0.02 0.01 0.01 0.01 0.02 0.02 0.01 0.01 0.02 0.02 0.02 0.01 0.04 0.14 0.22 0.26 0.35 0.60 0.81 1.08 1.12 1.11 1.08 1.17 1.05 0.57 0.35 0.26 0.22 0.14 0.15 0.14
0.00 0.00 0.00 0.00 0.00 0.00 0.01 0.01 0.01 0.01 0.00 0.01 0.01 0.02 0.02 0.02 0.01 0.02 0.01 0.02 0.02 0.02 0.01 0.03 0.13 0.26 0.36 0.53 0.68 0.78 0.85 0.83 0.86 0.67 0.41 0.29 0.27 0.22 0.21 0.21 0.11 0.10 0.08
0.00 0.00 0.00 0.00 0.00 0.00 0.00 0.00 0.00 0.01 0.02 0.02 0.03 0.03 0.02 0.03 0.03 0.02 0.03 0.03 0.03 0.02 0.01 0.02 0.09 0.23 0.33 0.47 0.61 0.75 0.76 0.70 0.51 0.24 0.12 0.12 0.16 0.18 0.15 0.14 0.10 0.07 0.06

GFSGL_prec_precacc_063.txt.gz
Total_Precipitation_Accumulation
0.00 0.00 0.02 0.03 0.04 0.05 0.06 0.06 0.04 0.03 0.04 0.03 0.03 0.04 0.03 0.02 0.01 0.01 0.01 0.01 0.01 0.01 0.03 0.05 0.07 0.10 0.12 0.12 0.15 0.16 0.16 0.22 0.26 0.04 0.04 0.05 0.06 0.03 0.04 0.07 0.06 0.05 0.05
0.00 0.01 0.03 0.03 0.03 0.04 0.06 0.06 0.05 0.05 0.03 0.02 0.01 0.01 0.01 0.00 0.00 0.00 0.00 0.01 0.01 0.01 0.01 0.02 0.04 0.07 0.11 0.16 0.19 0.17 0.16 0.16 0.24 0.16 0.02 0.03 0.03 0.03 0.03 0.06 0.08 0.11 0.11
0.01 0.01 0.02 0.03 0.04 0.05 0.04 0.04 0.03 0.02 0.02 0.02 0.02 0.01 0.01 0.00 0.00 0.00 0.00 0.00 0.01 0.02 0.04 0.06 0.10 0.16 0.19 0.20 0.16 0.14 0.14 0.18 0.25 0.31 0.14 0.07 0.07 0.06 0.07 0.09 0.11 0.12 0.12
0.03 0.03 0.04 0.05 0.05 0.04 0.05 0.05 0.03 0.03 0.02 0.02 0.02 0.01 0.01 0.01 0.03 0.03 0.04 0.05 0.06 0.09 0.11 0.15 0.19 0.19 0.14 0.08 0.07 0.11 0.17 0.20 0.21 0.24 0.25 0.21 0.15 0.14 0.18 0.14 0.12 0.11 0.13
0.07 0.05 0.05 0.05 0.05 0.04 0.04 0.05 0.05 0.04 0.04 0.04 0.03 0.02 0.04 0.08 0.10 0.13 0.16 0.20 0.25 0.30 0.31 0.26 0.19 0.10 0.05 0.02 0.07 0.08 0.16 0.21 0.33 0.51 0.50 0.44 0.41 0.33 0.26 0.26 0.37 0.38 0.39
0.11 0.06 0.04 0.02 0.05 0.05 0.06 0.06 0.06 0.14 0.12 0.08 0.11 0.16 0.16 0.15 0.22 0.19 0.17 0.18 0.18 0.16 0.11 0.08 0.05 0.03 0.02 0.03 0.06 0.10 0.14 0.30 0.48 0.64 0.65 0.55 0.40 0.40 0.42 0.51 0.66 0.78 0.73
0.08 0.06 0.05 0.03 0.04 0.07 0.09 0.16 0.20 0.21 0.46 0.41 0.32 0.25 0.20 0.23 0.29 0.24 0.20 0.17 0.14 0.10 0.08 0.06 0.04 0.02 0.02 0.03 0.02 0.08 0.18 0.34 0.40 0.29 0.24 0.25 0.34 0.31 0.52 0.66 0.62 0.63 0.54
0.10 0.15 0.16 0.14 0.17 0.20 0.33 0.42 0.42 0.35 0.27 0.32 0.52 0.49 0.41 0.39 0.29 0.15 0.09 0.07 0.06 0.05 0.03 0.01 0.00 0.01 0.02 0.04 0.09 0.29 0.26 0.13 0.04 0.06 0.08 0.11 0.24 0.40 0.59 0.84 0.83 0.88 0.68
0.22 0.25 0.36 0.31 0.28 0.26 0.40 0.48 0.33 0.46 0.56 0.48 0.39 0.29 0.18 0.11 0.06 0.05 0.05 0.06 0.04 0.02 0.00 0.00 0.03 0.03 0.02 0.11 0.27 0.32 0.07 0.01 0.02 0.05 0.15 0.18 0.20 0.21 0.28 0.62 0.85 0.83 0.77
0.32 0.31 0.30 0.48 0.40 0.48 0.44 0.49 0.71 0.56 0.52 0.39 0.28 0.18 0.11 0.08 0.05 0.03 0.01 0.01 0.01 0.00 0.02 0.02 0.02 0.03 0.07 0.32 0.19 0.05 0.08 0.04 0.14 0.11 0.03 0.02 0.04 0.11 0.23 0.32 0.72 1.39 0.98
0.57 0.60 0.64 0.78 0.67 0.60 0.65 0.56 0.48 0.34 0.24 0.18 0.11 0.05 0.03 0.02 0.00 0.00 0.00 0.02 0.02 0.09 0.08 0.02 0.00 0.08 0.28 0.15 0.05 0.03 0.08 0.11 0.12 0.05 0.02 0.02 0.04 0.07 0.14 0.24 0.58 1.47 1.76
0.67 0.59 0.57 0.49 0.43 0.34 0.27 0.18 0.10 0.09 0.05 0.03 0.01 0.00 0.00 0.00 0.00 0.00 0.01 0.03 0.07 0.08 0.05 0.03 0.08 0.22 0.07 0.02 0.02 0.04 0.08 0.08 0.03 0.02 0.04 0.05 0.08 0.16 0.24 0.33 0.43 0.61 0.85
0.16 0.13 0.13 0.08 0.05 0.03 0.00 0.00 0.00 0.00 0.00 0.00 0.00 0.00 0.00 0.00 0.00 0.00 0.00 0.07 0.09 0.08 0.06 0.17 0.16 0.03 0.01 0.01 0.02 0.04 0.04 0.02 0.07 0.17 0.19 0.19 0.23 0.35 0.38 0.40 0.47 0.48 0.52
0.01 0.01 0.00 0.00 0.00 0.00 0.00 0.00 0.00 0.00 0.00 0.00 0.00 0.00 0.00 0.00 0.00 0.00 0.03 0.05 0.04 0.09 0.18 0.16 0.02 0.01 0.02 0.02 0.01 0.02 0.02 0.07 0.18 0.33 0.35 0.23 0.30 0.41 0.42 0.55 0.75 0.65 0.86
0.00 0.00 0.00 0.00 0.00 0.00 0.00 0.00 0.00 0.00 0.00 0.00 0.00 0.01 0.01 0.01 0.01 0.05 0.07 0.06 0.11 0.18 0.08 0.01 0.00 0.01 0.01 0.01 0.00 0.01 0.02 0.06 0.17 0.20 0.33 0.34 0.37 0.47 0.53 0.68 0.91 1.04 1.03
0.00 0.00 0.00 0.00 0.00 0.00 0.00 0.00 0.00 0.00 0.00 0.00 0.00 0.01 0.01 0.02 0.04 0.05 0.04 0.13 0.17 0.07 0.01 0.01 0.02 0.03 0.02 0.02 0.03 0.04 0.04 0.08 0.16 0.30 0.32 0.34 0.49 0.60 0.71 0.85 1.06 1.09 0.94
0.00 0.00 0.00 0.00 0.00 0.00 0.00 0.00 0.00 0.00 0.00 0.00 0.00 0.01 0.01 0.02 0.02 0.02 0.10 0.15 0.03 0.01 0.01 0.04 0.04 0.03 0.03 0.05 0.08 0.13 0.16 0.14 0.32 0.48 0.56 0.59 0.67 0.74 0.82 0.94 0.96 0.84 0.66
0.00 0.00 0.00 0.00 0.00 0.00 0.00 0.00 0.00 0.00 0.00 0.00 0.00 0.00 0.01 0.01 0.01 0.05 0.09 0.03 0.00 0.01 0.05 0.05 0.04 0.04 0.05 0.12 0.18 0.27 0.31 0.29 0.43 0.54 0.68 0.68 0.73 0.94 0.96 0.94 0.83 0.72 0.61
0.00 0.00 0.00 0.00 0.00 0.00 0.00 0.00 0.00 0.00 0.00 0.00 0.00 0.00 0.00 0.00 0.04 0.07 0.02 0.01 0.02 0.05 0.05 0.03 0.03 0.04 0.09 0.16 0.23 0.30 0.39 0.59 0.79 0.91 0.78 0.79 0.81 1.07 0.93 0.74 0.58 0.39 0.28
0.00 0.00 0.00 0.00 0.00 0.00 0.00 0.00 0.00 0.00 0.00 0.01 0.01 0.00 0.00 0.03 0.11 0.01 0.00 0.01 0.04 0.05 0.03 0.04 0.04 0.05 0.12 0.20 0.27 0.33 0.46 0.50 0.61 0.64 0.71 0.78 0.87 0.93 0.83 0.53 0.31 0.30 0.19
0.00 0.00 0.00 0.00 0.00 0.00 0.00 0.00 0.00 0.01 0.02 0.01 0.00 0.00 0.04 0.05 0.03 0.01 0.01 0.03 0.03 0.04 0.04 0.05 0.06 0.09 0.13 0.20 0.29 0.36 0.53 0.58 0.64 0.83 0.80 0.79 0.79 0.65 0.32 0.23 0.21 0.24 0.28
0.00 0.00 0.00 0.00 0.00 0.00 0.00 0.00 0.01 0.01 0.01 0.01 0.01 0.01 0.03 0.01 0.01 0.02 0.03 0.02 0.01 0.02 0.03 0.07 0.09 0.11 0.28 0.50 0.65 0.68 0.59 0.62 0.69 0.83 0.74 0.61 0.49 0.28 0.21 0.21 0.18 0.22 0.22
0.00 0.00 0.00 0.00 0.00 0.01 0.01 0.01 0.01 0.01 0.01 0.01 0.02 0.02 0.01 0.01 0.02 0.03 0.02 0.01 0.02 0.02 0.01 0.05 0.13 0.15 0.12 0.34 0.65 1.07 1.14 0.86 0.89 0.88 0.76 0.60 0.45 0.39 0.42 0.39 0.25 0.20 0.15
0.00 0.00 0.00 0.00 0.01 0.01 0.01 0.01 0.00 0.01 0.02 0.02 0.01 0.01 0.01 0.02 0.02 0.01 0.01 0.02 0.02 0.02 0.01 0.04 0.14 0.22 0.26 0.36 0.61 0.81 1.09 1.13 1.13 1.08 1.18 1.08 0.60 0.38 0.28 0.23 0.15 0.16 0.15
0.00 0.00 0.00 0.00 0.00 0.00 0.01 0.01 0.01 0.01 0.00 0.01 0.01 0.02 0.02 0.02 0.01 0.02 0.01 0.02 0.02 0.02 0.01 0.03 0.13 0.26 0.36 0.53 0.69 0.78 0.86 0.84 0.87 0.69 0.44 0.32 0.31 0.25 0.22 0.24 0.13 0.12 0.10
0.00 0.00 0.00 0.00 0.00 0.00 0.00 0.00 0.00 0.01 0.02 0.02 0.03 0.03 0.02 0.03 0.03 0.02 0.03 0.03 0.03 0.02 0.01 0.02 0.09 0.23 0.33 0.47 0.61 0.75 0.76 0.71 0.52 0.25 0.13 0.15 0.19 0.19 0.17 0.16 0.12 0.10 0.07

GFSGL_prec_precacc_066.txt.gz
Total_Precipitation_Accumulation
0.00 0.00 0.02 0.03 0.04 0.05 0.06 0.06 0.04 0.03 0.04 0.03 0.03 0.04 0.03 0.03 0.02 0.01 0.02 0.02 0.03 0.07 0.11 0.13 0.12 0.13 0.12 0.12 0.15 0.18 0.21 0.35 0.43 0.22 0.17 0.14 0.09 0.04 0.04 0.07 0.06 0.05 0.05
0.00 0.01 0.03 0.03 0.03 0.04 0.06 0.06 0.05 0.05 0.03 0.02 0.01 0.01 0.01 0.01 0.00 0.01 0.01 0.01 0.01 0.01 0.01 0.02 0.04 0.07 0.11 0.17 0.22 0.25 0.30 0.31 0.37 0.23 0.05 0.05 0.05 0.03 0.03 0.06 0.08 0.11 0.11
0.01 0.01 0.02 0.03 0.04 0.05 0.04 0.04 0.03 0.02 0.02 0.02 0.02 0.01 0.01 0.00 0.00 0.00 0.00 0.01 0.02 0.03 0.04 0.06 0.10 0.17 0.24 0.29 0.34 0.36 0.33 0.30 0.30 0.33 0.15 0.08 0.07 0.07 0.07 0.09 0.11 0.12 0.12
0.03 0.03 0.04 0.05 0.05 0.04 0.05 0.05 0.03 0.03 0.02 0.02 0.02 0.01 0.01 0.02 0.03 0.04 0.05 0.06 0.07 0.09 0.11 0.16 0.20 0.23 0.24 0.21 0.17 0.17 0.19 0.20 0.21 0.24 0.25 0.21 0.15 0.14 0.18 0.14 0.12 0.11 0.13
0.07 0.05 0.05 0.05 0.05 0.04 0.04 0.05 0.05 0.04 0.04 0.04 0.03 0.02 0.04 0.08 0.12 0.16 0.18 0.22 0.26 0.31 0.33 0.32 0.27 0.19 0.12 0.06 0.08 0.09 0.16 0.22 0.34 0.51 0.50 0.44 0.41 0.33 0.26 0.26 0.37 0.38 0.39
0.11 0.06 0.04 0.02 0.05 0.05 0.06 0.06 0.07 0.14 0.12 0.10 0.13 0.17 0.17 0.17 0.27 0.23 0.19 0.19 0.21 0.20 0.16 0.12 0.08 0.05 0.03 0.04 0.06 0.10 0.14 0.30 0.48 0.64 0.65 0.55 0.40 0.40 0.42 0.51 0.66 0.78 0.74
0.08 0.06 0.05 0.03 0.04 0.07 0.09 0.16 0.21 0.27 0.56 0.55 0.55 0.39 0.36 0.38 0.40 0.30 0.24 0.21 0.21 0.17 0.12 0.08 0.05 0.03 0.03 0.03 0.02 0.08 0.18 0.34 0.40 0.29 0.24 0.25 0.34 0.31 0.52 0.66 0.62 0.64 0.54
0.10 0.15 0.16 0.14 0.17 0.20 0.33 0.45 0.48 0.47 0.47 0.53 0.86 0.87 0.84 0.71 0.53 0.32 0.17 0.10 0.07 0.06 0.04 0.01 0.01 0.01 0.02 0.04 0.09 0.29 0.26 0.13 0.04 0.06 0.08 0.11 0.24 0.40 0.59 0.84 0.83 0.88 0.68
0.22 0.25 0.36 0.31 0.28 0.26 0.40 0.50 0.37 0.51 0.67 0.61 0.53 0.42 0.33 0.25 0.15 0.09 0.07 0.07 0.05 0.03 0.01 0.00 0.03 0.03 0.02 0.11 0.27 0.32 0.07 0.01 0.02 0.05 0.15 0.18 0.20 0.21 0.28 0.62 0.85 0.83 0.77
0.33 0.31 0.30 0.48 0.40 0.48 0.44 0.49 0.75 0.60 0.54 0.44 0.34 0.22 0.16 0.10 0.07 0.04 0.01 0.02 0.01 0.00 0.02 0.02 0.02 0.03 0.07 0.32 0.19 0.05 0.08 0.04 0.14 0.11 0.03 0.02 0.04 0.11 0.23 0.32 0.72 1.39 0.99
0.57 0.60 0.64 0.78 0.67 0.61 0.66 0.57 0.50 0.37 0.26 0.20 0.12 0.06 0.03 0.02 0.00 0.00 0.00 0.02 0.02 0.09 0.08 0.02 0.00 0.08 0.28 0.15 0.05 0.03 0.08 0.11 0.12 0.05 0.02 0.02 0.04 0.07 0.14 0.24 0.58 1.48 1.76
0.67 0.59 0.57 0.49 0.44 0.35 0.27 0.18 0.10 0.09 0.05 0.03 0.01 0.00 0.00 0.00 0.00 0.00 0.01 0.03 0.07 0.08 0.05 0.03 0.08 0.22 0.07 0.02 0.02 0.04 0.08 0.08 0.03 0.02 0.04 0.05 0.08 0.16 0.24 0.33 0.43 0.61 0.85
0.16 0.13 0.13 0.08 0.05 0.03 0.00 0.00 0.00 0.00 0.00 0.00 0.00 0.00 0.00 0.00 0.00 0.00 0.00 0.07 0.09 0.08 0.06 0.17 0.16 0.03 0.01 0.01 0.02 0.04 0.04 0.02 0.07 0.17 0.19 0.19 0.23 0.35 0.38 0.40 0.47 0.48 0.52
0.01 0.01 0.00 0.00 0.00 0.00 0.00 0.00 0.00 0.00 0.00 0.00 0.00 0.00 0.00 0.00 0.00 0.00 0.03 0.05 0.04 0.09 0.18 0.16 0.02 0.01 0.02 0.02 0.01 0.02 0.02 0.07 0.18 0.33 0.35 0.23 0.30 0.41 0.42 0.55 0.75 0.65 0.86
0.00 0.00 0.00 0.00 0.00 0.00 0.00 0.00 0.00 0.00 0.00 0.00 0.00 0.01 0.01 0.01 0.01 0.05 0.07 0.06 0.11 0.18 0.08 0.01 0.00 0.01 0.01 0.01 0.00 0.01 0.02 0.06 0.17 0.20 0.33 0.34 0.37 0.47 0.53 0.68 0.91 1.04 1.03
0.00 0.00 0.00 0.00 0.00 0.00 0.00 0.00 0.00 0.00 0.00 0.00 0.00 0.01 0.01 0.02 0.04 0.05 0.04 0.13 0.17 0.07 0.01 0.01 0.02 0.03 0.02 0.02 0.03 0.04 0.04 0.08 0.16 0.31 0.32 0.34 0.49 0.60 0.71 0.86 1.06 1.10 0.95
0.00 0.00 0.00 0.00 0.00 0.00 0.00 0.00 0.00 0.00 0.00 0.00 0.00 0.01 0.01 0.02 0.02 0.02 0.10 0.15 0.03 0.01 0.01 0.04 0.04 0.03 0.03 0.05 0.08 0.13 0.16 0.14 0.32 0.48 0.56 0.59 0.67 0.74 0.83 0.94 0.96 0.84 0.66
0.00 0.00 0.00 0.00 0.00 0.00 0.00 0.00 0.00 0.00 0.00 0.00 0.00 0.00 0.01 0.01 0.01 0.05 0.09 0.03 0.00 0.01 0.05 0.05 0.04 0.04 0.05 0.12 0.18 0.27 0.31 0.30 0.44 0.55 0.68 0.68 0.73 0.95 0.96 0.95 0.83 0.72 0.61
0.00 0.00 0.00 0.00 0.00 0.00 0.00 0.00 0.00 0.00 0.00 0.00 0.00 0.00 0.00 0.00 0.04 0.07 0.02 0.01 0.02 0.05 0.05 0.03 0.03 0.04 0.09 0.16 0.23 0.30 0.39 0.60 0.80 0.91 0.78 0.79 0.81 1.07 0.94 0.74 0.59 0.39 0.28
0.00 0.00 0.00 0.00 0.00 0.00 0.00 0.00 0.00 0.00 0.00 0.01 0.01 0.00 0.00 0.03 0.11 0.01 0.00 0.01 0.04 0.05 0.03 0.04 0.04 0.05 0.12 0.20 0.27 0.33 0.46 0.50 0.61 0.65 0.72 0.78 0.87 0.93 0.83 0.54 0.31 0.30 0.20
0.00 0.00 0.00 0.00 0.00 0.00 0.00 0.00 0.00 0.01 0.02 0.01 0.00 0.00 0.04 0.05 0.03 0.01 0.01 0.03 0.03 0.04 0.04 0.05 0.06 0.09 0.14 0.20 0.29 0.37 0.54 0.59 0.64 0.83 0.81 0.79 0.80 0.66 0.32 0.23 0.21 0.24 0.29
0.00 0.00 0.00 0.00 0.00 0.00 0.00 0.00 0.01 0.01 0.01 0.01 0.01 0.01 0.03 0.01 0.01 0.02 0.03 0.02 0.01 0.02 0.03 0.07 0.09 0.11 0.28 0.50 0.65 0.68 0.59 0.63 0.69 0.83 0.74 0.61 0.49 0.28 0.21 0.21 0.19 0.23 0.24
0.00 0.00 0.00 0.00 0.00 0.01 0.01 0.01 0.01 0.01 0.01 0.01 0.02 0.02 0.01 0.01 0.02 0.03 0.02 0.01 0.02 0.02 0.01 0.05 0.13 0.15 0.12 0.34 0.66 1.08 1.16 0.87 0.89 0.90 0.78 0.61 0.45 0.39 0.42 0.41 0.28 0.23 0.16
0.00 0.00 0.00 0.00 0.01 0.01 0.01 0.01 0.00 0.01 0.02 0.02 0.01 0.01 0.01 0.02 0.02 0.01 0.01 0.02 0.02 0.02 0.01 0.04 0.14 0.22 0.26 0.36 0.61 0.82 1.10 1.14 1.14 1.09 1.19 1.09 0.61 0.39 0.31 0.28 0.16 0.16 0.16
0.00 0.00 0.00 0.00 0.00 0.00 0.01 0.01 0.01 0.01 0.00 0.01 0.01 0.02 0.02 0.02 0.01 0.02 0.01 0.02 0.02 0.02 0.01 0.03 0.13 0.26 0.36 0.53 0.69 0.78 0.87 0.85 0.89 0.72 0.48 0.35 0.33 0.27 0.26 0.26 0.14 0.13 0.11
0.00 0.00 0.00 0.00 0.00 0.00 0.00 0.00 0.00 0.01 0.02 0.02 0.03 0.03 0.02 0.03 0.03 0.02 0.03 0.03 0.03 0.02 0.01 0.02 0.09 0.23 0.33 0.48 0.61 0.76 0.77 0.72 0.53 0.26 0.15 0.18 0.20 0.20 0.18 0.19 0.13 0.12 0.08

GFSGL_prec_precacc_069.txt.gz
Total_Precipitation_Accumulation
0.00 0.00 0.02 0.03 0.04 0.05 0.06 0.06 0.04 0.03 0.04 0.03 0.03 0.04 0.03 0.03 0.02 0.02 0.03 0.03 0.05 0.10 0.14 0.16 0.17 0.19 0.23 0.26 0.31 0.32 0.33 0.45 0.51 0.26 0.24 0.22 0.17 0.10 0.06 0.08 0.06 0.05 0.05
0.00 0.01 0.03 0.03 0.03 0.04 0.06 0.06 0.05 0.05 0.03 0.02 0.01 0.01 0.01 0.01 0.00 0.01 0.01 0.01 0.02 0.02 0.03 0.05 0.07 0.09 0.14 0.22 0.28 0.29 0.31 0.32 0.40 0.29 0.12 0.11 0.08 0.05 0.04 0.06 0.08 0.11 0.11
0.01 0.01 0.02 0.03 0.04 0.05 0.04 0.04 0.03 0.02 0.02 0.02 0.02 0.01 0.01 0.00 0.00 0.00 0.00 0.01 0.02 0.04 0.06 0.08 0.13 0.19 0.25 0.30 0.35 0.37 0.35 0.34 0.36 0.38 0.17 0.08 0.08 0.07 0.07 0.09 0.11 0.12 0.12
0.03 0.03 0.04 0.05 0.05 0.04 0.05 0.05 0.03 0.03 0.02 0.02 0.02 0.01 0.01 0.02 0.03 0.04 0.05 0.07 0.09 0.11 0.14 0.17 0.21 0.24 0.24 0.22 0.20 0.20 0.22 0.22 0.22 0.24 0.25 0.21 0.15 0.14 0.18 0.14 0.12 0.11 0.13
0.07 0.05 0.05 0.05 0.05 0.04 0.04 0.05 0.05 0.04 0.04 0.04 0.03 0.02 0.04 0.08 0.12 0.16 0.19 0.23 0.29 0.34 0.36 0.33 0.28 0.21 0.14 0.07 0.09 0.09 0.17 0.22 0.34 0.51 0.50 0.44 0.41 0.33 0.26 0.26 0.37 0.38 0.39
0.11 0.06 0.04 0.02 0.05 0.05 0.06 0.06 0.07 0.14 0.12 0.10 0.13 0.17 0.18 0.18 0.29 0.23 0.20 0.22 0.24 0.24 0.21 0.16 0.10 0.07 0.05 0.05 0.08 0.12 0.15 0.30 0.48 0.64 0.65 0.55 0.40 0.40 0.42 0.51 0.66 0.78 0.74
0.08 0.06 0.05 0.03 0.04 0.07 0.09 0.16 0.21 0.27 0.56 0.55 0.55 0.41 0.43 0.49 0.52 0.41 0.39 0.39 0.36 0.31 0.23 0.14 0.06 0.04 0.04 0.04 0.03 0.08 0.18 0.34 0.40 0.29 0.24 0.25 0.34 0.31 0.52 0.66 0.62 0.64 0.54
0.10 0.15 0.16 0.14 0.17 0.20 0.33 0.45 0.48 0.47 0.48 0.55 0.89 0.94 0.94 0.89 0.77 0.56 0.37 0.26 0.16 0.11 0.07 0.03 0.01 0.01 0.02 0.04 0.09 0.29 0.26 0.13 0.04 0.06 0.08 0.11 0.24 0.40 0.59 0.84 0.83 0.88 0.68
0.22 0.25 0.36 0.31 0.28 0.26 0.40 0.50 0.37 0.51 0.67 0.62 0.54 0.44 0.36 0.29 0.20 0.14 0.11 0.11 0.09 0.05 0.02 0.01 0.04 0.03 0.02 0.11 0.27 0.32 0.07 0.01 0.02 0.05 0.15 0.18 0.20 0.21 0.28 0.62 0.85 0.83 0.77
0.33 0.31 0.30 0.48 0.40 0.48 0.44 0.49 0.75 0.60 0.54 0.44 0.34 0.23 0.16 0.10 0.07 0.04 0.01 0.02 0.01 0.00 0.02 0.02 0.02 0.03 0.07 0.32 0.19 0.05 0.08 0.04 0.14 0.11 0.03 0.02 0.04 0.11 0.23 0.32 0.72 1.39 0.99
0.57 0.60 0.64 0.78 0.67 0.61 0.66 0.57 0.50 0.37 0.26 0.20 0.12 0.06 0.03 0.02 0.00 0.00 0.00 0.02 0.02 0.09 0.08 0.02 0.00 0.08 0.28 0.15 0.05 0.03 0.08 0.11 0.12 0.05 0.02 0.02 0.04 0.07 0.14 0.24 0.58 1.48 1.77
0.67 0.59 0.57 0.49 0.44 0.35 0.27 0.18 0.10 0.09 0.05 0.03 0.01 0.00 0.00 0.00 0.00 0.00 0.01 0.03 0.07 0.08 0.05 0.03 0.08 0.22 0.07 0.02 0.02 0.04 0.08 0.08 0.03 0.02 0.04 0.05 0.08 0.16 0.24 0.33 0.43 0.61 0.85
0.16 0.13 0.13 0.08 0.05 0.03 0.00 0.00 0.00 0.00 0.00 0.00 0.00 0.00 0.00 0.00 0.00 0.00 0.00 0.07 0.09 0.08 0.06 0.17 0.16 0.03 0.01 0.01 0.02 0.04 0.04 0.02 0.07 0.17 0.19 0.19 0.23 0.35 0.38 0.40 0.47 0.48 0.52
0.01 0.01 0.00 0.00 0.00 0.00 0.00 0.00 0.00 0.00 0.00 0.00 0.00 0.00 0.00 0.00 0.00 0.00 0.03 0.05 0.04 0.09 0.18 0.16 0.02 0.01 0.02 0.02 0.01 0.02 0.02 0.07 0.18 0.33 0.35 0.23 0.30 0.41 0.42 0.55 0.75 0.65 0.86
0.00 0.00 0.00 0.00 0.00 0.00 0.00 0.00 0.00 0.00 0.00 0.00 0.00 0.01 0.01 0.01 0.01 0.05 0.07 0.06 0.11 0.18 0.08 0.01 0.00 0.01 0.01 0.01 0.00 0.01 0.02 0.06 0.17 0.20 0.33 0.34 0.37 0.47 0.53 0.68 0.92 1.05 1.04
0.00 0.00 0.00 0.00 0.00 0.00 0.00 0.00 0.00 0.00 0.00 0.00 0.00 0.01 0.01 0.02 0.04 0.05 0.04 0.13 0.17 0.07 0.01 0.01 0.02 0.03 0.02 0.02 0.03 0.04 0.04 0.08 0.16 0.31 0.32 0.34 0.49 0.60 0.72 0.86 1.07 1.10 0.95
0.00 0.00 0.00 0.00 0.00 0.00 0.00 0.00 0.00 0.00 0.00 0.00 0.00 0.01 0.01 0.02 0.02 0.02 0.10 0.15 0.03 0.01 0.01 0.04 0.04 0.03 0.03 0.05 0.08 0.13 0.16 0.14 0.32 0.49 0.56 0.59 0.67 0.74 0.83 0.95 0.96 0.84 0.67
0.00 0.00 0.00 0.00 0.00 0.00 0.00 0.00 0.00 0.00 0.00 0.00 0.00 0.00 0.01 0.01 0.01 0.05 0.09 0.03 0.00 0.01 0.05 0.05 0.04 0.04 0.05 0.12 0.18 0.27 0.31 0.30 0.44 0.55 0.68 0.68 0.74 0.96 0.97 0.95 0.83 0.72 0.62
0.00 0.00 0.00 0.00 0.00 0.00 0.00 0.00 0.00 0.00 0.00 0.00 0.00 0.00 0.00 0.00 0.04 0.07 0.02 0.01 0.02 0.05 0.05 0.03 0.03 0.04 0.09 0.16 0.23 0.30 0.39 0.60 0.80 0.92 0.79 0.79 0.82 1.08 0.94 0.74 0.59 0.39 0.29
0.00 0.00 0.00 0.00 0.00 0.00 0.00 0.00 0.00 0.00 0.00 0.01 0.01 0.00 0.00 0.03 0.11 0.01 0.00 0.01 0.04 0.05 0.03 0.04 0.04 0.05 0.12 0.20 0.28 0.33 0.46 0.50 0.61 0.65 0.72 0.78 0.87 0.94 0.84 0.55 0.32 0.31 0.20
0.00 0.00 0.00 0.00 0.00 0.00 0.00 0.00 0.00 0.01 0.02 0.01 0.00 0.00 0.04 0.05 0.03 0.01 0.01 0.03 0.03 0.04 0.04 0.05 0.06 0.09 0.14 0.20 0.29 0.37 0.54 0.59 0.64 0.83 0.81 0.79 0.80 0.67 0.32 0.24 0.21 0.24 0.29
0.00 0.00 0.00 0.00 0.00 0.00 0.00 0.00 0.01 0.01 0.01 0.01 0.01 0.01 0.03 0.01 0.01 0.02 0.03 0.02 0.01 0.02 0.03 0.07 0.09 0.11 0.28 0.50 0.66 0.69 0.60 0.63 0.69 0.84 0.75 0.62 0.50 0.29 0.22 0.22 0.19 0.24 0.25
0.00 0.00 0.00 0.00 0.00 0.01 0.01 0.01 0.01 0.01 0.01 0.01 0.02 0.02 0.01 0.01 0.02 0.03 0.02 0.01 0.02 0.02 0.01 0.05 0.13 0.15 0.12 0.34 0.66 1.09 1.17 0.87 0.90 0.91 0.79 0.61 0.46 0.40 0.43 0.41 0.29 0.25 0.19
0.00 0.00 0.00 0.00 0.01 0.01 0.01 0.01 0.00 0.01 0.02 0.02 0.01 0.01 0.01 0.02 0.02 0.01 0.01 0.02 0.02 0.02 0.01 0.04 0.14 0.22 0.26 0.36 0.61 0.82 1.10 1.15 1.16 1.10 1.21 1.10 0.61 0.39 0.33 0.31 0.19 0.19 0.17
0.00 0.00 0.00 0.00 0.00 0.00 0.01 0.01 0.01 0.01 0.00 0.01 0.01 0.02 0.02 0.02 0.01 0.02 0.01 0.02 0.02 0.02 0.01 0.03 0.13 0.26 0.36 0.53 0.69 0.78 0.87 0.85 0.91 0.74 0.53 0.39 0.37 0.30 0.29 0.28 0.15 0.14 0.12
0.00 0.00 0.00 0.00 0.00 0.00 0.00 0.00 0.00 0.01 0.02 0.02 0.03 0.03 0.02 0.03 0.03 0.02 0.03 0.03 0.03 0.02 0.01 0.02 0.09 0.23 0.33 0.48 0.61 0.76 0.77 0.73 0.55 0.28 0.17 0.20 0.23 0.22 0.20 0.21 0.14 0.13 0.09

GFSGL_prec_precacc_072.txt.gz
Total_Precipitation_Accumulation
0.00 0.00 0.02 0.03 0.04 0.05 0.06 0.06 0.04 0.03 0.04 0.03 0.03 0.04 0.03 0.03 0.02 0.02 0.03 0.03 0.06 0.11 0.16 0.20 0.21 0.22 0.27 0.32 0.39 0.45 0.50 0.64 0.74 0.49 0.39 0.31 0.20 0.10 0.06 0.08 0.06 0.05 0.05
0.00 0.01 0.03 0.03 0.03 0.04 0.06 0.06 0.05 0.05 0.03 0.02 0.01 0.01 0.01 0.01 0.00 0.01 0.01 0.02 0.02 0.03 0.03 0.06 0.09 0.12 0.17 0.25 0.30 0.33 0.38 0.39 0.46 0.32 0.14 0.11 0.08 0.05 0.04 0.06 0.08 0.11 0.11
0.01 0.01 0.02 0.03 0.04 0.05 0.04 0.04 0.03 0.02 0.02 0.02 0.02 0.01 0.01 0.00 0.00 0.00 0.00 0.01 0.03 0.04 0.06 0.09 0.14 0.20 0.26 0.31 0.38 0.39 0.37 0.35 0.37 0.39 0.17 0.08 0.08 0.07 0.07 0.09 0.11 0.12 0.12
0.03 0.03 0.04 0.05 0.05 0.04 0.05 0.05 0.03 0.03 0.02 0.02 0.02 0.01 0.01 0.02 0.03 0.04 0.05 0.08 0.10 0.12 0.14 0.18 0.22 0.25 0.26 0.24 0.22 0.21 0.22 0.22 0.22 0.24 0.25 0.21 0.15 0.14 0.18 0.14 0.12 0.11 0.13
0.07 0.05 0.05 0.05 0.05 0.04 0.04 0.05 0.05 0.04 0.04 0.04 0.03 0.02 0.04 0.08 0.12 0.16 0.19 0.23 0.29 0.34 0.36 0.35 0.31 0.26 0.19 0.12 0.12 0.10 0.17 0.22 0.34 0.51 0.50 0.44 0.41 0.33 0.26 0.26 0.37 0.38 0.39
0.11 0.06 0.04 0.02 0.05 0.05 0.06 0.06 0.07 0.14 0.12 0.10 0.13 0.17 0.18 0.18 0.29 0.24 0.20 0.22 0.25 0.24 0.22 0.21 0.21 0.21 0.16 0.10 0.09 0.12 0.15 0.30 0.48 0.64 0.65 0.55 0.40 0.40 0.42 0.51 0.66 0.78 0.74
0.08 0.06 0.05 0.03 0.04 0.07 0.09 0.16 0.21 0.27 0.56 0.55 0.55 0.41 0.43 0.49 0.52 0.41 0.40 0.41 0.40 0.36 0.33 0.29 0.19 0.12 0.09 0.06 0.04 0.08 0.18 0.34 0.40 0.29 0.24 0.25 0.34 0.31 0.52 0.66 0.62 0.64 0.54
0.10 0.15 0.16 0.14 0.17 0.20 0.33 0.45 0.48 0.47 0.48 0.55 0.89 0.94 0.94 0.90 0.77 0.56 0.38 0.29 0.20 0.16 0.12 0.08 0.04 0.03 0.03 0.04 0.09 0.29 0.26 0.13 0.04 0.06 0.08 0.11 0.24 0.40 0.59 0.84 0.83 0.88 0.68
0.22 0.25 0.36 0.31 0.28 0.26 0.40 0.50 0.37 0.51 0.67 0.62 0.54 0.44 0.36 0.29 0.20 0.14 0.11 0.11 0.09 0.06 0.02 0.01 0.04 0.03 0.02 0.11 0.27 0.32 0.07 0.01 0.02 0.05 0.15 0.18 0.20 0.21 0.28 0.62 0.85 0.83 0.77
0.33 0.31 0.30 0.48 0.40 0.48 0.44 0.49 0.75 0.60 0.54 0.44 0.34 0.23 0.16 0.10 0.07 0.04 0.01 0.02 0.01 0.00 0.02 0.02 0.02 0.03 0.07 0.32 0.19 0.05 0.08 0.04 0.14 0.11 0.03 0.02 0.04 0.11 0.23 0.32 0.72 1.39 0.99
0.58 0.60 0.65 0.78 0.67 0.61 0.66 0.57 0.50 0.37 0.26 0.20 0.12 0.06 0.03 0.02 0.00 0.00 0.00 0.02 0.02 0.09 0.08 0.02 0.00 0.08 0.28 0.15 0.05 0.03 0.08 0.11 0.12 0.05 0.02 0.02 0.04 0.07 0.14 0.24 0.58 1.48 1.77
0.67 0.59 0.57 0.49 0.44 0.35 0.27 0.18 0.10 0.09 0.05 0.03 0.01 0.00 0.00 0.00 0.00 0.00 0.01 0.03 0.07 0.08 0.05 0.03 0.08 0.22 0.07 0.02 0.02 0.04 0.08 0.08 0.03 0.02 0.04 0.05 0.08 0.16 0.24 0.33 0.43 0.61 0.85
0.16 0.13 0.13 0.08 0.05 0.03 0.00 0.00 0.00 0.00 0.00 0.00 0.00 0.00 0.00 0.00 0.00 0.00 0.00 0.07 0.09 0.08 0.06 0.17 0.16 0.03 0.01 0.01 0.02 0.04 0.04 0.02 0.07 0.17 0.19 0.19 0.23 0.35 0.38 0.40 0.47 0.48 0.52
0.01 0.01 0.00 0.00 0.00 0.00 0.00 0.00 0.00 0.00 0.00 0.00 0.00 0.00 0.00 0.00 0.00 0.00 0.03 0.05 0.04 0.09 0.18 0.16 0.02 0.01 0.02 0.02 0.01 0.02 0.02 0.07 0.18 0.33 0.35 0.23 0.30 0.41 0.42 0.55 0.76 0.65 0.86
0.00 0.00 0.00 0.00 0.00 0.00 0.00 0.00 0.00 0.00 0.00 0.00 0.00 0.01 0.01 0.01 0.01 0.05 0.07 0.06 0.11 0.18 0.08 0.01 0.00 0.01 0.01 0.01 0.00 0.01 0.02 0.06 0.17 0.20 0.33 0.34 0.37 0.47 0.53 0.68 0.92 1.05 1.04
0.00 0.00 0.00 0.00 0.00 0.00 0.00 0.00 0.00 0.00 0.00 0.00 0.00 0.01 0.01 0.02 0.04 0.05 0.04 0.13 0.17 0.07 0.01 0.01 0.02 0.03 0.02 0.02 0.03 0.04 0.04 0.08 0.16 0.31 0.32 0.34 0.50 0.61 0.72 0.86 1.07 1.10 0.95
0.00 0.00 0.00 0.00 0.00 0.00 0.00 0.00 0.00 0.00 0.00 0.00 0.00 0.01 0.01 0.02 0.02 0.02 0.10 0.15 0.03 0.01 0.01 0.04 0.04 0.03 0.03 0.05 0.08 0.13 0.16 0.14 0.32 0.49 0.56 0.59 0.68 0.75 0.83 0.95 0.96 0.85 0.67
0.00 0.00 0.00 0.00 0.00 0.00 0.00 0.00 0.00 0.00 0.00 0.00 0.00 0.00 0.01 0.01 0.01 0.05 0.09 0.03 0.00 0.01 0.05 0.05 0.04 0.04 0.05 0.12 0.18 0.28 0.31 0.30 0.44 0.55 0.68 0.68 0.74 0.96 0.97 0.95 0.83 0.73 0.62
0.00 0.00 0.00 0.00 0.00 0.00 0.00 0.00 0.00 0.00 0.00 0.00 0.00 0.00 0.00 0.00 0.04 0.07 0.02 0.01 0.02 0.05 0.05 0.03 0.03 0.04 0.09 0.17 0.23 0.30 0.39 0.60 0.80 0.92 0.79 0.80 0.82 1.09 0.95 0.74 0.59 0.40 0.29
0.00 0.00 0.00 0.00 0.00 0.00 0.00 0.00 0.00 0.00 0.00 0.01 0.01 0.00 0.00 0.03 0.11 0.01 0.00 0.01 0.04 0.05 0.03 0.04 0.04 0.05 0.12 0.20 0.28 0.33 0.46 0.50 0.62 0.65 0.72 0.79 0.88 0.95 0.85 0.55 0.32 0.31 0.20
0.00 0.00 0.00 0.00 0.00 0.00 0.00 0.00 0.00 0.01 0.02 0.01 0.00 0.00 0.04 0.05 0.03 0.01 0.01 0.03 0.03 0.04 0.04 0.05 0.06 0.09 0.14 0.20 0.29 0.38 0.54 0.59 0.64 0.84 0.82 0.80 0.81 0.67 0.33 0.24 0.22 0.25 0.30
0.00 0.00 0.00 0.00 0.00 0.00 0.00 0.00 0.01 0.01 0.01 0.01 0.01 0.01 0.03 0.01 0.01 0.02 0.03 0.02 0.01 0.02 0.03 0.07 0.09 0.11 0.28 0.50 0.66 0.69 0.60 0.63 0.70 0.85 0.76 0.62 0.51 0.29 0.23 0.22 0.20 0.24 0.25
0.00 0.00 0.00 0.00 0.00 0.01 0.01 0.01 0.01 0.01 0.01 0.01 0.02 0.02 0.01 0.01 0.02 0.03 0.02 0.01 0.02 0.02 0.01 0.05 0.13 0.15 0.12 0.34 0.66 1.09 1.17 0.88 0.90 0.92 0.80 0.62 0.46 0.40 0.43 0.42 0.29 0.25 0.19
0.00 0.00 0.00 0.00 0.01 0.01 0.01 0.01 0.00 0.01 0.02 0.02 0.01 0.01 0.01 0.02 0.02 0.01 0.01 0.02 0.02 0.02 0.01 0.04 0.14 0.22 0.26 0.36 0.61 0.82 1.10 1.15 1.17 1.11 1.22 1.11 0.62 0.39 0.33 0.31 0.20 0.20 0.19
0.00 0.00 0.00 0.01 0.00 0.00 0.01 0.01 0.01 0.01 0.00 0.01 0.01 0.02 0.02 0.02 0.01 0.02 0.01 0.02 0.02 0.02 0.01 0.03 0.13 0.26 0.36 0.53 0.69 0.78 0.87 0.85 0.92 0.76 0.56 0.43 0.39 0.31 0.31 0.31 0.16 0.16 0.14
0.01 0.01 0.01 0.01 0.01 0.00 0.00 0.00 0.00 0.01 0.02 0.02 0.03 0.03 0.02 0.03 0.03 0.02 0.03 0.03 0.03 0.02 0.01 0.02 0.09 0.23 0.33 0.48 0.61 0.76 0.77 0.73 0.55 0.29 0.20 0.24 0.24 0.24 0.23 0.24 0.16 0.14 0.10

GFSGL_prec_precacc_075.txt.gz
Total_Precipitation_Accumulation
0.00 0.00 0.02 0.03 0.04 0.05 0.06 0.06 0.04 0.03 0.04 0.03 0.03 0.04 0.03 0.03 0.02 0.02 0.03 0.03 0.06 0.11 0.16 0.20 0.21 0.22 0.28 0.34 0.41 0.47 0.54 0.70 0.79 0.54 0.47 0.36 0.26 0.15 0.07 0.08 0.06 0.05 0.05
0.00 0.01 0.03 0.03 0.03 0.04 0.06 0.06 0.05 0.05 0.03 0.02 0.01 0.01 0.01 0.01 0.00 0.01 0.01 0.02 0.02 0.03 0.04 0.06 0.09 0.12 0.17 0.25 0.31 0.34 0.40 0.41 0.48 0.34 0.14 0.11 0.08 0.05 0.04 0.06 0.08 0.11 0.11
0.01 0.01 0.02 0.03 0.04 0.05 0.04 0.04 0.03 0.02 0.02 0.02 0.02 0.01 0.01 0.00 0.00 0.00 0.00 0.01 0.03 0.04 0.06 0.09 0.14 0.21 0.26 0.31 0.38 0.40 0.38 0.36 0.37 0.40 0.18 0.08 0.08 0.07 0.07 0.09 0.11 0.12 0.12
0.03 0.03 0.04 0.05 0.05 0.04 0.05 0.05 0.03 0.03 0.02 0.02 0.02 0.01 0.01 0.02 0.03 0.04 0.05 0.08 0.10 0.12 0.15 0.18 0.23 0.26 0.26 0.24 0.22 0.23 0.25 0.26 0.27 0.28 0.25 0.21 0.15 0.14 0.18 0.14 0.12 0.11 0.13
0.07 0.05 0.05 0.05 0.05 0.04 0.04 0.05 0.05 0.04 0.04 0.04 0.03 0.02 0.04 0.08 0.12 0.16 0.19 0.23 0.29 0.34 0.37 0.35 0.31 0.27 0.21 0.13 0.16 0.16 0.23 0.25 0.35 0.51 0.50 0.44 0.41 0.33 0.26 0.26 0.37 0.38 0.39
0.11 0.06 0.04 0.02 0.05 0.05 0.06 0.06 0.07 0.14 0.12 0.10 0.13 0.17 0.18 0.18 0.29 0.24 0.20 0.22 0.25 0.24 0.22 0.21 0.21 0.23 0.18 0.15 0.16 0.18 0.18 0.31 0.48 0.64 0.65 0.55 0.40 0.40 0.42 0.51 0.66 0.78 0.74
0.08 0.06 0.05 0.03 0.04 0.07 0.09 0.16 0.21 0.27 0.56 0.55 0.55 0.41 0.43 0.49 0.52 0.41 0.40 0.41 0.40 0.36 0.33 0.29 0.20 0.14 0.12 0.09 0.06 0.09 0.18 0.34 0.40 0.29 0.24 0.25 0.34 0.31 0.52 0.66 0.62 0.64 0.54
0.10 0.15 0.16 0.14 0.17 0.20 0.33 0.45 0.48 0.47 0.48 0.55 0.89 0.94 0.94 0.90 0.77 0.56 0.38 0.29 0.20 0.16 0.12 0.08 0.04 0.03 0.03 0.04 0.09 0.29 0.26 0.13 0.04 0.06 0.08 0.11 0.24 0.40 0.59 0.84 0.83 0.88 0.68
0.22 0.25 0.36 0.31 0.28 0.26 0.40 0.50 0.37 0.51 0.67 0.62 0.54 0.44 0.36 0.29 0.20 0.14 0.11 0.11 0.09 0.06 0.02 0.01 0.04 0.03 0.02 0.11 0.27 0.32 0.07 0.01 0.02 0.05 0.15 0.18 0.20 0.21 0.28 0.62 0.85 0.83 0.77
0.33 0.31 0.30 0.48 0.40 0.48 0.44 0.49 0.75 0.60 0.54 0.44 0.34 0.23 0.16 0.10 0.07 0.04 0.01 0.02 0.01 0.00 0.02 0.02 0.02 0.03 0.07 0.32 0.19 0.05 0.08 0.04 0.14 0.11 0.03 0.02 0.04 0.11 0.23 0.32 0.72 1.39 0.99
0.58 0.60 0.65 0.78 0.67 0.61 0.66 0.57 0.50 0.37 0.26 0.20 0.12 0.06 0.03 0.02 0.00 0.00 0.00 0.02 0.02 0.09 0.08 0.02 0.00 0.08 0.28 0.15 0.05 0.03 0.08 0.11 0.12 0.05 0.02 0.02 0.04 0.07 0.14 0.24 0.58 1.48 1.77
0.67 0.59 0.57 0.49 0.44 0.35 0.27 0.18 0.10 0.09 0.05 0.03 0.01 0.00 0.00 0.00 0.00 0.00 0.01 0.03 0.07 0.08 0.05 0.03 0.08 0.22 0.07 0.02 0.02 0.04 0.08 0.08 0.03 0.02 0.04 0.05 0.08 0.16 0.24 0.33 0.43 0.61 0.85
0.16 0.13 0.13 0.08 0.05 0.03 0.00 0.00 0.00 0.00 0.00 0.00 0.00 0.00 0.00 0.00 0.00 0.00 0.00 0.07 0.09 0.08 0.06 0.17 0.16 0.03 0.01 0.01 0.02 0.04 0.04 0.02 0.07 0.17 0.19 0.19 0.23 0.35 0.38 0.40 0.47 0.48 0.52
0.01 0.01 0.00 0.00 0.00 0.00 0.00 0.00 0.00 0.00 0.00 0.00 0.00 0.00 0.00 0.00 0.00 0.00 0.03 0.05 0.04 0.09 0.18 0.16 0.02 0.01 0.02 0.02 0.01 0.02 0.02 0.07 0.18 0.33 0.35 0.23 0.30 0.41 0.42 0.55 0.76 0.65 0.86
0.00 0.00 0.00 0.00 0.00 0.00 0.00 0.00 0.00 0.00 0.00 0.00 0.00 0.01 0.01 0.01 0.01 0.05 0.07 0.06 0.11 0.18 0.08 0.01 0.00 0.01 0.01 0.01 0.00 0.01 0.02 0.06 0.17 0.20 0.33 0.34 0.37 0.47 0.53 0.68 0.92 1.05 1.05
0.00 0.00 0.00 0.00 0.00 0.00 0.00 0.00 0.00 0.00 0.00 0.00 0.00 0.01 0.01 0.02 0.04 0.05 0.04 0.13 0.17 0.07 0.01 0.01 0.02 0.03 0.02 0.02 0.03 0.04 0.04 0.08 0.16 0.31 0.32 0.34 0.50 0.61 0.72 0.86 1.07 1.10 0.95
0.00 0.00 0.00 0.00 0.00 0.00 0.00 0.00 0.00 0.00 0.00 0.00 0.00 0.01 0.01 0.02 0.02 0.02 0.10 0.15 0.03 0.01 0.01 0.04 0.04 0.03 0.03 0.05 0.08 0.13 0.16 0.14 0.32 0.49 0.56 0.60 0.68 0.75 0.83 0.95 0.96 0.85 0.67
0.00 0.00 0.00 0.00 0.00 0.00 0.00 0.00 0.00 0.00 0.00 0.00 0.00 0.00 0.01 0.01 0.01 0.05 0.09 0.03 0.00 0.01 0.05 0.05 0.04 0.04 0.05 0.12 0.18 0.28 0.31 0.30 0.44 0.55 0.69 0.69 0.74 0.96 0.98 0.96 0.84 0.73 0.63
0.00 0.00 0.00 0.00 0.00 0.00 0.00 0.00 0.00 0.00 0.00 0.00 0.00 0.00 0.00 0.00 0.04 0.07 0.02 0.01 0.02 0.05 0.05 0.03 0.03 0.04 0.09 0.17 0.23 0.30 0.39 0.60 0.80 0.92 0.79 0.80 0.82 1.09 0.95 0.75 0.60 0.40 0.30
0.00 0.00 0.00 0.00 0.00 0.00 0.00 0.00 0.00 0.00 0.00 0.01 0.01 0.00 0.00 0.03 0.11 0.01 0.00 0.01 0.04 0.05 0.03 0.04 0.04 0.05 0.12 0.20 0.28 0.33 0.47 0.51 0.62 0.66 0.73 0.79 0.88 0.96 0.86 0.56 0.32 0.32 0.21
0.00 0.00 0.00 0.00 0.00 0.00 0.00 0.00 0.00 0.01 0.02 0.01 0.00 0.00 0.04 0.05 0.03 0.01 0.01 0.03 0.03 0.04 0.04 0.05 0.06 0.09 0.14 0.20 0.29 0.38 0.55 0.60 0.65 0.84 0.82 0.80 0.81 0.68 0.33 0.25 0.22 0.25 0.31
0.00 0.00 0.00 0.00 0.00 0.00 0.00 0.00 0.01 0.01 0.01 0.01 0.01 0.01 0.03 0.01 0.01 0.02 0.03 0.02 0.01 0.02 0.03 0.07 0.09 0.11 0.28 0.50 0.66 0.69 0.60 0.64 0.70 0.85 0.76 0.62 0.51 0.30 0.23 0.23 0.20 0.24 0.26
0.00 0.00 0.00 0.00 0.00 0.01 0.01 0.01 0.01 0.01 0.01 0.01 0.02 0.02 0.01 0.01 0.02 0.03 0.02 0.01 0.02 0.02 0.01 0.05 0.13 0.15 0.12 0.34 0.66 1.09 1.17 0.88 0.90 0.92 0.81 0.63 0.47 0.40 0.44 0.42 0.30 0.26 0.20
0.00 0.00 0.00 0.00 0.01 0.01 0.01 0.01 0.00 0.01 0.02 0.02 0.01 0.01 0.01 0.02 0.02 0.01 0.01 0.02 0.02 0.02 0.01 0.04 0.14 0.22 0.26 0.36 0.61 0.82 1.10 1.15 1.17 1.11 1.23 1.13 0.62 0.40 0.33 0.32 0.20 0.21 0.20
0.00 0.00 0.01 0.01 0.00 0.00 0.01 0.01 0.01 0.01 0.00 0.01 0.01 0.02 0.02 0.02 0.01 0.02 0.01 0.02 0.02 0.02 0.01 0.03 0.13 0.26 0.36 0.53 0.69 0.78 0.87 0.85 0.92 0.77 0.58 0.46 0.41 0.33 0.32 0.32 0.18 0.17 0.15
0.02 0.02 0.02 0.02 0.02 0.02 0.03 0.02 0.01 0.01 0.02 0.02 0.03 0.03 0.02 0.03 0.03 0.02 0.03 0.03 0.03 0.02 0.01 0.02 0.09 0.23 0.33 0.48 0.61 0.76 0.77 0.73 0.56 0.29 0.22 0.27 0.26 0.25 0.24 0.25 0.18 0.16 0.12

GFSGL_prec_precacc_078.txt.gz
Total_Precipitation_Accumulation
0.00 0.00 0.02 0.03 0.04 0.05 0.06 0.06 0.04 0.03 0.04 0.03 0.03 0.04 0.03 0.03 0.02 0.02 0.03 0.03 0.06 0.11 0.16 0.20 0.21 0.22 0.28 0.34 0.42 0.47 0.55 0.71 0.80 0.56 0.48 0.40 0.30 0.17 0.09 0.09 0.08 0.06 0.06
0.00 0.01 0.03 0.03 0.03 0.04 0.06 0.06 0.05 0.05 0.03 0.02 0.01 0.01 0.01 0.01 0.00 0.01 0.01 0.02 0.02 0.03 0.04 0.06 0.10 0.12 0.18 0.26 0.31 0.35 0.41 0.42 0.49 0.34 0.15 0.13 0.11 0.07 0.05 0.06 0.08 0.11 0.11
0.01 0.01 0.02 0.03 0.04 0.05 0.04 0.04 0.03 0.02 0.02 0.02 0.02 0.01 0.01 0.00 0.00 0.00 0.00 0.01 0.03 0.04 0.06 0.09 0.14 0.21 0.27 0.32 0.39 0.41 0.38 0.36 0.38 0.41 0.19 0.10 0.09 0.07 0.07 0.09 0.11 0.12 0.12
0.03 0.03 0.04 0.05 0.05 0.04 0.05 0.05 0.03 0.03 0.02 0.02 0.02 0.01 0.01 0.02 0.03 0.04 0.05 0.08 0.10 0.12 0.15 0.18 0.23 0.26 0.26 0.24 0.23 0.23 0.25 0.26 0.27 0.30 0.31 0.25 0.16 0.14 0.18 0.14 0.12 0.11 0.13
0.07 0.05 0.05 0.05 0.05 0.04 0.04 0.05 0.05 0.04 0.04 0.04 0.03 0.02 0.04 0.08 0.12 0.16 0.19 0.23 0.29 0.34 0.37 0.35 0.31 0.27 0.21 0.13 0.16 0.17 0.23 0.25 0.35 0.52 0.51 0.44 0.41 0.33 0.26 0.26 0.37 0.38 0.39
0.11 0.06 0.04 0.02 0.05 0.05 0.06 0.06 0.07 0.14 0.12 0.10 0.13 0.17 0.18 0.18 0.29 0.24 0.20 0.22 0.25 0.24 0.22 0.21 0.22 0.23 0.18 0.15 0.16 0.18 0.18 0.33 0.50 0.65 0.65 0.55 0.40 0.40 0.42 0.51 0.66 0.78 0.74
0.08 0.06 0.05 0.03 0.04 0.07 0.09 0.16 0.21 0.27 0.56 0.55 0.56 0.41 0.43 0.49 0.52 0.41 0.40 0.41 0.40 0.36 0.33 0.29 0.20 0.14 0.12 0.09 0.06 0.09 0.18 0.35 0.40 0.29 0.24 0.25 0.34 0.31 0.52 0.66 0.62 0.64 0.54
0.10 0.15 0.16 0.14 0.17 0.20 0.33 0.45 0.48 0.47 0.48 0.55 0.89 0.94 0.94 0.90 0.77 0.56 0.38 0.29 0.20 0.16 0.12 0.08 0.04 0.03 0.03 0.04 0.09 0.29 0.26 0.13 0.04 0.06 0.08 0.11 0.24 0.40 0.59 0.84 0.83 0.88 0.68
0.22 0.25 0.36 0.31 0.28 0.26 0.40 0.50 0.37 0.51 0.67 0.62 0.54 0.44 0.36 0.29 0.20 0.14 0.11 0.11 0.09 0.06 0.02 0.01 0.04 0.03 0.02 0.11 0.27 0.32 0.07 0.01 0.02 0.05 0.15 0.18 0.20 0.21 0.28 0.62 0.85 0.83 0.77
0.33 0.31 0.30 0.48 0.40 0.48 0.44 0.49 0.75 0.60 0.54 0.44 0.34 0.23 0.16 0.10 0.07 0.04 0.01 0.02 0.01 0.00 0.02 0.02 0.02 0.03 0.07 0.32 0.19 0.05 0.08 0.04 0.14 0.11 0.03 0.02 0.04 0.11 0.23 0.32 0.72 1.39 0.99
0.58 0.60 0.65 0.78 0.67 0.61 0.66 0.57 0.50 0.37 0.26 0.20 0.12 0.06 0.03 0.02 0.00 0.00 0.00 0.02 0.02 0.09 0.08 0.02 0.00 0.08 0.28 0.15 0.05 0.03 0.08 0.11 0.12 0.05 0.02 0.02 0.04 0.07 0.14 0.24 0.58 1.48 1.77
0.67 0.59 0.57 0.49 0.44 0.35 0.27 0.18 0.10 0.09 0.05 0.03 0.01 0.00 0.00 0.00 0.00 0.00 0.01 0.03 0.07 0.08 0.05 0.03 0.08 0.22 0.07 0.02 0.02 0.04 0.08 0.08 0.03 0.02 0.04 0.05 0.08 0.16 0.24 0.33 0.43 0.61 0.85
0.16 0.13 0.13 0.08 0.05 0.03 0.00 0.00 0.00 0.00 0.00 0.00 0.00 0.00 0.00 0.00 0.00 0.00 0.00 0.07 0.09 0.08 0.06 0.17 0.16 0.03 0.01 0.01 0.02 0.04 0.04 0.02 0.07 0.17 0.19 0.19 0.23 0.35 0.38 0.40 0.47 0.48 0.52
0.01 0.01 0.00 0.00 0.00 0.00 0.00 0.00 0.00 0.00 0.00 0.00 0.00 0.00 0.00 0.00 0.00 0.00 0.03 0.05 0.04 0.09 0.18 0.16 0.02 0.01 0.02 0.02 0.01 0.02 0.02 0.07 0.18 0.33 0.35 0.23 0.30 0.41 0.42 0.55 0.76 0.65 0.87
0.00 0.00 0.00 0.00 0.00 0.00 0.00 0.00 0.00 0.00 0.00 0.00 0.00 0.01 0.01 0.01 0.01 0.05 0.07 0.06 0.11 0.18 0.08 0.01 0.00 0.01 0.01 0.01 0.00 0.01 0.02 0.06 0.17 0.20 0.33 0.34 0.37 0.47 0.53 0.68 0.92 1.05 1.05
0.00 0.00 0.00 0.00 0.00 0.00 0.00 0.00 0.00 0.00 0.00 0.00 0.00 0.01 0.01 0.02 0.04 0.05 0.04 0.13 0.17 0.07 0.01 0.01 0.02 0.03 0.02 0.02 0.03 0.04 0.04 0.08 0.16 0.31 0.32 0.34 0.50 0.61 0.72 0.86 1.07 1.11 0.96
0.00 0.00 0.00 0.00 0.00 0.00 0.00 0.00 0.00 0.00 0.00 0.00 0.00 0.01 0.01 0.02 0.02 0.02 0.10 0.15 0.03 0.01 0.01 0.04 0.04 0.03 0.03 0.05 0.08 0.13 0.16 0.14 0.32 0.49 0.57 0.60 0.68 0.75 0.84 0.95 0.97 0.85 0.67
0.00 0.00 0.00 0.00 0.00 0.00 0.00 0.00 0.00 0.00 0.00 0.00 0.00 0.00 0.01 0.01 0.01 0.05 0.09 0.03 0.00 0.01 0.05 0.05 0.04 0.04 0.05 0.12 0.18 0.28 0.32 0.30 0.44 0.55 0.69 0.69 0.74 0.97 0.98 0.96 0.84 0.74 0.63
0.00 0.00 0.00 0.00 0.00 0.00 0.00 0.00 0.00 0.00 0.00 0.00 0.00 0.00 0.00 0.00 0.04 0.07 0.02 0.01 0.02 0.05 0.05 0.03 0.03 0.04 0.09 0.17 0.23 0.30 0.39 0.60 0.81 0.93 0.80 0.80 0.82 1.10 0.96 0.75 0.60 0.40 0.30
0.00 0.00 0.00 0.00 0.00 0.00 0.00 0.00 0.00 0.00 0.00 0.01 0.01 0.00 0.00 0.03 0.11 0.01 0.00 0.01 0.04 0.05 0.03 0.04 0.04 0.05 0.12 0.20 0.28 0.33 0.47 0.51 0.62 0.66 0.73 0.79 0.88 0.96 0.86 0.56 0.33 0.32 0.21
0.00 0.00 0.00 0.00 0.00 0.00 0.00 0.00 0.00 0.01 0.02 0.01 0.00 0.00 0.04 0.05 0.03 0.01 0.01 0.03 0.03 0.04 0.04 0.05 0.06 0.09 0.14 0.20 0.29 0.38 0.55 0.60 0.65 0.84 0.82 0.80 0.81 0.68 0.33 0.25 0.23 0.26 0.31
0.00 0.00 0.00 0.00 0.00 0.00 0.00 0.00 0.01 0.01 0.01 0.01 0.01 0.01 0.03 0.01 0.01 0.02 0.03 0.02 0.01 0.02 0.03 0.07 0.09 0.11 0.28 0.50 0.66 0.69 0.60 0.64 0.70 0.85 0.76 0.62 0.51 0.30 0.24 0.23 0.20 0.25 0.26
0.00 0.00 0.00 0.00 0.00 0.01 0.01 0.01 0.01 0.01 0.01 0.01 0.02 0.02 0.01 0.01 0.02 0.03 0.02 0.01 0.02 0.02 0.01 0.05 0.13 0.15 0.12 0.34 0.66 1.09 1.17 0.88 0.90 0.92 0.81 0.63 0.47 0.41 0.44 0.43 0.30 0.26 0.20
0.00 0.00 0.00 0.00 0.01 0.01 0.01 0.01 0.00 0.01 0.02 0.02 0.01 0.01 0.01 0.02 0.02 0.01 0.01 0.02 0.02 0.02 0.01 0.04 0.14 0.22 0.26 0.36 0.61 0.82 1.10 1.15 1.17 1.11 1.23 1.13 0.63 0.40 0.34 0.33 0.21 0.21 0.21
0.00 0.00 0.01 0.01 0.01 0.01 0.01 0.01 0.01 0.01 0.01 0.01 0.01 0.02 0.02 0.02 0.01 0.02 0.01 0.02 0.02 0.02 0.01 0.03 0.13 0.26 0.36 0.53 0.69 0.78 0.87 0.85 0.92 0.77 0.59 0.46 0.42 0.34 0.33 0.33 0.18 0.18 0.16
0.02 0.02 0.03 0.04 0.04 0.04 0.04 0.04 0.04 0.03 0.03 0.03 0.03 0.03 0.02 0.03 0.03 0.02 0.03 0.03 0.03 0.02 0.01 0.02 0.09 0.23 0.33 0.48 0.61 0.76 0.77 0.73 0.56 0.30 0.23 0.31 0.29 0.27 0.26 0.27 0.19 0.17 0.13

GFSGL_prec_precacc_081.txt.gz
Total_Precipitation_Accumulation
0.00 0.00 0.02 0.03 0.04 0.05 0.06 0.06 0.04 0.03 0.04 0.03 0.03 0.04 0.03 0.03 0.02 0.02 0.03 0.03 0.06 0.11 0.16 0.20 0.21 0.22 0.28 0.34 0.42 0.48 0.55 0.71 0.80 0.56 0.48 0.40 0.31 0.17 0.11 0.15 0.13 0.10 0.09
0.00 0.01 0.03 0.03 0.03 0.04 0.06 0.06 0.05 0.05 0.03 0.02 0.01 0.01 0.01 0.01 0.00 0.01 0.01 0.02 0.02 0.03 0.04 0.06 0.10 0.12 0.18 0.26 0.31 0.35 0.41 0.43 0.49 0.35 0.15 0.13 0.12 0.09 0.06 0.08 0.09 0.11 0.11
0.01 0.01 0.02 0.03 0.04 0.05 0.04 0.04 0.03 0.02 0.02 0.02 0.02 0.01 0.01 0.00 0.00 0.00 0.00 0.01 0.03 0.04 0.06 0.09 0.14 0.21 0.27 0.32 0.39 0.41 0.38 0.36 0.38 0.41 0.19 0.10 0.09 0.07 0.08 0.10 0.12 0.12 0.12
0.03 0.03 0.04 0.05 0.05 0.04 0.05 0.05 0.03 0.03 0.02 0.02 0.02 0.01 0.01 0.02 0.03 0.04 0.05 0.08 0.10 0.12 0.15 0.18 0.23 0.26 0.26 0.24 0.23 0.23 0.25 0.26 0.27 0.30 0.31 0.25 0.16 0.14 0.18 0.14 0.12 0.11 0.13
0.07 0.05 0.05 0.05 0.05 0.04 0.04 0.05 0.05 0.04 0.04 0.04 0.03 0.02 0.04 0.08 0.12 0.16 0.19 0.23 0.29 0.34 0.37 0.35 0.31 0.28 0.21 0.13 0.16 0.17 0.23 0.25 0.35 0.52 0.51 0.44 0.41 0.33 0.26 0.26 0.37 0.38 0.39
0.11 0.06 0.04 0.02 0.05 0.05 0.06 0.06 0.07 0.14 0.12 0.10 0.13 0.17 0.18 0.18 0.29 0.24 0.20 0.22 0.25 0.24 0.22 0.21 0.22 0.24 0.18 0.15 0.16 0.18 0.18 0.33 0.50 0.65 0.65 0.55 0.40 0.40 0.42 0.51 0.66 0.78 0.74
0.08 0.06 0.05 0.03 0.04 0.07 0.09 0.16 0.21 0.27 0.56 0.55 0.56 0.41 0.43 0.49 0.52 0.41 0.40 0.41 0.40 0.36 0.33 0.29 0.20 0.14 0.12 0.09 0.06 0.09 0.18 0.35 0.40 0.29 0.24 0.25 0.34 0.31 0.52 0.66 0.62 0.64 0.54
0.10 0.15 0.16 0.14 0.17 0.20 0.33 0.45 0.48 0.47 0.48 0.55 0.89 0.94 0.94 0.90 0.77 0.56 0.38 0.29 0.20 0.16 0.12 0.08 0.04 0.03 0.03 0.04 0.09 0.29 0.26 0.13 0.04 0.06 0.08 0.11 0.24 0.40 0.59 0.84 0.83 0.88 0.68
0.22 0.25 0.36 0.31 0.28 0.26 0.40 0.50 0.37 0.51 0.67 0.62 0.54 0.44 0.36 0.29 0.20 0.14 0.11 0.11 0.09 0.06 0.02 0.01 0.04 0.03 0.02 0.11 0.27 0.32 0.07 0.01 0.02 0.05 0.15 0.18 0.20 0.21 0.28 0.62 0.85 0.83 0.77
0.33 0.31 0.30 0.48 0.40 0.48 0.44 0.49 0.75 0.60 0.54 0.44 0.34 0.23 0.16 0.10 0.07 0.04 0.01 0.02 0.01 0.00 0.02 0.02 0.02 0.03 0.07 0.32 0.19 0.05 0.08 0.04 0.14 0.11 0.03 0.02 0.04 0.11 0.23 0.32 0.72 1.39 0.99
0.58 0.60 0.65 0.78 0.67 0.61 0.66 0.57 0.50 0.37 0.26 0.20 0.12 0.06 0.03 0.02 0.00 0.00 0.00 0.02 0.02 0.09 0.08 0.02 0.00 0.08 0.28 0.15 0.05 0.03 0.08 0.11 0.12 0.05 0.02 0.02 0.04 0.07 0.14 0.24 0.58 1.48 1.77
0.67 0.59 0.57 0.49 0.44 0.35 0.27 0.18 0.10 0.09 0.05 0.03 0.01 0.00 0.00 0.00 0.00 0.00 0.01 0.03 0.07 0.08 0.05 0.03 0.08 0.22 0.07 0.02 0.02 0.04 0.08 0.08 0.03 0.02 0.04 0.05 0.08 0.16 0.24 0.33 0.43 0.61 0.85
0.16 0.13 0.13 0.08 0.05 0.03 0.00 0.00 0.00 0.00 0.00 0.00 0.00 0.00 0.00 0.00 0.00 0.00 0.00 0.07 0.09 0.08 0.06 0.17 0.16 0.03 0.01 0.01 0.02 0.04 0.04 0.02 0.07 0.17 0.19 0.19 0.23 0.35 0.38 0.40 0.47 0.48 0.52
0.01 0.01 0.00 0.00 0.00 0.00 0.00 0.00 0.00 0.00 0.00 0.00 0.00 0.00 0.00 0.00 0.00 0.00 0.03 0.05 0.04 0.09 0.18 0.16 0.02 0.01 0.02 0.02 0.01 0.02 0.02 0.07 0.18 0.33 0.35 0.23 0.30 0.41 0.42 0.55 0.76 0.65 0.87
0.00 0.00 0.00 0.00 0.00 0.00 0.00 0.00 0.00 0.00 0.00 0.00 0.00 0.01 0.01 0.01 0.01 0.05 0.07 0.06 0.11 0.18 0.08 0.01 0.00 0.01 0.01 0.01 0.00 0.01 0.02 0.06 0.17 0.20 0.33 0.34 0.37 0.47 0.53 0.68 0.92 1.05 1.05
0.00 0.00 0.00 0.00 0.00 0.00 0.00 0.00 0.00 0.00 0.00 0.00 0.00 0.01 0.01 0.02 0.04 0.05 0.04 0.13 0.17 0.07 0.01 0.01 0.02 0.03 0.02 0.02 0.03 0.04 0.04 0.08 0.16 0.31 0.32 0.34 0.50 0.61 0.72 0.86 1.07 1.11 0.96
0.00 0.00 0.00 0.00 0.00 0.00 0.00 0.00 0.00 0.00 0.00 0.00 0.00 0.01 0.01 0.02 0.02 0.02 0.10 0.15 0.03 0.01 0.01 0.04 0.04 0.03 0.03 0.05 0.08 0.13 0.16 0.14 0.32 0.49 0.57 0.60 0.68 0.75 0.84 0.96 0.97 0.85 0.67
0.00 0.00 0.00 0.00 0.00 0.00 0.00 0.00 0.00 0.00 0.00 0.00 0.00 0.00 0.01 0.01 0.01 0.05 0.09 0.03 0.00 0.01 0.05 0.05 0.04 0.04 0.05 0.12 0.18 0.28 0.32 0.30 0.44 0.55 0.69 0.69 0.74 0.97 0.98 0.96 0.84 0.74 0.63
0.00 0.00 0.00 0.00 0.00 0.00 0.00 0.00 0.00 0.00 0.00 0.00 0.00 0.00 0.00 0.00 0.04 0.07 0.02 0.01 0.02 0.05 0.05 0.03 0.03 0.04 0.09 0.17 0.23 0.30 0.39 0.60 0.81 0.93 0.80 0.80 0.83 1.10 0.96 0.75 0.60 0.41 0.31
0.00 0.00 0.00 0.00 0.00 0.00 0.00 0.00 0.00 0.00 0.00 0.01 0.01 0.00 0.00 0.03 0.11 0.01 0.00 0.01 0.04 0.05 0.03 0.04 0.04 0.05 0.12 0.20 0.28 0.33 0.47 0.51 0.62 0.66 0.73 0.80 0.89 0.96 0.87 0.56 0.33 0.33 0.21
0.00 0.00 0.00 0.00 0.00 0.00 0.00 0.00 0.00 0.01 0.02 0.01 0.00 0.00 0.04 0.05 0.03 0.01 0.01 0.03 0.03 0.04 0.04 0.05 0.06 0.09 0.14 0.20 0.29 0.38 0.55 0.60 0.65 0.84 0.82 0.80 0.82 0.69 0.33 0.25 0.23 0.26 0.31
0.00 0.00 0.00 0.00 0.00 0.00 0.00 0.00 0.01 0.01 0.01 0.01 0.01 0.01 0.03 0.01 0.01 0.02 0.03 0.02 0.01 0.02 0.03 0.07 0.09 0.11 0.28 0.50 0.66 0.69 0.60 0.64 0.70 0.85 0.76 0.63 0.52 0.30 0.24 0.23 0.21 0.25 0.26
0.00 0.00 0.00 0.00 0.00 0.01 0.01 0.01 0.01 0.01 0.01 0.01 0.02 0.02 0.01 0.01 0.02 0.03 0.02 0.01 0.02 0.02 0.01 0.05 0.13 0.15 0.12 0.34 0.66 1.09 1.17 0.88 0.90 0.92 0.81 0.63 0.47 0.41 0.45 0.43 0.30 0.26 0.20
0.00 0.00 0.00 0.00 0.01 0.01 0.01 0.01 0.01 0.01 0.02 0.02 0.01 0.01 0.02 0.02 0.02 0.01 0.01 0.02 0.02 0.02 0.01 0.04 0.14 0.22 0.26 0.36 0.61 0.82 1.10 1.15 1.17 1.11 1.23 1.13 0.63 0.40 0.34 0.33 0.21 0.21 0.21
0.01 0.01 0.01 0.01 0.01 0.01 0.01 0.01 0.02 0.01 0.01 0.01 0.02 0.03 0.02 0.02 0.01 0.02 0.01 0.02 0.02 0.02 0.01 0.03 0.13 0.26 0.36 0.53 0.69 0.78 0.87 0.85 0.92 0.77 0.59 0.47 0.43 0.34 0.33 0.34 0.18 0.18 0.16
0.02 0.02 0.03 0.04 0.04 0.04 0.04 0.04 0.04 0.04 0.04 0.04 0.04 0.03 0.03 0.03 0.03 0.02 0.03 0.03 0.03 0.02 0.01 0.02 0.09 0.23 0.33 0.48 0.61 0.76 0.77 0.73 0.56 0.30 0.23 0.32 0.31 0.28 0.27 0.29 0.19 0.18 0.14

GFSGL_prec_precacc_084.txt.gz
Total_Precipitation_Accumulation
0.00 0.00 0.02 0.03 0.04 0.05 0.06 0.06 0.04 0.03 0.04 0.03 0.03 0.04 0.03 0.03 0.02 0.02 0.03 0.03 0.06 0.11 0.16 0.20 0.21 0.22 0.28 0.34 0.42 0.48 0.55 0.71 0.80 0.56 0.48 0.40 0.31 0.18 0.11 0.15 0.13 0.11 0.09
0.00 0.01 0.03 0.03 0.03 0.04 0.06 0.06 0.05 0.05 0.03 0.02 0.01 0.01 0.01 0.01 0.00 0.01 0.01 0.02 0.02 0.03 0.04 0.06 0.10 0.12 0.18 0.26 0.31 0.35 0.41 0.43 0.49 0.35 0.15 0.13 0.12 0.09 0.06 0.08 0.09 0.11 0.11
0.01 0.01 0.02 0.03 0.04 0.05 0.04 0.04 0.03 0.02 0.02 0.02 0.02 0.01 0.01 0.00 0.00 0.00 0.00 0.01 0.03 0.04 0.06 0.09 0.14 0.21 0.27 0.32 0.39 0.41 0.38 0.36 0.38 0.41 0.19 0.10 0.09 0.07 0.08 0.10 0.12 0.12 0.12
0.03 0.03 0.04 0.05 0.05 0.04 0.05 0.05 0.03 0.03 0.02 0.02 0.02 0.01 0.01 0.02 0.03 0.04 0.05 0.08 0.10 0.12 0.15 0.18 0.23 0.26 0.26 0.24 0.23 0.23 0.25 0.26 0.27 0.30 0.31 0.25 0.16 0.14 0.18 0.14 0.12 0.11 0.13
0.07 0.05 0.05 0.05 0.05 0.04 0.04 0.05 0.05 0.04 0.04 0.04 0.03 0.02 0.04 0.08 0.12 0.16 0.19 0.23 0.29 0.34 0.37 0.35 0.31 0.28 0.21 0.13 0.16 0.17 0.23 0.25 0.35 0.52 0.51 0.44 0.41 0.33 0.26 0.26 0.37 0.38 0.39
0.11 0.06 0.04 0.02 0.05 0.05 0.06 0.06 0.07 0.14 0.12 0.10 0.13 0.17 0.18 0.18 0.30 0.24 0.20 0.22 0.25 0.24 0.22 0.21 0.22 0.24 0.19 0.16 0.16 0.18 0.18 0.33 0.50 0.65 0.65 0.55 0.40 0.40 0.42 0.51 0.66 0.78 0.74
0.08 0.06 0.05 0.03 0.04 0.07 0.09 0.16 0.21 0.27 0.56 0.55 0.56 0.41 0.43 0.49 0.53 0.41 0.40 0.41 0.40 0.36 0.33 0.29 0.20 0.14 0.12 0.09 0.06 0.09 0.18 0.35 0.40 0.29 0.24 0.25 0.34 0.31 0.52 0.66 0.62 0.64 0.54
0.10 0.15 0.16 0.14 0.17 0.20 0.33 0.45 0.48 0.47 0.48 0.55 0.89 0.94 0.94 0.90 0.78 0.56 0.38 0.29 0.20 0.16 0.12 0.08 0.04 0.03 0.03 0.04 0.09 0.29 0.26 0.13 0.04 0.06 0.08 0.11 0.24 0.40 0.59 0.84 0.83 0.88 0.68
0.22 0.25 0.36 0.31 0.28 0.26 0.40 0.50 0.37 0.51 0.67 0.62 0.54 0.44 0.36 0.29 0.20 0.14 0.11 0.11 0.09 0.06 0.02 0.01 0.04 0.03 0.02 0.11 0.27 0.32 0.07 0.01 0.02 0.05 0.15 0.18 0.20 0.21 0.28 0.62 0.85 0.83 0.77
0.33 0.31 0.30 0.48 0.40 0.48 0.44 0.49 0.75 0.60 0.54 0.44 0.34 0.23 0.16 0.10 0.07 0.04 0.01 0.02 0.01 0.00 0.02 0.02 0.02 0.03 0.07 0.32 0.19 0.05 0.08 0.04 0.14 0.11 0.03 0.02 0.04 0.11 0.23 0.32 0.72 1.39 0.99
0.58 0.60 0.65 0.78 0.67 0.61 0.66 0.57 0.50 0.37 0.26 0.20 0.12 0.06 0.03 0.02 0.00 0.00 0.00 0.02 0.02 0.09 0.08 0.02 0.00 0.08 0.28 0.15 0.05 0.03 0.08 0.11 0.12 0.05 0.02 0.02 0.04 0.07 0.14 0.24 0.58 1.48 1.77
0.67 0.59 0.57 0.49 0.44 0.35 0.27 0.18 0.10 0.09 0.05 0.03 0.01 0.00 0.00 0.00 0.00 0.00 0.01 0.03 0.07 0.08 0.05 0.03 0.08 0.22 0.07 0.02 0.02 0.04 0.08 0.08 0.03 0.02 0.04 0.05 0.08 0.16 0.24 0.33 0.43 0.61 0.85
0.16 0.13 0.13 0.08 0.05 0.03 0.00 0.00 0.00 0.00 0.00 0.00 0.00 0.00 0.00 0.00 0.00 0.00 0.00 0.07 0.09 0.08 0.06 0.17 0.16 0.03 0.01 0.01 0.02 0.04 0.04 0.02 0.07 0.17 0.19 0.19 0.23 0.35 0.38 0.40 0.47 0.48 0.52
0.01 0.01 0.00 0.00 0.00 0.00 0.00 0.00 0.00 0.00 0.00 0.00 0.00 0.00 0.00 0.00 0.00 0.00 0.03 0.05 0.04 0.09 0.18 0.16 0.02 0.01 0.02 0.02 0.01 0.02 0.02 0.07 0.18 0.33 0.35 0.23 0.30 0.41 0.42 0.55 0.76 0.65 0.87
0.00 0.00 0.00 0.00 0.00 0.00 0.00 0.00 0.00 0.00 0.00 0.00 0.00 0.01 0.01 0.01 0.01 0.05 0.07 0.06 0.11 0.18 0.08 0.01 0.00 0.01 0.01 0.01 0.00 0.01 0.02 0.06 0.17 0.20 0.33 0.34 0.37 0.47 0.53 0.68 0.92 1.05 1.06
0.00 0.00 0.00 0.00 0.00 0.00 0.00 0.00 0.00 0.00 0.00 0.00 0.00 0.01 0.01 0.02 0.04 0.05 0.04 0.13 0.17 0.07 0.01 0.01 0.02 0.03 0.02 0.02 0.03 0.04 0.04 0.08 0.16 0.31 0.32 0.35 0.50 0.61 0.72 0.86 1.07 1.11 0.96
0.00 0.00 0.00 0.00 0.00 0.00 0.00 0.00 0.00 0.00 0.00 0.00 0.00 0.01 0.01 0.02 0.02 0.02 0.10 0.15 0.03 0.01 0.01 0.04 0.04 0.03 0.03 0.05 0.08 0.13 0.16 0.14 0.32 0.49 0.57 0.60 0.68 0.75 0.84 0.96 0.97 0.85 0.68
0.00 0.00 0.00 0.00 0.00 0.00 0.00 0.00 0.00 0.00 0.00 0.00 0.00 0.00 0.01 0.01 0.01 0.05 0.09 0.03 0.00 0.01 0.05 0.05 0.04 0.04 0.05 0.12 0.18 0.28 0.32 0.30 0.44 0.55 0.69 0.69 0.75 0.97 0.99 0.96 0.84 0.74 0.63
0.00 0.00 0.00 0.00 0.00 0.00 0.00 0.00 0.00 0.00 0.00 0.00 0.00 0.00 0.00 0.00 0.04 0.07 0.02 0.01 0.02 0.05 0.05 0.03 0.03 0.04 0.09 0.17 0.23 0.30 0.39 0.60 0.81 0.93 0.80 0.80 0.83 1.11 0.96 0.75 0.60 0.41 0.31
0.00 0.00 0.00 0.00 0.00 0.00 0.00 0.00 0.00 0.00 0.00 0.01 0.01 0.00 0.00 0.03 0.11 0.01 0.00 0.01 0.04 0.05 0.03 0.04 0.04 0.05 0.12 0.20 0.28 0.33 0.47 0.51 0.62 0.66 0.73 0.80 0.89 0.97 0.87 0.57 0.33 0.33 0.21
0.00 0.00 0.00 0.00 0.00 0.00 0.00 0.00 0.00 0.01 0.02 0.01 0.00 0.00 0.04 0.05 0.03 0.01 0.01 0.03 0.03 0.04 0.04 0.05 0.06 0.09 0.14 0.20 0.29 0.38 0.55 0.60 0.65 0.84 0.82 0.80 0.82 0.69 0.34 0.26 0.23 0.26 0.31
0.00 0.00 0.00 0.00 0.00 0.00 0.00 0.00 0.01 0.01 0.01 0.01 0.01 0.01 0.03 0.01 0.01 0.02 0.03 0.02 0.01 0.02 0.03 0.07 0.09 0.11 0.28 0.50 0.66 0.69 0.60 0.64 0.70 0.85 0.76 0.63 0.52 0.30 0.24 0.24 0.21 0.25 0.26
0.00 0.00 0.00 0.00 0.00 0.01 0.01 0.01 0.01 0.01 0.01 0.01 0.02 0.02 0.01 0.01 0.02 0.03 0.02 0.01 0.02 0.02 0.01 0.05 0.13 0.15 0.12 0.34 0.66 1.09 1.17 0.88 0.90 0.92 0.81 0.63 0.47 0.41 0.45 0.43 0.30 0.27 0.21
0.00 0.00 0.00 0.00 0.01 0.01 0.01 0.01 0.01 0.01 0.02 0.02 0.01 0.01 0.02 0.02 0.02 0.02 0.01 0.02 0.02 0.02 0.01 0.04 0.14 0.22 0.26 0.36 0.61 0.82 1.10 1.15 1.17 1.11 1.23 1.14 0.63 0.40 0.34 0.33 0.22 0.21 0.21
0.01 0.01 0.01 0.01 0.01 0.01 0.02 0.02 0.02 0.01 0.01 0.01 0.02 0.03 0.02 0.02 0.02 0.02 0.02 0.02 0.02 0.02 0.01 0.03 0.13 0.26 0.36 0.53 0.69 0.78 0.87 0.85 0.92 0.77 0.59 0.47 0.43 0.34 0.33 0.34 0.19 0.19 0.17
0.03 0.03 0.04 0.05 0.05 0.04 0.05 0.05 0.05 0.04 0.05 0.04 0.04 0.03 0.03 0.03 0.03 0.03 0.03 0.03 0.03 0.02 0.01 0.02 0.09 0.23 0.33 0.48 0.61 0.76 0.77 0.73 0.56 0.30 0.24 0.33 0.32 0.28 0.28 0.30 0.20 0.18 0.15

GFSGL_prec_precacc_087.txt.gz
Total_Precipitation_Accumulation
0.00 0.00 0.02 0.03 0.04 0.05 0.06 0.06 0.04 0.03 0.04 0.03 0.03 0.04 0.04 0.03 0.02 0.02 0.03 0.03 0.06 0.11 0.16 0.20 0.21 0.22 0.28 0.34 0.42 0.48 0.55 0.71 0.80 0.56 0.48 0.40 0.31 0.18 0.11 0.15 0.13 0.11 0.09
0.00 0.01 0.03 0.03 0.03 0.04 0.06 0.06 0.05 0.05 0.03 0.02 0.01 0.01 0.01 0.01 0.00 0.01 0.01 0.02 0.02 0.03 0.04 0.06 0.10 0.12 0.18 0.26 0.31 0.35 0.41 0.43 0.49 0.35 0.15 0.13 0.12 0.09 0.06 0.08 0.09 0.11 0.11
0.01 0.01 0.02 0.03 0.04 0.05 0.04 0.04 0.03 0.02 0.02 0.02 0.02 0.01 0.01 0.00 0.00 0.00 0.00 0.01 0.03 0.04 0.06 0.09 0.14 0.21 0.27 0.32 0.39 0.41 0.38 0.36 0.38 0.41 0.19 0.10 0.09 0.07 0.08 0.10 0.12 0.12 0.12
0.03 0.03 0.04 0.05 0.05 0.04 0.05 0.05 0.03 0.03 0.02 0.02 0.02 0.01 0.01 0.02 0.03 0.04 0.05 0.08 0.10 0.12 0.15 0.18 0.23 0.26 0.26 0.24 0.23 0.23 0.25 0.26 0.27 0.30 0.31 0.25 0.16 0.14 0.18 0.14 0.12 0.11 0.13
0.07 0.05 0.05 0.05 0.05 0.04 0.04 0.05 0.05 0.04 0.04 0.04 0.03 0.02 0.04 0.08 0.12 0.16 0.19 0.23 0.29 0.34 0.37 0.35 0.31 0.28 0.21 0.13 0.16 0.17 0.23 0.25 0.35 0.52 0.51 0.44 0.41 0.33 0.26 0.26 0.37 0.38 0.39
0.11 0.06 0.04 0.02 0.05 0.05 0.06 0.06 0.07 0.14 0.12 0.10 0.13 0.17 0.18 0.18 0.30 0.24 0.20 0.22 0.25 0.24 0.22 0.21 0.22 0.24 0.19 0.16 0.16 0.18 0.18 0.33 0.50 0.65 0.65 0.55 0.40 0.40 0.42 0.51 0.66 0.78 0.74
0.08 0.06 0.05 0.03 0.04 0.07 0.09 0.16 0.21 0.27 0.56 0.55 0.56 0.41 0.43 0.49 0.53 0.42 0.40 0.41 0.40 0.36 0.33 0.29 0.20 0.14 0.12 0.09 0.06 0.09 0.18 0.35 0.40 0.29 0.24 0.25 0.34 0.31 0.52 0.66 0.62 0.64 0.54
0.10 0.15 0.16 0.14 0.17 0.20 0.33 0.45 0.48 0.47 0.48 0.55 0.89 0.94 0.94 0.90 0.78 0.56 0.38 0.29 0.20 0.16 0.12 0.08 0.04 0.03 0.03 0.04 0.09 0.29 0.26 0.13 0.04 0.06 0.08 0.11 0.24 0.40 0.59 0.84 0.83 0.88 0.68
0.22 0.25 0.36 0.31 0.28 0.26 0.40 0.50 0.37 0.51 0.67 0.62 0.54 0.44 0.36 0.29 0.20 0.14 0.11 0.11 0.09 0.06 0.02 0.01 0.04 0.03 0.02 0.11 0.27 0.32 0.07 0.01 0.02 0.05 0.15 0.18 0.20 0.21 0.28 0.62 0.85 0.83 0.77
0.33 0.31 0.30 0.48 0.40 0.48 0.44 0.49 0.75 0.60 0.54 0.44 0.34 0.23 0.16 0.10 0.07 0.04 0.01 0.02 0.01 0.00 0.02 0.02 0.02 0.03 0.07 0.32 0.19 0.05 0.08 0.04 0.14 0.11 0.03 0.02 0.04 0.11 0.23 0.32 0.72 1.39 0.99
0.58 0.60 0.65 0.78 0.67 0.61 0.66 0.57 0.50 0.37 0.26 0.20 0.12 0.06 0.03 0.02 0.00 0.00 0.00 0.02 0.02 0.09 0.08 0.02 0.00 0.08 0.28 0.15 0.05 0.03 0.08 0.11 0.12 0.05 0.02 0.02 0.04 0.07 0.14 0.24 0.58 1.48 1.77
0.67 0.59 0.57 0.49 0.44 0.35 0.27 0.18 0.10 0.09 0.05 0.03 0.01 0.00 0.00 0.00 0.00 0.00 0.01 0.03 0.07 0.08 0.05 0.03 0.08 0.22 0.07 0.02 0.02 0.04 0.08 0.08 0.03 0.02 0.04 0.05 0.08 0.16 0.24 0.33 0.43 0.61 0.85
0.16 0.13 0.13 0.08 0.05 0.03 0.00 0.00 0.00 0.00 0.00 0.00 0.00 0.00 0.00 0.00 0.00 0.00 0.00 0.07 0.09 0.08 0.06 0.17 0.16 0.03 0.01 0.01 0.02 0.04 0.04 0.02 0.07 0.17 0.19 0.19 0.23 0.35 0.38 0.40 0.47 0.48 0.52
0.01 0.01 0.00 0.00 0.01 0.00 0.00 0.00 0.00 0.00 0.00 0.00 0.00 0.00 0.00 0.00 0.00 0.00 0.03 0.05 0.04 0.09 0.18 0.16 0.02 0.01 0.02 0.02 0.01 0.02 0.02 0.07 0.18 0.33 0.35 0.23 0.30 0.41 0.42 0.55 0.76 0.65 0.87
0.00 0.00 0.00 0.00 0.01 0.00 0.00 0.00 0.00 0.00 0.00 0.00 0.00 0.01 0.01 0.01 0.01 0.05 0.07 0.06 0.11 0.18 0.08 0.01 0.00 0.01 0.01 0.01 0.00 0.01 0.02 0.06 0.17 0.20 0.33 0.34 0.37 0.47 0.53 0.68 0.92 1.05 1.06
0.00 0.00 0.00 0.00 0.00 0.00 0.00 0.00 0.00 0.00 0.00 0.00 0.00 0.01 0.01 0.02 0.04 0.05 0.04 0.13 0.17 0.07 0.01 0.01 0.02 0.03 0.02 0.02 0.03 0.04 0.04 0.08 0.16 0.31 0.32 0.35 0.50 0.61 0.72 0.86 1.07 1.11 0.97
0.00 0.00 0.00 0.00 0.00 0.00 0.00 0.00 0.00 0.00 0.00 0.00 0.00 0.01 0.01 0.02 0.02 0.02 0.10 0.15 0.03 0.01 0.01 0.04 0.04 0.03 0.03 0.05 0.08 0.13 0.16 0.14 0.32 0.49 0.57 0.60 0.68 0.75 0.84 0.96 0.97 0.86 0.68
0.00 0.00 0.00 0.00 0.00 0.00 0.00 0.00 0.00 0.00 0.00 0.00 0.00 0.00 0.01 0.01 0.01 0.05 0.09 0.03 0.00 0.01 0.05 0.05 0.04 0.04 0.05 0.12 0.18 0.28 0.32 0.30 0.44 0.55 0.69 0.69 0.75 0.97 0.99 0.96 0.84 0.74 0.64
0.00 0.00 0.00 0.00 0.00 0.00 0.00 0.00 0.00 0.00 0.00 0.00 0.00 0.00 0.00 0.00 0.04 0.07 0.02 0.01 0.02 0.05 0.05 0.03 0.03 0.04 0.09 0.17 0.23 0.30 0.39 0.60 0.81 0.93 0.80 0.80 0.83 1.11 0.96 0.75 0.60 0.41 0.31
0.00 0.00 0.00 0.00 0.00 0.00 0.00 0.00 0.00 0.00 0.00 0.01 0.01 0.00 0.00 0.03 0.11 0.01 0.00 0.01 0.04 0.05 0.03 0.04 0.04 0.05 0.12 0.20 0.28 0.33 0.47 0.51 0.62 0.66 0.73 0.80 0.89 0.97 0.87 0.57 0.34 0.33 0.22
0.00 0.00 0.00 0.00 0.00 0.00 0.00 0.00 0.00 0.01 0.02 0.01 0.00 0.00 0.04 0.05 0.03 0.01 0.01 0.03 0.03 0.04 0.04 0.05 0.06 0.09 0.14 0.20 0.29 0.38 0.55 0.60 0.65 0.84 0.82 0.80 0.82 0.69 0.34 0.26 0.23 0.26 0.32
0.00 0.00 0.00 0.00 0.01 0.00 0.00 0.00 0.01 0.01 0.01 0.01 0.01 0.01 0.03 0.01 0.01 0.02 0.03 0.02 0.01 0.02 0.03 0.07 0.09 0.11 0.28 0.50 0.66 0.69 0.60 0.64 0.70 0.85 0.76 0.63 0.52 0.30 0.24 0.24 0.21 0.25 0.27
0.00 0.00 0.00 0.00 0.01 0.03 0.03 0.01 0.01 0.01 0.01 0.01 0.02 0.02 0.01 0.01 0.02 0.03 0.02 0.01 0.02 0.02 0.01 0.05 0.13 0.15 0.12 0.34 0.66 1.09 1.17 0.88 0.90 0.92 0.81 0.63 0.47 0.41 0.45 0.43 0.31 0.27 0.21
0.00 0.00 0.00 0.01 0.01 0.03 0.03 0.02 0.01 0.01 0.02 0.02 0.01 0.01 0.02 0.02 0.02 0.02 0.01 0.02 0.02 0.02 0.01 0.04 0.14 0.22 0.26 0.36 0.61 0.82 1.10 1.15 1.17 1.11 1.23 1.14 0.63 0.40 0.34 0.34 0.22 0.22 0.21
0.01 0.01 0.01 0.01 0.01 0.02 0.02 0.03 0.03 0.02 0.02 0.02 0.02 0.03 0.02 0.02 0.02 0.02 0.02 0.02 0.02 0.02 0.01 0.03 0.13 0.26 0.36 0.53 0.69 0.78 0.87 0.85 0.92 0.77 0.59 0.47 0.43 0.34 0.34 0.34 0.19 0.19 0.17
0.03 0.04 0.04 0.06 0.06 0.06 0.07 0.07 0.07 0.07 0.08 0.07 0.07 0.06 0.04 0.03 0.03 0.03 0.03 0.03 0.03 0.02 0.01 0.02 0.09 0.23 0.33 0.48 0.61 0.76 0.77 0.73 0.56 0.30 0.24 0.34 0.32 0.29 0.28 0.30 0.20 0.18 0.15

GFSGL_prec_precacc_090.txt.gz
Total_Precipitation_Accumulation
0.00 0.00 0.02 0.03 0.04 0.05 0.06 0.06 0.04 0.03 0.04 0.03 0.03 0.04 0.04 0.03 0.02 0.02 0.03 0.04 0.07 0.11 0.16 0.20 0.21 0.22 0.28 0.34 0.42 0.48 0.55 0.71 0.80 0.56 0.48 0.40 0.31 0.18 0.11 0.15 0.13 0.11 0.09
0.00 0.01 0.03 0.03 0.03 0.04 0.06 0.06 0.05 0.05 0.03 0.02 0.01 0.01 0.01 0.01 0.00 0.01 0.01 0.02 0.02 0.03 0.04 0.06 0.10 0.12 0.18 0.26 0.31 0.35 0.41 0.43 0.49 0.35 0.15 0.13 0.12 0.09 0.06 0.08 0.09 0.11 0.11
0.01 0.01 0.02 0.03 0.04 0.05 0.04 0.04 0.03 0.02 0.02 0.02 0.02 0.01 0.01 0.00 0.00 0.00 0.00 0.01 0.03 0.04 0.06 0.09 0.14 0.21 0.27 0.32 0.39 0.41 0.38 0.36 0.38 0.41 0.19 0.10 0.09 0.07 0.08 0.10 0.12 0.12 0.12
0.03 0.03 0.04 0.05 0.05 0.04 0.05 0.05 0.03 0.03 0.02 0.02 0.02 0.01 0.01 0.02 0.03 0.04 0.05 0.08 0.10 0.12 0.15 0.18 0.23 0.26 0.26 0.24 0.23 0.23 0.25 0.26 0.27 0.30 0.31 0.25 0.16 0.14 0.18 0.14 0.12 0.11 0.13
0.07 0.05 0.05 0.05 0.05 0.04 0.04 0.05 0.05 0.04 0.04 0.04 0.03 0.02 0.04 0.08 0.12 0.16 0.19 0.23 0.29 0.34 0.37 0.35 0.31 0.28 0.21 0.13 0.16 0.17 0.23 0.25 0.35 0.52 0.51 0.44 0.41 0.33 0.26 0.26 0.37 0.38 0.39
0.11 0.06 0.04 0.02 0.05 0.05 0.06 0.06 0.07 0.14 0.12 0.10 0.13 0.17 0.18 0.18 0.30 0.24 0.20 0.22 0.25 0.24 0.22 0.21 0.22 0.24 0.19 0.16 0.16 0.18 0.18 0.33 0.50 0.65 0.65 0.55 0.40 0.40 0.42 0.51 0.66 0.78 0.74
0.08 0.06 0.05 0.03 0.04 0.07 0.09 0.16 0.21 0.27 0.56 0.55 0.56 0.41 0.43 0.49 0.54 0.42 0.40 0.41 0.40 0.36 0.33 0.29 0.20 0.14 0.12 0.09 0.06 0.09 0.18 0.35 0.40 0.29 0.24 0.25 0.34 0.31 0.52 0.66 0.62 0.64 0.54
0.10 0.15 0.16 0.14 0.17 0.20 0.33 0.45 0.48 0.47 0.48 0.55 0.89 0.94 0.94 0.91 0.78 0.57 0.38 0.29 0.20 0.16 0.12 0.08 0.04 0.03 0.03 0.04 0.09 0.29 0.26 0.13 0.04 0.06 0.08 0.11 0.24 0.40 0.59 0.84 0.83 0.88 0.68
0.22 0.25 0.36 0.31 0.28 0.26 0.40 0.50 0.37 0.51 0.67 0.62 0.54 0.44 0.36 0.30 0.20 0.14 0.11 0.11 0.09 0.06 0.02 0.01 0.04 0.03 0.02 0.11 0.27 0.32 0.07 0.01 0.02 0.05 0.15 0.18 0.20 0.21 0.28 0.62 0.85 0.83 0.77
0.33 0.31 0.30 0.48 0.40 0.48 0.44 0.49 0.75 0.60 0.54 0.44 0.34 0.23 0.16 0.10 0.07 0.04 0.01 0.02 0.01 0.00 0.02 0.02 0.02 0.03 0.07 0.32 0.19 0.05 0.08 0.04 0.14 0.11 0.03 0.02 0.04 0.11 0.23 0.32 0.72 1.39 0.99
0.58 0.60 0.65 0.78 0.67 0.61 0.66 0.57 0.50 0.37 0.26 0.20 0.12 0.06 0.03 0.02 0.00 0.00 0.00 0.02 0.02 0.09 0.08 0.02 0.00 0.08 0.28 0.15 0.05 0.03 0.08 0.11 0.12 0.05 0.02 0.02 0.04 0.07 0.14 0.24 0.58 1.48 1.77
0.67 0.59 0.57 0.49 0.44 0.35 0.27 0.18 0.10 0.09 0.05 0.03 0.01 0.00 0.00 0.00 0.00 0.00 0.01 0.03 0.07 0.08 0.05 0.03 0.08 0.22 0.07 0.02 0.02 0.04 0.08 0.08 0.03 0.02 0.04 0.05 0.08 0.16 0.24 0.33 0.43 0.61 0.85
0.16 0.13 0.13 0.08 0.05 0.03 0.00 0.00 0.00 0.00 0.00 0.00 0.00 0.00 0.00 0.00 0.00 0.00 0.00 0.07 0.09 0.08 0.06 0.17 0.16 0.03 0.01 0.01 0.02 0.04 0.04 0.02 0.07 0.17 0.19 0.19 0.23 0.35 0.38 0.40 0.47 0.48 0.52
0.01 0.01 0.00 0.00 0.01 0.00 0.00 0.00 0.00 0.00 0.00 0.00 0.00 0.00 0.00 0.00 0.00 0.00 0.03 0.05 0.04 0.09 0.18 0.16 0.02 0.01 0.02 0.02 0.01 0.02 0.02 0.07 0.18 0.33 0.35 0.23 0.30 0.41 0.42 0.55 0.76 0.66 0.87
0.00 0.00 0.00 0.00 0.01 0.00 0.00 0.00 0.00 0.00 0.00 0.00 0.00 0.01 0.01 0.01 0.01 0.05 0.07 0.06 0.11 0.18 0.08 0.01 0.00 0.01 0.01 0.01 0.00 0.01 0.02 0.06 0.17 0.20 0.33 0.34 0.37 0.47 0.53 0.68 0.92 1.06 1.06
0.00 0.00 0.00 0.00 0.00 0.00 0.00 0.00 0.00 0.00 0.00 0.00 0.00 0.01 0.01 0.02 0.04 0.05 0.04 0.13 0.17 0.07 0.01 0.01 0.02 0.03 0.02 0.02 0.03 0.04 0.04 0.08 0.16 0.31 0.32 0.35 0.50 0.61 0.73 0.87 1.08 1.12 0.97
0.00 0.00 0.00 0.00 0.00 0.00 0.00 0.00 0.00 0.00 0.00 0.00 0.00 0.01 0.01 0.02 0.02 0.02 0.10 0.15 0.03 0.01 0.01 0.04 0.04 0.03 0.03 0.05 0.08 0.13 0.16 0.14 0.32 0.49 0.57 0.60 0.68 0.76 0.84 0.96 0.97 0.86 0.68
0.00 0.00 0.00 0.00 0.00 0.00 0.00 0.00 0.00 0.00 0.00 0.00 0.00 0.00 0.01 0.01 0.01 0.05 0.09 0.03 0.00 0.01 0.05 0.05 0.04 0.04 0.05 0.12 0.18 0.28 0.32 0.30 0.44 0.55 0.69 0.69 0.75 0.98 0.99 0.96 0.84 0.75 0.64
0.01 0.00 0.00 0.00 0.00 0.00 0.00 0.00 0.00 0.00 0.00 0.00 0.00 0.00 0.00 0.00 0.04 0.07 0.02 0.01 0.02 0.05 0.05 0.03 0.03 0.04 0.09 0.17 0.23 0.30 0.39 0.60 0.81 0.93 0.80 0.80 0.83 1.11 0.97 0.75 0.60 0.41 0.31
0.00 0.01 0.00 0.00 0.00 0.00 0.00 0.00 0.00 0.00 0.00 0.01 0.01 0.00 0.00 0.03 0.11 0.01 0.00 0.01 0.04 0.05 0.03 0.04 0.04 0.05 0.12 0.20 0.28 0.33 0.47 0.51 0.62 0.66 0.73 0.80 0.89 0.97 0.87 0.57 0.34 0.33 0.22
0.01 0.01 0.02 0.00 0.01 0.01 0.01 0.00 0.00 0.01 0.02 0.01 0.00 0.00 0.04 0.05 0.03 0.01 0.01 0.03 0.03 0.04 0.04 0.05 0.06 0.09 0.14 0.20 0.29 0.38 0.55 0.60 0.65 0.84 0.82 0.80 0.82 0.69 0.34 0.26 0.23 0.26 0.32
0.00 0.00 0.00 0.00 0.03 0.05 0.04 0.03 0.01 0.01 0.01 0.01 0.01 0.01 0.03 0.01 0.01 0.02 0.03 0.02 0.01 0.02 0.03 0.07 0.09 0.11 0.28 0.50 0.66 0.69 0.60 0.64 0.70 0.85 0.76 0.63 0.52 0.30 0.24 0.24 0.21 0.25 0.27
0.00 0.00 0.00 0.00 0.02 0.06 0.09 0.07 0.04 0.03 0.01 0.01 0.02 0.02 0.01 0.01 0.02 0.03 0.02 0.01 0.02 0.02 0.01 0.05 0.13 0.15 0.12 0.34 0.66 1.09 1.17 0.88 0.90 0.92 0.81 0.63 0.47 0.41 0.45 0.43 0.31 0.27 0.21
0.00 0.00 0.00 0.01 0.01 0.03 0.05 0.05 0.06 0.07 0.07 0.05 0.02 0.02 0.02 0.02 0.02 0.02 0.01 0.02 0.02 0.02 0.01 0.04 0.14 0.22 0.26 0.36 0.61 0.82 1.10 1.15 1.17 1.11 1.23 1.14 0.63 0.40 0.34 0.34 0.22 0.22 0.22
0.01 0.01 0.01 0.01 0.02 0.03 0.03 0.06 0.06 0.06 0.08 0.09 0.07 0.07 0.04 0.03 0.02 0.02 0.02 0.02 0.02 0.02 0.01 0.03 0.13 0.26 0.36 0.53 0.69 0.78 0.87 0.85 0.92 0.77 0.59 0.47 0.43 0.34 0.34 0.34 0.19 0.19 0.17
0.04 0.04 0.05 0.06 0.07 0.07 0.08 0.09 0.09 0.10 0.12 0.12 0.13 0.12 0.09 0.07 0.05 0.03 0.03 0.03 0.03 0.02 0.01 0.03 0.09 0.23 0.33 0.48 0.61 0.76 0.77 0.73 0.56 0.30 0.24 0.34 0.32 0.29 0.28 0.30 0.20 0.19 0.15

GFSGL_prec_precacc_093.txt.gz
Total_Precipitation_Accumulation
0.00 0.00 0.02 0.03 0.04 0.05 0.06 0.06 0.04 0.03 0.04 0.03 0.03 0.04 0.04 0.03 0.02 0.02 0.03 0.04 0.07 0.12 0.17 0.21 0.22 0.22 0.28 0.34 0.42 0.48 0.55 0.71 0.80 0.56 0.48 0.40 0.31 0.18 0.11 0.15 0.13 0.11 0.09
0.00 0.01 0.03 0.03 0.03 0.04 0.06 0.06 0.05 0.05 0.03 0.02 0.01 0.01 0.01 0.01 0.00 0.01 0.01 0.02 0.02 0.03 0.04 0.06 0.10 0.12 0.18 0.26 0.31 0.35 0.41 0.43 0.49 0.35 0.15 0.13 0.12 0.09 0.06 0.08 0.09 0.11 0.11
0.01 0.01 0.02 0.03 0.04 0.05 0.04 0.04 0.03 0.02 0.02 0.02 0.02 0.01 0.01 0.00 0.00 0.00 0.00 0.01 0.03 0.04 0.06 0.09 0.14 0.21 0.27 0.32 0.39 0.41 0.38 0.36 0.38 0.41 0.19 0.10 0.09 0.07 0.08 0.10 0.12 0.12 0.12
0.03 0.03 0.04 0.05 0.05 0.04 0.05 0.05 0.03 0.03 0.02 0.02 0.02 0.01 0.01 0.02 0.03 0.04 0.05 0.08 0.10 0.12 0.15 0.18 0.23 0.26 0.26 0.24 0.23 0.23 0.25 0.26 0.27 0.30 0.31 0.25 0.16 0.14 0.18 0.14 0.12 0.11 0.13
0.07 0.05 0.05 0.05 0.05 0.04 0.04 0.05 0.05 0.04 0.04 0.04 0.03 0.02 0.04 0.08 0.12 0.16 0.19 0.23 0.29 0.34 0.37 0.35 0.31 0.28 0.21 0.13 0.16 0.17 0.23 0.25 0.35 0.52 0.51 0.44 0.41 0.33 0.26 0.26 0.37 0.38 0.39
0.11 0.06 0.04 0.02 0.05 0.05 0.06 0.06 0.07 0.14 0.12 0.10 0.13 0.17 0.18 0.18 0.30 0.24 0.20 0.22 0.25 0.24 0.22 0.21 0.22 0.24 0.19 0.16 0.16 0.18 0.18 0.33 0.50 0.65 0.65 0.55 0.40 0.40 0.42 0.51 0.66 0.78 0.74
0.08 0.06 0.05 0.03 0.04 0.07 0.09 0.16 0.21 0.27 0.56 0.55 0.56 0.41 0.43 0.49 0.54 0.42 0.40 0.41 0.40 0.36 0.33 0.29 0.20 0.14 0.12 0.09 0.06 0.09 0.18 0.35 0.40 0.29 0.24 0.25 0.34 0.31 0.52 0.66 0.62 0.64 0.54
0.10 0.15 0.16 0.14 0.17 0.20 0.33 0.45 0.48 0.47 0.48 0.55 0.89 0.94 0.94 0.91 0.79 0.57 0.39 0.29 0.20 0.16 0.12 0.08 0.04 0.03 0.03 0.04 0.09 0.29 0.26 0.13 0.04 0.06 0.08 0.11 0.24 0.40 0.59 0.84 0.83 0.88 0.68
0.22 0.25 0.36 0.31 0.28 0.26 0.40 0.50 0.37 0.51 0.67 0.62 0.54 0.44 0.36 0.30 0.21 0.14 0.11 0.11 0.09 0.06 0.02 0.01 0.04 0.03 0.02 0.11 0.27 0.32 0.07 0.01 0.02 0.05 0.15 0.18 0.20 0.21 0.28 0.62 0.85 0.83 0.77
0.33 0.31 0.30 0.48 0.40 0.48 0.44 0.49 0.75 0.60 0.54 0.44 0.34 0.23 0.16 0.10 0.07 0.04 0.01 0.02 0.01 0.00 0.02 0.02 0.02 0.03 0.07 0.32 0.19 0.05 0.08 0.04 0.14 0.11 0.03 0.02 0.04 0.11 0.23 0.32 0.72 1.39 0.99
0.58 0.60 0.65 0.78 0.67 0.61 0.66 0.57 0.50 0.37 0.26 0.20 0.12 0.06 0.03 0.02 0.00 0.00 0.00 0.02 0.02 0.09 0.08 0.02 0.00 0.08 0.28 0.15 0.05 0.03 0.08 0.11 0.12 0.05 0.02 0.02 0.04 0.07 0.14 0.24 0.58 1.48 1.77
0.67 0.59 0.57 0.49 0.44 0.35 0.27 0.18 0.10 0.09 0.05 0.03 0.01 0.00 0.00 0.00 0.00 0.00 0.01 0.03 0.07 0.08 0.05 0.03 0.08 0.22 0.07 0.02 0.02 0.04 0.08 0.08 0.03 0.02 0.04 0.05 0.08 0.16 0.24 0.33 0.43 0.61 0.85
0.16 0.13 0.13 0.08 0.05 0.03 0.00 0.00 0.00 0.00 0.00 0.00 0.00 0.00 0.00 0.00 0.00 0.00 0.00 0.07 0.09 0.08 0.06 0.17 0.16 0.03 0.01 0.01 0.02 0.04 0.04 0.02 0.07 0.17 0.19 0.19 0.23 0.35 0.38 0.40 0.47 0.48 0.52
0.01 0.01 0.00 0.00 0.01 0.00 0.00 0.00 0.00 0.00 0.00 0.00 0.00 0.00 0.00 0.00 0.00 0.00 0.03 0.05 0.04 0.09 0.18 0.16 0.02 0.01 0.02 0.02 0.01 0.02 0.02 0.07 0.18 0.33 0.35 0.23 0.30 0.41 0.42 0.55 0.76 0.66 0.87
0.00 0.00 0.00 0.00 0.01 0.00 0.00 0.00 0.00 0.00 0.00 0.00 0.00 0.01 0.01 0.01 0.01 0.05 0.07 0.06 0.11 0.18 0.08 0.01 0.00 0.01 0.01 0.01 0.00 0.01 0.02 0.06 0.17 0.20 0.33 0.34 0.37 0.47 0.53 0.68 0.92 1.06 1.06
0.00 0.00 0.00 0.00 0.00 0.00 0.00 0.01 0.00 0.00 0.00 0.00 0.00 0.01 0.01 0.02 0.04 0.05 0.04 0.13 0.17 0.07 0.01 0.01 0.02 0.03 0.02 0.02 0.03 0.04 0.04 0.08 0.16 0.31 0.32 0.35 0.50 0.61 0.73 0.87 1.08 1.12 0.97
0.00 0.00 0.00 0.00 0.00 0.00 0.01 0.01 0.01 0.01 0.00 0.00 0.00 0.01 0.01 0.02 0.02 0.02 0.10 0.15 0.03 0.01 0.01 0.04 0.04 0.03 0.03 0.05 0.08 0.13 0.16 0.14 0.32 0.49 0.57 0.60 0.68 0.76 0.84 0.96 0.97 0.86 0.68
0.00 0.01 0.00 0.00 0.00 0.00 0.00 0.01 0.01 0.01 0.00 0.00 0.00 0.00 0.01 0.01 0.01 0.05 0.09 0.03 0.00 0.01 0.05 0.05 0.04 0.04 0.05 0.12 0.18 0.28 0.32 0.30 0.44 0.55 0.69 0.69 0.75 0.98 0.99 0.96 0.84 0.75 0.64
0.01 0.01 0.01 0.00 0.00 0.00 0.00 0.01 0.01 0.01 0.00 0.00 0.00 0.00 0.00 0.00 0.04 0.07 0.02 0.01 0.02 0.05 0.05 0.03 0.03 0.04 0.09 0.17 0.23 0.30 0.39 0.60 0.81 0.93 0.80 0.80 0.83 1.11 0.97 0.75 0.60 0.41 0.31
0.01 0.04 0.02 0.01 0.02 0.01 0.01 0.01 0.01 0.02 0.02 0.01 0.01 0.00 0.00 0.03 0.11 0.01 0.00 0.01 0.04 0.05 0.03 0.04 0.04 0.05 0.12 0.20 0.28 0.33 0.47 0.51 0.62 0.66 0.73 0.80 0.89 0.97 0.87 0.57 0.34 0.33 0.22
0.01 0.02 0.04 0.01 0.02 0.04 0.04 0.02 0.01 0.03 0.04 0.03 0.01 0.01 0.04 0.05 0.03 0.01 0.01 0.03 0.03 0.04 0.04 0.05 0.06 0.09 0.14 0.20 0.29 0.38 0.55 0.60 0.65 0.84 0.82 0.80 0.82 0.69 0.34 0.26 0.23 0.26 0.32
0.00 0.00 0.00 0.00 0.03 0.06 0.07 0.08 0.06 0.03 0.02 0.02 0.01 0.02 0.03 0.01 0.01 0.02 0.03 0.02 0.01 0.02 0.03 0.07 0.09 0.11 0.28 0.50 0.66 0.69 0.60 0.64 0.70 0.85 0.76 0.63 0.52 0.30 0.24 0.24 0.21 0.25 0.27
0.00 0.00 0.00 0.00 0.02 0.07 0.11 0.08 0.07 0.06 0.04 0.03 0.03 0.03 0.01 0.01 0.02 0.03 0.02 0.01 0.02 0.02 0.01 0.05 0.13 0.15 0.12 0.34 0.66 1.09 1.17 0.88 0.90 0.92 0.81 0.63 0.47 0.41 0.45 0.43 0.31 0.27 0.21
0.00 0.00 0.00 0.01 0.01 0.04 0.05 0.06 0.06 0.09 0.11 0.10 0.07 0.05 0.04 0.03 0.02 0.02 0.02 0.02 0.02 0.02 0.01 0.04 0.14 0.22 0.26 0.36 0.61 0.82 1.10 1.15 1.17 1.11 1.23 1.14 0.63 0.40 0.34 0.34 0.22 0.22 0.22
0.01 0.01 0.01 0.01 0.02 0.03 0.04 0.06 0.07 0.06 0.09 0.12 0.11 0.11 0.10 0.09 0.05 0.02 0.02 0.02 0.03 0.02 0.01 0.03 0.13 0.26 0.36 0.53 0.69 0.78 0.87 0.85 0.92 0.77 0.59 0.47 0.43 0.34 0.34 0.34 0.19 0.19 0.17
0.04 0.04 0.05 0.07 0.08 0.07 0.09 0.09 0.10 0.11 0.12 0.13 0.14 0.14 0.12 0.12 0.09 0.06 0.05 0.04 0.03 0.02 0.01 0.03 0.09 0.23 0.33 0.48 0.61 0.76 0.77 0.73 0.56 0.30 0.24 0.34 0.32 0.29 0.28 0.30 0.20 0.19 0.15

GFSGL_prec_precacc_096.txt.gz
Total_Precipitation_Accumulation
0.00 0.00 0.02 0.03 0.04 0.05 0.06 0.06 0.04 0.03 0.04 0.03 0.03 0.04 0.04 0.03 0.02 0.02 0.03 0.04 0.07 0.12 0.17 0.21 0.23 0.23 0.29 0.34 0.42 0.48 0.55 0.71 0.80 0.56 0.48 0.40 0.31 0.18 0.11 0.15 0.13 0.11 0.09
0.00 0.01 0.03 0.03 0.03 0.04 0.06 0.06 0.05 0.05 0.03 0.02 0.01 0.01 0.01 0.01 0.00 0.01 0.01 0.02 0.03 0.03 0.04 0.06 0.10 0.13 0.18 0.26 0.31 0.35 0.41 0.43 0.49 0.35 0.15 0.13 0.12 0.09 0.06 0.08 0.09 0.11 0.11
0.01 0.01 0.02 0.03 0.04 0.05 0.04 0.04 0.03 0.02 0.02 0.02 0.02 0.01 0.01 0.00 0.00 0.00 0.00 0.01 0.03 0.04 0.07 0.09 0.14 0.21 0.27 0.32 0.39 0.41 0.38 0.36 0.38 0.41 0.19 0.10 0.09 0.07 0.08 0.10 0.12 0.12 0.12
0.03 0.03 0.04 0.05 0.05 0.04 0.05 0.05 0.03 0.03 0.02 0.02 0.02 0.01 0.01 0.02 0.03 0.04 0.05 0.08 0.10 0.12 0.15 0.18 0.23 0.26 0.26 0.24 0.23 0.23 0.25 0.26 0.27 0.30 0.31 0.25 0.16 0.14 0.18 0.14 0.12 0.11 0.13
0.07 0.05 0.05 0.05 0.05 0.04 0.04 0.05 0.05 0.04 0.04 0.04 0.03 0.02 0.04 0.08 0.12 0.16 0.19 0.23 0.29 0.34 0.37 0.35 0.31 0.28 0.21 0.13 0.16 0.17 0.23 0.25 0.35 0.52 0.51 0.44 0.41 0.33 0.26 0.26 0.37 0.38 0.39
0.11 0.06 0.04 0.02 0.05 0.05 0.06 0.06 0.07 0.14 0.12 0.10 0.13 0.17 0.18 0.18 0.30 0.24 0.20 0.22 0.25 0.24 0.22 0.21 0.22 0.24 0.19 0.16 0.16 0.18 0.18 0.33 0.50 0.65 0.65 0.55 0.40 0.40 0.42 0.51 0.66 0.78 0.74
0.08 0.06 0.05 0.03 0.04 0.07 0.09 0.16 0.21 0.27 0.56 0.55 0.56 0.41 0.43 0.49 0.55 0.43 0.40 0.41 0.40 0.36 0.33 0.29 0.20 0.14 0.12 0.09 0.06 0.09 0.18 0.35 0.40 0.29 0.24 0.25 0.34 0.31 0.52 0.66 0.62 0.64 0.54
0.10 0.15 0.16 0.14 0.17 0.20 0.33 0.45 0.48 0.47 0.48 0.55 0.89 0.94 0.94 0.91 0.79 0.58 0.39 0.29 0.20 0.16 0.12 0.08 0.04 0.03 0.03 0.04 0.09 0.29 0.26 0.13 0.04 0.06 0.08 0.11 0.24 0.40 0.59 0.84 0.83 0.88 0.68
0.22 0.25 0.36 0.31 0.28 0.26 0.40 0.50 0.37 0.51 0.67 0.62 0.54 0.44 0.36 0.30 0.21 0.15 0.11 0.11 0.09 0.06 0.02 0.01 0.04 0.03 0.02 0.11 0.27 0.32 0.07 0.01 0.02 0.05 0.15 0.18 0.20 0.21 0.28 0.62 0.85 0.83 0.77
0.33 0.31 0.30 0.48 0.40 0.48 0.44 0.49 0.75 0.60 0.54 0.44 0.34 0.23 0.16 0.10 0.08 0.04 0.01 0.02 0.01 0.00 0.02 0.02 0.02 0.03 0.07 0.32 0.19 0.05 0.08 0.04 0.14 0.11 0.03 0.02 0.04 0.11 0.23 0.32 0.72 1.39 0.99
0.58 0.60 0.65 0.78 0.67 0.61 0.66 0.57 0.50 0.37 0.26 0.20 0.12 0.06 0.03 0.02 0.00 0.00 0.00 0.02 0.02 0.09 0.08 0.02 0.00 0.08 0.28 0.15 0.05 0.03 0.08 0.11 0.12 0.05 0.02 0.02 0.04 0.07 0.14 0.24 0.58 1.48 1.77
0.67 0.59 0.57 0.49 0.44 0.35 0.27 0.18 0.10 0.09 0.05 0.03 0.01 0.00 0.00 0.00 0.00 0.00 0.01 0.03 0.07 0.08 0.05 0.03 0.08 0.22 0.07 0.02 0.02 0.04 0.08 0.08 0.03 0.02 0.04 0.05 0.08 0.16 0.24 0.33 0.43 0.61 0.85
0.16 0.13 0.13 0.08 0.05 0.03 0.00 0.00 0.00 0.00 0.00 0.00 0.00 0.00 0.00 0.00 0.00 0.00 0.00 0.07 0.09 0.08 0.06 0.17 0.16 0.03 0.01 0.01 0.02 0.04 0.04 0.02 0.07 0.17 0.19 0.19 0.23 0.35 0.38 0.40 0.47 0.48 0.52
0.01 0.01 0.00 0.00 0.01 0.00 0.00 0.00 0.00 0.00 0.00 0.00 0.00 0.00 0.00 0.00 0.00 0.00 0.03 0.05 0.04 0.09 0.18 0.16 0.02 0.01 0.02 0.02 0.01 0.02 0.02 0.07 0.18 0.33 0.35 0.23 0.30 0.41 0.42 0.55 0.76 0.66 0.87
0.00 0.00 0.00 0.00 0.01 0.00 0.00 0.00 0.00 0.00 0.00 0.00 0.00 0.01 0.01 0.01 0.01 0.05 0.07 0.06 0.11 0.18 0.08 0.01 0.00 0.01 0.01 0.01 0.00 0.01 0.02 0.06 0.17 0.20 0.33 0.34 0.37 0.47 0.53 0.68 0.92 1.06 1.06
0.00 0.00 0.00 0.00 0.00 0.00 0.00 0.01 0.00 0.00 0.00 0.00 0.00 0.01 0.01 0.02 0.04 0.05 0.04 0.13 0.17 0.07 0.01 0.01 0.02 0.03 0.02 0.02 0.03 0.04 0.04 0.08 0.16 0.31 0.32 0.35 0.50 0.61 0.73 0.87 1.08 1.12 0.97
0.00 0.00 0.00 0.00 0.00 0.00 0.01 0.01 0.01 0.01 0.01 0.01 0.01 0.01 0.01 0.02 0.02 0.02 0.10 0.15 0.03 0.01 0.01 0.04 0.04 0.03 0.03 0.05 0.08 0.13 0.16 0.14 0.32 0.49 0.57 0.60 0.68 0.76 0.84 0.96 0.97 0.86 0.68
0.00 0.02 0.00 0.00 0.00 0.00 0.00 0.01 0.01 0.01 0.01 0.00 0.00 0.01 0.01 0.01 0.01 0.05 0.09 0.03 0.00 0.01 0.05 0.05 0.04 0.04 0.05 0.12 0.18 0.28 0.32 0.30 0.44 0.55 0.69 0.69 0.75 0.98 0.99 0.96 0.84 0.75 0.64
0.01 0.01 0.01 0.01 0.01 0.01 0.01 0.01 0.01 0.01 0.01 0.00 0.00 0.00 0.00 0.01 0.04 0.07 0.02 0.01 0.02 0.05 0.05 0.03 0.03 0.04 0.09 0.17 0.23 0.30 0.39 0.60 0.81 0.93 0.80 0.80 0.83 1.11 0.97 0.75 0.60 0.41 0.31
0.01 0.04 0.02 0.01 0.02 0.02 0.02 0.02 0.02 0.03 0.04 0.03 0.02 0.00 0.01 0.03 0.11 0.01 0.00 0.01 0.04 0.05 0.03 0.04 0.04 0.05 0.12 0.20 0.28 0.33 0.47 0.51 0.62 0.66 0.73 0.80 0.89 0.97 0.87 0.57 0.34 0.33 0.22
0.01 0.02 0.04 0.01 0.03 0.04 0.05 0.04 0.04 0.04 0.05 0.05 0.03 0.03 0.05 0.05 0.03 0.01 0.01 0.03 0.03 0.04 0.04 0.05 0.06 0.09 0.14 0.20 0.29 0.38 0.55 0.60 0.65 0.84 0.82 0.80 0.82 0.69 0.34 0.26 0.23 0.26 0.32
0.00 0.00 0.00 0.01 0.04 0.06 0.08 0.08 0.07 0.05 0.03 0.04 0.03 0.07 0.08 0.03 0.01 0.02 0.03 0.02 0.01 0.02 0.03 0.07 0.09 0.11 0.28 0.50 0.66 0.69 0.60 0.64 0.70 0.85 0.76 0.63 0.52 0.30 0.24 0.24 0.21 0.25 0.27
0.00 0.00 0.00 0.00 0.02 0.07 0.12 0.09 0.08 0.07 0.05 0.04 0.05 0.05 0.05 0.04 0.02 0.03 0.02 0.01 0.02 0.02 0.01 0.05 0.13 0.15 0.12 0.34 0.66 1.09 1.17 0.88 0.90 0.92 0.81 0.63 0.47 0.41 0.45 0.43 0.31 0.27 0.21
0.00 0.00 0.00 0.01 0.02 0.04 0.05 0.06 0.07 0.10 0.11 0.10 0.08 0.06 0.05 0.03 0.03 0.02 0.02 0.02 0.02 0.02 0.01 0.04 0.14 0.22 0.26 0.36 0.61 0.82 1.10 1.15 1.17 1.11 1.23 1.14 0.63 0.40 0.34 0.34 0.22 0.22 0.22
0.01 0.01 0.01 0.02 0.02 0.03 0.05 0.07 0.08 0.07 0.10 0.12 0.12 0.12 0.11 0.10 0.07 0.03 0.02 0.02 0.03 0.02 0.01 0.03 0.13 0.26 0.36 0.53 0.69 0.78 0.87 0.85 0.92 0.77 0.59 0.47 0.43 0.34 0.34 0.34 0.19 0.19 0.17
0.04 0.04 0.05 0.07 0.08 0.08 0.10 0.10 0.11 0.12 0.13 0.14 0.15 0.15 0.14 0.14 0.11 0.08 0.07 0.07 0.06 0.03 0.02 0.03 0.10 0.23 0.33 0.48 0.61 0.76 0.77 0.73 0.56 0.30 0.24 0.34 0.32 0.29 0.28 0.30 0.20 0.19 0.15

GFSGL_prec_precacc_099.txt.gz
Total_Precipitation_Accumulation
0.00 0.00 0.02 0.03 0.04 0.05 0.06 0.06 0.04 0.03 0.04 0.03 0.03 0.04 0.04 0.03 0.02 0.02 0.03 0.04 0.07 0.12 0.17 0.22 0.23 0.23 0.29 0.35 0.42 0.48 0.55 0.71 0.80 0.56 0.48 0.40 0.31 0.18 0.11 0.15 0.13 0.11 0.09
0.00 0.01 0.03 0.03 0.04 0.04 0.06 0.06 0.05 0.05 0.03 0.02 0.01 0.01 0.01 0.01 0.00 0.01 0.01 0.02 0.03 0.03 0.04 0.06 0.10 0.13 0.18 0.27 0.32 0.35 0.41 0.43 0.49 0.35 0.15 0.13 0.12 0.09 0.06 0.08 0.09 0.11 0.11
0.01 0.01 0.02 0.03 0.04 0.05 0.04 0.04 0.03 0.02 0.02 0.02 0.02 0.01 0.01 0.00 0.00 0.00 0.00 0.01 0.03 0.04 0.07 0.10 0.14 0.21 0.27 0.32 0.39 0.41 0.38 0.36 0.38 0.41 0.19 0.10 0.09 0.07 0.08 0.10 0.12 0.12 0.12
0.03 0.03 0.04 0.05 0.05 0.04 0.05 0.05 0.03 0.03 0.02 0.02 0.02 0.01 0.01 0.02 0.03 0.04 0.05 0.08 0.10 0.12 0.15 0.18 0.23 0.26 0.26 0.24 0.23 0.23 0.25 0.26 0.27 0.30 0.31 0.25 0.16 0.14 0.18 0.14 0.12 0.11 0.13
0.07 0.05 0.05 0.05 0.05 0.04 0.04 0.05 0.05 0.04 0.04 0.04 0.03 0.02 0.04 0.08 0.12 0.16 0.19 0.23 0.29 0.34 0.37 0.35 0.31 0.28 0.21 0.13 0.16 0.17 0.23 0.25 0.35 0.52 0.51 0.44 0.41 0.33 0.26 0.26 0.37 0.38 0.39
0.11 0.06 0.04 0.02 0.05 0.05 0.06 0.06 0.07 0.14 0.12 0.10 0.13 0.17 0.18 0.18 0.30 0.24 0.20 0.22 0.25 0.24 0.22 0.21 0.22 0.24 0.19 0.16 0.16 0.18 0.18 0.33 0.50 0.65 0.65 0.55 0.40 0.40 0.42 0.51 0.66 0.78 0.74
0.08 0.06 0.05 0.03 0.04 0.07 0.09 0.16 0.21 0.27 0.56 0.55 0.56 0.41 0.43 0.49 0.55 0.43 0.40 0.41 0.40 0.36 0.33 0.29 0.20 0.14 0.12 0.09 0.06 0.09 0.18 0.35 0.40 0.29 0.24 0.25 0.34 0.31 0.52 0.66 0.62 0.64 0.54
0.10 0.15 0.16 0.14 0.17 0.20 0.33 0.45 0.48 0.47 0.48 0.55 0.89 0.94 0.94 0.91 0.79 0.58 0.39 0.29 0.20 0.16 0.12 0.08 0.04 0.03 0.03 0.04 0.09 0.29 0.26 0.13 0.04 0.06 0.08 0.11 0.24 0.40 0.59 0.84 0.83 0.88 0.68
0.22 0.25 0.36 0.31 0.28 0.26 0.40 0.50 0.37 0.51 0.67 0.62 0.54 0.44 0.36 0.30 0.21 0.15 0.12 0.11 0.09 0.06 0.02 0.01 0.04 0.03 0.02 0.11 0.27 0.32 0.07 0.01 0.02 0.05 0.15 0.18 0.20 0.21 0.28 0.62 0.85 0.83 0.77
0.33 0.31 0.30 0.48 0.40 0.48 0.44 0.49 0.75 0.60 0.54 0.44 0.34 0.23 0.16 0.10 0.08 0.04 0.01 0.02 0.01 0.00 0.02 0.02 0.02 0.03 0.07 0.32 0.19 0.05 0.08 0.04 0.14 0.11 0.03 0.02 0.04 0.11 0.23 0.32 0.72 1.39 0.99
0.58 0.60 0.65 0.78 0.67 0.61 0.66 0.57 0.50 0.37 0.26 0.20 0.12 0.06 0.03 0.02 0.00 0.00 0.00 0.02 0.02 0.09 0.08 0.02 0.00 0.08 0.28 0.15 0.05 0.03 0.08 0.11 0.12 0.05 0.02 0.02 0.04 0.07 0.14 0.24 0.58 1.48 1.77
0.67 0.59 0.57 0.49 0.44 0.35 0.27 0.18 0.10 0.09 0.05 0.03 0.01 0.00 0.00 0.00 0.00 0.00 0.01 0.03 0.07 0.08 0.05 0.03 0.08 0.22 0.07 0.02 0.02 0.04 0.08 0.08 0.03 0.02 0.04 0.05 0.08 0.16 0.24 0.33 0.43 0.61 0.85
0.16 0.13 0.13 0.08 0.05 0.03 0.00 0.00 0.00 0.00 0.00 0.00 0.00 0.00 0.00 0.00 0.00 0.00 0.00 0.07 0.09 0.08 0.06 0.17 0.16 0.03 0.01 0.01 0.02 0.04 0.04 0.02 0.07 0.17 0.19 0.19 0.23 0.35 0.38 0.40 0.47 0.48 0.52
0.01 0.01 0.00 0.00 0.01 0.00 0.00 0.00 0.00 0.00 0.00 0.00 0.00 0.00 0.00 0.00 0.00 0.00 0.03 0.05 0.04 0.09 0.18 0.16 0.02 0.01 0.02 0.02 0.01 0.02 0.02 0.07 0.18 0.33 0.35 0.23 0.30 0.41 0.42 0.55 0.76 0.66 0.87
0.00 0.00 0.00 0.00 0.01 0.00 0.00 0.00 0.00 0.00 0.00 0.00 0.00 0.01 0.01 0.01 0.01 0.05 0.07 0.06 0.11 0.18 0.08 0.01 0.00 0.01 0.01 0.01 0.00 0.01 0.02 0.06 0.17 0.20 0.33 0.34 0.37 0.47 0.53 0.68 0.92 1.06 1.06
0.00 0.00 0.00 0.00 0.00 0.00 0.00 0.01 0.00 0.00 0.00 0.00 0.00 0.01 0.01 0.02 0.04 0.05 0.04 0.13 0.17 0.07 0.01 0.01 0.02 0.03 0.02 0.02 0.03 0.04 0.04 0.08 0.16 0.31 0.32 0.35 0.50 0.61 0.73 0.87 1.08 1.12 0.97
0.00 0.00 0.00 0.00 0.00 0.00 0.01 0.01 0.01 0.01 0.01 0.01 0.01 0.02 0.02 0.02 0.02 0.02 0.10 0.15 0.03 0.01 0.01 0.04 0.04 0.03 0.03 0.05 0.08 0.13 0.16 0.14 0.32 0.49 0.57 0.60 0.68 0.76 0.84 0.96 0.97 0.86 0.68
0.00 0.02 0.00 0.00 0.00 0.00 0.01 0.01 0.01 0.01 0.01 0.00 0.01 0.02 0.02 0.02 0.01 0.05 0.09 0.03 0.00 0.01 0.05 0.05 0.04 0.04 0.05 0.12 0.18 0.28 0.32 0.30 0.44 0.55 0.69 0.69 0.75 0.98 0.99 0.96 0.84 0.75 0.64
0.01 0.01 0.01 0.01 0.01 0.01 0.01 0.01 0.01 0.01 0.01 0.00 0.00 0.01 0.01 0.03 0.05 0.07 0.02 0.01 0.02 0.05 0.05 0.03 0.03 0.04 0.09 0.17 0.23 0.30 0.39 0.60 0.81 0.93 0.80 0.80 0.83 1.11 0.97 0.75 0.60 0.41 0.31
0.01 0.04 0.02 0.01 0.02 0.03 0.02 0.03 0.03 0.04 0.04 0.03 0.02 0.01 0.02 0.05 0.12 0.02 0.00 0.01 0.04 0.05 0.03 0.04 0.04 0.05 0.12 0.20 0.28 0.33 0.47 0.51 0.62 0.66 0.73 0.80 0.89 0.97 0.87 0.57 0.34 0.33 0.22
0.01 0.02 0.05 0.01 0.03 0.04 0.05 0.05 0.05 0.05 0.06 0.05 0.03 0.04 0.08 0.08 0.03 0.01 0.01 0.03 0.03 0.04 0.04 0.05 0.06 0.09 0.14 0.20 0.29 0.38 0.55 0.60 0.65 0.84 0.82 0.80 0.82 0.69 0.34 0.26 0.23 0.26 0.32
0.00 0.00 0.00 0.01 0.04 0.07 0.08 0.10 0.08 0.06 0.04 0.04 0.03 0.07 0.12 0.06 0.01 0.02 0.03 0.02 0.01 0.02 0.03 0.07 0.09 0.11 0.28 0.50 0.66 0.69 0.60 0.64 0.70 0.85 0.76 0.63 0.52 0.30 0.24 0.24 0.21 0.25 0.27
0.00 0.00 0.01 0.01 0.03 0.09 0.13 0.10 0.09 0.08 0.06 0.05 0.05 0.06 0.06 0.06 0.04 0.04 0.02 0.01 0.02 0.02 0.01 0.05 0.13 0.15 0.12 0.34 0.66 1.09 1.17 0.88 0.90 0.92 0.81 0.63 0.47 0.41 0.45 0.43 0.31 0.27 0.21
0.00 0.00 0.01 0.01 0.03 0.06 0.06 0.07 0.08 0.12 0.14 0.12 0.08 0.07 0.05 0.04 0.04 0.03 0.03 0.03 0.04 0.04 0.03 0.05 0.14 0.22 0.26 0.36 0.61 0.82 1.10 1.15 1.17 1.11 1.23 1.14 0.63 0.40 0.34 0.34 0.22 0.22 0.22
0.01 0.01 0.01 0.02 0.03 0.04 0.06 0.08 0.09 0.09 0.12 0.14 0.13 0.14 0.12 0.11 0.08 0.03 0.02 0.03 0.04 0.03 0.02 0.04 0.15 0.27 0.36 0.53 0.69 0.78 0.87 0.85 0.92 0.77 0.59 0.47 0.43 0.34 0.34 0.34 0.19 0.19 0.17
0.04 0.04 0.05 0.07 0.08 0.08 0.10 0.11 0.11 0.12 0.14 0.15 0.16 0.16 0.15 0.15 0.11 0.08 0.08 0.08 0.07 0.04 0.02 0.04 0.10 0.24 0.35 0.51 0.63 0.77 0.77 0.73 0.56 0.30 0.24 0.34 0.32 0.29 0.28 0.30 0.20 0.19 0.15

GFSGL_prec_precacc_102.txt.gz
Total_Precipitation_Accumulation
0.00 0.01 0.02 0.03 0.04 0.05 0.06 0.06 0.04 0.03 0.04 0.03 0.03 0.04 0.04 0.03 0.02 0.02 0.03 0.04 0.07 0.12 0.17 0.22 0.23 0.23 0.29 0.35 0.43 0.49 0.56 0.72 0.81 0.56 0.48 0.40 0.31 0.18 0.11 0.15 0.13 0.11 0.09
0.00 0.01 0.03 0.03 0.04 0.04 0.06 0.06 0.05 0.05 0.03 0.02 0.01 0.01 0.01 0.01 0.00 0.01 0.01 0.02 0.03 0.03 0.04 0.06 0.10 0.13 0.19 0.27 0.32 0.35 0.41 0.43 0.49 0.35 0.15 0.13 0.12 0.09 0.06 0.08 0.09 0.11 0.11
0.01 0.01 0.02 0.03 0.04 0.05 0.04 0.04 0.03 0.02 0.02 0.02 0.02 0.01 0.01 0.00 0.00 0.00 0.00 0.01 0.03 0.04 0.07 0.10 0.15 0.21 0.27 0.32 0.39 0.41 0.38 0.36 0.38 0.41 0.20 0.10 0.09 0.07 0.08 0.10 0.12 0.12 0.12
0.03 0.03 0.04 0.05 0.05 0.04 0.05 0.05 0.03 0.03 0.02 0.02 0.02 0.01 0.01 0.02 0.03 0.04 0.05 0.08 0.10 0.12 0.15 0.18 0.23 0.26 0.26 0.25 0.23 0.24 0.25 0.26 0.27 0.30 0.31 0.25 0.16 0.14 0.18 0.14 0.12 0.11 0.13
0.07 0.05 0.05 0.05 0.05 0.04 0.04 0.05 0.05 0.04 0.04 0.04 0.03 0.02 0.04 0.08 0.12 0.16 0.19 0.23 0.29 0.34 0.37 0.35 0.31 0.28 0.21 0.14 0.16 0.17 0.23 0.25 0.35 0.52 0.51 0.44 0.41 0.33 0.26 0.26 0.37 0.38 0.39
0.11 0.06 0.04 0.02 0.05 0.05 0.06 0.06 0.07 0.14 0.12 0.10 0.13 0.17 0.18 0.18 0.30 0.24 0.20 0.22 0.25 0.24 0.22 0.21 0.22 0.24 0.19 0.16 0.17 0.18 0.18 0.33 0.50 0.65 0.65 0.55 0.40 0.40 0.42 0.51 0.66 0.78 0.74
0.08 0.06 0.05 0.03 0.04 0.07 0.09 0.16 0.21 0.27 0.56 0.55 0.56 0.41 0.43 0.49 0.55 0.43 0.40 0.41 0.40 0.36 0.33 0.29 0.20 0.14 0.12 0.09 0.06 0.09 0.18 0.35 0.40 0.29 0.24 0.25 0.34 0.31 0.52 0.66 0.62 0.64 0.54
0.10 0.15 0.16 0.14 0.17 0.20 0.33 0.45 0.48 0.47 0.48 0.55 0.89 0.94 0.94 0.91 0.79 0.58 0.39 0.29 0.20 0.16 0.12 0.08 0.04 0.03 0.03 0.04 0.09 0.29 0.26 0.13 0.04 0.06 0.08 0.11 0.24 0.40 0.59 0.84 0.83 0.88 0.68
0.22 0.25 0.36 0.31 0.28 0.26 0.40 0.50 0.37 0.51 0.67 0.62 0.54 0.44 0.36 0.30 0.21 0.15 0.12 0.11 0.09 0.06 0.02 0.01 0.04 0.03 0.02 0.11 0.27 0.32 0.07 0.01 0.02 0.05 0.15 0.18 0.20 0.21 0.28 0.62 0.85 0.83 0.77
0.33 0.31 0.30 0.48 0.40 0.48 0.44 0.49 0.75 0.60 0.54 0.44 0.34 0.23 0.16 0.10 0.08 0.04 0.01 0.02 0.01 0.00 0.02 0.02 0.02 0.03 0.07 0.32 0.19 0.05 0.08 0.04 0.14 0.11 0.03 0.02 0.04 0.11 0.23 0.32 0.72 1.39 0.99
0.58 0.60 0.65 0.78 0.67 0.61 0.66 0.57 0.50 0.37 0.26 0.20 0.12 0.06 0.03 0.02 0.00 0.00 0.00 0.02 0.02 0.09 0.08 0.02 0.00 0.09 0.28 0.15 0.05 0.03 0.08 0.11 0.12 0.05 0.02 0.02 0.04 0.07 0.14 0.24 0.58 1.48 1.77
0.67 0.59 0.57 0.49 0.44 0.35 0.27 0.18 0.10 0.09 0.05 0.03 0.01 0.00 0.00 0.00 0.00 0.00 0.01 0.03 0.07 0.08 0.05 0.03 0.08 0.22 0.07 0.02 0.02 0.04 0.08 0.08 0.03 0.02 0.04 0.05 0.08 0.16 0.24 0.33 0.43 0.61 0.85
0.16 0.13 0.13 0.08 0.05 0.03 0.00 0.00 0.00 0.00 0.00 0.00 0.00 0.00 0.00 0.00 0.00 0.00 0.01 0.07 0.09 0.08 0.06 0.17 0.16 0.03 0.01 0.01 0.02 0.04 0.04 0.02 0.07 0.17 0.19 0.19 0.23 0.35 0.38 0.40 0.47 0.48 0.52
0.01 0.01 0.00 0.00 0.01 0.00 0.00 0.00 0.00 0.00 0.00 0.00 0.00 0.00 0.00 0.00 0.00 0.00 0.03 0.05 0.04 0.09 0.18 0.16 0.02 0.01 0.02 0.02 0.01 0.02 0.02 0.07 0.18 0.33 0.35 0.23 0.30 0.41 0.42 0.55 0.76 0.66 0.87
0.00 0.00 0.00 0.00 0.01 0.00 0.00 0.00 0.00 0.00 0.00 0.00 0.00 0.01 0.01 0.01 0.01 0.05 0.07 0.06 0.11 0.18 0.08 0.01 0.00 0.01 0.01 0.01 0.00 0.01 0.02 0.06 0.17 0.20 0.33 0.34 0.37 0.47 0.53 0.68 0.92 1.06 1.06
0.00 0.00 0.00 0.00 0.00 0.00 0.00 0.01 0.01 0.01 0.01 0.00 0.00 0.01 0.01 0.02 0.04 0.05 0.04 0.13 0.17 0.07 0.01 0.01 0.02 0.03 0.02 0.02 0.03 0.04 0.04 0.08 0.16 0.31 0.32 0.35 0.50 0.61 0.73 0.87 1.08 1.12 0.97
0.00 0.00 0.00 0.00 0.00 0.00 0.01 0.01 0.01 0.02 0.02 0.02 0.01 0.02 0.02 0.03 0.02 0.02 0.11 0.15 0.03 0.01 0.01 0.04 0.04 0.03 0.04 0.05 0.08 0.13 0.16 0.14 0.32 0.49 0.57 0.60 0.68 0.76 0.84 0.96 0.97 0.86 0.68
0.00 0.02 0.00 0.00 0.00 0.00 0.01 0.01 0.02 0.01 0.01 0.01 0.01 0.02 0.03 0.03 0.02 0.05 0.10 0.03 0.00 0.01 0.05 0.06 0.04 0.04 0.05 0.12 0.18 0.28 0.32 0.30 0.44 0.55 0.69 0.69 0.75 0.98 0.99 0.96 0.84 0.75 0.64
0.01 0.01 0.01 0.01 0.01 0.02 0.01 0.01 0.02 0.02 0.01 0.00 0.00 0.01 0.01 0.04 0.07 0.08 0.02 0.01 0.03 0.05 0.05 0.03 0.03 0.04 0.09 0.17 0.23 0.30 0.39 0.60 0.81 0.93 0.80 0.80 0.83 1.11 0.97 0.75 0.60 0.41 0.31
0.01 0.04 0.02 0.01 0.03 0.04 0.03 0.03 0.04 0.05 0.05 0.03 0.02 0.01 0.03 0.06 0.12 0.02 0.00 0.01 0.04 0.05 0.03 0.04 0.04 0.05 0.12 0.20 0.28 0.33 0.47 0.51 0.62 0.66 0.73 0.80 0.89 0.97 0.87 0.57 0.34 0.33 0.22
0.01 0.03 0.05 0.01 0.03 0.05 0.05 0.06 0.06 0.07 0.07 0.06 0.04 0.04 0.10 0.10 0.04 0.01 0.01 0.03 0.03 0.04 0.04 0.05 0.06 0.09 0.14 0.20 0.29 0.38 0.55 0.60 0.65 0.84 0.82 0.80 0.82 0.69 0.34 0.26 0.23 0.26 0.32
0.00 0.00 0.00 0.01 0.04 0.07 0.09 0.10 0.09 0.07 0.05 0.05 0.04 0.08 0.14 0.07 0.01 0.03 0.04 0.03 0.02 0.03 0.03 0.07 0.09 0.11 0.28 0.50 0.66 0.69 0.60 0.64 0.70 0.85 0.76 0.63 0.52 0.30 0.24 0.24 0.21 0.25 0.27
0.00 0.00 0.01 0.02 0.04 0.11 0.15 0.11 0.11 0.10 0.07 0.06 0.06 0.06 0.06 0.07 0.05 0.04 0.03 0.02 0.04 0.04 0.03 0.06 0.14 0.15 0.12 0.34 0.66 1.09 1.17 0.88 0.90 0.92 0.81 0.63 0.47 0.41 0.45 0.43 0.31 0.27 0.21
0.00 0.00 0.01 0.01 0.03 0.06 0.07 0.08 0.09 0.14 0.15 0.13 0.09 0.07 0.06 0.04 0.05 0.04 0.03 0.04 0.05 0.05 0.04 0.07 0.16 0.23 0.27 0.36 0.61 0.82 1.10 1.15 1.17 1.11 1.23 1.14 0.63 0.40 0.34 0.34 0.22 0.22 0.22
0.01 0.01 0.01 0.02 0.03 0.04 0.06 0.09 0.09 0.09 0.12 0.14 0.14 0.14 0.12 0.12 0.08 0.04 0.03 0.04 0.04 0.04 0.03 0.06 0.17 0.29 0.38 0.55 0.71 0.79 0.87 0.86 0.92 0.77 0.59 0.47 0.43 0.34 0.34 0.34 0.19 0.19 0.17
0.04 0.04 0.05 0.07 0.08 0.08 0.10 0.11 0.11 0.12 0.14 0.15 0.16 0.17 0.15 0.16 0.12 0.09 0.08 0.08 0.08 0.05 0.03 0.04 0.11 0.25 0.37 0.54 0.66 0.80 0.80 0.77 0.60 0.31 0.24 0.34 0.32 0.29 0.28 0.30 0.20 0.19 0.15

GFSGL_prec_precacc_105.txt.gz
Total_Precipitation_Accumulation
0.02 0.02 0.04 0.03 0.04 0.05 0.06 0.06 0.04 0.03 0.04 0.03 0.03 0.04 0.04 0.03 0.02 0.02 0.03 0.04 0.07 0.12 0.17 0.22 0.23 0.24 0.29 0.35 0.43 0.49 0.56 0.72 0.82 0.57 0.49 0.41 0.31 0.18 0.11 0.15 0.13 0.11 0.09
0.02 0.03 0.04 0.03 0.04 0.04 0.06 0.06 0.05 0.05 0.03 0.02 0.01 0.01 0.01 0.01 0.00 0.01 0.01 0.02 0.03 0.03 0.04 0.06 0.10 0.13 0.19 0.27 0.32 0.35 0.41 0.43 0.49 0.35 0.16 0.15 0.12 0.09 0.06 0.08 0.09 0.11 0.11
0.01 0.01 0.02 0.03 0.04 0.05 0.04 0.04 0.03 0.02 0.02 0.02 0.02 0.01 0.01 0.00 0.00 0.00 0.00 0.01 0.03 0.04 0.07 0.10 0.15 0.21 0.27 0.32 0.39 0.41 0.38 0.36 0.39 0.42 0.21 0.12 0.10 0.08 0.08 0.10 0.12 0.12 0.12
0.03 0.03 0.04 0.05 0.05 0.04 0.05 0.05 0.03 0.03 0.02 0.02 0.02 0.01 0.01 0.02 0.03 0.04 0.05 0.08 0.10 0.12 0.15 0.18 0.23 0.26 0.26 0.25 0.24 0.24 0.26 0.27 0.28 0.31 0.31 0.25 0.16 0.14 0.18 0.14 0.12 0.11 0.13
0.07 0.05 0.05 0.05 0.05 0.04 0.04 0.05 0.05 0.04 0.04 0.04 0.03 0.02 0.04 0.08 0.12 0.16 0.19 0.23 0.29 0.34 0.37 0.35 0.31 0.28 0.22 0.14 0.16 0.17 0.24 0.26 0.36 0.52 0.51 0.44 0.41 0.33 0.26 0.26 0.37 0.38 0.39
0.11 0.06 0.04 0.02 0.05 0.05 0.06 0.06 0.07 0.14 0.12 0.10 0.13 0.17 0.18 0.18 0.30 0.24 0.20 0.22 0.25 0.24 0.22 0.21 0.22 0.24 0.19 0.16 0.17 0.18 0.19 0.33 0.50 0.65 0.65 0.55 0.40 0.40 0.42 0.51 0.66 0.78 0.74
0.08 0.06 0.05 0.03 0.04 0.07 0.09 0.16 0.21 0.27 0.56 0.55 0.56 0.41 0.43 0.49 0.55 0.43 0.40 0.41 0.40 0.36 0.33 0.29 0.20 0.14 0.12 0.09 0.06 0.09 0.18 0.35 0.40 0.29 0.24 0.25 0.34 0.31 0.52 0.66 0.62 0.64 0.54
0.10 0.15 0.16 0.14 0.17 0.20 0.33 0.45 0.48 0.47 0.48 0.55 0.89 0.94 0.94 0.91 0.79 0.58 0.39 0.29 0.20 0.16 0.12 0.08 0.04 0.04 0.03 0.05 0.09 0.29 0.26 0.13 0.04 0.06 0.08 0.11 0.24 0.40 0.59 0.84 0.83 0.88 0.68
0.22 0.25 0.36 0.31 0.28 0.26 0.40 0.50 0.37 0.51 0.67 0.62 0.54 0.44 0.36 0.30 0.21 0.15 0.12 0.11 0.09 0.06 0.02 0.01 0.04 0.03 0.03 0.12 0.27 0.32 0.07 0.01 0.02 0.05 0.15 0.18 0.20 0.21 0.28 0.62 0.85 0.83 0.77
0.33 0.31 0.30 0.48 0.40 0.48 0.44 0.49 0.75 0.60 0.54 0.44 0.34 0.23 0.16 0.10 0.08 0.04 0.01 0.02 0.01 0.00 0.02 0.02 0.04 0.03 0.08 0.33 0.19 0.05 0.08 0.04 0.14 0.11 0.03 0.02 0.04 0.11 0.23 0.32 0.72 1.39 0.99
0.58 0.60 0.65 0.78 0.67 0.61 0.66 0.57 0.50 0.37 0.26 0.20 0.12 0.06 0.03 0.02 0.00 0.00 0.01 0.02 0.02 0.09 0.08 0.02 0.01 0.10 0.28 0.15 0.05 0.03 0.08 0.11 0.12 0.05 0.02 0.02 0.04 0.07 0.14 0.24 0.58 1.48 1.77
0.67 0.59 0.57 0.49 0.44 0.35 0.27 0.18 0.10 0.09 0.05 0.03 0.01 0.00 0.00 0.00 0.00 0.00 0.01 0.03 0.07 0.08 0.05 0.03 0.08 0.22 0.08 0.02 0.02 0.04 0.08 0.08 0.03 0.02 0.04 0.05 0.08 0.16 0.24 0.33 0.43 0.61 0.85
0.16 0.13 0.13 0.08 0.05 0.03 0.00 0.00 0.00 0.00 0.00 0.00 0.00 0.00 0.00 0.00 0.00 0.00 0.01 0.07 0.09 0.08 0.06 0.17 0.16 0.03 0.01 0.01 0.02 0.04 0.04 0.02 0.07 0.17 0.19 0.19 0.23 0.35 0.38 0.40 0.47 0.48 0.52
0.01 0.01 0.00 0.00 0.01 0.00 0.00 0.00 0.00 0.00 0.00 0.00 0.00 0.00 0.00 0.00 0.00 0.00 0.03 0.05 0.04 0.09 0.18 0.16 0.02 0.01 0.02 0.02 0.01 0.02 0.02 0.07 0.18 0.33 0.35 0.23 0.30 0.41 0.42 0.55 0.76 0.66 0.87
0.00 0.00 0.00 0.00 0.01 0.00 0.00 0.00 0.00 0.00 0.00 0.00 0.00 0.01 0.01 0.01 0.01 0.05 0.07 0.06 0.11 0.18 0.08 0.01 0.00 0.01 0.01 0.01 0.00 0.01 0.02 0.06 0.17 0.20 0.33 0.34 0.37 0.47 0.53 0.68 0.92 1.06 1.06
0.00 0.00 0.00 0.00 0.00 0.00 0.00 0.01 0.01 0.01 0.01 0.00 0.00 0.01 0.01 0.02 0.04 0.05 0.04 0.13 0.17 0.07 0.01 0.01 0.02 0.03 0.02 0.02 0.03 0.04 0.04 0.08 0.16 0.31 0.32 0.35 0.50 0.61 0.73 0.87 1.08 1.12 0.97
0.00 0.00 0.00 0.00 0.00 0.00 0.01 0.01 0.01 0.02 0.03 0.02 0.02 0.02 0.03 0.03 0.02 0.02 0.11 0.16 0.04 0.01 0.01 0.04 0.04 0.03 0.04 0.05 0.08 0.14 0.16 0.14 0.32 0.49 0.57 0.60 0.68 0.76 0.84 0.96 0.97 0.86 0.68
0.00 0.02 0.00 0.00 0.00 0.00 0.01 0.01 0.02 0.01 0.01 0.01 0.01 0.03 0.03 0.03 0.02 0.06 0.10 0.04 0.00 0.01 0.05 0.06 0.04 0.04 0.05 0.12 0.18 0.28 0.32 0.30 0.44 0.55 0.69 0.69 0.75 0.98 0.99 0.96 0.84 0.75 0.64
0.01 0.01 0.01 0.01 0.01 0.02 0.01 0.01 0.02 0.02 0.01 0.00 0.00 0.02 0.02 0.04 0.07 0.09 0.03 0.01 0.03 0.05 0.05 0.03 0.03 0.04 0.09 0.17 0.23 0.30 0.39 0.60 0.81 0.93 0.80 0.80 0.83 1.11 0.97 0.75 0.60 0.41 0.31
0.01 0.04 0.02 0.01 0.03 0.04 0.03 0.04 0.05 0.06 0.05 0.04 0.02 0.02 0.03 0.07 0.12 0.02 0.01 0.01 0.04 0.05 0.03 0.04 0.04 0.05 0.12 0.20 0.28 0.33 0.47 0.51 0.62 0.66 0.73 0.80 0.89 0.97 0.87 0.57 0.34 0.33 0.22
0.01 0.03 0.07 0.02 0.03 0.05 0.05 0.06 0.06 0.07 0.07 0.06 0.04 0.05 0.11 0.10 0.04 0.01 0.01 0.03 0.03 0.04 0.04 0.05 0.06 0.09 0.14 0.20 0.29 0.38 0.55 0.60 0.65 0.84 0.82 0.80 0.82 0.69 0.34 0.26 0.23 0.26 0.32
0.00 0.00 0.01 0.01 0.04 0.07 0.09 0.10 0.09 0.08 0.05 0.05 0.04 0.08 0.15 0.07 0.02 0.03 0.04 0.03 0.02 0.03 0.03 0.07 0.09 0.11 0.28 0.50 0.66 0.69 0.60 0.64 0.70 0.85 0.76 0.63 0.52 0.30 0.24 0.24 0.21 0.25 0.27
0.00 0.00 0.01 0.02 0.04 0.11 0.15 0.12 0.12 0.11 0.08 0.06 0.06 0.06 0.07 0.07 0.05 0.05 0.04 0.02 0.04 0.04 0.03 0.07 0.14 0.15 0.12 0.34 0.66 1.09 1.17 0.88 0.90 0.92 0.81 0.63 0.47 0.41 0.45 0.43 0.31 0.27 0.21
0.00 0.00 0.01 0.01 0.03 0.06 0.07 0.08 0.09 0.15 0.16 0.13 0.10 0.08 0.06 0.05 0.05 0.05 0.05 0.05 0.07 0.06 0.05 0.09 0.17 0.24 0.27 0.37 0.61 0.82 1.10 1.15 1.17 1.11 1.23 1.14 0.63 0.40 0.34 0.34 0.22 0.22 0.22
0.01 0.01 0.01 0.02 0.03 0.04 0.06 0.09 0.09 0.09 0.12 0.14 0.14 0.15 0.13 0.13 0.09 0.05 0.03 0.05 0.06 0.06 0.04 0.07 0.18 0.31 0.40 0.58 0.74 0.81 0.88 0.87 0.94 0.78 0.60 0.47 0.43 0.34 0.34 0.34 0.19 0.19 0.17
0.04 0.04 0.05 0.07 0.08 0.08 0.10 0.11 0.11 0.12 0.14 0.15 0.16 0.17 0.15 0.16 0.12 0.09 0.09 0.09 0.08 0.06 0.04 0.05 0.12 0.26 0.39 0.56 0.69 0.83 0.84 0.80 0.66 0.38 0.29 0.36 0.33 0.29 0.28 0.30 0.20 0.19 0.16

GFSGL_prec_precacc_108.txt.gz
Total_Precipitation_Accumulation
0.02 0.03 0.04 0.04 0.05 0.06 0.06 0.06 0.04 0.03 0.04 0.03 0.03 0.04 0.04 0.03 0.02 0.02 0.03 0.04 0.07 0.12 0.17 0.22 0.23 0.24 0.29 0.35 0.43 0.49 0.57 0.75 0.85 0.59 0.51 0.43 0.32 0.19 0.12 0.15 0.13 0.11 0.09
0.03 0.04 0.05 0.04 0.05 0.05 0.06 0.06 0.05 0.05 0.03 0.02 0.01 0.01 0.01 0.01 0.00 0.01 0.01 0.02 0.03 0.03 0.04 0.06 0.10 0.13 0.19 0.27 0.32 0.36 0.41 0.43 0.50 0.36 0.17 0.16 0.14 0.10 0.08 0.09 0.09 0.11 0.11
0.02 0.02 0.03 0.03 0.04 0.05 0.04 0.04 0.03 0.02 0.02 0.02 0.02 0.01 0.01 0.00 0.00 0.00 0.00 0.01 0.03 0.04 0.07 0.10 0.15 0.21 0.27 0.32 0.39 0.41 0.39 0.37 0.39 0.43 0.21 0.12 0.11 0.10 0.10 0.11 0.12 0.12 0.12
0.03 0.03 0.04 0.05 0.05 0.04 0.05 0.05 0.03 0.03 0.02 0.02 0.02 0.01 0.01 0.02 0.03 0.04 0.05 0.08 0.10 0.12 0.15 0.18 0.23 0.26 0.26 0.25 0.24 0.24 0.27 0.28 0.28 0.31 0.32 0.26 0.17 0.15 0.18 0.15 0.12 0.11 0.13
0.07 0.05 0.05 0.05 0.05 0.04 0.04 0.05 0.05 0.04 0.04 0.04 0.03 0.02 0.04 0.08 0.12 0.16 0.19 0.23 0.29 0.34 0.37 0.35 0.31 0.28 0.22 0.14 0.16 0.17 0.24 0.26 0.37 0.53 0.52 0.44 0.42 0.34 0.27 0.27 0.37 0.38 0.39
0.11 0.06 0.04 0.02 0.05 0.05 0.06 0.06 0.07 0.14 0.12 0.10 0.13 0.17 0.18 0.18 0.30 0.24 0.20 0.22 0.25 0.24 0.22 0.21 0.22 0.24 0.19 0.16 0.17 0.18 0.19 0.33 0.50 0.65 0.65 0.55 0.40 0.40 0.42 0.51 0.66 0.78 0.74
0.08 0.06 0.05 0.03 0.04 0.07 0.09 0.16 0.21 0.27 0.56 0.55 0.56 0.41 0.43 0.49 0.55 0.43 0.40 0.41 0.40 0.36 0.33 0.29 0.20 0.14 0.12 0.09 0.06 0.09 0.19 0.35 0.41 0.29 0.24 0.25 0.34 0.31 0.52 0.66 0.62 0.64 0.54
0.10 0.15 0.16 0.14 0.17 0.20 0.33 0.45 0.48 0.47 0.48 0.55 0.89 0.94 0.94 0.91 0.79 0.58 0.40 0.29 0.20 0.16 0.12 0.08 0.04 0.04 0.04 0.05 0.09 0.29 0.26 0.13 0.04 0.06 0.08 0.11 0.24 0.40 0.59 0.84 0.83 0.88 0.68
0.22 0.25 0.36 0.31 0.28 0.26 0.40 0.50 0.37 0.51 0.67 0.62 0.54 0.44 0.36 0.30 0.21 0.15 0.12 0.11 0.09 0.06 0.02 0.01 0.04 0.03 0.04 0.12 0.27 0.32 0.07 0.01 0.02 0.05 0.15 0.18 0.20 0.21 0.28 0.62 0.85 0.83 0.77
0.33 0.31 0.30 0.48 0.40 0.48 0.44 0.49 0.75 0.60 0.54 0.44 0.34 0.23 0.16 0.10 0.08 0.04 0.01 0.02 0.01 0.00 0.02 0.02 0.04 0.03 0.09 0.33 0.19 0.05 0.08 0.04 0.14 0.11 0.03 0.02 0.04 0.11 0.23 0.32 0.72 1.39 0.99
0.58 0.60 0.65 0.78 0.67 0.61 0.66 0.57 0.50 0.37 0.26 0.20 0.12 0.06 0.03 0.02 0.00 0.00 0.01 0.02 0.02 0.09 0.08 0.02 0.01 0.11 0.29 0.16 0.05 0.03 0.08 0.11 0.12 0.05 0.02 0.02 0.04 0.07 0.14 0.24 0.58 1.48 1.77
0.67 0.59 0.57 0.49 0.44 0.35 0.27 0.18 0.10 0.09 0.05 0.03 0.01 0.00 0.00 0.00 0.00 0.00 0.01 0.03 0.07 0.08 0.05 0.03 0.08 0.22 0.08 0.02 0.02 0.05 0.08 0.08 0.03 0.02 0.04 0.05 0.08 0.16 0.24 0.33 0.43 0.61 0.85
0.16 0.13 0.13 0.08 0.05 0.03 0.00 0.00 0.00 0.00 0.00 0.00 0.00 0.00 0.00 0.00 0.00 0.00 0.01 0.07 0.09 0.08 0.06 0.17 0.16 0.03 0.01 0.01 0.02 0.04 0.04 0.02 0.07 0.17 0.19 0.19 0.23 0.35 0.38 0.40 0.47 0.48 0.52
0.01 0.01 0.00 0.00 0.01 0.00 0.00 0.00 0.00 0.00 0.00 0.00 0.00 0.00 0.00 0.00 0.00 0.00 0.03 0.05 0.05 0.09 0.18 0.16 0.02 0.01 0.02 0.02 0.01 0.02 0.02 0.07 0.18 0.33 0.35 0.23 0.30 0.41 0.42 0.55 0.76 0.66 0.87
0.00 0.00 0.00 0.00 0.01 0.00 0.00 0.00 0.00 0.00 0.00 0.00 0.00 0.01 0.01 0.01 0.01 0.05 0.07 0.06 0.11 0.18 0.08 0.01 0.00 0.01 0.01 0.01 0.00 0.01 0.02 0.06 0.17 0.20 0.33 0.34 0.37 0.47 0.53 0.68 0.92 1.06 1.06
0.00 0.00 0.00 0.00 0.00 0.00 0.00 0.01 0.01 0.01 0.01 0.00 0.00 0.01 0.01 0.02 0.04 0.05 0.04 0.13 0.17 0.07 0.01 0.01 0.02 0.03 0.02 0.02 0.03 0.04 0.04 0.08 0.16 0.31 0.32 0.35 0.50 0.61 0.73 0.87 1.08 1.12 0.97
0.00 0.00 0.00 0.00 0.00 0.00 0.01 0.01 0.01 0.02 0.03 0.02 0.02 0.02 0.03 0.03 0.03 0.02 0.11 0.16 0.04 0.01 0.02 0.04 0.04 0.03 0.04 0.05 0.08 0.14 0.16 0.14 0.32 0.49 0.57 0.60 0.68 0.76 0.84 0.96 0.97 0.86 0.68
0.00 0.02 0.00 0.00 0.00 0.00 0.01 0.01 0.02 0.01 0.01 0.01 0.01 0.03 0.03 0.03 0.02 0.06 0.11 0.04 0.00 0.01 0.05 0.06 0.04 0.04 0.05 0.12 0.18 0.28 0.32 0.30 0.44 0.55 0.69 0.69 0.75 0.98 0.99 0.97 0.84 0.75 0.64
0.01 0.01 0.01 0.01 0.01 0.02 0.01 0.01 0.02 0.02 0.01 0.00 0.00 0.02 0.03 0.04 0.07 0.09 0.04 0.01 0.03 0.05 0.05 0.03 0.03 0.04 0.09 0.17 0.23 0.30 0.39 0.60 0.81 0.93 0.80 0.80 0.83 1.11 0.97 0.75 0.60 0.41 0.31
0.01 0.05 0.03 0.01 0.03 0.04 0.04 0.04 0.05 0.06 0.05 0.04 0.03 0.02 0.05 0.08 0.12 0.02 0.01 0.01 0.04 0.05 0.03 0.04 0.04 0.05 0.12 0.20 0.28 0.33 0.47 0.51 0.62 0.66 0.73 0.80 0.89 0.97 0.87 0.57 0.34 0.33 0.22
0.01 0.03 0.07 0.02 0.03 0.05 0.06 0.07 0.07 0.08 0.09 0.08 0.05 0.07 0.13 0.11 0.04 0.01 0.01 0.03 0.03 0.04 0.04 0.05 0.06 0.09 0.14 0.20 0.29 0.38 0.55 0.60 0.65 0.84 0.82 0.80 0.82 0.69 0.34 0.26 0.23 0.26 0.32
0.00 0.00 0.01 0.01 0.05 0.07 0.10 0.11 0.10 0.10 0.07 0.06 0.04 0.09 0.16 0.08 0.02 0.03 0.04 0.03 0.02 0.04 0.03 0.08 0.09 0.11 0.29 0.51 0.66 0.69 0.60 0.64 0.70 0.85 0.76 0.63 0.52 0.30 0.24 0.24 0.21 0.25 0.27
0.00 0.00 0.01 0.02 0.04 0.11 0.16 0.13 0.13 0.13 0.10 0.08 0.08 0.07 0.08 0.09 0.07 0.07 0.05 0.03 0.06 0.06 0.05 0.09 0.15 0.15 0.12 0.34 0.67 1.10 1.17 0.88 0.90 0.92 0.81 0.63 0.47 0.41 0.45 0.43 0.31 0.27 0.21
0.00 0.00 0.01 0.01 0.03 0.06 0.07 0.08 0.09 0.15 0.16 0.13 0.10 0.08 0.07 0.05 0.06 0.06 0.06 0.07 0.08 0.07 0.07 0.11 0.19 0.25 0.29 0.39 0.63 0.84 1.11 1.16 1.18 1.12 1.23 1.14 0.63 0.40 0.34 0.34 0.22 0.22 0.22
0.01 0.01 0.01 0.02 0.03 0.04 0.06 0.09 0.09 0.09 0.12 0.14 0.14 0.15 0.13 0.13 0.09 0.05 0.04 0.05 0.07 0.07 0.05 0.08 0.19 0.31 0.41 0.59 0.76 0.83 0.91 0.89 0.99 0.83 0.63 0.49 0.44 0.35 0.34 0.34 0.19 0.19 0.17
0.04 0.04 0.05 0.07 0.08 0.08 0.10 0.11 0.11 0.12 0.14 0.15 0.16 0.17 0.15 0.16 0.12 0.09 0.09 0.09 0.09 0.06 0.04 0.06 0.13 0.27 0.40 0.57 0.70 0.85 0.87 0.82 0.69 0.44 0.37 0.42 0.36 0.31 0.30 0.31 0.21 0.20 0.16

GFSGL_prec_precacc_111.txt.gz
Total_Precipitation_Accumulation
0.03 0.04 0.06 0.06 0.08 0.10 0.09 0.07 0.04 0.03 0.04 0.03 0.03 0.04 0.04 0.03 0.02 0.02 0.03 0.04 0.07 0.12 0.17 0.22 0.23 0.24 0.29 0.35 0.43 0.49 0.57 0.75 0.86 0.59 0.52 0.44 0.33 0.20 0.14 0.16 0.15 0.11 0.10
0.03 0.04 0.06 0.05 0.06 0.06 0.07 0.06 0.05 0.05 0.03 0.02 0.01 0.01 0.01 0.01 0.00 0.01 0.01 0.02 0.03 0.03 0.04 0.06 0.10 0.13 0.19 0.27 0.32 0.36 0.41 0.43 0.50 0.36 0.17 0.16 0.14 0.10 0.08 0.10 0.10 0.12 0.12
0.02 0.03 0.03 0.04 0.04 0.05 0.05 0.04 0.03 0.02 0.02 0.02 0.02 0.01 0.01 0.00 0.00 0.00 0.00 0.01 0.03 0.04 0.07 0.10 0.15 0.21 0.27 0.32 0.39 0.41 0.39 0.37 0.40 0.43 0.22 0.13 0.13 0.12 0.11 0.12 0.12 0.12 0.13
0.03 0.04 0.05 0.06 0.06 0.05 0.05 0.05 0.03 0.03 0.02 0.02 0.02 0.01 0.01 0.02 0.03 0.04 0.05 0.08 0.10 0.12 0.15 0.18 0.23 0.26 0.26 0.25 0.24 0.24 0.27 0.28 0.29 0.32 0.33 0.27 0.18 0.16 0.19 0.15 0.12 0.11 0.13
0.07 0.05 0.05 0.06 0.05 0.04 0.04 0.05 0.05 0.04 0.04 0.04 0.03 0.02 0.04 0.08 0.12 0.16 0.19 0.23 0.29 0.34 0.37 0.35 0.31 0.28 0.22 0.14 0.16 0.17 0.24 0.26 0.37 0.54 0.54 0.46 0.44 0.36 0.28 0.28 0.38 0.39 0.40
0.11 0.06 0.04 0.02 0.05 0.05 0.06 0.06 0.07 0.14 0.12 0.10 0.13 0.17 0.18 0.18 0.30 0.24 0.20 0.22 0.25 0.24 0.22 0.21 0.22 0.24 0.19 0.16 0.17 0.18 0.19 0.33 0.50 0.65 0.65 0.55 0.40 0.41 0.42 0.51 0.67 0.78 0.74
0.08 0.06 0.05 0.03 0.04 0.07 0.09 0.16 0.21 0.27 0.56 0.55 0.56 0.41 0.43 0.49 0.55 0.43 0.40 0.41 0.40 0.36 0.33 0.29 0.20 0.14 0.12 0.09 0.06 0.10 0.19 0.35 0.41 0.29 0.24 0.25 0.34 0.31 0.52 0.66 0.62 0.64 0.54
0.11 0.15 0.16 0.14 0.17 0.20 0.33 0.45 0.48 0.47 0.48 0.55 0.89 0.94 0.94 0.91 0.79 0.58 0.40 0.29 0.20 0.16 0.12 0.08 0.04 0.04 0.04 0.05 0.09 0.29 0.26 0.13 0.04 0.06 0.08 0.11 0.24 0.40 0.59 0.84 0.83 0.88 0.68
0.22 0.25 0.36 0.31 0.28 0.26 0.40 0.50 0.37 0.51 0.67 0.62 0.54 0.44 0.36 0.30 0.21 0.15 0.12 0.11 0.09 0.06 0.02 0.01 0.04 0.03 0.04 0.12 0.27 0.32 0.07 0.01 0.02 0.06 0.16 0.18 0.20 0.21 0.28 0.62 0.85 0.83 0.77
0.33 0.31 0.30 0.48 0.40 0.48 0.44 0.49 0.75 0.60 0.54 0.44 0.34 0.23 0.16 0.10 0.08 0.04 0.01 0.02 0.01 0.00 0.02 0.02 0.04 0.03 0.09 0.33 0.19 0.05 0.08 0.04 0.14 0.11 0.03 0.02 0.04 0.11 0.23 0.32 0.72 1.39 0.99
0.58 0.60 0.65 0.78 0.67 0.61 0.66 0.57 0.50 0.37 0.26 0.20 0.12 0.06 0.03 0.02 0.00 0.00 0.01 0.02 0.02 0.09 0.08 0.02 0.01 0.11 0.29 0.16 0.05 0.03 0.08 0.11 0.12 0.05 0.02 0.02 0.04 0.07 0.14 0.24 0.58 1.48 1.77
0.67 0.59 0.57 0.49 0.44 0.35 0.27 0.18 0.10 0.09 0.05 0.03 0.01 0.00 0.00 0.00 0.00 0.00 0.01 0.03 0.07 0.08 0.05 0.03 0.08 0.22 0.08 0.02 0.02 0.05 0.08 0.08 0.03 0.02 0.04 0.05 0.08 0.16 0.24 0.33 0.43 0.61 0.85
0.16 0.13 0.13 0.08 0.05 0.03 0.00 0.00 0.00 0.00 0.00 0.00 0.00 0.00 0.00 0.00 0.00 0.00 0.01 0.07 0.09 0.08 0.06 0.17 0.16 0.03 0.01 0.01 0.02 0.04 0.04 0.02 0.07 0.17 0.19 0.19 0.23 0.35 0.38 0.40 0.47 0.48 0.52
0.02 0.01 0.00 0.00 0.01 0.00 0.00 0.00 0.00 0.00 0.00 0.00 0.00 0.00 0.00 0.00 0.00 0.00 0.03 0.05 0.05 0.09 0.18 0.16 0.02 0.01 0.02 0.02 0.01 0.02 0.02 0.07 0.18 0.33 0.35 0.23 0.30 0.41 0.42 0.55 0.76 0.66 0.87
0.01 0.02 0.03 0.02 0.02 0.00 0.00 0.00 0.00 0.00 0.00 0.00 0.00 0.01 0.01 0.01 0.01 0.05 0.07 0.06 0.11 0.18 0.08 0.01 0.00 0.01 0.01 0.01 0.00 0.01 0.02 0.06 0.17 0.20 0.33 0.34 0.37 0.47 0.53 0.68 0.92 1.06 1.06
0.00 0.00 0.02 0.03 0.02 0.03 0.02 0.01 0.01 0.01 0.01 0.00 0.00 0.01 0.01 0.02 0.04 0.05 0.04 0.13 0.17 0.07 0.01 0.01 0.02 0.03 0.02 0.02 0.03 0.04 0.04 0.08 0.16 0.31 0.32 0.35 0.50 0.61 0.73 0.87 1.08 1.12 0.97
0.00 0.00 0.00 0.01 0.00 0.00 0.01 0.01 0.01 0.02 0.03 0.02 0.02 0.02 0.03 0.03 0.03 0.02 0.11 0.16 0.04 0.01 0.02 0.04 0.04 0.03 0.04 0.05 0.08 0.14 0.16 0.14 0.32 0.49 0.57 0.60 0.68 0.76 0.84 0.96 0.97 0.86 0.68
0.00 0.02 0.00 0.00 0.00 0.00 0.01 0.01 0.02 0.01 0.01 0.01 0.01 0.03 0.03 0.03 0.02 0.06 0.11 0.05 0.00 0.01 0.05 0.06 0.04 0.04 0.05 0.12 0.18 0.28 0.32 0.30 0.44 0.55 0.69 0.69 0.75 0.98 0.99 0.97 0.84 0.75 0.64
0.01 0.01 0.01 0.01 0.01 0.02 0.01 0.01 0.02 0.02 0.01 0.00 0.00 0.03 0.04 0.06 0.08 0.10 0.05 0.01 0.03 0.05 0.05 0.03 0.03 0.04 0.09 0.17 0.23 0.30 0.39 0.60 0.81 0.93 0.80 0.80 0.83 1.11 0.97 0.75 0.60 0.41 0.31
0.01 0.05 0.03 0.01 0.03 0.04 0.04 0.04 0.05 0.06 0.06 0.04 0.03 0.03 0.07 0.12 0.13 0.02 0.01 0.02 0.04 0.05 0.03 0.04 0.04 0.05 0.12 0.20 0.28 0.33 0.47 0.51 0.62 0.66 0.73 0.80 0.89 0.97 0.87 0.57 0.34 0.33 0.22
0.01 0.03 0.07 0.02 0.03 0.05 0.06 0.07 0.08 0.09 0.10 0.09 0.06 0.11 0.17 0.13 0.05 0.02 0.02 0.03 0.04 0.04 0.05 0.05 0.06 0.09 0.14 0.21 0.30 0.38 0.55 0.60 0.65 0.84 0.82 0.80 0.82 0.69 0.34 0.26 0.23 0.26 0.32
0.00 0.00 0.01 0.01 0.05 0.07 0.10 0.11 0.11 0.11 0.09 0.08 0.07 0.13 0.20 0.10 0.04 0.05 0.05 0.04 0.03 0.05 0.05 0.09 0.10 0.11 0.29 0.52 0.67 0.70 0.61 0.64 0.70 0.85 0.76 0.63 0.52 0.30 0.24 0.24 0.21 0.25 0.27
0.00 0.00 0.01 0.02 0.04 0.11 0.16 0.13 0.13 0.13 0.10 0.09 0.09 0.09 0.09 0.10 0.09 0.09 0.07 0.05 0.07 0.07 0.06 0.10 0.16 0.16 0.12 0.35 0.68 1.12 1.19 0.88 0.91 0.93 0.82 0.63 0.47 0.41 0.45 0.43 0.31 0.27 0.21
0.00 0.00 0.01 0.01 0.03 0.06 0.07 0.08 0.09 0.15 0.16 0.13 0.10 0.08 0.07 0.05 0.06 0.06 0.06 0.07 0.09 0.07 0.07 0.12 0.20 0.26 0.30 0.40 0.65 0.86 1.13 1.17 1.21 1.14 1.25 1.15 0.64 0.40 0.35 0.34 0.22 0.22 0.22
0.01 0.01 0.01 0.02 0.03 0.04 0.06 0.09 0.09 0.09 0.12 0.14 0.14 0.15 0.13 0.13 0.09 0.05 0.04 0.05 0.07 0.07 0.05 0.08 0.20 0.32 0.41 0.60 0.77 0.85 0.94 0.91 1.03 0.87 0.67 0.52 0.47 0.36 0.35 0.36 0.19 0.19 0.17
0.04 0.04 0.05 0.07 0.08 0.08 0.10 0.11 0.11 0.12 0.14 0.15 0.16 0.17 0.15 0.16 0.12 0.09 0.09 0.09 0.09 0.06 0.04 0.06 0.13 0.27 0.40 0.58 0.71 0.87 0.89 0.84 0.71 0.46 0.41 0.47 0.39 0.33 0.32 0.34 0.23 0.23 0.18

GFSGL_prec_precacc_114.txt.gz
Total_Precipitation_Accumulation
0.09 0.07 0.11 0.14 0.17 0.23 0.24 0.19 0.14 0.15 0.14 0.09 0.06 0.05 0.04 0.03 0.02 0.02 0.03 0.04 0.07 0.12 0.17 0.22 0.23 0.24 0.29 0.35 0.43 0.49 0.57 0.75 0.86 0.59 0.52 0.44 0.33 0.20 0.14 0.16 0.15 0.12 0.11
0.07 0.07 0.09 0.10 0.12 0.14 0.15 0.13 0.12 0.09 0.05 0.02 0.01 0.01 0.01 0.01 0.00 0.01 0.01 0.02 0.03 0.03 0.04 0.06 0.10 0.13 0.19 0.27 0.32 0.36 0.41 0.44 0.50 0.36 0.17 0.16 0.14 0.11 0.08 0.10 0.10 0.12 0.12
0.06 0.05 0.06 0.06 0.09 0.11 0.09 0.07 0.05 0.03 0.02 0.02 0.02 0.01 0.01 0.00 0.00 0.00 0.00 0.01 0.03 0.04 0.07 0.10 0.15 0.21 0.27 0.32 0.39 0.41 0.39 0.37 0.40 0.43 0.22 0.13 0.13 0.12 0.12 0.12 0.13 0.14 0.14
0.08 0.07 0.07 0.07 0.08 0.09 0.09 0.08 0.04 0.03 0.02 0.02 0.02 0.01 0.01 0.02 0.03 0.04 0.05 0.08 0.10 0.12 0.15 0.18 0.23 0.26 0.26 0.25 0.24 0.24 0.27 0.28 0.29 0.32 0.33 0.27 0.18 0.16 0.19 0.16 0.13 0.12 0.14
0.10 0.08 0.07 0.07 0.07 0.07 0.07 0.07 0.05 0.04 0.04 0.04 0.03 0.02 0.04 0.08 0.12 0.16 0.19 0.23 0.29 0.34 0.37 0.35 0.31 0.28 0.22 0.14 0.16 0.17 0.24 0.26 0.37 0.54 0.54 0.47 0.44 0.36 0.29 0.29 0.39 0.40 0.40
0.12 0.08 0.04 0.02 0.05 0.05 0.07 0.07 0.07 0.14 0.12 0.10 0.13 0.17 0.18 0.18 0.30 0.24 0.20 0.22 0.25 0.24 0.22 0.21 0.22 0.24 0.19 0.16 0.17 0.18 0.19 0.33 0.50 0.65 0.65 0.55 0.40 0.41 0.42 0.52 0.68 0.79 0.74
0.08 0.06 0.05 0.03 0.04 0.07 0.10 0.16 0.21 0.27 0.56 0.55 0.56 0.41 0.43 0.49 0.55 0.43 0.40 0.41 0.40 0.36 0.33 0.29 0.20 0.14 0.12 0.09 0.06 0.10 0.19 0.35 0.41 0.29 0.24 0.25 0.34 0.31 0.52 0.66 0.63 0.64 0.55
0.11 0.15 0.16 0.14 0.17 0.20 0.33 0.45 0.48 0.47 0.48 0.55 0.89 0.94 0.94 0.91 0.79 0.58 0.40 0.29 0.20 0.16 0.12 0.08 0.04 0.04 0.04 0.05 0.09 0.29 0.26 0.13 0.04 0.06 0.08 0.11 0.24 0.40 0.59 0.84 0.83 0.89 0.68
0.22 0.25 0.36 0.31 0.28 0.26 0.40 0.50 0.37 0.51 0.67 0.62 0.54 0.44 0.36 0.30 0.21 0.15 0.12 0.11 0.09 0.06 0.02 0.01 0.04 0.03 0.04 0.12 0.27 0.32 0.07 0.01 0.02 0.06 0.16 0.18 0.21 0.22 0.28 0.62 0.85 0.83 0.77
0.33 0.31 0.30 0.48 0.40 0.48 0.44 0.49 0.75 0.60 0.54 0.44 0.34 0.23 0.16 0.10 0.08 0.04 0.01 0.02 0.01 0.00 0.02 0.02 0.04 0.03 0.09 0.33 0.19 0.05 0.08 0.04 0.14 0.11 0.03 0.02 0.04 0.11 0.23 0.32 0.72 1.40 0.99
0.58 0.60 0.65 0.78 0.67 0.61 0.66 0.57 0.50 0.37 0.26 0.20 0.12 0.06 0.03 0.02 0.00 0.00 0.01 0.02 0.02 0.09 0.08 0.02 0.01 0.11 0.29 0.16 0.05 0.03 0.08 0.11 0.12 0.05 0.02 0.02 0.04 0.07 0.14 0.24 0.58 1.48 1.77
0.67 0.59 0.57 0.49 0.44 0.35 0.27 0.18 0.10 0.09 0.05 0.03 0.01 0.00 0.00 0.00 0.00 0.00 0.01 0.03 0.07 0.08 0.05 0.03 0.08 0.22 0.08 0.02 0.02 0.05 0.08 0.08 0.03 0.02 0.04 0.05 0.08 0.16 0.24 0.33 0.43 0.61 0.85
0.16 0.13 0.13 0.08 0.05 0.03 0.00 0.00 0.00 0.00 0.00 0.00 0.00 0.00 0.00 0.00 0.00 0.00 0.01 0.07 0.10 0.08 0.06 0.17 0.16 0.03 0.01 0.01 0.02 0.04 0.04 0.02 0.07 0.17 0.19 0.19 0.23 0.35 0.38 0.40 0.47 0.48 0.52
0.02 0.01 0.00 0.00 0.01 0.00 0.00 0.00 0.00 0.00 0.00 0.00 0.00 0.00 0.00 0.00 0.00 0.00 0.03 0.05 0.05 0.09 0.18 0.16 0.02 0.01 0.02 0.02 0.01 0.02 0.02 0.07 0.18 0.33 0.35 0.23 0.30 0.41 0.42 0.55 0.76 0.66 0.87
0.05 0.07 0.09 0.08 0.06 0.02 0.01 0.01 0.00 0.00 0.00 0.00 0.00 0.01 0.01 0.01 0.01 0.05 0.07 0.06 0.11 0.18 0.08 0.01 0.00 0.01 0.01 0.01 0.00 0.01 0.02 0.06 0.17 0.20 0.33 0.34 0.37 0.47 0.53 0.68 0.92 1.06 1.06
0.01 0.01 0.03 0.08 0.15 0.19 0.16 0.12 0.10 0.06 0.04 0.02 0.02 0.02 0.02 0.03 0.04 0.05 0.04 0.13 0.17 0.07 0.01 0.01 0.02 0.03 0.02 0.02 0.03 0.04 0.04 0.08 0.16 0.31 0.32 0.35 0.50 0.61 0.73 0.87 1.08 1.12 0.97
0.00 0.00 0.00 0.01 0.00 0.01 0.03 0.05 0.07 0.07 0.07 0.04 0.02 0.03 0.03 0.03 0.03 0.02 0.11 0.16 0.04 0.02 0.02 0.04 0.04 0.03 0.04 0.05 0.08 0.14 0.16 0.14 0.32 0.49 0.57 0.60 0.68 0.76 0.84 0.96 0.97 0.86 0.68
0.00 0.02 0.00 0.00 0.00 0.00 0.01 0.01 0.02 0.01 0.01 0.01 0.01 0.03 0.04 0.03 0.03 0.06 0.11 0.05 0.00 0.01 0.05 0.06 0.04 0.04 0.05 0.12 0.18 0.28 0.32 0.30 0.44 0.55 0.69 0.69 0.75 0.98 0.99 0.97 0.84 0.75 0.64
0.01 0.01 0.01 0.01 0.01 0.02 0.01 0.01 0.02 0.02 0.01 0.00 0.00 0.03 0.04 0.06 0.08 0.10 0.05 0.02 0.03 0.05 0.05 0.03 0.03 0.04 0.09 0.17 0.23 0.30 0.39 0.60 0.81 0.93 0.80 0.80 0.83 1.11 0.97 0.75 0.60 0.41 0.31
0.02 0.05 0.03 0.01 0.03 0.04 0.04 0.04 0.05 0.06 0.06 0.04 0.03 0.03 0.08 0.14 0.14 0.03 0.02 0.03 0.05 0.05 0.03 0.04 0.04 0.05 0.12 0.20 0.28 0.33 0.47 0.51 0.62 0.66 0.73 0.80 0.89 0.97 0.87 0.57 0.34 0.33 0.22
0.01 0.03 0.07 0.02 0.03 0.05 0.06 0.07 0.08 0.09 0.10 0.10 0.07 0.13 0.20 0.16 0.08 0.05 0.04 0.05 0.05 0.05 0.05 0.06 0.06 0.09 0.15 0.21 0.30 0.38 0.55 0.60 0.65 0.84 0.82 0.80 0.82 0.69 0.34 0.26 0.23 0.26 0.32
0.00 0.00 0.01 0.01 0.05 0.07 0.10 0.11 0.11 0.11 0.09 0.09 0.08 0.16 0.23 0.13 0.07 0.07 0.07 0.06 0.05 0.07 0.06 0.09 0.10 0.11 0.29 0.52 0.68 0.71 0.61 0.64 0.70 0.86 0.76 0.63 0.52 0.30 0.24 0.24 0.21 0.25 0.27
0.00 0.00 0.01 0.02 0.04 0.11 0.16 0.13 0.13 0.13 0.10 0.09 0.09 0.10 0.10 0.12 0.10 0.10 0.08 0.05 0.08 0.07 0.07 0.11 0.16 0.16 0.12 0.35 0.69 1.13 1.20 0.88 0.91 0.94 0.83 0.64 0.48 0.41 0.45 0.43 0.31 0.27 0.21
0.00 0.00 0.01 0.01 0.03 0.06 0.07 0.08 0.09 0.15 0.16 0.13 0.10 0.08 0.07 0.05 0.06 0.06 0.06 0.07 0.09 0.08 0.08 0.12 0.20 0.27 0.30 0.41 0.65 0.87 1.14 1.18 1.21 1.16 1.27 1.18 0.65 0.41 0.36 0.34 0.22 0.22 0.22
0.01 0.01 0.01 0.02 0.03 0.04 0.06 0.09 0.09 0.09 0.12 0.14 0.14 0.15 0.13 0.13 0.09 0.05 0.04 0.05 0.07 0.07 0.05 0.08 0.20 0.32 0.42 0.60 0.78 0.86 0.96 0.93 1.04 0.88 0.68 0.54 0.48 0.37 0.36 0.37 0.20 0.20 0.18
0.04 0.04 0.05 0.07 0.08 0.08 0.10 0.11 0.11 0.12 0.14 0.15 0.16 0.17 0.15 0.16 0.12 0.09 0.09 0.09 0.09 0.06 0.04 0.06 0.13 0.27 0.40 0.58 0.71 0.87 0.90 0.84 0.72 0.47 0.43 0.50 0.40 0.34 0.34 0.36 0.24 0.24 0.20

GFSGL_prec_precacc_117.txt.gz
Total_Precipitation_Accumulation
0.34 0.20 0.22 0.20 0.21 0.29 0.38 0.41 0.37 0.37 0.33 0.33 0.31 0.25 0.17 0.13 0.11 0.05 0.03 0.04 0.07 0.12 0.17 0.22 0.23 0.24 0.29 0.35 0.43 0.49 0.57 0.75 0.86 0.59 0.52 0.44 0.33 0.20 0.14 0.16 0.15 0.12 0.11
0.25 0.13 0.12 0.11 0.13 0.15 0.17 0.19 0.20 0.18 0.17 0.13 0.13 0.13 0.10 0.05 0.01 0.01 0.01 0.02 0.03 0.03 0.04 0.06 0.10 0.13 0.19 0.27 0.32 0.36 0.41 0.44 0.50 0.37 0.17 0.16 0.14 0.11 0.08 0.10 0.10 0.12 0.12
0.16 0.10 0.09 0.06 0.10 0.13 0.12 0.13 0.12 0.11 0.10 0.08 0.06 0.05 0.03 0.01 0.00 0.00 0.00 0.01 0.03 0.04 0.07 0.10 0.15 0.21 0.27 0.32 0.39 0.41 0.39 0.37 0.40 0.43 0.22 0.13 0.13 0.12 0.12 0.12 0.13 0.14 0.14
0.15 0.12 0.12 0.10 0.11 0.13 0.15 0.17 0.13 0.12 0.09 0.06 0.03 0.02 0.01 0.02 0.03 0.04 0.05 0.08 0.10 0.12 0.15 0.18 0.23 0.26 0.26 0.25 0.24 0.24 0.27 0.28 0.29 0.32 0.33 0.27 0.18 0.16 0.19 0.16 0.13 0.12 0.14
0.11 0.09 0.09 0.09 0.09 0.10 0.10 0.12 0.11 0.08 0.07 0.05 0.03 0.02 0.04 0.08 0.12 0.16 0.19 0.23 0.29 0.34 0.37 0.35 0.31 0.28 0.22 0.14 0.16 0.17 0.24 0.26 0.37 0.54 0.54 0.47 0.44 0.37 0.30 0.29 0.40 0.41 0.42
0.13 0.10 0.06 0.05 0.07 0.08 0.08 0.08 0.09 0.15 0.13 0.10 0.13 0.17 0.18 0.18 0.30 0.24 0.20 0.22 0.25 0.24 0.22 0.21 0.22 0.24 0.19 0.16 0.17 0.18 0.19 0.33 0.50 0.65 0.65 0.55 0.40 0.41 0.43 0.53 0.68 0.80 0.75
0.09 0.07 0.06 0.05 0.07 0.10 0.12 0.18 0.23 0.28 0.56 0.55 0.56 0.41 0.43 0.49 0.55 0.43 0.40 0.41 0.40 0.36 0.33 0.29 0.20 0.14 0.12 0.09 0.06 0.10 0.19 0.35 0.41 0.29 0.24 0.25 0.34 0.31 0.52 0.66 0.63 0.65 0.55
0.12 0.18 0.18 0.15 0.19 0.21 0.34 0.45 0.48 0.47 0.48 0.55 0.89 0.94 0.94 0.91 0.79 0.58 0.40 0.29 0.20 0.16 0.12 0.08 0.04 0.04 0.04 0.05 0.09 0.29 0.26 0.13 0.04 0.06 0.08 0.11 0.24 0.40 0.59 0.84 0.83 0.89 0.68
0.22 0.25 0.36 0.31 0.28 0.26 0.40 0.50 0.37 0.51 0.67 0.62 0.54 0.44 0.36 0.30 0.21 0.15 0.12 0.11 0.09 0.06 0.02 0.01 0.04 0.03 0.04 0.12 0.27 0.32 0.07 0.01 0.02 0.06 0.16 0.18 0.21 0.22 0.28 0.62 0.85 0.83 0.77
0.33 0.31 0.31 0.49 0.40 0.49 0.44 0.49 0.75 0.60 0.54 0.44 0.34 0.23 0.16 0.10 0.08 0.04 0.01 0.02 0.01 0.00 0.02 0.02 0.04 0.03 0.09 0.33 0.19 0.05 0.08 0.04 0.14 0.11 0.03 0.02 0.04 0.11 0.24 0.32 0.72 1.40 1.00
0.58 0.60 0.65 0.78 0.67 0.61 0.66 0.57 0.50 0.37 0.26 0.20 0.12 0.06 0.03 0.02 0.00 0.00 0.01 0.02 0.02 0.09 0.08 0.02 0.01 0.11 0.29 0.16 0.05 0.03 0.08 0.11 0.12 0.05 0.02 0.02 0.04 0.07 0.14 0.24 0.58 1.48 1.77
0.67 0.59 0.57 0.49 0.44 0.35 0.27 0.18 0.10 0.09 0.05 0.03 0.01 0.00 0.00 0.00 0.00 0.00 0.01 0.03 0.07 0.08 0.05 0.03 0.08 0.22 0.08 0.02 0.02 0.05 0.08 0.08 0.03 0.02 0.04 0.05 0.08 0.16 0.24 0.33 0.43 0.61 0.85
0.16 0.13 0.13 0.08 0.05 0.03 0.00 0.00 0.00 0.00 0.00 0.00 0.00 0.00 0.00 0.00 0.00 0.00 0.01 0.07 0.10 0.08 0.06 0.17 0.16 0.03 0.01 0.01 0.02 0.04 0.04 0.02 0.07 0.17 0.19 0.19 0.23 0.35 0.38 0.40 0.47 0.48 0.52
0.02 0.01 0.00 0.00 0.01 0.00 0.00 0.00 0.00 0.00 0.00 0.00 0.00 0.00 0.00 0.00 0.00 0.00 0.03 0.05 0.05 0.09 0.18 0.16 0.02 0.01 0.02 0.02 0.01 0.02 0.02 0.07 0.18 0.33 0.35 0.23 0.30 0.41 0.42 0.55 0.76 0.66 0.87
0.09 0.13 0.16 0.13 0.10 0.04 0.02 0.02 0.01 0.00 0.00 0.00 0.00 0.01 0.01 0.01 0.01 0.05 0.07 0.06 0.11 0.18 0.08 0.01 0.00 0.01 0.01 0.01 0.00 0.01 0.02 0.06 0.17 0.20 0.33 0.34 0.37 0.47 0.53 0.68 0.92 1.06 1.06
0.01 0.01 0.04 0.11 0.22 0.31 0.32 0.32 0.31 0.25 0.20 0.13 0.10 0.09 0.07 0.07 0.07 0.07 0.06 0.14 0.17 0.07 0.01 0.01 0.02 0.03 0.02 0.02 0.03 0.04 0.04 0.08 0.16 0.31 0.32 0.35 0.50 0.61 0.73 0.87 1.08 1.12 0.97
0.00 0.00 0.00 0.01 0.00 0.01 0.03 0.07 0.12 0.17 0.21 0.21 0.21 0.20 0.16 0.14 0.11 0.07 0.14 0.17 0.05 0.02 0.02 0.04 0.04 0.03 0.04 0.05 0.08 0.14 0.16 0.14 0.32 0.49 0.57 0.60 0.68 0.76 0.84 0.96 0.97 0.86 0.68
0.00 0.02 0.00 0.00 0.00 0.00 0.01 0.01 0.02 0.01 0.02 0.03 0.06 0.08 0.09 0.08 0.06 0.09 0.13 0.07 0.01 0.02 0.05 0.06 0.04 0.04 0.05 0.12 0.18 0.28 0.32 0.30 0.44 0.55 0.69 0.69 0.75 0.98 0.99 0.97 0.84 0.75 0.64
0.01 0.01 0.01 0.01 0.01 0.02 0.01 0.01 0.02 0.02 0.01 0.00 0.00 0.03 0.04 0.06 0.08 0.10 0.06 0.02 0.03 0.05 0.05 0.03 0.03 0.04 0.09 0.17 0.23 0.30 0.39 0.60 0.81 0.93 0.80 0.80 0.83 1.11 0.97 0.75 0.60 0.41 0.31
0.02 0.05 0.03 0.01 0.03 0.04 0.04 0.04 0.05 0.06 0.06 0.04 0.03 0.03 0.08 0.14 0.14 0.03 0.02 0.03 0.05 0.06 0.03 0.04 0.04 0.05 0.12 0.20 0.28 0.33 0.47 0.51 0.62 0.66 0.73 0.80 0.89 0.97 0.87 0.57 0.34 0.33 0.22
0.01 0.03 0.07 0.02 0.03 0.05 0.06 0.07 0.08 0.09 0.10 0.10 0.07 0.14 0.21 0.17 0.09 0.07 0.07 0.08 0.07 0.07 0.07 0.07 0.06 0.09 0.15 0.21 0.31 0.39 0.55 0.60 0.65 0.85 0.83 0.81 0.82 0.69 0.34 0.26 0.23 0.26 0.32
0.00 0.00 0.01 0.01 0.05 0.07 0.10 0.11 0.11 0.11 0.09 0.09 0.09 0.16 0.24 0.14 0.08 0.09 0.10 0.08 0.07 0.09 0.08 0.11 0.11 0.12 0.30 0.54 0.70 0.73 0.62 0.65 0.71 0.87 0.78 0.64 0.52 0.31 0.24 0.24 0.21 0.25 0.27
0.00 0.00 0.01 0.02 0.04 0.11 0.16 0.13 0.13 0.13 0.10 0.09 0.09 0.10 0.11 0.12 0.11 0.11 0.09 0.07 0.09 0.09 0.08 0.12 0.18 0.17 0.13 0.36 0.71 1.16 1.22 0.90 0.93 0.97 0.85 0.66 0.49 0.43 0.46 0.44 0.31 0.27 0.21
0.00 0.00 0.01 0.01 0.03 0.06 0.07 0.08 0.09 0.15 0.16 0.13 0.10 0.08 0.07 0.05 0.06 0.06 0.06 0.07 0.09 0.08 0.08 0.12 0.21 0.27 0.30 0.41 0.66 0.87 1.16 1.20 1.23 1.17 1.29 1.20 0.67 0.43 0.38 0.36 0.24 0.23 0.23
0.01 0.01 0.01 0.02 0.03 0.04 0.06 0.09 0.09 0.09 0.12 0.14 0.14 0.15 0.13 0.13 0.09 0.05 0.04 0.05 0.07 0.07 0.05 0.08 0.20 0.32 0.42 0.60 0.78 0.86 0.96 0.94 1.05 0.89 0.70 0.56 0.50 0.39 0.38 0.39 0.21 0.22 0.20
0.04 0.04 0.05 0.07 0.08 0.08 0.10 0.11 0.11 0.12 0.14 0.15 0.16 0.17 0.15 0.16 0.12 0.09 0.09 0.09 0.09 0.06 0.04 0.06 0.13 0.27 0.40 0.58 0.71 0.87 0.90 0.84 0.72 0.47 0.43 0.51 0.42 0.35 0.34 0.37 0.25 0.26 0.21

GFSGL_prec_precacc_120.txt.gz
Total_Precipitation_Accumulation
0.60 0.46 0.47 0.43 0.48 0.49 0.56 0.55 0.55 0.50 0.38 0.41 0.38 0.32 0.23 0.17 0.18 0.27 0.14 0.08 0.08 0.12 0.17 0.22 0.23 0.24 0.29 0.35 0.43 0.49 0.57 0.76 0.86 0.59 0.52 0.44 0.33 0.20 0.14 0.16 0.15 0.12 0.12
0.65 0.41 0.33 0.27 0.29 0.29 0.25 0.30 0.34 0.34 0.30 0.24 0.24 0.29 0.22 0.15 0.11 0.12 0.11 0.05 0.03 0.03 0.04 0.06 0.10 0.13 0.19 0.27 0.32 0.36 0.41 0.44 0.50 0.37 0.17 0.16 0.14 0.11 0.08 0.10 0.10 0.12 0.12
0.49 0.33 0.18 0.11 0.14 0.17 0.14 0.15 0.17 0.18 0.20 0.16 0.12 0.13 0.12 0.09 0.07 0.05 0.05 0.03 0.03 0.04 0.07 0.10 0.15 0.21 0.27 0.32 0.39 0.41 0.39 0.37 0.40 0.43 0.22 0.13 0.13 0.12 0.12 0.12 0.13 0.14 0.15
0.21 0.20 0.17 0.11 0.14 0.16 0.16 0.17 0.14 0.13 0.11 0.08 0.06 0.06 0.06 0.05 0.05 0.05 0.05 0.08 0.10 0.12 0.15 0.18 0.23 0.26 0.26 0.25 0.24 0.24 0.27 0.28 0.29 0.32 0.33 0.27 0.18 0.16 0.19 0.16 0.13 0.12 0.14
0.12 0.11 0.11 0.10 0.11 0.14 0.15 0.16 0.14 0.12 0.10 0.08 0.06 0.05 0.06 0.09 0.13 0.16 0.19 0.23 0.29 0.34 0.37 0.35 0.31 0.28 0.22 0.14 0.16 0.17 0.24 0.26 0.37 0.54 0.54 0.47 0.44 0.37 0.30 0.29 0.40 0.41 0.42
0.13 0.10 0.07 0.05 0.08 0.09 0.11 0.13 0.13 0.20 0.18 0.16 0.16 0.19 0.19 0.18 0.30 0.24 0.20 0.22 0.25 0.24 0.22 0.21 0.22 0.24 0.19 0.16 0.17 0.18 0.19 0.33 0.50 0.65 0.65 0.55 0.40 0.41 0.43 0.53 0.70 0.80 0.76
0.10 0.08 0.07 0.05 0.07 0.10 0.13 0.19 0.25 0.33 0.62 0.62 0.61 0.42 0.44 0.50 0.55 0.43 0.40 0.41 0.40 0.36 0.33 0.29 0.20 0.14 0.12 0.09 0.06 0.10 0.19 0.35 0.41 0.29 0.24 0.25 0.34 0.31 0.52 0.66 0.63 0.66 0.56
0.13 0.20 0.23 0.18 0.20 0.22 0.35 0.47 0.50 0.48 0.49 0.58 0.91 0.95 0.95 0.91 0.79 0.58 0.40 0.29 0.20 0.16 0.12 0.08 0.04 0.04 0.04 0.05 0.09 0.29 0.26 0.13 0.04 0.06 0.08 0.11 0.24 0.40 0.59 0.85 0.83 0.89 0.68
0.22 0.25 0.38 0.34 0.31 0.28 0.41 0.51 0.38 0.52 0.68 0.62 0.54 0.44 0.36 0.30 0.21 0.15 0.12 0.11 0.09 0.06 0.02 0.01 0.04 0.03 0.04 0.12 0.27 0.32 0.07 0.01 0.02 0.06 0.16 0.18 0.21 0.22 0.28 0.63 0.85 0.83 0.77
0.33 0.31 0.31 0.49 0.41 0.50 0.46 0.51 0.76 0.60 0.55 0.44 0.34 0.23 0.16 0.10 0.08 0.04 0.01 0.02 0.01 0.00 0.02 0.02 0.04 0.03 0.09 0.33 0.19 0.05 0.08 0.04 0.14 0.11 0.03 0.02 0.04 0.11 0.24 0.33 0.72 1.40 1.00
0.58 0.60 0.65 0.78 0.67 0.61 0.66 0.57 0.50 0.37 0.26 0.20 0.12 0.06 0.03 0.02 0.00 0.00 0.01 0.02 0.02 0.09 0.08 0.02 0.01 0.11 0.29 0.16 0.05 0.03 0.08 0.11 0.12 0.05 0.02 0.02 0.04 0.07 0.14 0.24 0.58 1.48 1.78
0.67 0.59 0.57 0.49 0.44 0.35 0.27 0.18 0.10 0.09 0.05 0.03 0.01 0.00 0.00 0.00 0.00 0.00 0.01 0.03 0.07 0.08 0.05 0.03 0.08 0.22 0.08 0.02 0.02 0.05 0.08 0.08 0.03 0.02 0.04 0.05 0.08 0.16 0.24 0.33 0.43 0.61 0.85
0.16 0.13 0.13 0.08 0.05 0.03 0.00 0.00 0.00 0.00 0.00 0.00 0.00 0.00 0.00 0.00 0.00 0.00 0.01 0.07 0.10 0.08 0.06 0.17 0.16 0.03 0.01 0.01 0.02 0.04 0.04 0.02 0.07 0.17 0.19 0.19 0.23 0.35 0.38 0.40 0.47 0.48 0.52
0.02 0.02 0.00 0.00 0.01 0.00 0.00 0.00 0.00 0.00 0.00 0.00 0.00 0.00 0.00 0.00 0.00 0.00 0.03 0.05 0.05 0.09 0.18 0.16 0.02 0.01 0.02 0.02 0.01 0.02 0.02 0.07 0.18 0.33 0.35 0.23 0.30 0.41 0.42 0.55 0.76 0.66 0.87
0.09 0.13 0.16 0.14 0.12 0.06 0.03 0.03 0.02 0.01 0.02 0.01 0.01 0.01 0.01 0.01 0.01 0.05 0.07 0.06 0.11 0.18 0.08 0.01 0.00 0.01 0.01 0.01 0.00 0.01 0.02 0.06 0.17 0.20 0.33 0.34 0.37 0.47 0.53 0.68 0.92 1.06 1.06
0.01 0.01 0.04 0.11 0.23 0.32 0.35 0.38 0.39 0.35 0.34 0.27 0.22 0.18 0.16 0.16 0.13 0.13 0.10 0.18 0.20 0.08 0.01 0.01 0.02 0.03 0.02 0.02 0.03 0.04 0.04 0.08 0.16 0.31 0.32 0.35 0.50 0.61 0.73 0.87 1.08 1.12 0.97
0.00 0.00 0.00 0.01 0.00 0.01 0.03 0.07 0.13 0.20 0.26 0.31 0.37 0.41 0.41 0.39 0.36 0.31 0.36 0.36 0.20 0.12 0.05 0.05 0.04 0.03 0.04 0.05 0.08 0.14 0.16 0.14 0.32 0.49 0.57 0.60 0.68 0.76 0.84 0.96 0.97 0.86 0.68
0.00 0.02 0.00 0.00 0.00 0.00 0.01 0.01 0.02 0.01 0.02 0.04 0.08 0.13 0.18 0.21 0.22 0.26 0.31 0.27 0.15 0.11 0.09 0.07 0.04 0.04 0.05 0.12 0.18 0.28 0.32 0.30 0.44 0.55 0.69 0.69 0.75 0.98 0.99 0.97 0.84 0.75 0.64
0.01 0.01 0.01 0.01 0.01 0.02 0.01 0.01 0.02 0.02 0.01 0.00 0.00 0.03 0.05 0.08 0.12 0.16 0.15 0.12 0.07 0.08 0.08 0.05 0.04 0.04 0.09 0.17 0.23 0.30 0.39 0.61 0.81 0.93 0.80 0.80 0.83 1.11 0.97 0.75 0.60 0.41 0.31
0.02 0.05 0.03 0.01 0.03 0.04 0.04 0.04 0.05 0.06 0.06 0.04 0.03 0.03 0.08 0.14 0.14 0.03 0.03 0.04 0.07 0.08 0.06 0.08 0.06 0.07 0.14 0.22 0.29 0.34 0.47 0.51 0.62 0.66 0.73 0.80 0.89 0.97 0.87 0.57 0.34 0.33 0.22
0.01 0.03 0.07 0.02 0.03 0.05 0.06 0.07 0.08 0.09 0.10 0.10 0.08 0.16 0.22 0.18 0.10 0.08 0.08 0.10 0.10 0.10 0.11 0.11 0.11 0.13 0.18 0.24 0.33 0.41 0.57 0.61 0.66 0.86 0.84 0.82 0.83 0.70 0.34 0.26 0.23 0.26 0.32
0.00 0.00 0.01 0.01 0.05 0.07 0.10 0.11 0.11 0.11 0.09 0.10 0.09 0.17 0.25 0.15 0.10 0.13 0.14 0.12 0.11 0.13 0.13 0.16 0.16 0.17 0.36 0.59 0.74 0.76 0.64 0.66 0.72 0.89 0.80 0.65 0.54 0.32 0.25 0.24 0.21 0.25 0.27
0.00 0.00 0.01 0.02 0.04 0.11 0.16 0.13 0.13 0.13 0.10 0.09 0.09 0.10 0.11 0.12 0.12 0.12 0.12 0.10 0.13 0.13 0.12 0.16 0.21 0.20 0.17 0.40 0.74 1.18 1.24 0.91 0.94 0.99 0.87 0.67 0.51 0.44 0.48 0.46 0.32 0.28 0.22
0.00 0.00 0.01 0.01 0.03 0.06 0.07 0.08 0.09 0.15 0.16 0.13 0.10 0.08 0.07 0.05 0.06 0.06 0.06 0.07 0.09 0.09 0.09 0.14 0.22 0.28 0.31 0.42 0.67 0.88 1.16 1.20 1.24 1.19 1.31 1.22 0.68 0.44 0.40 0.38 0.25 0.25 0.25
0.01 0.01 0.01 0.02 0.03 0.04 0.06 0.09 0.09 0.09 0.12 0.14 0.14 0.15 0.13 0.13 0.09 0.05 0.04 0.05 0.07 0.07 0.05 0.08 0.20 0.32 0.42 0.61 0.78 0.86 0.96 0.94 1.05 0.90 0.71 0.57 0.51 0.39 0.39 0.40 0.22 0.23 0.21
0.04 0.04 0.05 0.07 0.08 0.08 0.10 0.11 0.11 0.12 0.14 0.15 0.16 0.17 0.15 0.16 0.13 0.10 0.09 0.09 0.09 0.06 0.04 0.06 0.13 0.27 0.40 0.58 0.71 0.87 0.90 0.84 0.72 0.47 0.43 0.51 0.42 0.36 0.35 0.37 0.26 0.27 0.22

GFSGL_prec_precacc_123.txt.gz
Total_Precipitation_Accumulation
0.71 0.84 0.91 1.05 1.12 0.89 0.90 0.94 0.75 0.58 0.43 0.44 0.39 0.33 0.23 0.17 0.18 0.27 0.14 0.08 0.09 0.13 0.17 0.22 0.23 0.24 0.29 0.35 0.43 0.49 0.57 0.76 0.86 0.59 0.52 0.44 0.33 0.20 0.14 0.16 0.15 0.12 0.12
0.78 0.64 0.58 0.49 0.50 0.49 0.47 0.60 0.95 0.50 0.35 0.30 0.27 0.31 0.23 0.15 0.11 0.12 0.11 0.06 0.05 0.04 0.05 0.08 0.10 0.13 0.19 0.27 0.32 0.36 0.41 0.44 0.50 0.37 0.17 0.16 0.14 0.11 0.08 0.10 0.10 0.12 0.12
0.89 0.59 0.35 0.28 0.30 0.34 0.29 0.27 0.47 0.60 0.39 0.30 0.25 0.22 0.16 0.12 0.09 0.06 0.08 0.09 0.08 0.09 0.10 0.12 0.15 0.21 0.27 0.32 0.39 0.41 0.39 0.37 0.40 0.43 0.22 0.13 0.13 0.12 0.12 0.12 0.13 0.14 0.15
0.50 0.36 0.23 0.20 0.23 0.21 0.19 0.22 0.20 0.22 0.28 0.33 0.34 0.26 0.19 0.14 0.13 0.12 0.10 0.14 0.16 0.15 0.17 0.20 0.23 0.26 0.26 0.25 0.24 0.24 0.27 0.28 0.29 0.32 0.33 0.27 0.18 0.16 0.19 0.16 0.13 0.12 0.14
0.22 0.21 0.16 0.12 0.13 0.16 0.16 0.17 0.17 0.15 0.14 0.18 0.19 0.20 0.28 0.31 0.25 0.24 0.26 0.28 0.34 0.40 0.37 0.35 0.31 0.28 0.22 0.14 0.16 0.17 0.24 0.26 0.37 0.54 0.54 0.47 0.44 0.37 0.30 0.29 0.40 0.41 0.42
0.18 0.14 0.08 0.09 0.12 0.13 0.14 0.14 0.15 0.21 0.19 0.16 0.17 0.21 0.21 0.21 0.34 0.29 0.24 0.24 0.27 0.25 0.22 0.21 0.22 0.24 0.19 0.16 0.17 0.18 0.19 0.33 0.50 0.65 0.65 0.55 0.40 0.41 0.43 0.53 0.70 0.80 0.76
0.10 0.08 0.08 0.07 0.09 0.12 0.15 0.20 0.29 0.39 0.71 0.68 0.69 0.52 0.54 0.55 0.58 0.47 0.44 0.42 0.40 0.36 0.33 0.29 0.20 0.14 0.12 0.09 0.06 0.10 0.19 0.35 0.41 0.29 0.24 0.25 0.34 0.31 0.52 0.66 0.63 0.66 0.56
0.13 0.20 0.23 0.19 0.20 0.22 0.35 0.47 0.51 0.49 0.51 0.61 0.99 1.13 1.14 0.98 0.81 0.58 0.40 0.29 0.20 0.16 0.12 0.08 0.04 0.04 0.04 0.05 0.09 0.29 0.26 0.13 0.04 0.06 0.08 0.11 0.24 0.40 0.59 0.85 0.83 0.89 0.68
0.22 0.25 0.38 0.35 0.32 0.28 0.42 0.51 0.39 0.52 0.69 0.63 0.56 0.48 0.42 0.31 0.23 0.16 0.12 0.11 0.09 0.06 0.02 0.01 0.04 0.03 0.04 0.12 0.27 0.32 0.07 0.01 0.02 0.06 0.16 0.18 0.21 0.22 0.28 0.63 0.85 0.83 0.77
0.33 0.31 0.31 0.49 0.41 0.51 0.47 0.51 0.76 0.60 0.55 0.45 0.35 0.24 0.20 0.14 0.10 0.08 0.03 0.02 0.01 0.00 0.02 0.02 0.04 0.03 0.09 0.33 0.19 0.05 0.08 0.04 0.14 0.11 0.03 0.02 0.04 0.11 0.24 0.33 0.72 1.40 1.00
0.58 0.60 0.65 0.78 0.67 0.62 0.67 0.58 0.50 0.37 0.27 0.20 0.13 0.07 0.04 0.02 0.00 0.00 0.01 0.02 0.02 0.09 0.08 0.02 0.01 0.11 0.29 0.16 0.05 0.03 0.08 0.11 0.12 0.05 0.02 0.02 0.04 0.07 0.14 0.24 0.58 1.48 1.78
0.67 0.59 0.57 0.49 0.44 0.35 0.27 0.18 0.10 0.09 0.06 0.04 0.02 0.01 0.01 0.01 0.00 0.00 0.01 0.03 0.07 0.08 0.05 0.03 0.08 0.22 0.08 0.02 0.02 0.05 0.08 0.08 0.03 0.02 0.04 0.05 0.08 0.16 0.24 0.33 0.43 0.61 0.85
0.16 0.13 0.13 0.08 0.05 0.03 0.00 0.00 0.00 0.00 0.00 0.00 0.00 0.00 0.00 0.00 0.00 0.00 0.01 0.07 0.10 0.08 0.06 0.17 0.16 0.03 0.01 0.01 0.02 0.04 0.04 0.02 0.07 0.17 0.19 0.19 0.23 0.35 0.38 0.40 0.47 0.48 0.52
0.02 0.02 0.00 0.00 0.01 0.00 0.00 0.00 0.00 0.00 0.00 0.00 0.00 0.00 0.00 0.00 0.00 0.00 0.03 0.05 0.05 0.09 0.18 0.16 0.02 0.01 0.02 0.02 0.01 0.02 0.02 0.07 0.18 0.33 0.35 0.23 0.30 0.41 0.42 0.55 0.76 0.66 0.87
0.09 0.13 0.16 0.14 0.12 0.06 0.03 0.03 0.02 0.01 0.02 0.01 0.01 0.02 0.02 0.03 0.02 0.06 0.08 0.06 0.11 0.19 0.08 0.01 0.00 0.01 0.01 0.01 0.00 0.01 0.02 0.06 0.17 0.20 0.33 0.34 0.37 0.47 0.53 0.68 0.92 1.06 1.06
0.01 0.01 0.04 0.11 0.23 0.32 0.35 0.38 0.40 0.38 0.37 0.29 0.25 0.22 0.20 0.24 0.23 0.24 0.21 0.27 0.28 0.16 0.07 0.03 0.03 0.03 0.03 0.03 0.04 0.04 0.04 0.08 0.16 0.31 0.32 0.35 0.50 0.61 0.73 0.87 1.08 1.12 0.97
0.00 0.00 0.00 0.01 0.00 0.01 0.03 0.07 0.13 0.20 0.27 0.32 0.39 0.45 0.47 0.48 0.50 0.47 0.57 0.60 0.46 0.38 0.27 0.18 0.15 0.12 0.11 0.11 0.10 0.14 0.16 0.14 0.32 0.49 0.57 0.60 0.68 0.76 0.84 0.96 0.97 0.86 0.68
0.00 0.02 0.00 0.00 0.00 0.00 0.01 0.01 0.02 0.01 0.02 0.04 0.08 0.14 0.19 0.25 0.29 0.38 0.48 0.47 0.35 0.32 0.27 0.24 0.24 0.23 0.20 0.21 0.20 0.28 0.32 0.30 0.44 0.55 0.69 0.69 0.75 0.98 0.99 0.97 0.84 0.75 0.64
0.01 0.01 0.01 0.01 0.01 0.02 0.01 0.01 0.02 0.02 0.01 0.00 0.00 0.03 0.05 0.08 0.13 0.19 0.23 0.23 0.17 0.21 0.25 0.22 0.21 0.22 0.23 0.25 0.25 0.30 0.39 0.61 0.81 0.93 0.80 0.80 0.83 1.11 0.97 0.75 0.60 0.41 0.31
0.02 0.05 0.03 0.01 0.03 0.04 0.04 0.04 0.05 0.06 0.06 0.04 0.03 0.03 0.08 0.14 0.14 0.04 0.04 0.06 0.09 0.12 0.14 0.20 0.19 0.19 0.24 0.30 0.33 0.36 0.48 0.52 0.62 0.66 0.73 0.80 0.89 0.97 0.87 0.57 0.34 0.33 0.22
0.01 0.03 0.07 0.02 0.03 0.05 0.06 0.07 0.08 0.09 0.10 0.10 0.08 0.16 0.23 0.18 0.10 0.09 0.10 0.13 0.14 0.15 0.16 0.18 0.20 0.24 0.26 0.31 0.39 0.45 0.60 0.62 0.66 0.87 0.85 0.83 0.84 0.71 0.34 0.26 0.24 0.26 0.32
0.00 0.00 0.01 0.01 0.05 0.07 0.10 0.11 0.11 0.11 0.09 0.10 0.09 0.17 0.25 0.15 0.11 0.14 0.16 0.16 0.17 0.19 0.20 0.23 0.24 0.26 0.44 0.68 0.82 0.82 0.69 0.70 0.75 0.92 0.82 0.67 0.55 0.33 0.27 0.26 0.23 0.27 0.27
0.00 0.00 0.01 0.02 0.04 0.11 0.16 0.13 0.13 0.13 0.10 0.09 0.09 0.10 0.11 0.12 0.12 0.12 0.12 0.12 0.16 0.19 0.19 0.22 0.27 0.27 0.23 0.47 0.82 1.25 1.29 0.95 0.98 1.03 0.90 0.69 0.54 0.47 0.51 0.48 0.34 0.31 0.24
0.00 0.00 0.01 0.01 0.03 0.06 0.07 0.08 0.09 0.15 0.16 0.13 0.10 0.08 0.07 0.05 0.06 0.06 0.06 0.07 0.09 0.09 0.10 0.16 0.25 0.33 0.37 0.47 0.71 0.92 1.20 1.23 1.26 1.20 1.33 1.23 0.69 0.45 0.41 0.40 0.27 0.27 0.27
0.01 0.01 0.01 0.02 0.03 0.04 0.06 0.09 0.09 0.09 0.12 0.14 0.14 0.15 0.13 0.13 0.09 0.05 0.04 0.05 0.07 0.07 0.05 0.08 0.20 0.32 0.42 0.61 0.78 0.86 0.97 0.94 1.06 0.90 0.71 0.58 0.52 0.40 0.40 0.41 0.23 0.25 0.23
0.04 0.04 0.05 0.07 0.08 0.08 0.10 0.11 0.11 0.12 0.14 0.15 0.16 0.17 0.15 0.16 0.13 0.10 0.10 0.10 0.09 0.06 0.04 0.06 0.13 0.27 0.40 0.58 0.71 0.87 0.90 0.84 0.72 0.47 0.43 0.51 0.42 0.36 0.36 0.38 0.26 0.28 0.22

GFSGL_prec_precacc_126.txt.gz
Total_Precipitation_Accumulation
0.72 0.87 1.01 1.28 1.41 1.16 1.10 1.04 0.78 0.62 0.47 0.47 0.44 0.36 0.25 0.18 0.19 0.29 0.15 0.10 0.12 0.14 0.17 0.22 0.23 0.24 0.29 0.35 0.43 0.49 0.57 0.76 0.86 0.59 0.52 0.44 0.33 0.20 0.14 0.16 0.15 0.12 0.12
0.82 0.69 0.69 0.76 0.88 0.76 0.75 0.79 1.09 0.62 0.45 0.37 0.33 0.39 0.32 0.23 0.17 0.14 0.12 0.07 0.05 0.04 0.05 0.09 0.11 0.14 0.19 0.27 0.32 0.36 0.41 0.44 0.50 0.37 0.17 0.16 0.14 0.11 0.08 0.10 0.10 0.12 0.12
0.97 0.71 0.52 0.43 0.66 0.57 0.58 0.63 0.89 0.90 0.58 0.42 0.35 0.29 0.22 0.18 0.16 0.12 0.11 0.11 0.08 0.09 0.11 0.13 0.17 0.22 0.28 0.32 0.39 0.41 0.39 0.37 0.40 0.43 0.22 0.13 0.13 0.12 0.12 0.12 0.13 0.14 0.15
0.61 0.52 0.42 0.36 0.47 0.53 0.46 0.59 0.62 0.77 0.68 0.59 0.51 0.38 0.29 0.23 0.22 0.19 0.14 0.15 0.17 0.17 0.19 0.22 0.26 0.29 0.28 0.26 0.24 0.24 0.27 0.28 0.29 0.32 0.33 0.27 0.18 0.16 0.19 0.16 0.13 0.12 0.14
0.30 0.25 0.19 0.19 0.28 0.30 0.31 0.33 0.37 0.46 0.45 0.50 0.62 0.65 0.54 0.52 0.42 0.35 0.32 0.33 0.39 0.48 0.45 0.38 0.33 0.31 0.24 0.14 0.16 0.17 0.24 0.26 0.37 0.54 0.54 0.47 0.44 0.37 0.30 0.29 0.40 0.41 0.42
0.34 0.23 0.11 0.10 0.13 0.16 0.17 0.17 0.20 0.29 0.28 0.30 0.42 0.58 0.65 0.54 0.76 0.72 0.54 0.41 0.39 0.40 0.41 0.33 0.27 0.26 0.20 0.16 0.17 0.18 0.19 0.33 0.50 0.65 0.65 0.55 0.40 0.41 0.43 0.53 0.70 0.80 0.76
0.14 0.11 0.12 0.17 0.16 0.22 0.18 0.22 0.33 0.45 0.77 0.77 0.84 0.69 0.69 0.69 0.77 0.73 0.80 0.73 0.62 0.50 0.42 0.36 0.26 0.15 0.12 0.09 0.06 0.10 0.19 0.35 0.41 0.29 0.24 0.25 0.34 0.31 0.52 0.66 0.63 0.66 0.56
0.13 0.20 0.23 0.20 0.20 0.22 0.35 0.48 0.52 0.52 0.56 0.68 1.06 1.20 1.27 1.27 1.08 0.82 0.71 0.63 0.50 0.36 0.27 0.17 0.06 0.04 0.04 0.05 0.09 0.29 0.26 0.13 0.04 0.06 0.08 0.11 0.24 0.40 0.59 0.85 0.83 0.89 0.68
0.22 0.25 0.38 0.35 0.32 0.28 0.42 0.51 0.39 0.53 0.70 0.63 0.57 0.51 0.45 0.37 0.33 0.28 0.22 0.20 0.20 0.13 0.05 0.01 0.04 0.03 0.04 0.12 0.27 0.32 0.07 0.01 0.02 0.06 0.16 0.18 0.21 0.22 0.28 0.63 0.85 0.83 0.77
0.33 0.31 0.31 0.49 0.41 0.51 0.47 0.51 0.76 0.61 0.56 0.45 0.36 0.25 0.25 0.30 0.31 0.26 0.21 0.14 0.07 0.03 0.05 0.04 0.05 0.03 0.09 0.33 0.19 0.05 0.08 0.04 0.14 0.11 0.03 0.02 0.04 0.11 0.24 0.33 0.72 1.40 1.00
0.58 0.60 0.65 0.78 0.67 0.62 0.68 0.59 0.51 0.37 0.27 0.20 0.13 0.07 0.04 0.05 0.07 0.09 0.09 0.09 0.07 0.13 0.09 0.03 0.02 0.12 0.29 0.16 0.05 0.03 0.08 0.11 0.12 0.05 0.02 0.02 0.04 0.07 0.14 0.24 0.58 1.48 1.78
0.67 0.59 0.57 0.49 0.44 0.35 0.27 0.18 0.10 0.09 0.06 0.04 0.03 0.03 0.02 0.02 0.03 0.04 0.03 0.04 0.07 0.08 0.05 0.03 0.08 0.22 0.08 0.02 0.02 0.05 0.08 0.08 0.03 0.02 0.04 0.05 0.08 0.16 0.24 0.33 0.43 0.61 0.85
0.16 0.13 0.13 0.08 0.05 0.03 0.00 0.00 0.00 0.00 0.00 0.00 0.00 0.00 0.00 0.00 0.00 0.02 0.04 0.12 0.16 0.13 0.10 0.20 0.17 0.03 0.01 0.01 0.02 0.04 0.04 0.02 0.07 0.17 0.19 0.19 0.23 0.35 0.38 0.40 0.47 0.48 0.52
0.02 0.02 0.00 0.00 0.01 0.00 0.00 0.00 0.00 0.00 0.00 0.00 0.00 0.00 0.00 0.00 0.00 0.00 0.03 0.05 0.05 0.10 0.18 0.16 0.02 0.01 0.02 0.02 0.01 0.02 0.02 0.07 0.18 0.33 0.35 0.23 0.30 0.41 0.42 0.55 0.76 0.66 0.87
0.09 0.13 0.16 0.14 0.12 0.06 0.03 0.03 0.02 0.01 0.02 0.01 0.01 0.02 0.03 0.03 0.04 0.07 0.09 0.07 0.11 0.19 0.10 0.01 0.01 0.01 0.01 0.01 0.00 0.01 0.02 0.06 0.17 0.20 0.33 0.34 0.37 0.47 0.53 0.68 0.92 1.06 1.06
0.01 0.01 0.04 0.11 0.23 0.32 0.35 0.38 0.40 0.38 0.37 0.30 0.25 0.22 0.20 0.25 0.25 0.29 0.28 0.35 0.39 0.31 0.24 0.13 0.10 0.08 0.05 0.05 0.07 0.09 0.07 0.09 0.16 0.31 0.32 0.35 0.50 0.61 0.73 0.87 1.08 1.12 0.97
0.00 0.00 0.00 0.01 0.00 0.01 0.03 0.07 0.13 0.20 0.27 0.32 0.39 0.45 0.47 0.48 0.50 0.49 0.61 0.65 0.53 0.50 0.43 0.32 0.32 0.31 0.29 0.31 0.34 0.36 0.34 0.25 0.38 0.50 0.57 0.60 0.68 0.76 0.84 0.96 0.97 0.86 0.68
0.00 0.02 0.00 0.00 0.00 0.00 0.01 0.01 0.02 0.01 0.02 0.04 0.08 0.14 0.19 0.25 0.30 0.38 0.50 0.51 0.39 0.38 0.35 0.31 0.33 0.37 0.41 0.48 0.51 0.54 0.51 0.44 0.51 0.57 0.70 0.69 0.75 0.98 0.99 0.97 0.84 0.75 0.64
0.01 0.01 0.01 0.01 0.01 0.02 0.01 0.01 0.02 0.02 0.01 0.00 0.00 0.03 0.05 0.08 0.13 0.19 0.24 0.24 0.18 0.23 0.30 0.31 0.29 0.33 0.38 0.44 0.46 0.49 0.54 0.71 0.87 0.96 0.81 0.81 0.83 1.11 0.97 0.75 0.60 0.41 0.31
0.02 0.05 0.03 0.01 0.03 0.04 0.04 0.04 0.05 0.06 0.06 0.04 0.03 0.03 0.08 0.14 0.14 0.04 0.04 0.06 0.10 0.13 0.15 0.22 0.25 0.29 0.38 0.46 0.49 0.52 0.62 0.63 0.71 0.71 0.77 0.83 0.91 0.99 0.88 0.57 0.34 0.33 0.22
0.01 0.03 0.07 0.02 0.03 0.05 0.06 0.07 0.08 0.09 0.10 0.10 0.08 0.16 0.23 0.18 0.10 0.09 0.10 0.13 0.15 0.17 0.19 0.22 0.25 0.32 0.38 0.46 0.55 0.61 0.74 0.75 0.78 0.96 0.91 0.87 0.88 0.73 0.36 0.28 0.25 0.27 0.32
0.00 0.00 0.01 0.01 0.05 0.07 0.10 0.11 0.11 0.11 0.09 0.10 0.09 0.17 0.25 0.15 0.11 0.14 0.16 0.16 0.17 0.20 0.21 0.25 0.27 0.30 0.52 0.79 0.94 0.95 0.81 0.80 0.84 1.02 0.92 0.74 0.60 0.37 0.30 0.28 0.25 0.28 0.28
0.00 0.00 0.01 0.02 0.04 0.11 0.16 0.13 0.13 0.13 0.10 0.09 0.09 0.10 0.11 0.12 0.12 0.12 0.12 0.12 0.16 0.19 0.19 0.24 0.29 0.29 0.28 0.53 0.89 1.34 1.39 1.04 1.06 1.11 0.97 0.75 0.58 0.50 0.54 0.51 0.37 0.33 0.26
0.00 0.00 0.01 0.01 0.03 0.06 0.07 0.08 0.09 0.15 0.16 0.13 0.10 0.08 0.07 0.05 0.06 0.06 0.06 0.07 0.09 0.09 0.10 0.16 0.26 0.34 0.39 0.50 0.75 0.97 1.25 1.29 1.32 1.25 1.38 1.27 0.72 0.47 0.44 0.42 0.28 0.29 0.29
0.01 0.01 0.01 0.02 0.03 0.04 0.06 0.09 0.09 0.09 0.12 0.14 0.14 0.15 0.13 0.13 0.09 0.05 0.04 0.05 0.07 0.07 0.05 0.08 0.20 0.32 0.42 0.61 0.78 0.87 0.98 0.96 1.07 0.92 0.72 0.58 0.53 0.41 0.41 0.42 0.24 0.25 0.24
0.04 0.04 0.05 0.07 0.08 0.08 0.10 0.11 0.11 0.12 0.14 0.15 0.16 0.17 0.15 0.16 0.13 0.10 0.10 0.10 0.09 0.06 0.05 0.06 0.13 0.27 0.40 0.58 0.71 0.87 0.90 0.84 0.72 0.47 0.43 0.51 0.43 0.37 0.37 0.39 0.27 0.28 0.23

GFSGL_prec_precacc_129.txt.gz
Total_Precipitation_Accumulation
0.85 0.90 1.04 1.33 1.45 1.33 1.59 1.37 0.97 0.74 0.61 0.59 0.52 0.40 0.28 0.19 0.20 0.31 0.17 0.11 0.13 0.17 0.21 0.26 0.26 0.24 0.30 0.35 0.43 0.49 0.57 0.76 0.86 0.59 0.52 0.44 0.33 0.20 0.14 0.16 0.15 0.12 0.12
0.91 0.72 0.70 0.77 0.91 0.79 0.87 0.94 1.26 0.66 0.49 0.42 0.36 0.40 0.34 0.25 0.19 0.17 0.16 0.12 0.10 0.07 0.07 0.11 0.13 0.14 0.19 0.27 0.32 0.36 0.41 0.44 0.50 0.37 0.17 0.16 0.14 0.11 0.08 0.10 0.10 0.12 0.12
1.28 0.87 0.60 0.48 0.72 0.62 0.62 0.65 0.92 0.94 0.62 0.47 0.41 0.32 0.25 0.26 0.24 0.22 0.23 0.24 0.21 0.17 0.15 0.16 0.17 0.22 0.28 0.33 0.39 0.41 0.39 0.37 0.40 0.43 0.22 0.13 0.13 0.12 0.12 0.12 0.13 0.14 0.15
1.04 1.01 0.71 0.62 0.78 0.74 0.60 0.74 0.75 0.91 0.76 0.66 0.59 0.49 0.38 0.31 0.30 0.27 0.24 0.26 0.28 0.25 0.24 0.26 0.30 0.30 0.29 0.26 0.24 0.25 0.27 0.28 0.29 0.32 0.33 0.27 0.18 0.16 0.19 0.16 0.13 0.12 0.14
0.36 0.42 0.41 0.43 0.62 0.65 0.64 0.71 0.67 0.81 0.71 0.66 0.73 0.78 0.66 0.61 0.48 0.43 0.43 0.41 0.45 0.52 0.50 0.43 0.35 0.32 0.25 0.16 0.17 0.18 0.24 0.27 0.37 0.54 0.54 0.47 0.44 0.37 0.30 0.29 0.40 0.41 0.42
0.40 0.29 0.17 0.18 0.27 0.36 0.33 0.37 0.43 0.51 0.61 0.64 0.64 0.76 0.85 0.71 0.90 0.86 0.66 0.51 0.47 0.46 0.47 0.40 0.32 0.32 0.26 0.24 0.27 0.26 0.22 0.34 0.51 0.65 0.65 0.55 0.40 0.41 0.43 0.53 0.70 0.80 0.76
0.21 0.12 0.14 0.21 0.27 0.33 0.22 0.25 0.38 0.55 0.90 0.88 0.99 0.87 1.04 1.23 1.25 1.15 1.29 1.23 1.03 0.83 0.70 0.64 0.59 0.54 0.47 0.33 0.24 0.19 0.23 0.37 0.41 0.29 0.24 0.25 0.34 0.31 0.52 0.66 0.63 0.66 0.56
0.14 0.21 0.26 0.23 0.23 0.24 0.36 0.48 0.53 0.54 0.61 0.78 1.18 1.30 1.38 1.44 1.29 1.08 1.02 0.98 1.01 0.97 0.84 0.74 0.59 0.49 0.40 0.32 0.23 0.33 0.27 0.13 0.04 0.06 0.08 0.11 0.24 0.40 0.59 0.85 0.83 0.89 0.68
0.22 0.25 0.38 0.36 0.32 0.28 0.42 0.51 0.39 0.53 0.70 0.64 0.59 0.55 0.50 0.40 0.37 0.34 0.37 0.35 0.39 0.41 0.39 0.40 0.44 0.38 0.33 0.28 0.34 0.35 0.08 0.01 0.02 0.06 0.16 0.18 0.21 0.22 0.28 0.63 0.85 0.83 0.77
0.33 0.31 0.31 0.49 0.41 0.51 0.47 0.51 0.76 0.61 0.56 0.45 0.36 0.26 0.27 0.33 0.36 0.32 0.30 0.26 0.22 0.18 0.20 0.18 0.19 0.16 0.18 0.38 0.22 0.07 0.10 0.05 0.14 0.11 0.03 0.02 0.04 0.11 0.24 0.33 0.72 1.40 1.00
0.58 0.60 0.65 0.78 0.67 0.62 0.68 0.59 0.51 0.37 0.27 0.20 0.13 0.07 0.04 0.05 0.09 0.15 0.17 0.19 0.19 0.26 0.24 0.20 0.20 0.31 0.45 0.29 0.16 0.10 0.13 0.14 0.12 0.05 0.02 0.02 0.04 0.07 0.14 0.24 0.58 1.48 1.78
0.67 0.59 0.57 0.49 0.44 0.35 0.27 0.18 0.10 0.09 0.06 0.04 0.03 0.03 0.02 0.02 0.03 0.04 0.05 0.07 0.11 0.12 0.11 0.08 0.13 0.27 0.12 0.07 0.07 0.07 0.09 0.08 0.03 0.02 0.04 0.05 0.08 0.16 0.24 0.33 0.43 0.61 0.85
0.16 0.13 0.13 0.08 0.05 0.03 0.00 0.00 0.00 0.00 0.00 0.00 0.00 0.00 0.00 0.00 0.00 0.02 0.05 0.13 0.17 0.17 0.16 0.29 0.28 0.14 0.12 0.12 0.11 0.10 0.09 0.05 0.08 0.17 0.19 0.19 0.23 0.35 0.38 0.40 0.47 0.48 0.52
0.02 0.02 0.00 0.00 0.01 0.00 0.00 0.00 0.00 0.00 0.00 0.00 0.00 0.00 0.00 0.00 0.00 0.00 0.03 0.05 0.05 0.11 0.20 0.21 0.09 0.08 0.09 0.08 0.08 0.07 0.05 0.09 0.19 0.33 0.35 0.23 0.30 0.41 0.42 0.55 0.76 0.66 0.87
0.09 0.13 0.16 0.14 0.12 0.06 0.03 0.03 0.02 0.01 0.02 0.01 0.01 0.02 0.03 0.03 0.04 0.07 0.09 0.07 0.12 0.20 0.11 0.02 0.02 0.03 0.03 0.04 0.04 0.05 0.07 0.10 0.20 0.22 0.35 0.34 0.37 0.47 0.53 0.68 0.92 1.06 1.06
0.01 0.01 0.04 0.11 0.23 0.32 0.35 0.38 0.40 0.38 0.37 0.30 0.25 0.22 0.20 0.25 0.26 0.30 0.28 0.36 0.39 0.32 0.26 0.14 0.13 0.13 0.12 0.14 0.19 0.23 0.25 0.25 0.28 0.39 0.38 0.37 0.51 0.61 0.73 0.87 1.08 1.12 0.97
0.00 0.00 0.00 0.01 0.00 0.01 0.03 0.07 0.13 0.20 0.27 0.32 0.39 0.45 0.47 0.48 0.50 0.50 0.61 0.66 0.53 0.50 0.43 0.33 0.35 0.37 0.38 0.42 0.46 0.51 0.51 0.42 0.55 0.68 0.67 0.66 0.72 0.78 0.85 0.96 0.97 0.86 0.68
0.00 0.02 0.00 0.00 0.00 0.00 0.01 0.01 0.02 0.01 0.02 0.04 0.08 0.14 0.19 0.25 0.30 0.38 0.50 0.51 0.39 0.39 0.36 0.32 0.34 0.39 0.44 0.53 0.58 0.64 0.62 0.57 0.68 0.72 0.81 0.78 0.81 1.02 1.01 0.97 0.84 0.75 0.64
0.01 0.01 0.01 0.01 0.01 0.02 0.01 0.01 0.02 0.02 0.01 0.00 0.00 0.03 0.05 0.08 0.13 0.19 0.24 0.24 0.18 0.23 0.30 0.32 0.31 0.35 0.42 0.48 0.50 0.53 0.60 0.79 0.96 1.06 0.91 0.91 0.91 1.16 0.99 0.76 0.61 0.41 0.31
0.02 0.05 0.03 0.01 0.03 0.04 0.04 0.04 0.05 0.06 0.06 0.04 0.03 0.03 0.08 0.14 0.14 0.04 0.04 0.07 0.10 0.14 0.15 0.23 0.25 0.30 0.39 0.49 0.55 0.58 0.69 0.70 0.78 0.79 0.83 0.89 0.97 1.04 0.91 0.61 0.36 0.34 0.22
0.01 0.03 0.07 0.02 0.03 0.05 0.06 0.07 0.08 0.09 0.10 0.10 0.08 0.16 0.23 0.18 0.10 0.09 0.10 0.13 0.16 0.17 0.19 0.22 0.25 0.32 0.39 0.47 0.59 0.68 0.83 0.83 0.87 1.05 0.99 0.94 0.94 0.78 0.39 0.32 0.29 0.30 0.33
0.00 0.00 0.01 0.01 0.05 0.07 0.10 0.11 0.11 0.11 0.09 0.10 0.09 0.17 0.25 0.15 0.11 0.14 0.16 0.16 0.17 0.20 0.21 0.25 0.27 0.31 0.52 0.80 0.97 1.01 0.89 0.90 0.95 1.13 1.03 0.84 0.70 0.44 0.35 0.34 0.30 0.33 0.31
0.00 0.00 0.01 0.02 0.04 0.11 0.16 0.13 0.13 0.13 0.10 0.09 0.09 0.10 0.11 0.12 0.12 0.12 0.12 0.12 0.16 0.19 0.19 0.24 0.29 0.29 0.29 0.54 0.92 1.38 1.44 1.12 1.15 1.22 1.08 0.86 0.69 0.61 0.62 0.57 0.41 0.37 0.29
0.00 0.00 0.01 0.01 0.03 0.06 0.07 0.08 0.09 0.15 0.16 0.13 0.10 0.08 0.07 0.05 0.06 0.06 0.06 0.07 0.09 0.09 0.10 0.16 0.26 0.34 0.39 0.50 0.76 0.99 1.29 1.35 1.39 1.35 1.48 1.38 0.83 0.57 0.53 0.49 0.34 0.32 0.32
0.01 0.01 0.01 0.02 0.03 0.04 0.06 0.09 0.09 0.09 0.12 0.14 0.14 0.15 0.13 0.13 0.09 0.05 0.04 0.05 0.07 0.07 0.05 0.08 0.20 0.32 0.42 0.61 0.78 0.87 0.98 0.97 1.10 0.96 0.78 0.66 0.61 0.49 0.47 0.46 0.27 0.28 0.26
0.04 0.04 0.05 0.07 0.08 0.08 0.10 0.11 0.11 0.12 0.14 0.15 0.16 0.17 0.15 0.16 0.13 0.10 0.10 0.10 0.09 0.06 0.05 0.06 0.13 0.27 0.40 0.58 0.71 0.87 0.90 0.84 0.72 0.48 0.44 0.52 0.44 0.39 0.38 0.40 0.28 0.29 0.23

GFSGL_prec_precacc_132.txt.gz
Total_Precipitation_Accumulation
0.90 0.92 1.07 1.37 1.47 1.36 1.64 1.44 1.00 0.78 0.68 0.66 0.61 0.51 0.44 0.42 0.35 0.38 0.19 0.13 0.16 0.20 0.22 0.26 0.27 0.30 0.34 0.39 0.45 0.49 0.57 0.76 0.86 0.59 0.52 0.44 0.33 0.20 0.14 0.16 0.15 0.12 0.12
1.00 0.83 0.75 0.85 0.99 0.82 0.90 1.11 1.46 0.76 0.61 0.60 0.55 0.62 0.55 0.46 0.37 0.28 0.21 0.15 0.13 0.11 0.09 0.11 0.16 0.19 0.23 0.30 0.33 0.36 0.41 0.44 0.50 0.37 0.17 0.16 0.14 0.11 0.08 0.10 0.10 0.12 0.12
1.45 1.13 0.66 0.53 0.77 0.67 0.65 0.73 1.12 1.26 0.72 0.62 0.65 0.59 0.49 0.48 0.47 0.40 0.32 0.32 0.30 0.27 0.23 0.21 0.26 0.31 0.34 0.37 0.45 0.47 0.43 0.38 0.40 0.43 0.22 0.13 0.13 0.12 0.12 0.12 0.13 0.14 0.15
1.84 1.67 1.08 0.74 0.83 0.79 0.71 0.90 0.88 1.12 1.03 0.76 0.73 0.68 0.61 0.48 0.45 0.43 0.38 0.36 0.35 0.30 0.28 0.32 0.37 0.38 0.36 0.35 0.32 0.30 0.30 0.30 0.29 0.32 0.33 0.27 0.18 0.16 0.19 0.16 0.13 0.12 0.14
1.08 1.25 1.03 0.84 0.97 0.97 0.99 1.05 0.86 1.01 0.88 0.74 0.81 0.89 0.83 0.79 0.66 0.59 0.53 0.49 0.51 0.56 0.54 0.47 0.40 0.36 0.30 0.20 0.21 0.21 0.25 0.27 0.38 0.55 0.55 0.47 0.44 0.37 0.30 0.29 0.40 0.41 0.42
0.67 0.64 0.61 0.69 0.71 0.81 0.77 0.71 0.65 0.68 0.80 0.82 0.72 0.81 0.91 0.79 0.98 0.94 0.75 0.59 0.53 0.50 0.50 0.43 0.36 0.36 0.31 0.30 0.33 0.32 0.28 0.39 0.54 0.68 0.68 0.56 0.40 0.41 0.43 0.53 0.70 0.80 0.76
0.27 0.22 0.29 0.39 0.43 0.51 0.39 0.43 0.57 0.69 1.03 1.07 1.27 0.95 1.09 1.27 1.29 1.19 1.33 1.25 1.05 0.84 0.72 0.67 0.62 0.57 0.56 0.49 0.43 0.44 0.51 0.64 0.60 0.39 0.31 0.27 0.35 0.31 0.52 0.66 0.63 0.66 0.56
0.14 0.22 0.27 0.24 0.24 0.26 0.37 0.50 0.55 0.59 0.72 0.83 1.28 1.43 1.51 1.57 1.44 1.20 1.16 1.14 1.18 1.14 1.05 0.94 0.79 0.68 0.67 0.70 0.69 0.84 0.76 0.56 0.34 0.25 0.18 0.15 0.26 0.41 0.59 0.85 0.83 0.89 0.68
0.22 0.26 0.39 0.37 0.32 0.28 0.42 0.51 0.39 0.53 0.71 0.67 0.63 0.61 0.58 0.51 0.52 0.46 0.47 0.47 0.54 0.58 0.60 0.63 0.73 0.78 0.83 0.84 0.88 0.86 0.48 0.27 0.21 0.20 0.24 0.24 0.24 0.24 0.30 0.63 0.85 0.83 0.77
0.33 0.31 0.31 0.49 0.41 0.51 0.47 0.51 0.76 0.61 0.56 0.45 0.36 0.26 0.28 0.34 0.38 0.35 0.33 0.32 0.33 0.36 0.39 0.35 0.39 0.36 0.44 0.68 0.50 0.32 0.28 0.20 0.30 0.24 0.13 0.08 0.08 0.15 0.27 0.33 0.72 1.40 1.00
0.58 0.60 0.65 0.78 0.67 0.62 0.68 0.59 0.51 0.37 0.27 0.20 0.13 0.07 0.04 0.05 0.09 0.15 0.17 0.20 0.20 0.30 0.32 0.34 0.39 0.52 0.66 0.52 0.40 0.33 0.34 0.38 0.34 0.22 0.16 0.15 0.13 0.12 0.15 0.25 0.58 1.48 1.78
0.67 0.59 0.57 0.49 0.44 0.35 0.27 0.18 0.10 0.09 0.06 0.04 0.03 0.03 0.02 0.02 0.03 0.04 0.05 0.07 0.11 0.13 0.13 0.13 0.21 0.39 0.25 0.22 0.24 0.28 0.30 0.27 0.19 0.15 0.16 0.14 0.13 0.18 0.25 0.33 0.43 0.61 0.85
0.16 0.13 0.13 0.08 0.05 0.03 0.00 0.00 0.00 0.00 0.00 0.00 0.00 0.00 0.00 0.00 0.00 0.02 0.05 0.13 0.18 0.17 0.16 0.29 0.29 0.16 0.16 0.19 0.22 0.26 0.26 0.23 0.28 0.36 0.35 0.33 0.32 0.40 0.39 0.40 0.47 0.48 0.52
0.02 0.02 0.00 0.00 0.01 0.00 0.00 0.00 0.00 0.00 0.00 0.00 0.00 0.00 0.00 0.00 0.00 0.00 0.03 0.05 0.05 0.11 0.20 0.21 0.09 0.09 0.11 0.11 0.13 0.15 0.15 0.18 0.30 0.43 0.44 0.31 0.35 0.44 0.43 0.55 0.76 0.66 0.87
0.09 0.13 0.16 0.14 0.12 0.06 0.03 0.03 0.02 0.01 0.02 0.01 0.01 0.02 0.03 0.03 0.04 0.08 0.09 0.07 0.12 0.20 0.11 0.02 0.02 0.03 0.04 0.06 0.09 0.14 0.19 0.24 0.33 0.34 0.49 0.48 0.46 0.52 0.56 0.68 0.92 1.06 1.06
0.01 0.01 0.04 0.11 0.23 0.32 0.35 0.38 0.40 0.38 0.37 0.30 0.26 0.22 0.20 0.26 0.26 0.30 0.29 0.36 0.40 0.32 0.26 0.14 0.13 0.13 0.12 0.15 0.21 0.28 0.33 0.37 0.40 0.53 0.55 0.54 0.63 0.69 0.79 0.91 1.09 1.12 0.97
0.00 0.00 0.00 0.01 0.00 0.01 0.03 0.07 0.13 0.20 0.27 0.32 0.39 0.45 0.47 0.48 0.51 0.50 0.62 0.66 0.54 0.51 0.43 0.33 0.35 0.37 0.39 0.44 0.47 0.53 0.53 0.44 0.61 0.79 0.80 0.79 0.85 0.91 0.97 1.03 1.01 0.89 0.69
0.00 0.02 0.00 0.00 0.00 0.00 0.01 0.01 0.02 0.01 0.02 0.04 0.08 0.14 0.19 0.25 0.30 0.38 0.50 0.51 0.39 0.40 0.36 0.32 0.34 0.40 0.45 0.55 0.60 0.66 0.64 0.60 0.71 0.77 0.89 0.87 0.93 1.16 1.14 1.06 0.92 0.80 0.68
0.01 0.01 0.01 0.01 0.01 0.02 0.01 0.01 0.02 0.02 0.01 0.00 0.00 0.03 0.05 0.08 0.13 0.19 0.24 0.24 0.18 0.23 0.31 0.32 0.31 0.36 0.42 0.49 0.52 0.56 0.63 0.82 0.99 1.09 0.95 0.97 1.00 1.30 1.13 0.88 0.72 0.50 0.37
0.02 0.05 0.03 0.01 0.03 0.04 0.04 0.04 0.05 0.06 0.06 0.04 0.03 0.03 0.08 0.14 0.14 0.04 0.04 0.07 0.11 0.14 0.16 0.23 0.25 0.30 0.39 0.50 0.55 0.59 0.71 0.74 0.82 0.83 0.87 0.95 1.06 1.15 1.02 0.70 0.46 0.44 0.29
0.01 0.03 0.07 0.02 0.03 0.05 0.06 0.07 0.08 0.09 0.10 0.10 0.08 0.16 0.23 0.18 0.10 0.09 0.10 0.13 0.16 0.17 0.19 0.23 0.26 0.32 0.39 0.48 0.59 0.68 0.84 0.85 0.90 1.10 1.06 1.02 1.04 0.90 0.49 0.42 0.37 0.37 0.40
0.00 0.00 0.01 0.01 0.05 0.07 0.10 0.11 0.11 0.11 0.09 0.10 0.09 0.17 0.25 0.15 0.11 0.14 0.16 0.16 0.17 0.20 0.21 0.25 0.27 0.31 0.53 0.81 0.98 1.02 0.90 0.92 0.98 1.19 1.09 0.92 0.80 0.56 0.47 0.45 0.39 0.40 0.38
0.00 0.00 0.01 0.02 0.04 0.11 0.16 0.13 0.13 0.13 0.10 0.09 0.09 0.10 0.11 0.12 0.12 0.12 0.12 0.12 0.16 0.19 0.19 0.24 0.29 0.29 0.29 0.55 0.93 1.40 1.46 1.14 1.18 1.26 1.14 0.94 0.79 0.71 0.73 0.68 0.50 0.45 0.36
0.00 0.00 0.01 0.01 0.03 0.06 0.07 0.08 0.09 0.15 0.16 0.13 0.10 0.08 0.07 0.05 0.06 0.06 0.06 0.07 0.09 0.09 0.10 0.16 0.26 0.34 0.39 0.50 0.77 1.00 1.30 1.36 1.41 1.37 1.52 1.44 0.91 0.67 0.63 0.59 0.43 0.40 0.39
0.01 0.01 0.01 0.02 0.03 0.04 0.06 0.09 0.09 0.09 0.12 0.14 0.14 0.15 0.13 0.13 0.09 0.05 0.04 0.05 0.07 0.07 0.05 0.08 0.20 0.32 0.42 0.61 0.78 0.87 0.98 0.97 1.11 0.98 0.81 0.69 0.65 0.55 0.54 0.54 0.35 0.35 0.32
0.04 0.04 0.05 0.07 0.08 0.08 0.10 0.11 0.11 0.12 0.14 0.15 0.16 0.17 0.15 0.16 0.13 0.10 0.10 0.10 0.09 0.06 0.05 0.06 0.13 0.27 0.40 0.58 0.71 0.87 0.90 0.84 0.72 0.48 0.45 0.54 0.47 0.42 0.43 0.45 0.33 0.33 0.27

GFSGL_prec_precacc_135.txt.gz
Total_Precipitation_Accumulation
0.90 0.92 1.07 1.39 1.50 1.40 1.67 1.46 1.02 0.80 0.69 0.66 0.61 0.51 0.45 0.44 0.36 0.41 0.20 0.14 0.16 0.21 0.23 0.28 0.29 0.32 0.37 0.43 0.49 0.55 0.63 0.82 0.90 0.61 0.53 0.44 0.33 0.20 0.14 0.16 0.15 0.12 0.12
1.01 0.85 0.76 0.86 1.01 0.86 0.93 1.13 1.50 0.78 0.62 0.61 0.56 0.62 0.55 0.47 0.40 0.37 0.29 0.18 0.15 0.12 0.13 0.15 0.18 0.21 0.25 0.33 0.38 0.42 0.49 0.52 0.54 0.39 0.18 0.16 0.14 0.11 0.08 0.10 0.10 0.12 0.12
1.46 1.16 0.69 0.55 0.79 0.67 0.66 0.75 1.17 1.31 0.75 0.64 0.66 0.61 0.50 0.54 0.51 0.46 0.41 0.41 0.38 0.32 0.29 0.27 0.32 0.39 0.40 0.47 0.56 0.59 0.57 0.51 0.47 0.48 0.25 0.15 0.14 0.12 0.12 0.12 0.13 0.14 0.15
1.88 1.73 1.14 0.79 0.90 0.87 0.73 0.91 0.92 1.21 1.15 0.82 0.78 0.82 0.89 0.76 0.70 0.69 0.61 0.53 0.50 0.45 0.42 0.46 0.51 0.51 0.46 0.45 0.45 0.40 0.40 0.39 0.37 0.38 0.37 0.29 0.19 0.16 0.20 0.16 0.13 0.12 0.14
1.33 1.58 1.40 1.10 1.18 1.44 1.32 1.17 0.93 1.19 1.19 1.06 0.95 1.00 1.01 1.16 1.19 1.16 1.05 0.95 0.89 0.81 0.73 0.60 0.49 0.45 0.38 0.29 0.29 0.26 0.30 0.32 0.44 0.61 0.61 0.52 0.49 0.39 0.31 0.31 0.42 0.42 0.42
1.32 1.30 1.15 1.41 1.42 1.58 1.54 1.32 0.83 1.08 1.09 1.29 1.07 0.99 1.01 0.92 1.19 1.29 1.13 0.91 0.80 0.77 0.65 0.49 0.41 0.44 0.40 0.40 0.42 0.39 0.33 0.46 0.61 0.74 0.72 0.59 0.43 0.43 0.46 0.57 0.72 0.81 0.76
0.79 0.77 0.82 0.97 0.98 1.12 0.98 1.04 1.02 1.05 1.25 1.24 1.46 1.13 1.20 1.36 1.44 1.38 1.56 1.49 1.28 1.05 0.90 0.81 0.72 0.64 0.62 0.55 0.50 0.53 0.61 0.78 0.78 0.57 0.47 0.41 0.45 0.40 0.62 0.73 0.66 0.66 0.56
0.22 0.32 0.44 0.43 0.46 0.48 0.56 0.65 0.67 0.74 0.84 0.89 1.35 1.59 1.59 1.69 1.58 1.35 1.31 1.26 1.29 1.25 1.16 1.05 0.90 0.78 0.77 0.83 0.81 0.98 0.93 0.77 0.62 0.57 0.53 0.49 0.57 0.66 0.75 0.90 0.86 0.90 0.68
0.23 0.26 0.39 0.38 0.33 0.29 0.43 0.52 0.41 0.55 0.74 0.67 0.63 0.62 0.61 0.56 0.59 0.51 0.52 0.51 0.58 0.64 0.70 0.75 0.87 0.90 0.96 1.00 1.05 1.11 0.83 0.73 0.74 0.73 0.71 0.64 0.58 0.51 0.48 0.76 0.95 0.90 0.80
0.33 0.31 0.31 0.49 0.41 0.51 0.47 0.51 0.76 0.61 0.56 0.45 0.36 0.26 0.28 0.34 0.38 0.35 0.33 0.32 0.34 0.38 0.42 0.40 0.46 0.46 0.57 0.83 0.67 0.56 0.62 0.57 0.64 0.58 0.48 0.44 0.42 0.45 0.50 0.52 0.87 1.49 1.05
0.58 0.60 0.65 0.78 0.67 0.62 0.68 0.59 0.51 0.37 0.27 0.20 0.13 0.07 0.04 0.05 0.09 0.15 0.17 0.20 0.21 0.31 0.33 0.36 0.42 0.59 0.75 0.63 0.52 0.45 0.50 0.59 0.58 0.50 0.48 0.48 0.46 0.45 0.44 0.48 0.74 1.57 1.84
0.67 0.59 0.57 0.49 0.44 0.35 0.27 0.18 0.10 0.09 0.06 0.04 0.03 0.03 0.02 0.02 0.03 0.04 0.05 0.07 0.11 0.13 0.13 0.13 0.22 0.41 0.28 0.28 0.30 0.34 0.37 0.33 0.25 0.23 0.25 0.25 0.28 0.35 0.43 0.49 0.56 0.69 0.90
0.16 0.13 0.13 0.08 0.05 0.03 0.00 0.00 0.00 0.00 0.00 0.00 0.00 0.00 0.00 0.00 0.00 0.02 0.05 0.13 0.18 0.17 0.16 0.29 0.29 0.16 0.16 0.19 0.25 0.30 0.31 0.27 0.33 0.42 0.41 0.38 0.39 0.48 0.49 0.48 0.55 0.56 0.56
0.02 0.02 0.00 0.00 0.01 0.00 0.00 0.00 0.00 0.00 0.00 0.00 0.00 0.00 0.00 0.00 0.00 0.00 0.03 0.05 0.05 0.11 0.20 0.21 0.09 0.09 0.11 0.12 0.15 0.17 0.17 0.21 0.34 0.48 0.49 0.38 0.45 0.52 0.49 0.61 0.82 0.71 0.90
0.09 0.13 0.16 0.14 0.12 0.06 0.03 0.03 0.02 0.01 0.03 0.01 0.01 0.02 0.03 0.04 0.04 0.08 0.09 0.07 0.12 0.20 0.11 0.02 0.02 0.03 0.04 0.06 0.10 0.16 0.22 0.28 0.36 0.37 0.54 0.55 0.55 0.62 0.65 0.78 1.02 1.14 1.11
0.01 0.01 0.04 0.11 0.23 0.32 0.35 0.38 0.40 0.38 0.37 0.30 0.26 0.22 0.20 0.26 0.26 0.30 0.29 0.36 0.40 0.32 0.26 0.14 0.13 0.13 0.12 0.15 0.21 0.28 0.34 0.40 0.41 0.56 0.58 0.58 0.70 0.77 0.87 1.01 1.20 1.21 1.04
0.00 0.00 0.00 0.01 0.00 0.01 0.03 0.07 0.13 0.20 0.27 0.32 0.39 0.45 0.47 0.48 0.51 0.50 0.62 0.66 0.54 0.52 0.43 0.33 0.35 0.37 0.39 0.44 0.47 0.54 0.54 0.45 0.62 0.81 0.82 0.80 0.88 0.97 1.05 1.11 1.09 0.98 0.78
0.00 0.02 0.00 0.00 0.00 0.00 0.01 0.01 0.02 0.01 0.02 0.04 0.08 0.14 0.19 0.25 0.30 0.38 0.50 0.51 0.39 0.40 0.37 0.33 0.35 0.40 0.46 0.55 0.60 0.67 0.65 0.61 0.73 0.78 0.90 0.89 0.96 1.21 1.22 1.13 0.97 0.87 0.76
0.01 0.01 0.01 0.01 0.01 0.02 0.01 0.01 0.02 0.02 0.01 0.00 0.00 0.03 0.05 0.08 0.13 0.19 0.24 0.24 0.18 0.23 0.31 0.32 0.31 0.36 0.43 0.50 0.52 0.56 0.63 0.84 1.00 1.11 0.97 0.99 1.02 1.35 1.18 0.93 0.78 0.59 0.50
0.02 0.05 0.03 0.01 0.03 0.04 0.04 0.04 0.05 0.06 0.06 0.04 0.03 0.03 0.08 0.14 0.14 0.04 0.04 0.07 0.11 0.14 0.16 0.23 0.25 0.30 0.40 0.50 0.56 0.60 0.71 0.75 0.83 0.84 0.89 0.97 1.08 1.19 1.06 0.75 0.52 0.52 0.39
0.01 0.03 0.07 0.02 0.03 0.05 0.06 0.07 0.08 0.09 0.10 0.10 0.08 0.16 0.23 0.18 0.10 0.09 0.10 0.13 0.16 0.17 0.19 0.23 0.26 0.32 0.39 0.48 0.60 0.69 0.85 0.85 0.91 1.12 1.08 1.03 1.07 0.93 0.53 0.48 0.44 0.46 0.49
0.00 0.00 0.01 0.01 0.05 0.07 0.10 0.11 0.11 0.11 0.09 0.10 0.09 0.17 0.25 0.15 0.11 0.14 0.16 0.16 0.17 0.20 0.21 0.25 0.27 0.31 0.53 0.81 0.99 1.02 0.90 0.92 0.99 1.20 1.11 0.94 0.82 0.59 0.52 0.52 0.48 0.50 0.48
0.00 0.00 0.01 0.02 0.04 0.11 0.16 0.13 0.13 0.13 0.10 0.09 0.09 0.10 0.11 0.12 0.12 0.12 0.12 0.12 0.16 0.19 0.19 0.24 0.29 0.29 0.29 0.55 0.93 1.40 1.47 1.14 1.19 1.28 1.16 0.95 0.81 0.75 0.78 0.75 0.58 0.55 0.47
0.00 0.00 0.01 0.01 0.03 0.06 0.07 0.08 0.09 0.15 0.16 0.13 0.10 0.08 0.07 0.05 0.06 0.06 0.06 0.07 0.09 0.09 0.10 0.16 0.26 0.34 0.39 0.51 0.77 1.00 1.30 1.36 1.41 1.38 1.53 1.45 0.93 0.69 0.66 0.64 0.50 0.49 0.49
0.01 0.01 0.01 0.02 0.03 0.04 0.06 0.09 0.09 0.09 0.12 0.14 0.14 0.15 0.13 0.13 0.09 0.05 0.04 0.05 0.07 0.07 0.05 0.08 0.20 0.33 0.42 0.61 0.79 0.87 0.98 0.98 1.11 0.98 0.81 0.70 0.67 0.57 0.57 0.58 0.41 0.43 0.41
0.04 0.04 0.05 0.07 0.08 0.08 0.10 0.11 0.11 0.12 0.14 0.15 0.16 0.17 0.15 0.16 0.13 0.10 0.10 0.10 0.09 0.06 0.05 0.06 0.13 0.27 0.40 0.58 0.71 0.87 0.90 0.85 0.73 0.49 0.45 0.54 0.47 0.43 0.45 0.47 0.36 0.38 0.33

GFSGL_prec_precacc_138.txt.gz
Total_Precipitation_Accumulation
0.90 0.92 1.07 1.39 1.50 1.40 1.68 1.47 1.02 0.81 0.72 0.70 0.64 0.52 0.47 0.46 0.37 0.42 0.21 0.15 0.17 0.21 0.24 0.28 0.29 0.33 0.37 0.43 0.50 0.56 0.64 0.86 0.97 0.69 0.58 0.48 0.35 0.21 0.14 0.16 0.15 0.12 0.12
1.01 0.85 0.76 0.86 1.01 0.88 0.96 1.15 1.51 0.79 0.63 0.64 0.58 0.64 0.56 0.48 0.42 0.37 0.30 0.19 0.15 0.12 0.13 0.15 0.18 0.22 0.26 0.35 0.42 0.46 0.54 0.60 0.67 0.47 0.24 0.21 0.16 0.12 0.09 0.10 0.10 0.12 0.12
1.46 1.16 0.69 0.55 0.79 0.69 0.72 0.78 1.21 1.32 0.75 0.64 0.66 0.61 0.51 0.54 0.52 0.47 0.41 0.43 0.39 0.33 0.29 0.28 0.33 0.42 0.44 0.52 0.64 0.68 0.69 0.66 0.62 0.59 0.31 0.18 0.16 0.14 0.14 0.14 0.15 0.15 0.15
1.88 1.73 1.16 0.81 0.92 0.89 0.76 0.94 0.93 1.21 1.15 0.82 0.78 0.82 0.89 0.76 0.70 0.70 0.61 0.54 0.51 0.47 0.44 0.47 0.53 0.55 0.53 0.53 0.56 0.52 0.56 0.51 0.47 0.47 0.45 0.34 0.24 0.20 0.26 0.22 0.17 0.16 0.18
1.34 1.58 1.42 1.14 1.19 1.51 1.42 1.24 0.96 1.21 1.23 1.10 0.99 1.04 1.04 1.20 1.23 1.20 1.09 1.00 0.95 0.88 0.82 0.74 0.63 0.60 0.51 0.44 0.47 0.42 0.44 0.44 0.53 0.69 0.67 0.57 0.53 0.45 0.38 0.38 0.52 0.52 0.49
1.35 1.31 1.16 1.45 1.45 1.68 1.81 1.53 0.89 1.19 1.16 1.43 1.19 1.11 1.13 1.06 1.38 1.45 1.35 1.20 1.22 1.24 1.09 0.88 0.76 0.76 0.66 0.66 0.69 0.62 0.55 0.64 0.75 0.85 0.80 0.66 0.46 0.46 0.50 0.65 0.83 0.94 0.86
0.91 0.88 1.09 1.32 1.30 1.47 1.42 1.51 1.55 1.65 1.67 1.84 1.83 1.43 1.55 1.61 1.62 1.52 1.71 1.67 1.47 1.32 1.20 1.11 1.01 0.92 0.88 0.81 0.75 0.77 0.89 1.11 1.10 0.87 0.71 0.57 0.56 0.50 0.74 0.99 0.96 0.91 0.74
0.56 0.84 1.05 1.00 1.07 1.22 1.18 1.49 1.36 1.25 1.27 1.21 1.64 1.84 1.85 1.90 1.76 1.45 1.39 1.36 1.44 1.43 1.38 1.30 1.15 1.03 1.02 1.07 1.04 1.20 1.13 1.00 0.88 0.86 0.87 0.81 0.85 0.91 1.01 1.20 1.14 1.17 0.92
0.27 0.35 0.53 0.56 0.51 0.51 0.70 0.78 0.64 0.70 0.82 0.74 0.71 0.68 0.68 0.62 0.67 0.58 0.58 0.56 0.63 0.69 0.76 0.82 0.93 0.96 1.03 1.06 1.10 1.16 0.90 0.82 0.88 0.88 0.87 0.84 0.83 0.78 0.76 1.05 1.23 1.16 1.03
0.33 0.31 0.31 0.49 0.41 0.52 0.48 0.54 0.78 0.61 0.56 0.45 0.36 0.26 0.28 0.34 0.40 0.36 0.33 0.32 0.34 0.38 0.42 0.40 0.46 0.46 0.58 0.84 0.68 0.57 0.63 0.59 0.66 0.62 0.54 0.52 0.53 0.58 0.69 0.75 1.12 1.78 1.34
0.58 0.60 0.65 0.78 0.67 0.62 0.68 0.59 0.51 0.37 0.27 0.20 0.13 0.07 0.04 0.05 0.09 0.15 0.17 0.20 0.21 0.31 0.33 0.36 0.42 0.60 0.76 0.63 0.53 0.46 0.52 0.61 0.60 0.51 0.49 0.49 0.49 0.51 0.53 0.62 0.93 1.80 2.08
0.67 0.59 0.57 0.49 0.44 0.35 0.27 0.18 0.10 0.09 0.06 0.04 0.03 0.03 0.02 0.02 0.03 0.04 0.05 0.07 0.11 0.13 0.13 0.13 0.22 0.41 0.28 0.28 0.31 0.36 0.39 0.36 0.27 0.25 0.27 0.27 0.30 0.38 0.47 0.55 0.63 0.79 1.03
0.16 0.13 0.13 0.08 0.05 0.03 0.00 0.00 0.00 0.00 0.00 0.00 0.00 0.00 0.00 0.00 0.00 0.02 0.05 0.13 0.18 0.17 0.16 0.29 0.29 0.16 0.16 0.19 0.25 0.30 0.33 0.28 0.33 0.44 0.43 0.42 0.44 0.56 0.57 0.55 0.61 0.62 0.65
0.02 0.02 0.00 0.00 0.01 0.00 0.00 0.00 0.00 0.00 0.00 0.00 0.00 0.00 0.00 0.00 0.00 0.00 0.03 0.06 0.06 0.11 0.20 0.21 0.09 0.09 0.11 0.12 0.15 0.17 0.17 0.22 0.36 0.49 0.51 0.41 0.49 0.58 0.57 0.69 0.91 0.81 1.03
0.09 0.13 0.16 0.14 0.12 0.06 0.03 0.03 0.02 0.01 0.03 0.01 0.01 0.02 0.03 0.04 0.04 0.08 0.09 0.07 0.12 0.21 0.11 0.02 0.02 0.03 0.04 0.06 0.10 0.16 0.22 0.29 0.38 0.39 0.57 0.59 0.59 0.67 0.71 0.86 1.12 1.26 1.24
0.01 0.01 0.04 0.11 0.23 0.32 0.35 0.38 0.40 0.38 0.37 0.30 0.26 0.22 0.20 0.26 0.26 0.30 0.29 0.36 0.40 0.32 0.26 0.14 0.13 0.13 0.13 0.15 0.22 0.28 0.34 0.40 0.42 0.57 0.60 0.60 0.73 0.81 0.93 1.09 1.29 1.30 1.12
0.00 0.00 0.00 0.01 0.00 0.01 0.03 0.07 0.13 0.20 0.27 0.32 0.39 0.45 0.47 0.48 0.51 0.50 0.62 0.66 0.54 0.52 0.43 0.33 0.35 0.38 0.40 0.44 0.48 0.54 0.55 0.46 0.62 0.81 0.84 0.82 0.90 1.00 1.10 1.16 1.14 1.05 0.86
0.00 0.02 0.00 0.00 0.00 0.00 0.01 0.01 0.02 0.01 0.02 0.04 0.08 0.14 0.19 0.25 0.30 0.38 0.50 0.51 0.39 0.40 0.37 0.33 0.35 0.40 0.46 0.55 0.61 0.67 0.65 0.61 0.73 0.78 0.91 0.90 0.98 1.25 1.25 1.16 1.00 0.91 0.81
0.01 0.01 0.01 0.01 0.01 0.02 0.01 0.01 0.02 0.02 0.01 0.00 0.00 0.03 0.05 0.08 0.13 0.19 0.24 0.24 0.18 0.23 0.31 0.32 0.31 0.36 0.43 0.50 0.52 0.56 0.64 0.84 1.01 1.12 0.97 1.00 1.04 1.37 1.21 0.94 0.80 0.61 0.55
0.02 0.05 0.03 0.01 0.03 0.04 0.04 0.04 0.05 0.06 0.06 0.04 0.03 0.03 0.08 0.14 0.14 0.04 0.04 0.07 0.11 0.14 0.16 0.23 0.25 0.30 0.40 0.50 0.56 0.60 0.72 0.75 0.83 0.85 0.90 0.99 1.09 1.21 1.09 0.77 0.54 0.55 0.42
0.01 0.03 0.07 0.02 0.03 0.05 0.06 0.07 0.08 0.09 0.10 0.10 0.08 0.16 0.23 0.18 0.10 0.09 0.10 0.13 0.16 0.17 0.19 0.23 0.26 0.33 0.39 0.48 0.60 0.69 0.85 0.86 0.92 1.13 1.09 1.04 1.08 0.95 0.54 0.50 0.46 0.49 0.53
0.00 0.00 0.01 0.01 0.05 0.07 0.10 0.11 0.11 0.11 0.09 0.10 0.09 0.17 0.25 0.15 0.11 0.14 0.16 0.16 0.17 0.20 0.21 0.25 0.27 0.31 0.53 0.81 0.99 1.03 0.91 0.93 0.99 1.21 1.11 0.94 0.83 0.60 0.53 0.54 0.50 0.53 0.53
0.00 0.00 0.01 0.02 0.04 0.11 0.16 0.13 0.13 0.13 0.10 0.09 0.09 0.10 0.11 0.12 0.12 0.12 0.12 0.12 0.16 0.19 0.19 0.24 0.29 0.30 0.29 0.55 0.94 1.41 1.48 1.15 1.19 1.28 1.17 0.96 0.81 0.75 0.79 0.76 0.60 0.58 0.51
0.00 0.00 0.01 0.01 0.03 0.06 0.07 0.08 0.09 0.15 0.16 0.13 0.10 0.08 0.07 0.05 0.06 0.06 0.06 0.07 0.09 0.09 0.10 0.16 0.26 0.34 0.39 0.51 0.77 1.00 1.31 1.36 1.41 1.39 1.54 1.46 0.93 0.70 0.67 0.65 0.51 0.51 0.52
0.01 0.01 0.01 0.02 0.03 0.04 0.06 0.09 0.09 0.09 0.12 0.14 0.14 0.15 0.13 0.13 0.09 0.05 0.04 0.05 0.07 0.07 0.05 0.08 0.20 0.33 0.42 0.61 0.79 0.87 0.99 0.98 1.12 1.00 0.82 0.71 0.68 0.58 0.57 0.58 0.42 0.45 0.44
0.04 0.04 0.05 0.07 0.08 0.08 0.10 0.11 0.11 0.12 0.14 0.15 0.16 0.17 0.15 0.16 0.13 0.10 0.10 0.10 0.09 0.06 0.05 0.06 0.13 0.27 0.40 0.58 0.71 0.87 0.90 0.86 0.74 0.50 0.47 0.55 0.48 0.44 0.46 0.48 0.37 0.40 0.36

GFSGL_prec_precacc_141.txt.gz
Total_Precipitation_Accumulation
0.90 0.92 1.07 1.39 1.50 1.40 1.68 1.47 1.02 0.81 0.72 0.70 0.65 0.55 0.50 0.52 0.42 0.46 0.26 0.18 0.18 0.21 0.24 0.28 0.29 0.33 0.39 0.45 0.51 0.57 0.65 0.86 0.98 0.70 0.60 0.49 0.38 0.22 0.16 0.17 0.16 0.12 0.13
1.01 0.85 0.76 0.86 1.01 0.88 0.96 1.15 1.51 0.79 0.63 0.64 0.59 0.68 0.62 0.56 0.51 0.43 0.32 0.21 0.17 0.13 0.13 0.15 0.18 0.22 0.27 0.35 0.42 0.47 0.55 0.61 0.68 0.51 0.29 0.25 0.19 0.14 0.11 0.12 0.12 0.13 0.13
1.47 1.16 0.69 0.55 0.79 0.69 0.72 0.78 1.22 1.33 0.75 0.64 0.66 0.61 0.53 0.61 0.62 0.55 0.46 0.45 0.41 0.34 0.30 0.29 0.34 0.42 0.45 0.53 0.65 0.69 0.70 0.68 0.64 0.64 0.38 0.21 0.18 0.16 0.17 0.17 0.16 0.16 0.16
1.88 1.74 1.18 0.84 0.94 0.90 0.76 0.95 0.95 1.23 1.17 0.83 0.78 0.82 0.89 0.76 0.72 0.75 0.67 0.56 0.52 0.47 0.44 0.48 0.54 0.56 0.54 0.55 0.58 0.54 0.59 0.57 0.54 0.53 0.51 0.39 0.26 0.22 0.30 0.29 0.23 0.21 0.24
1.34 1.58 1.43 1.20 1.29 1.60 1.46 1.25 0.99 1.27 1.26 1.14 1.01 1.05 1.05 1.20 1.23 1.20 1.11 1.01 0.96 0.89 0.83 0.75 0.66 0.68 0.64 0.58 0.60 0.54 0.58 0.59 0.71 0.84 0.80 0.69 0.61 0.50 0.44 0.45 0.63 0.65 0.63
1.37 1.39 1.21 1.46 1.46 1.73 1.88 1.56 0.92 1.30 1.30 1.55 1.25 1.16 1.15 1.08 1.40 1.47 1.37 1.22 1.25 1.28 1.15 0.98 0.88 0.97 0.85 0.85 0.85 0.81 0.78 0.92 1.06 1.16 1.06 0.86 0.61 0.54 0.58 0.78 1.00 1.17 1.09
0.99 1.08 1.23 1.37 1.31 1.47 1.42 1.53 1.57 1.71 1.77 1.94 1.88 1.46 1.58 1.70 1.74 1.60 1.81 1.73 1.54 1.40 1.27 1.15 1.06 1.02 1.03 0.95 0.92 0.96 1.08 1.32 1.34 1.12 0.97 0.77 0.74 0.63 0.89 1.15 1.12 1.07 0.91
0.61 0.92 1.14 1.11 1.16 1.26 1.25 1.72 1.57 1.44 1.65 1.71 1.90 2.08 2.09 2.24 2.06 1.63 1.58 1.50 1.52 1.47 1.41 1.35 1.23 1.11 1.10 1.15 1.11 1.27 1.21 1.07 0.95 0.94 0.99 0.94 1.00 1.08 1.21 1.38 1.27 1.31 1.08
0.28 0.36 0.58 0.66 0.64 0.63 0.91 1.22 1.03 1.01 1.19 1.17 0.98 0.94 0.94 0.82 0.85 0.72 0.67 0.59 0.66 0.72 0.78 0.83 0.94 0.98 1.06 1.09 1.11 1.17 0.90 0.83 0.88 0.88 0.88 0.84 0.84 0.80 0.79 1.09 1.27 1.19 1.08
0.33 0.31 0.31 0.50 0.48 0.67 0.75 0.82 1.01 0.86 0.78 0.62 0.47 0.33 0.35 0.38 0.43 0.39 0.35 0.32 0.34 0.38 0.42 0.40 0.46 0.46 0.58 0.84 0.68 0.57 0.63 0.59 0.66 0.62 0.54 0.52 0.53 0.59 0.70 0.75 1.12 1.78 1.35
0.58 0.60 0.65 0.78 0.67 0.62 0.70 0.60 0.52 0.38 0.27 0.21 0.13 0.07 0.05 0.05 0.09 0.16 0.17 0.20 0.21 0.31 0.33 0.36 0.42 0.60 0.76 0.63 0.53 0.46 0.52 0.61 0.60 0.51 0.49 0.49 0.50 0.51 0.54 0.63 0.94 1.82 2.10
0.67 0.59 0.57 0.49 0.44 0.35 0.27 0.18 0.10 0.09 0.06 0.04 0.03 0.03 0.02 0.02 0.03 0.04 0.05 0.07 0.11 0.13 0.13 0.13 0.22 0.41 0.28 0.28 0.31 0.36 0.39 0.36 0.27 0.25 0.27 0.28 0.32 0.41 0.50 0.59 0.67 0.84 1.08
0.16 0.13 0.13 0.08 0.05 0.03 0.00 0.00 0.00 0.00 0.00 0.00 0.00 0.00 0.00 0.00 0.00 0.02 0.05 0.13 0.18 0.17 0.16 0.29 0.29 0.16 0.16 0.19 0.25 0.30 0.33 0.28 0.33 0.44 0.44 0.43 0.47 0.59 0.62 0.61 0.66 0.69 0.72
0.02 0.02 0.00 0.00 0.01 0.00 0.00 0.00 0.00 0.00 0.00 0.00 0.00 0.00 0.00 0.00 0.00 0.00 0.03 0.06 0.06 0.11 0.20 0.21 0.09 0.09 0.11 0.12 0.15 0.17 0.17 0.22 0.36 0.49 0.51 0.42 0.50 0.60 0.59 0.72 0.95 0.87 1.12
0.09 0.13 0.16 0.14 0.12 0.06 0.03 0.03 0.02 0.01 0.03 0.01 0.01 0.02 0.03 0.04 0.04 0.08 0.09 0.07 0.12 0.21 0.11 0.02 0.02 0.03 0.04 0.06 0.10 0.16 0.23 0.29 0.38 0.39 0.58 0.60 0.59 0.68 0.73 0.89 1.18 1.33 1.31
0.01 0.01 0.04 0.11 0.23 0.32 0.35 0.38 0.40 0.38 0.37 0.30 0.26 0.22 0.20 0.26 0.26 0.30 0.29 0.36 0.40 0.32 0.26 0.14 0.13 0.13 0.13 0.15 0.22 0.29 0.34 0.41 0.42 0.57 0.61 0.60 0.73 0.82 0.94 1.10 1.34 1.37 1.19
0.00 0.00 0.00 0.01 0.00 0.01 0.03 0.07 0.13 0.20 0.27 0.32 0.39 0.45 0.47 0.48 0.51 0.50 0.62 0.66 0.54 0.52 0.43 0.33 0.35 0.38 0.40 0.44 0.48 0.54 0.55 0.46 0.62 0.82 0.84 0.83 0.91 1.01 1.12 1.17 1.15 1.09 0.91
0.00 0.02 0.00 0.00 0.00 0.00 0.01 0.01 0.02 0.01 0.02 0.04 0.08 0.14 0.19 0.25 0.30 0.38 0.50 0.51 0.39 0.40 0.37 0.33 0.35 0.40 0.46 0.55 0.61 0.68 0.66 0.61 0.73 0.79 0.92 0.90 0.99 1.26 1.26 1.18 1.01 0.93 0.85
0.01 0.01 0.01 0.01 0.01 0.02 0.01 0.01 0.02 0.02 0.01 0.00 0.00 0.03 0.05 0.08 0.13 0.19 0.24 0.24 0.18 0.23 0.31 0.32 0.31 0.36 0.43 0.50 0.52 0.56 0.64 0.85 1.02 1.12 0.98 1.00 1.04 1.38 1.23 0.96 0.82 0.64 0.59
0.02 0.05 0.03 0.01 0.03 0.04 0.04 0.04 0.05 0.06 0.06 0.04 0.03 0.03 0.08 0.14 0.14 0.04 0.04 0.07 0.11 0.14 0.16 0.23 0.25 0.30 0.40 0.50 0.56 0.60 0.72 0.76 0.84 0.85 0.90 0.99 1.10 1.22 1.10 0.78 0.56 0.57 0.44
0.01 0.03 0.07 0.02 0.03 0.05 0.06 0.07 0.08 0.09 0.10 0.10 0.08 0.16 0.23 0.18 0.10 0.09 0.10 0.13 0.16 0.17 0.19 0.23 0.26 0.33 0.39 0.48 0.60 0.70 0.85 0.86 0.92 1.13 1.09 1.05 1.08 0.95 0.55 0.51 0.47 0.50 0.55
0.00 0.00 0.01 0.01 0.05 0.07 0.10 0.11 0.11 0.11 0.09 0.10 0.09 0.17 0.25 0.15 0.11 0.14 0.16 0.16 0.17 0.20 0.21 0.25 0.27 0.31 0.53 0.82 1.00 1.04 0.91 0.93 1.00 1.21 1.12 0.94 0.83 0.60 0.53 0.54 0.50 0.54 0.54
0.00 0.00 0.01 0.02 0.04 0.11 0.16 0.13 0.13 0.13 0.10 0.09 0.09 0.10 0.11 0.12 0.12 0.12 0.12 0.12 0.16 0.19 0.19 0.24 0.29 0.30 0.29 0.55 0.94 1.42 1.48 1.15 1.19 1.29 1.17 0.96 0.82 0.75 0.80 0.77 0.61 0.58 0.52
0.00 0.00 0.01 0.01 0.03 0.06 0.07 0.08 0.09 0.15 0.16 0.13 0.10 0.08 0.07 0.05 0.06 0.06 0.06 0.07 0.09 0.09 0.10 0.16 0.26 0.34 0.39 0.51 0.77 1.00 1.31 1.36 1.42 1.39 1.56 1.49 0.95 0.70 0.67 0.65 0.52 0.52 0.53
0.01 0.01 0.01 0.02 0.03 0.04 0.06 0.09 0.09 0.09 0.12 0.14 0.14 0.15 0.13 0.13 0.09 0.05 0.04 0.05 0.07 0.07 0.05 0.08 0.20 0.33 0.42 0.61 0.79 0.87 0.99 0.98 1.13 1.01 0.83 0.73 0.69 0.58 0.58 0.60 0.43 0.46 0.45
0.04 0.04 0.05 0.07 0.08 0.08 0.10 0.11 0.11 0.12 0.14 0.15 0.16 0.17 0.15 0.16 0.13 0.10 0.10 0.10 0.09 0.06 0.05 0.06 0.13 0.27 0.40 0.58 0.71 0.87 0.91 0.86 0.74 0.50 0.48 0.57 0.48 0.45 0.47 0.49 0.38 0.41 0.37